<?xml version="1.0" encoding="UTF-8" standalone="no" ?>
<gpx xmlns="http://www.topografix.com/GPX/1/1" xmlns:xsi="http://www.w3.org/2001/XMLSchema-instance" xsi:schemaLocation="http://www.topografix.com/GPX/1/1 http://www.topografix.com/GPX/1/1/gpx.xsd" version="1.1" creator="VisuGPX - https://www.visugpx.com">
  <metadata>
    <name>VTT du lundi 27 Aout 2018 (de Coulevon)</name>
    <desc><![CDATA[Je suis parti tout seul, à petite vitesse (voire au ralenti dans les côtes) pour mon plus long parcours depuis 4 mois. Et pour la première fois, j'ai fait quelques mètres en danseuse.
PS : je n'ai pas utilisé mon VAE]]></desc>
  </metadata>
  <wpt lat="47.64435" lon="6.18342">
    <ele>243.98</ele>
    <name><![CDATA[0000014]]></name>
    <type><![CDATA[Point de départ]]></type>
  </wpt>
  <wpt lat="47.64439" lon="6.18322">
    <ele>233.88</ele>
    <name><![CDATA[0000015]]></name>
    <desc><![CDATA[<p><br /><h3>Nom: Segment: 1</h3><br />Heure de départ: 08/27/2018 16:25<br/>Heure d'arrivée: 08/27/2018 18:21<br/>Distance: 17,8km (01:55)<br/>Temps déplacement: 01:43<br/>Vitesse moyenne: 9,22 km/h<br/>Vitesse moyenne mouv.: 10,25 km/h<br/>Vitesse Max.: 33,6 km/h<br/>Altitude minimale: 227 m<br/>Altitude maximale: 342 m<br/>Vitesse de montée: 166,1 m/h<br/>Vitesse de descente: -202,4 m/h<br/>Gain d'altitude: 152 m<br/>Perte d'altitude: -162 m<br/>Temps de montée: 00:55<br/>Temps de descente: 00:48<br/></p>]]></desc>
    <type><![CDATA[Point d'arrivée]]></type>
  </wpt>
  <trk>
    <name><![CDATA[2018-08-27 16:26]]></name>
    <desc><![CDATA[<p>Heure de départ: 08/27/2018 16:25<br/>Heure d'arrivée: 08/27/2018 18:21<br/>Distance: 17,8 km (01:55)<br/>Temps déplacement: 01:43<br/>Vitesse moyenne: 9,22 km/h<br/>Vitesse moyenne mouv.: 10,27 km/h<br/>Vitesse Max.: 33,6 km/h<br/>Altitude minimale: 227 m<br/>Altitude maximale: 342 m<br/>Vitesse de montée: 169,7 m/h<br/>Vitesse de descente: -185,1 m/h<br/>Gain d'altitude: 151 m<br/>Perte d'altitude: -154 m<br/>Temps de montée: 00:53<br/>Temps de descente: 00:50<br/></p><hr align="center" width="480" style="height: 2px; width: 517px"/>]]></desc>
    <trkseg>
      <trkpt lat="47.64435" lon="6.18342">
        <ele>243.98</ele>
        <time>2018-08-27T14:25:57Z</time>
      </trkpt>
      <trkpt lat="47.64439" lon="6.18333">
        <ele>246.83</ele>
        <time>2018-08-27T14:25:58Z</time>
      </trkpt>
      <trkpt lat="47.64439" lon="6.18324">
        <ele>238.53</ele>
        <time>2018-08-27T14:26:00Z</time>
      </trkpt>
      <trkpt lat="47.6444" lon="6.18316">
        <ele>231.68</ele>
        <time>2018-08-27T14:26:14Z</time>
      </trkpt>
      <trkpt lat="47.6444" lon="6.18308">
        <ele>232.63</ele>
        <time>2018-08-27T14:26:18Z</time>
      </trkpt>
      <trkpt lat="47.64442" lon="6.18302">
        <ele>233.02</ele>
        <time>2018-08-27T14:26:21Z</time>
      </trkpt>
      <trkpt lat="47.64447" lon="6.18296">
        <ele>233.55</ele>
        <time>2018-08-27T14:26:24Z</time>
      </trkpt>
      <trkpt lat="47.64451" lon="6.18292">
        <ele>233.8</ele>
        <time>2018-08-27T14:26:26Z</time>
      </trkpt>
      <trkpt lat="47.64455" lon="6.18287">
        <ele>234.01</ele>
        <time>2018-08-27T14:26:28Z</time>
      </trkpt>
      <trkpt lat="47.64458" lon="6.18282">
        <ele>233.98</ele>
        <time>2018-08-27T14:26:30Z</time>
      </trkpt>
      <trkpt lat="47.64461" lon="6.18276">
        <ele>233.96</ele>
        <time>2018-08-27T14:26:32Z</time>
      </trkpt>
      <trkpt lat="47.64464" lon="6.18271">
        <ele>233.94</ele>
        <time>2018-08-27T14:26:34Z</time>
      </trkpt>
      <trkpt lat="47.64469" lon="6.18266">
        <ele>233.92</ele>
        <time>2018-08-27T14:26:36Z</time>
      </trkpt>
      <trkpt lat="47.64473" lon="6.18259">
        <ele>233.77</ele>
        <time>2018-08-27T14:26:38Z</time>
      </trkpt>
      <trkpt lat="47.64478" lon="6.18251">
        <ele>233.69</ele>
        <time>2018-08-27T14:26:40Z</time>
      </trkpt>
      <trkpt lat="47.64483" lon="6.18242">
        <ele>233.65</ele>
        <time>2018-08-27T14:26:42Z</time>
      </trkpt>
      <trkpt lat="47.64486" lon="6.18234">
        <ele>233.61</ele>
        <time>2018-08-27T14:26:44Z</time>
      </trkpt>
      <trkpt lat="47.64489" lon="6.18227">
        <ele>233.56</ele>
        <time>2018-08-27T14:26:46Z</time>
      </trkpt>
      <trkpt lat="47.64492" lon="6.18219">
        <ele>233.5</ele>
        <time>2018-08-27T14:26:48Z</time>
      </trkpt>
      <trkpt lat="47.64495" lon="6.18211">
        <ele>233.44</ele>
        <time>2018-08-27T14:26:50Z</time>
      </trkpt>
      <trkpt lat="47.64497" lon="6.18201">
        <ele>233.19</ele>
        <time>2018-08-27T14:26:52Z</time>
      </trkpt>
      <trkpt lat="47.645" lon="6.1819">
        <ele>232.72</ele>
        <time>2018-08-27T14:26:54Z</time>
      </trkpt>
      <trkpt lat="47.64499" lon="6.18178">
        <ele>232.47</ele>
        <time>2018-08-27T14:26:56Z</time>
      </trkpt>
      <trkpt lat="47.64497" lon="6.18166">
        <ele>232.22</ele>
        <time>2018-08-27T14:26:58Z</time>
      </trkpt>
      <trkpt lat="47.64495" lon="6.18155">
        <ele>231.99</ele>
        <time>2018-08-27T14:27:00Z</time>
      </trkpt>
      <trkpt lat="47.64495" lon="6.18144">
        <ele>231.93</ele>
        <time>2018-08-27T14:27:02Z</time>
      </trkpt>
      <trkpt lat="47.64493" lon="6.18129">
        <ele>231.92</ele>
        <time>2018-08-27T14:27:03Z</time>
      </trkpt>
      <trkpt lat="47.64494" lon="6.18122">
        <ele>231.9</ele>
        <time>2018-08-27T14:27:05Z</time>
      </trkpt>
      <trkpt lat="47.64496" lon="6.18115">
        <ele>231.88</ele>
        <time>2018-08-27T14:27:07Z</time>
      </trkpt>
      <trkpt lat="47.64498" lon="6.18108">
        <ele>231.86</ele>
        <time>2018-08-27T14:27:09Z</time>
      </trkpt>
      <trkpt lat="47.645" lon="6.18099">
        <ele>231.84</ele>
        <time>2018-08-27T14:27:11Z</time>
      </trkpt>
      <trkpt lat="47.64502" lon="6.18091">
        <ele>231.82</ele>
        <time>2018-08-27T14:27:13Z</time>
      </trkpt>
      <trkpt lat="47.64505" lon="6.18083">
        <ele>231.79</ele>
        <time>2018-08-27T14:27:15Z</time>
      </trkpt>
      <trkpt lat="47.64507" lon="6.18075">
        <ele>231.76</ele>
        <time>2018-08-27T14:27:17Z</time>
      </trkpt>
      <trkpt lat="47.6451" lon="6.18068">
        <ele>231.73</ele>
        <time>2018-08-27T14:27:19Z</time>
      </trkpt>
      <trkpt lat="47.64512" lon="6.18061">
        <ele>231.69</ele>
        <time>2018-08-27T14:27:21Z</time>
      </trkpt>
      <trkpt lat="47.64516" lon="6.18055">
        <ele>231.66</ele>
        <time>2018-08-27T14:27:23Z</time>
      </trkpt>
      <trkpt lat="47.64519" lon="6.18048">
        <ele>231.62</ele>
        <time>2018-08-27T14:27:25Z</time>
      </trkpt>
      <trkpt lat="47.64523" lon="6.18043">
        <ele>231.6</ele>
        <time>2018-08-27T14:27:27Z</time>
      </trkpt>
      <trkpt lat="47.64528" lon="6.18038">
        <ele>231.57</ele>
        <time>2018-08-27T14:27:29Z</time>
      </trkpt>
      <trkpt lat="47.64531" lon="6.18033">
        <ele>231.55</ele>
        <time>2018-08-27T14:27:31Z</time>
      </trkpt>
      <trkpt lat="47.64533" lon="6.18027">
        <ele>231.54</ele>
        <time>2018-08-27T14:27:33Z</time>
      </trkpt>
      <trkpt lat="47.64536" lon="6.18022">
        <ele>231.52</ele>
        <time>2018-08-27T14:27:35Z</time>
      </trkpt>
      <trkpt lat="47.64539" lon="6.18016">
        <ele>231.51</ele>
        <time>2018-08-27T14:27:37Z</time>
      </trkpt>
      <trkpt lat="47.64542" lon="6.1801">
        <ele>231.5</ele>
        <time>2018-08-27T14:27:39Z</time>
      </trkpt>
      <trkpt lat="47.64544" lon="6.18003">
        <ele>231.49</ele>
        <time>2018-08-27T14:27:41Z</time>
      </trkpt>
      <trkpt lat="47.64547" lon="6.17995">
        <ele>231.48</ele>
        <time>2018-08-27T14:27:43Z</time>
      </trkpt>
      <trkpt lat="47.6455" lon="6.17986">
        <ele>231.39</ele>
        <time>2018-08-27T14:27:45Z</time>
      </trkpt>
      <trkpt lat="47.64552" lon="6.17974">
        <ele>231.29</ele>
        <time>2018-08-27T14:27:47Z</time>
      </trkpt>
      <trkpt lat="47.64554" lon="6.17968">
        <ele>231.26</ele>
        <time>2018-08-27T14:27:48Z</time>
      </trkpt>
      <trkpt lat="47.64557" lon="6.17946">
        <ele>231.23</ele>
        <time>2018-08-27T14:27:49Z</time>
      </trkpt>
      <trkpt lat="47.64559" lon="6.17938">
        <ele>231.2</ele>
        <time>2018-08-27T14:27:50Z</time>
      </trkpt>
      <trkpt lat="47.64563" lon="6.17931">
        <ele>231.16</ele>
        <time>2018-08-27T14:27:51Z</time>
      </trkpt>
      <trkpt lat="47.64567" lon="6.17924">
        <ele>231.13</ele>
        <time>2018-08-27T14:27:52Z</time>
      </trkpt>
      <trkpt lat="47.64572" lon="6.17918">
        <ele>231.09</ele>
        <time>2018-08-27T14:27:53Z</time>
      </trkpt>
      <trkpt lat="47.64577" lon="6.17912">
        <ele>231.06</ele>
        <time>2018-08-27T14:27:54Z</time>
      </trkpt>
      <trkpt lat="47.64583" lon="6.17906">
        <ele>231.03</ele>
        <time>2018-08-27T14:27:55Z</time>
      </trkpt>
      <trkpt lat="47.64588" lon="6.179">
        <ele>231</ele>
        <time>2018-08-27T14:27:56Z</time>
      </trkpt>
      <trkpt lat="47.64594" lon="6.17894">
        <ele>230.97</ele>
        <time>2018-08-27T14:27:57Z</time>
      </trkpt>
      <trkpt lat="47.646" lon="6.1789">
        <ele>230.93</ele>
        <time>2018-08-27T14:27:58Z</time>
      </trkpt>
      <trkpt lat="47.64606" lon="6.17887">
        <ele>230.9</ele>
        <time>2018-08-27T14:27:59Z</time>
      </trkpt>
      <trkpt lat="47.64612" lon="6.17886">
        <ele>230.86</ele>
        <time>2018-08-27T14:28:00Z</time>
      </trkpt>
      <trkpt lat="47.64618" lon="6.17886">
        <ele>230.85</ele>
        <time>2018-08-27T14:28:01Z</time>
      </trkpt>
      <trkpt lat="47.64624" lon="6.17888">
        <ele>230.83</ele>
        <time>2018-08-27T14:28:02Z</time>
      </trkpt>
      <trkpt lat="47.6463" lon="6.1789">
        <ele>230.79</ele>
        <time>2018-08-27T14:28:03Z</time>
      </trkpt>
      <trkpt lat="47.64636" lon="6.17893">
        <ele>230.73</ele>
        <time>2018-08-27T14:28:04Z</time>
      </trkpt>
      <trkpt lat="47.64642" lon="6.17896">
        <ele>230.66</ele>
        <time>2018-08-27T14:28:05Z</time>
      </trkpt>
      <trkpt lat="47.64647" lon="6.17899">
        <ele>230.58</ele>
        <time>2018-08-27T14:28:06Z</time>
      </trkpt>
      <trkpt lat="47.64652" lon="6.17901">
        <ele>230.51</ele>
        <time>2018-08-27T14:28:07Z</time>
      </trkpt>
      <trkpt lat="47.64657" lon="6.17904">
        <ele>230.44</ele>
        <time>2018-08-27T14:28:08Z</time>
      </trkpt>
      <trkpt lat="47.64662" lon="6.17907">
        <ele>230.38</ele>
        <time>2018-08-27T14:28:09Z</time>
      </trkpt>
      <trkpt lat="47.64667" lon="6.1791">
        <ele>230.4</ele>
        <time>2018-08-27T14:28:10Z</time>
      </trkpt>
      <trkpt lat="47.64671" lon="6.17913">
        <ele>230.45</ele>
        <time>2018-08-27T14:28:11Z</time>
      </trkpt>
      <trkpt lat="47.64676" lon="6.17917">
        <ele>230.49</ele>
        <time>2018-08-27T14:28:12Z</time>
      </trkpt>
      <trkpt lat="47.6468" lon="6.17921">
        <ele>230.5</ele>
        <time>2018-08-27T14:28:13Z</time>
      </trkpt>
      <trkpt lat="47.64684" lon="6.17925">
        <ele>230.54</ele>
        <time>2018-08-27T14:28:14Z</time>
      </trkpt>
      <trkpt lat="47.64688" lon="6.17931">
        <ele>230.56</ele>
        <time>2018-08-27T14:28:15Z</time>
      </trkpt>
      <trkpt lat="47.64692" lon="6.17936">
        <ele>230.56</ele>
        <time>2018-08-27T14:28:16Z</time>
      </trkpt>
      <trkpt lat="47.64696" lon="6.17941">
        <ele>230.59</ele>
        <time>2018-08-27T14:28:17Z</time>
      </trkpt>
      <trkpt lat="47.647" lon="6.17946">
        <ele>230.63</ele>
        <time>2018-08-27T14:28:18Z</time>
      </trkpt>
      <trkpt lat="47.64703" lon="6.17952">
        <ele>230.67</ele>
        <time>2018-08-27T14:28:19Z</time>
      </trkpt>
      <trkpt lat="47.64707" lon="6.17957">
        <ele>230.7</ele>
        <time>2018-08-27T14:28:20Z</time>
      </trkpt>
      <trkpt lat="47.6471" lon="6.17962">
        <ele>230.72</ele>
        <time>2018-08-27T14:28:21Z</time>
      </trkpt>
      <trkpt lat="47.64713" lon="6.17967">
        <ele>230.73</ele>
        <time>2018-08-27T14:28:22Z</time>
      </trkpt>
      <trkpt lat="47.64717" lon="6.17972">
        <ele>230.73</ele>
        <time>2018-08-27T14:28:23Z</time>
      </trkpt>
      <trkpt lat="47.6472" lon="6.17977">
        <ele>230.71</ele>
        <time>2018-08-27T14:28:24Z</time>
      </trkpt>
      <trkpt lat="47.64723" lon="6.17982">
        <ele>230.67</ele>
        <time>2018-08-27T14:28:25Z</time>
      </trkpt>
      <trkpt lat="47.64726" lon="6.17988">
        <ele>230.65</ele>
        <time>2018-08-27T14:28:26Z</time>
      </trkpt>
      <trkpt lat="47.64729" lon="6.17993">
        <ele>230.59</ele>
        <time>2018-08-27T14:28:27Z</time>
      </trkpt>
      <trkpt lat="47.64735" lon="6.18002">
        <ele>230.48</ele>
        <time>2018-08-27T14:28:29Z</time>
      </trkpt>
      <trkpt lat="47.64738" lon="6.18007">
        <ele>230.44</ele>
        <time>2018-08-27T14:28:30Z</time>
      </trkpt>
      <trkpt lat="47.64744" lon="6.18016">
        <ele>230.37</ele>
        <time>2018-08-27T14:28:32Z</time>
      </trkpt>
      <trkpt lat="47.64747" lon="6.18021">
        <ele>230.32</ele>
        <time>2018-08-27T14:28:33Z</time>
      </trkpt>
      <trkpt lat="47.64753" lon="6.18031">
        <ele>230.27</ele>
        <time>2018-08-27T14:28:35Z</time>
      </trkpt>
      <trkpt lat="47.64759" lon="6.18039">
        <ele>230.23</ele>
        <time>2018-08-27T14:28:37Z</time>
      </trkpt>
      <trkpt lat="47.64763" lon="6.18043">
        <ele>230.2</ele>
        <time>2018-08-27T14:28:38Z</time>
      </trkpt>
      <trkpt lat="47.64766" lon="6.18047">
        <ele>230.17</ele>
        <time>2018-08-27T14:28:39Z</time>
      </trkpt>
      <trkpt lat="47.64773" lon="6.18055">
        <ele>230.16</ele>
        <time>2018-08-27T14:28:41Z</time>
      </trkpt>
      <trkpt lat="47.64781" lon="6.18062">
        <ele>230.15</ele>
        <time>2018-08-27T14:28:43Z</time>
      </trkpt>
      <trkpt lat="47.64788" lon="6.18066">
        <ele>230.15</ele>
        <time>2018-08-27T14:28:45Z</time>
      </trkpt>
      <trkpt lat="47.64797" lon="6.18069">
        <ele>230.17</ele>
        <time>2018-08-27T14:28:47Z</time>
      </trkpt>
      <trkpt lat="47.64804" lon="6.18071">
        <ele>230.18</ele>
        <time>2018-08-27T14:28:49Z</time>
      </trkpt>
      <trkpt lat="47.64811" lon="6.18073">
        <ele>230.14</ele>
        <time>2018-08-27T14:28:51Z</time>
      </trkpt>
      <trkpt lat="47.64818" lon="6.18075">
        <ele>230.13</ele>
        <time>2018-08-27T14:28:53Z</time>
      </trkpt>
      <trkpt lat="47.64824" lon="6.18076">
        <ele>230.12</ele>
        <time>2018-08-27T14:28:55Z</time>
      </trkpt>
      <trkpt lat="47.6483" lon="6.18077">
        <ele>230.1</ele>
        <time>2018-08-27T14:28:57Z</time>
      </trkpt>
      <trkpt lat="47.64837" lon="6.18078">
        <ele>230.08</ele>
        <time>2018-08-27T14:28:59Z</time>
      </trkpt>
      <trkpt lat="47.64843" lon="6.18079">
        <ele>230.05</ele>
        <time>2018-08-27T14:29:01Z</time>
      </trkpt>
      <trkpt lat="47.64849" lon="6.18081">
        <ele>230.02</ele>
        <time>2018-08-27T14:29:03Z</time>
      </trkpt>
      <trkpt lat="47.64856" lon="6.18082">
        <ele>229.97</ele>
        <time>2018-08-27T14:29:05Z</time>
      </trkpt>
      <trkpt lat="47.64864" lon="6.18084">
        <ele>229.61</ele>
        <time>2018-08-27T14:29:07Z</time>
      </trkpt>
      <trkpt lat="47.64872" lon="6.18086">
        <ele>229.27</ele>
        <time>2018-08-27T14:29:09Z</time>
      </trkpt>
      <trkpt lat="47.6488" lon="6.18087">
        <ele>228.99</ele>
        <time>2018-08-27T14:29:11Z</time>
      </trkpt>
      <trkpt lat="47.64888" lon="6.18089">
        <ele>228.78</ele>
        <time>2018-08-27T14:29:13Z</time>
      </trkpt>
      <trkpt lat="47.64896" lon="6.18091">
        <ele>228.62</ele>
        <time>2018-08-27T14:29:15Z</time>
      </trkpt>
      <trkpt lat="47.64904" lon="6.18093">
        <ele>228.49</ele>
        <time>2018-08-27T14:29:17Z</time>
      </trkpt>
      <trkpt lat="47.64911" lon="6.18094">
        <ele>228.46</ele>
        <time>2018-08-27T14:29:19Z</time>
      </trkpt>
      <trkpt lat="47.64918" lon="6.18096">
        <ele>228.41</ele>
        <time>2018-08-27T14:29:21Z</time>
      </trkpt>
      <trkpt lat="47.64926" lon="6.18098">
        <ele>228.38</ele>
        <time>2018-08-27T14:29:23Z</time>
      </trkpt>
      <trkpt lat="47.64933" lon="6.18099">
        <ele>228.37</ele>
        <time>2018-08-27T14:29:25Z</time>
      </trkpt>
      <trkpt lat="47.6494" lon="6.18101">
        <ele>228.36</ele>
        <time>2018-08-27T14:29:27Z</time>
      </trkpt>
      <trkpt lat="47.64946" lon="6.18102">
        <ele>228.34</ele>
        <time>2018-08-27T14:29:29Z</time>
      </trkpt>
      <trkpt lat="47.64951" lon="6.18103">
        <ele>228.33</ele>
        <time>2018-08-27T14:29:31Z</time>
      </trkpt>
      <trkpt lat="47.64956" lon="6.18103">
        <ele>228.31</ele>
        <time>2018-08-27T14:29:33Z</time>
      </trkpt>
      <trkpt lat="47.64962" lon="6.18102">
        <ele>228.25</ele>
        <time>2018-08-27T14:29:35Z</time>
      </trkpt>
      <trkpt lat="47.64976" lon="6.181">
        <ele>228.12</ele>
        <time>2018-08-27T14:29:37Z</time>
      </trkpt>
      <trkpt lat="47.64984" lon="6.18098">
        <ele>228.02</ele>
        <time>2018-08-27T14:29:39Z</time>
      </trkpt>
      <trkpt lat="47.64993" lon="6.18098">
        <ele>227.95</ele>
        <time>2018-08-27T14:29:41Z</time>
      </trkpt>
      <trkpt lat="47.65001" lon="6.18098">
        <ele>227.89</ele>
        <time>2018-08-27T14:29:43Z</time>
      </trkpt>
      <trkpt lat="47.65009" lon="6.18098">
        <ele>227.83</ele>
        <time>2018-08-27T14:29:45Z</time>
      </trkpt>
      <trkpt lat="47.65017" lon="6.18097">
        <ele>227.82</ele>
        <time>2018-08-27T14:29:47Z</time>
      </trkpt>
      <trkpt lat="47.65024" lon="6.18098">
        <ele>227.81</ele>
        <time>2018-08-27T14:29:49Z</time>
      </trkpt>
      <trkpt lat="47.65031" lon="6.18098">
        <ele>227.8</ele>
        <time>2018-08-27T14:29:51Z</time>
      </trkpt>
      <trkpt lat="47.65038" lon="6.18099">
        <ele>227.76</ele>
        <time>2018-08-27T14:29:53Z</time>
      </trkpt>
      <trkpt lat="47.65045" lon="6.181">
        <ele>227.72</ele>
        <time>2018-08-27T14:29:55Z</time>
      </trkpt>
      <trkpt lat="47.65052" lon="6.18102">
        <ele>227.68</ele>
        <time>2018-08-27T14:29:57Z</time>
      </trkpt>
      <trkpt lat="47.6506" lon="6.18104">
        <ele>227.64</ele>
        <time>2018-08-27T14:29:59Z</time>
      </trkpt>
      <trkpt lat="47.65068" lon="6.18107">
        <ele>227.6</ele>
        <time>2018-08-27T14:30:01Z</time>
      </trkpt>
      <trkpt lat="47.65075" lon="6.18109">
        <ele>227.57</ele>
        <time>2018-08-27T14:30:03Z</time>
      </trkpt>
      <trkpt lat="47.65083" lon="6.1811">
        <ele>227.53</ele>
        <time>2018-08-27T14:30:05Z</time>
      </trkpt>
      <trkpt lat="47.65091" lon="6.1811">
        <ele>227.51</ele>
        <time>2018-08-27T14:30:07Z</time>
      </trkpt>
      <trkpt lat="47.65098" lon="6.18108">
        <ele>227.5</ele>
        <time>2018-08-27T14:30:09Z</time>
      </trkpt>
      <trkpt lat="47.65105" lon="6.18107">
        <ele>227.5</ele>
        <time>2018-08-27T14:30:11Z</time>
      </trkpt>
      <trkpt lat="47.65112" lon="6.18103">
        <ele>227.49</ele>
        <time>2018-08-27T14:30:13Z</time>
      </trkpt>
      <trkpt lat="47.65119" lon="6.181">
        <ele>227.48</ele>
        <time>2018-08-27T14:30:15Z</time>
      </trkpt>
      <trkpt lat="47.65126" lon="6.18096">
        <ele>227.46</ele>
        <time>2018-08-27T14:30:17Z</time>
      </trkpt>
      <trkpt lat="47.65134" lon="6.18091">
        <ele>227.43</ele>
        <time>2018-08-27T14:30:19Z</time>
      </trkpt>
      <trkpt lat="47.6514" lon="6.18084">
        <ele>227.42</ele>
        <time>2018-08-27T14:30:21Z</time>
      </trkpt>
      <trkpt lat="47.65147" lon="6.18077">
        <ele>227.45</ele>
        <time>2018-08-27T14:30:23Z</time>
      </trkpt>
      <trkpt lat="47.65153" lon="6.18069">
        <ele>227.47</ele>
        <time>2018-08-27T14:30:25Z</time>
      </trkpt>
      <trkpt lat="47.65159" lon="6.18061">
        <ele>227.48</ele>
        <time>2018-08-27T14:30:27Z</time>
      </trkpt>
      <trkpt lat="47.65164" lon="6.18053">
        <ele>227.49</ele>
        <time>2018-08-27T14:30:29Z</time>
      </trkpt>
      <trkpt lat="47.65169" lon="6.18045">
        <ele>227.51</ele>
        <time>2018-08-27T14:30:31Z</time>
      </trkpt>
      <trkpt lat="47.65173" lon="6.18037">
        <ele>227.54</ele>
        <time>2018-08-27T14:30:34Z</time>
      </trkpt>
      <trkpt lat="47.65176" lon="6.18031">
        <ele>227.56</ele>
        <time>2018-08-27T14:30:36Z</time>
      </trkpt>
      <trkpt lat="47.6518" lon="6.18026">
        <ele>227.6</ele>
        <time>2018-08-27T14:30:38Z</time>
      </trkpt>
      <trkpt lat="47.65184" lon="6.1802">
        <ele>227.63</ele>
        <time>2018-08-27T14:30:40Z</time>
      </trkpt>
      <trkpt lat="47.65187" lon="6.18015">
        <ele>227.67</ele>
        <time>2018-08-27T14:30:42Z</time>
      </trkpt>
      <trkpt lat="47.65191" lon="6.18009">
        <ele>227.71</ele>
        <time>2018-08-27T14:30:44Z</time>
      </trkpt>
      <trkpt lat="47.65196" lon="6.18004">
        <ele>227.75</ele>
        <time>2018-08-27T14:30:46Z</time>
      </trkpt>
      <trkpt lat="47.652" lon="6.17999">
        <ele>227.8</ele>
        <time>2018-08-27T14:30:48Z</time>
      </trkpt>
      <trkpt lat="47.65205" lon="6.17994">
        <ele>227.84</ele>
        <time>2018-08-27T14:30:50Z</time>
      </trkpt>
      <trkpt lat="47.6521" lon="6.1799">
        <ele>227.88</ele>
        <time>2018-08-27T14:30:52Z</time>
      </trkpt>
      <trkpt lat="47.65215" lon="6.17986">
        <ele>227.92</ele>
        <time>2018-08-27T14:30:54Z</time>
      </trkpt>
      <trkpt lat="47.65221" lon="6.17983">
        <ele>227.96</ele>
        <time>2018-08-27T14:30:56Z</time>
      </trkpt>
      <trkpt lat="47.65228" lon="6.17981">
        <ele>228</ele>
        <time>2018-08-27T14:30:58Z</time>
      </trkpt>
      <trkpt lat="47.65235" lon="6.17979">
        <ele>228.03</ele>
        <time>2018-08-27T14:31:00Z</time>
      </trkpt>
      <trkpt lat="47.65242" lon="6.1798">
        <ele>228.06</ele>
        <time>2018-08-27T14:31:02Z</time>
      </trkpt>
      <trkpt lat="47.65249" lon="6.17981">
        <ele>228.1</ele>
        <time>2018-08-27T14:31:04Z</time>
      </trkpt>
      <trkpt lat="47.65256" lon="6.17984">
        <ele>228.22</ele>
        <time>2018-08-27T14:31:06Z</time>
      </trkpt>
      <trkpt lat="47.65263" lon="6.1799">
        <ele>228.45</ele>
        <time>2018-08-27T14:31:08Z</time>
      </trkpt>
      <trkpt lat="47.65269" lon="6.17997">
        <ele>228.56</ele>
        <time>2018-08-27T14:31:10Z</time>
      </trkpt>
      <trkpt lat="47.65274" lon="6.18006">
        <ele>228.65</ele>
        <time>2018-08-27T14:31:12Z</time>
      </trkpt>
      <trkpt lat="47.65282" lon="6.18024">
        <ele>228.68</ele>
        <time>2018-08-27T14:31:14Z</time>
      </trkpt>
      <trkpt lat="47.65286" lon="6.18035">
        <ele>228.7</ele>
        <time>2018-08-27T14:31:16Z</time>
      </trkpt>
      <trkpt lat="47.65288" lon="6.18048">
        <ele>228.73</ele>
        <time>2018-08-27T14:31:18Z</time>
      </trkpt>
      <trkpt lat="47.6529" lon="6.18055">
        <ele>228.76</ele>
        <time>2018-08-27T14:31:19Z</time>
      </trkpt>
      <trkpt lat="47.65291" lon="6.18061">
        <ele>228.78</ele>
        <time>2018-08-27T14:31:20Z</time>
      </trkpt>
      <trkpt lat="47.65293" lon="6.18068">
        <ele>228.81</ele>
        <time>2018-08-27T14:31:21Z</time>
      </trkpt>
      <trkpt lat="47.65294" lon="6.18081">
        <ele>228.87</ele>
        <time>2018-08-27T14:31:23Z</time>
      </trkpt>
      <trkpt lat="47.65296" lon="6.18093">
        <ele>228.93</ele>
        <time>2018-08-27T14:31:25Z</time>
      </trkpt>
      <trkpt lat="47.65298" lon="6.18104">
        <ele>228.99</ele>
        <time>2018-08-27T14:31:27Z</time>
      </trkpt>
      <trkpt lat="47.65301" lon="6.18115">
        <ele>229.03</ele>
        <time>2018-08-27T14:31:29Z</time>
      </trkpt>
      <trkpt lat="47.65303" lon="6.18126">
        <ele>229.06</ele>
        <time>2018-08-27T14:31:31Z</time>
      </trkpt>
      <trkpt lat="47.65306" lon="6.18136">
        <ele>229.09</ele>
        <time>2018-08-27T14:31:33Z</time>
      </trkpt>
      <trkpt lat="47.6531" lon="6.18146">
        <ele>229.09</ele>
        <time>2018-08-27T14:31:35Z</time>
      </trkpt>
      <trkpt lat="47.65313" lon="6.18154">
        <ele>229.1</ele>
        <time>2018-08-27T14:31:37Z</time>
      </trkpt>
      <trkpt lat="47.65317" lon="6.18163">
        <ele>229.1</ele>
        <time>2018-08-27T14:31:39Z</time>
      </trkpt>
      <trkpt lat="47.65322" lon="6.18171">
        <ele>229.1</ele>
        <time>2018-08-27T14:31:41Z</time>
      </trkpt>
      <trkpt lat="47.65326" lon="6.18178">
        <ele>229.11</ele>
        <time>2018-08-27T14:31:43Z</time>
      </trkpt>
      <trkpt lat="47.65331" lon="6.18185">
        <ele>229.11</ele>
        <time>2018-08-27T14:31:45Z</time>
      </trkpt>
      <trkpt lat="47.65336" lon="6.18191">
        <ele>229.12</ele>
        <time>2018-08-27T14:31:48Z</time>
      </trkpt>
      <trkpt lat="47.65341" lon="6.18195">
        <ele>229.13</ele>
        <time>2018-08-27T14:31:50Z</time>
      </trkpt>
      <trkpt lat="47.65346" lon="6.182">
        <ele>229.14</ele>
        <time>2018-08-27T14:31:52Z</time>
      </trkpt>
      <trkpt lat="47.65352" lon="6.18205">
        <ele>229.14</ele>
        <time>2018-08-27T14:31:54Z</time>
      </trkpt>
      <trkpt lat="47.65357" lon="6.1821">
        <ele>229.15</ele>
        <time>2018-08-27T14:31:56Z</time>
      </trkpt>
      <trkpt lat="47.65363" lon="6.18214">
        <ele>229.16</ele>
        <time>2018-08-27T14:31:58Z</time>
      </trkpt>
      <trkpt lat="47.65368" lon="6.18219">
        <ele>229.17</ele>
        <time>2018-08-27T14:32:00Z</time>
      </trkpt>
      <trkpt lat="47.65373" lon="6.18223">
        <ele>229.18</ele>
        <time>2018-08-27T14:32:02Z</time>
      </trkpt>
      <trkpt lat="47.65379" lon="6.18227">
        <ele>229.19</ele>
        <time>2018-08-27T14:32:04Z</time>
      </trkpt>
      <trkpt lat="47.65384" lon="6.18231">
        <ele>229.2</ele>
        <time>2018-08-27T14:32:06Z</time>
      </trkpt>
      <trkpt lat="47.65389" lon="6.18235">
        <ele>229.22</ele>
        <time>2018-08-27T14:32:08Z</time>
      </trkpt>
      <trkpt lat="47.65394" lon="6.18238">
        <ele>229.23</ele>
        <time>2018-08-27T14:32:10Z</time>
      </trkpt>
      <trkpt lat="47.65399" lon="6.18241">
        <ele>229.24</ele>
        <time>2018-08-27T14:32:12Z</time>
      </trkpt>
      <trkpt lat="47.65404" lon="6.18244">
        <ele>229.25</ele>
        <time>2018-08-27T14:32:14Z</time>
      </trkpt>
      <trkpt lat="47.65408" lon="6.18247">
        <ele>229.26</ele>
        <time>2018-08-27T14:32:16Z</time>
      </trkpt>
      <trkpt lat="47.65413" lon="6.1825">
        <ele>229.27</ele>
        <time>2018-08-27T14:32:18Z</time>
      </trkpt>
      <trkpt lat="47.65417" lon="6.18254">
        <ele>229.28</ele>
        <time>2018-08-27T14:32:20Z</time>
      </trkpt>
      <trkpt lat="47.65421" lon="6.18257">
        <ele>229.29</ele>
        <time>2018-08-27T14:32:22Z</time>
      </trkpt>
      <trkpt lat="47.65426" lon="6.18259">
        <ele>229.3</ele>
        <time>2018-08-27T14:32:24Z</time>
      </trkpt>
      <trkpt lat="47.65431" lon="6.1826">
        <ele>229.31</ele>
        <time>2018-08-27T14:32:26Z</time>
      </trkpt>
      <trkpt lat="47.65436" lon="6.18262">
        <ele>229.32</ele>
        <time>2018-08-27T14:32:28Z</time>
      </trkpt>
      <trkpt lat="47.65441" lon="6.18263">
        <ele>229.33</ele>
        <time>2018-08-27T14:32:30Z</time>
      </trkpt>
      <trkpt lat="47.65446" lon="6.18264">
        <ele>229.34</ele>
        <time>2018-08-27T14:32:32Z</time>
      </trkpt>
      <trkpt lat="47.65451" lon="6.18265">
        <ele>229.35</ele>
        <time>2018-08-27T14:32:34Z</time>
      </trkpt>
      <trkpt lat="47.65455" lon="6.18265">
        <ele>229.36</ele>
        <time>2018-08-27T14:32:36Z</time>
      </trkpt>
      <trkpt lat="47.6546" lon="6.18266">
        <ele>229.37</ele>
        <time>2018-08-27T14:32:38Z</time>
      </trkpt>
      <trkpt lat="47.65466" lon="6.18266">
        <ele>229.38</ele>
        <time>2018-08-27T14:32:41Z</time>
      </trkpt>
      <trkpt lat="47.65472" lon="6.18266">
        <ele>229.4</ele>
        <time>2018-08-27T14:32:44Z</time>
      </trkpt>
      <trkpt lat="47.65478" lon="6.18266">
        <ele>229.41</ele>
        <time>2018-08-27T14:32:47Z</time>
      </trkpt>
      <trkpt lat="47.65483" lon="6.18264">
        <ele>229.43</ele>
        <time>2018-08-27T14:32:50Z</time>
      </trkpt>
      <trkpt lat="47.65489" lon="6.18261">
        <ele>229.45</ele>
        <time>2018-08-27T14:32:53Z</time>
      </trkpt>
      <trkpt lat="47.65496" lon="6.18258">
        <ele>229.48</ele>
        <time>2018-08-27T14:32:56Z</time>
      </trkpt>
      <trkpt lat="47.655" lon="6.18256">
        <ele>229.5</ele>
        <time>2018-08-27T14:32:58Z</time>
      </trkpt>
      <trkpt lat="47.65505" lon="6.18254">
        <ele>229.51</ele>
        <time>2018-08-27T14:33:00Z</time>
      </trkpt>
      <trkpt lat="47.65509" lon="6.18252">
        <ele>229.53</ele>
        <time>2018-08-27T14:33:02Z</time>
      </trkpt>
      <trkpt lat="47.65514" lon="6.1825">
        <ele>229.55</ele>
        <time>2018-08-27T14:33:04Z</time>
      </trkpt>
      <trkpt lat="47.6552" lon="6.18248">
        <ele>229.58</ele>
        <time>2018-08-27T14:33:07Z</time>
      </trkpt>
      <trkpt lat="47.65526" lon="6.18246">
        <ele>229.62</ele>
        <time>2018-08-27T14:33:10Z</time>
      </trkpt>
      <trkpt lat="47.65533" lon="6.18244">
        <ele>229.65</ele>
        <time>2018-08-27T14:33:13Z</time>
      </trkpt>
      <trkpt lat="47.65537" lon="6.18242">
        <ele>229.67</ele>
        <time>2018-08-27T14:33:15Z</time>
      </trkpt>
      <trkpt lat="47.65541" lon="6.18239">
        <ele>229.69</ele>
        <time>2018-08-27T14:33:17Z</time>
      </trkpt>
      <trkpt lat="47.65546" lon="6.18237">
        <ele>229.71</ele>
        <time>2018-08-27T14:33:19Z</time>
      </trkpt>
      <trkpt lat="47.65552" lon="6.18232">
        <ele>229.75</ele>
        <time>2018-08-27T14:33:22Z</time>
      </trkpt>
      <trkpt lat="47.65556" lon="6.18229">
        <ele>229.77</ele>
        <time>2018-08-27T14:33:24Z</time>
      </trkpt>
      <trkpt lat="47.65561" lon="6.18224">
        <ele>229.8</ele>
        <time>2018-08-27T14:33:26Z</time>
      </trkpt>
      <trkpt lat="47.65566" lon="6.18219">
        <ele>229.82</ele>
        <time>2018-08-27T14:33:28Z</time>
      </trkpt>
      <trkpt lat="47.65571" lon="6.18212">
        <ele>229.85</ele>
        <time>2018-08-27T14:33:30Z</time>
      </trkpt>
      <trkpt lat="47.65577" lon="6.18205">
        <ele>229.96</ele>
        <time>2018-08-27T14:33:32Z</time>
      </trkpt>
      <trkpt lat="47.65582" lon="6.18197">
        <ele>230.17</ele>
        <time>2018-08-27T14:33:34Z</time>
      </trkpt>
      <trkpt lat="47.65588" lon="6.18188">
        <ele>230.32</ele>
        <time>2018-08-27T14:33:36Z</time>
      </trkpt>
      <trkpt lat="47.65592" lon="6.18183">
        <ele>230.38</ele>
        <time>2018-08-27T14:33:37Z</time>
      </trkpt>
      <trkpt lat="47.65603" lon="6.1817">
        <ele>230.43</ele>
        <time>2018-08-27T14:33:38Z</time>
      </trkpt>
      <trkpt lat="47.65608" lon="6.18167">
        <ele>230.47</ele>
        <time>2018-08-27T14:33:39Z</time>
      </trkpt>
      <trkpt lat="47.65613" lon="6.18166">
        <ele>230.51</ele>
        <time>2018-08-27T14:33:40Z</time>
      </trkpt>
      <trkpt lat="47.65618" lon="6.18166">
        <ele>230.54</ele>
        <time>2018-08-27T14:33:41Z</time>
      </trkpt>
      <trkpt lat="47.65623" lon="6.18167">
        <ele>230.58</ele>
        <time>2018-08-27T14:33:42Z</time>
      </trkpt>
      <trkpt lat="47.6563" lon="6.18167">
        <ele>230.6</ele>
        <time>2018-08-27T14:33:44Z</time>
      </trkpt>
      <trkpt lat="47.65636" lon="6.18165">
        <ele>230.61</ele>
        <time>2018-08-27T14:33:46Z</time>
      </trkpt>
      <trkpt lat="47.6564" lon="6.18163">
        <ele>230.62</ele>
        <time>2018-08-27T14:33:48Z</time>
      </trkpt>
      <trkpt lat="47.65645" lon="6.1816">
        <ele>230.64</ele>
        <time>2018-08-27T14:33:51Z</time>
      </trkpt>
      <trkpt lat="47.65649" lon="6.18157">
        <ele>230.65</ele>
        <time>2018-08-27T14:33:53Z</time>
      </trkpt>
      <trkpt lat="47.65654" lon="6.18152">
        <ele>230.66</ele>
        <time>2018-08-27T14:33:55Z</time>
      </trkpt>
      <trkpt lat="47.65658" lon="6.18148">
        <ele>230.68</ele>
        <time>2018-08-27T14:33:57Z</time>
      </trkpt>
      <trkpt lat="47.65662" lon="6.18143">
        <ele>230.7</ele>
        <time>2018-08-27T14:33:59Z</time>
      </trkpt>
      <trkpt lat="47.65666" lon="6.18139">
        <ele>230.72</ele>
        <time>2018-08-27T14:34:01Z</time>
      </trkpt>
      <trkpt lat="47.6567" lon="6.18136">
        <ele>230.74</ele>
        <time>2018-08-27T14:34:03Z</time>
      </trkpt>
      <trkpt lat="47.65674" lon="6.1813">
        <ele>230.83</ele>
        <time>2018-08-27T14:34:05Z</time>
      </trkpt>
      <trkpt lat="47.65678" lon="6.18122">
        <ele>231.02</ele>
        <time>2018-08-27T14:34:07Z</time>
      </trkpt>
      <trkpt lat="47.65683" lon="6.18113">
        <ele>231.17</ele>
        <time>2018-08-27T14:34:09Z</time>
      </trkpt>
      <trkpt lat="47.65688" lon="6.18103">
        <ele>231.2</ele>
        <time>2018-08-27T14:34:11Z</time>
      </trkpt>
      <trkpt lat="47.65692" lon="6.18095">
        <ele>231.21</ele>
        <time>2018-08-27T14:34:13Z</time>
      </trkpt>
      <trkpt lat="47.65697" lon="6.18087">
        <ele>231.23</ele>
        <time>2018-08-27T14:34:15Z</time>
      </trkpt>
      <trkpt lat="47.65701" lon="6.1808">
        <ele>231.24</ele>
        <time>2018-08-27T14:34:17Z</time>
      </trkpt>
      <trkpt lat="47.65705" lon="6.18075">
        <ele>231.26</ele>
        <time>2018-08-27T14:34:19Z</time>
      </trkpt>
      <trkpt lat="47.6571" lon="6.18069">
        <ele>231.27</ele>
        <time>2018-08-27T14:34:21Z</time>
      </trkpt>
      <trkpt lat="47.65714" lon="6.18064">
        <ele>231.29</ele>
        <time>2018-08-27T14:34:23Z</time>
      </trkpt>
      <trkpt lat="47.65719" lon="6.18059">
        <ele>231.31</ele>
        <time>2018-08-27T14:34:25Z</time>
      </trkpt>
      <trkpt lat="47.65724" lon="6.18055">
        <ele>231.34</ele>
        <time>2018-08-27T14:34:27Z</time>
      </trkpt>
      <trkpt lat="47.65728" lon="6.18053">
        <ele>231.36</ele>
        <time>2018-08-27T14:34:29Z</time>
      </trkpt>
      <trkpt lat="47.65733" lon="6.1805">
        <ele>231.38</ele>
        <time>2018-08-27T14:34:31Z</time>
      </trkpt>
      <trkpt lat="47.65737" lon="6.18047">
        <ele>231.41</ele>
        <time>2018-08-27T14:34:33Z</time>
      </trkpt>
      <trkpt lat="47.65741" lon="6.18044">
        <ele>231.44</ele>
        <time>2018-08-27T14:34:35Z</time>
      </trkpt>
      <trkpt lat="47.65747" lon="6.18041">
        <ele>231.5</ele>
        <time>2018-08-27T14:34:38Z</time>
      </trkpt>
      <trkpt lat="47.65752" lon="6.1804">
        <ele>231.55</ele>
        <time>2018-08-27T14:34:41Z</time>
      </trkpt>
      <trkpt lat="47.65757" lon="6.18038">
        <ele>231.61</ele>
        <time>2018-08-27T14:34:44Z</time>
      </trkpt>
      <trkpt lat="47.65763" lon="6.18036">
        <ele>231.67</ele>
        <time>2018-08-27T14:34:47Z</time>
      </trkpt>
      <trkpt lat="47.65768" lon="6.18033">
        <ele>231.74</ele>
        <time>2018-08-27T14:34:50Z</time>
      </trkpt>
      <trkpt lat="47.65773" lon="6.18029">
        <ele>231.8</ele>
        <time>2018-08-27T14:34:53Z</time>
      </trkpt>
      <trkpt lat="47.65778" lon="6.18025">
        <ele>231.86</ele>
        <time>2018-08-27T14:34:56Z</time>
      </trkpt>
      <trkpt lat="47.65783" lon="6.18019">
        <ele>231.93</ele>
        <time>2018-08-27T14:34:59Z</time>
      </trkpt>
      <trkpt lat="47.65787" lon="6.18014">
        <ele>231.98</ele>
        <time>2018-08-27T14:35:01Z</time>
      </trkpt>
      <trkpt lat="47.65792" lon="6.1801">
        <ele>232.16</ele>
        <time>2018-08-27T14:35:03Z</time>
      </trkpt>
      <trkpt lat="47.65798" lon="6.18005">
        <ele>232.5</ele>
        <time>2018-08-27T14:35:05Z</time>
      </trkpt>
      <trkpt lat="47.65805" lon="6.18">
        <ele>232.74</ele>
        <time>2018-08-27T14:35:07Z</time>
      </trkpt>
      <trkpt lat="47.65813" lon="6.17993">
        <ele>232.92</ele>
        <time>2018-08-27T14:35:09Z</time>
      </trkpt>
      <trkpt lat="47.65817" lon="6.1799">
        <ele>232.98</ele>
        <time>2018-08-27T14:35:10Z</time>
      </trkpt>
      <trkpt lat="47.6583" lon="6.17979">
        <ele>233.04</ele>
        <time>2018-08-27T14:35:11Z</time>
      </trkpt>
      <trkpt lat="47.65834" lon="6.17975">
        <ele>233.09</ele>
        <time>2018-08-27T14:35:12Z</time>
      </trkpt>
      <trkpt lat="47.65839" lon="6.17971">
        <ele>233.13</ele>
        <time>2018-08-27T14:35:13Z</time>
      </trkpt>
      <trkpt lat="47.65845" lon="6.17967">
        <ele>233.17</ele>
        <time>2018-08-27T14:35:14Z</time>
      </trkpt>
      <trkpt lat="47.6585" lon="6.17963">
        <ele>233.2</ele>
        <time>2018-08-27T14:35:15Z</time>
      </trkpt>
      <trkpt lat="47.65856" lon="6.17961">
        <ele>233.24</ele>
        <time>2018-08-27T14:35:16Z</time>
      </trkpt>
      <trkpt lat="47.65862" lon="6.17958">
        <ele>233.28</ele>
        <time>2018-08-27T14:35:17Z</time>
      </trkpt>
      <trkpt lat="47.65868" lon="6.17957">
        <ele>233.32</ele>
        <time>2018-08-27T14:35:18Z</time>
      </trkpt>
      <trkpt lat="47.65875" lon="6.17955">
        <ele>233.36</ele>
        <time>2018-08-27T14:35:19Z</time>
      </trkpt>
      <trkpt lat="47.65881" lon="6.17956">
        <ele>233.4</ele>
        <time>2018-08-27T14:35:20Z</time>
      </trkpt>
      <trkpt lat="47.65888" lon="6.17959">
        <ele>233.43</ele>
        <time>2018-08-27T14:35:21Z</time>
      </trkpt>
      <trkpt lat="47.65893" lon="6.17964">
        <ele>233.47</ele>
        <time>2018-08-27T14:35:22Z</time>
      </trkpt>
      <trkpt lat="47.65897" lon="6.17969">
        <ele>233.51</ele>
        <time>2018-08-27T14:35:23Z</time>
      </trkpt>
      <trkpt lat="47.65901" lon="6.17974">
        <ele>233.55</ele>
        <time>2018-08-27T14:35:24Z</time>
      </trkpt>
      <trkpt lat="47.65908" lon="6.17979">
        <ele>233.58</ele>
        <time>2018-08-27T14:35:26Z</time>
      </trkpt>
      <trkpt lat="47.65913" lon="6.17983">
        <ele>233.61</ele>
        <time>2018-08-27T14:35:29Z</time>
      </trkpt>
      <trkpt lat="47.65919" lon="6.17987">
        <ele>233.65</ele>
        <time>2018-08-27T14:35:32Z</time>
      </trkpt>
      <trkpt lat="47.65925" lon="6.1799">
        <ele>233.67</ele>
        <time>2018-08-27T14:35:35Z</time>
      </trkpt>
      <trkpt lat="47.65931" lon="6.17994">
        <ele>233.65</ele>
        <time>2018-08-27T14:35:38Z</time>
      </trkpt>
      <trkpt lat="47.65937" lon="6.17999">
        <ele>233.6</ele>
        <time>2018-08-27T14:35:41Z</time>
      </trkpt>
      <trkpt lat="47.65942" lon="6.18004">
        <ele>233.57</ele>
        <time>2018-08-27T14:35:44Z</time>
      </trkpt>
      <trkpt lat="47.65947" lon="6.18008">
        <ele>233.59</ele>
        <time>2018-08-27T14:35:47Z</time>
      </trkpt>
      <trkpt lat="47.65951" lon="6.18013">
        <ele>233.65</ele>
        <time>2018-08-27T14:35:50Z</time>
      </trkpt>
      <trkpt lat="47.65955" lon="6.18018">
        <ele>233.76</ele>
        <time>2018-08-27T14:35:53Z</time>
      </trkpt>
      <trkpt lat="47.65959" lon="6.18023">
        <ele>233.89</ele>
        <time>2018-08-27T14:35:56Z</time>
      </trkpt>
      <trkpt lat="47.65964" lon="6.18028">
        <ele>234.04</ele>
        <time>2018-08-27T14:35:59Z</time>
      </trkpt>
      <trkpt lat="47.65968" lon="6.18033">
        <ele>234.19</ele>
        <time>2018-08-27T14:36:02Z</time>
      </trkpt>
      <trkpt lat="47.65973" lon="6.18037">
        <ele>234.37</ele>
        <time>2018-08-27T14:36:05Z</time>
      </trkpt>
      <trkpt lat="47.65977" lon="6.18041">
        <ele>234.56</ele>
        <time>2018-08-27T14:36:08Z</time>
      </trkpt>
      <trkpt lat="47.6598" lon="6.18045">
        <ele>234.76</ele>
        <time>2018-08-27T14:36:11Z</time>
      </trkpt>
      <trkpt lat="47.65985" lon="6.18049">
        <ele>235.01</ele>
        <time>2018-08-27T14:36:15Z</time>
      </trkpt>
      <trkpt lat="47.6599" lon="6.18053">
        <ele>235.28</ele>
        <time>2018-08-27T14:36:19Z</time>
      </trkpt>
      <trkpt lat="47.65994" lon="6.18055">
        <ele>235.52</ele>
        <time>2018-08-27T14:36:22Z</time>
      </trkpt>
      <trkpt lat="47.65998" lon="6.18062">
        <ele>235.85</ele>
        <time>2018-08-27T14:36:26Z</time>
      </trkpt>
      <trkpt lat="47.66001" lon="6.18068">
        <ele>236.19</ele>
        <time>2018-08-27T14:36:30Z</time>
      </trkpt>
      <trkpt lat="47.66004" lon="6.18075">
        <ele>236.53</ele>
        <time>2018-08-27T14:36:34Z</time>
      </trkpt>
      <trkpt lat="47.66007" lon="6.18081">
        <ele>236.88</ele>
        <time>2018-08-27T14:36:38Z</time>
      </trkpt>
      <trkpt lat="47.66011" lon="6.18086">
        <ele>237.23</ele>
        <time>2018-08-27T14:36:42Z</time>
      </trkpt>
      <trkpt lat="47.66015" lon="6.18089">
        <ele>237.58</ele>
        <time>2018-08-27T14:36:46Z</time>
      </trkpt>
      <trkpt lat="47.6602" lon="6.18092">
        <ele>237.93</ele>
        <time>2018-08-27T14:36:50Z</time>
      </trkpt>
      <trkpt lat="47.66025" lon="6.18095">
        <ele>238.28</ele>
        <time>2018-08-27T14:36:54Z</time>
      </trkpt>
      <trkpt lat="47.6603" lon="6.18099">
        <ele>238.65</ele>
        <time>2018-08-27T14:36:58Z</time>
      </trkpt>
      <trkpt lat="47.66035" lon="6.18102">
        <ele>239.03</ele>
        <time>2018-08-27T14:37:02Z</time>
      </trkpt>
      <trkpt lat="47.6604" lon="6.18104">
        <ele>239.41</ele>
        <time>2018-08-27T14:37:06Z</time>
      </trkpt>
      <trkpt lat="47.66045" lon="6.18106">
        <ele>239.77</ele>
        <time>2018-08-27T14:37:10Z</time>
      </trkpt>
      <trkpt lat="47.6605" lon="6.18109">
        <ele>240.13</ele>
        <time>2018-08-27T14:37:14Z</time>
      </trkpt>
      <trkpt lat="47.66055" lon="6.18112">
        <ele>240.5</ele>
        <time>2018-08-27T14:37:18Z</time>
      </trkpt>
      <trkpt lat="47.6606" lon="6.18114">
        <ele>240.89</ele>
        <time>2018-08-27T14:37:22Z</time>
      </trkpt>
      <trkpt lat="47.66066" lon="6.18114">
        <ele>241.26</ele>
        <time>2018-08-27T14:37:26Z</time>
      </trkpt>
      <trkpt lat="47.66071" lon="6.18117">
        <ele>241.62</ele>
        <time>2018-08-27T14:37:30Z</time>
      </trkpt>
      <trkpt lat="47.66076" lon="6.18119">
        <ele>241.9</ele>
        <time>2018-08-27T14:37:33Z</time>
      </trkpt>
      <trkpt lat="47.6608" lon="6.18121">
        <ele>242.18</ele>
        <time>2018-08-27T14:37:36Z</time>
      </trkpt>
      <trkpt lat="47.66085" lon="6.18123">
        <ele>242.54</ele>
        <time>2018-08-27T14:37:40Z</time>
      </trkpt>
      <trkpt lat="47.66091" lon="6.18125">
        <ele>242.89</ele>
        <time>2018-08-27T14:37:44Z</time>
      </trkpt>
      <trkpt lat="47.66095" lon="6.18128">
        <ele>243.18</ele>
        <time>2018-08-27T14:37:47Z</time>
      </trkpt>
      <trkpt lat="47.661" lon="6.1813">
        <ele>243.58</ele>
        <time>2018-08-27T14:37:51Z</time>
      </trkpt>
      <trkpt lat="47.66105" lon="6.18132">
        <ele>243.98</ele>
        <time>2018-08-27T14:37:55Z</time>
      </trkpt>
      <trkpt lat="47.6611" lon="6.18133">
        <ele>244.41</ele>
        <time>2018-08-27T14:37:59Z</time>
      </trkpt>
      <trkpt lat="47.66115" lon="6.18135">
        <ele>244.86</ele>
        <time>2018-08-27T14:38:03Z</time>
      </trkpt>
      <trkpt lat="47.6612" lon="6.18137">
        <ele>245.33</ele>
        <time>2018-08-27T14:38:07Z</time>
      </trkpt>
      <trkpt lat="47.66125" lon="6.1814">
        <ele>245.81</ele>
        <time>2018-08-27T14:38:11Z</time>
      </trkpt>
      <trkpt lat="47.66131" lon="6.18144">
        <ele>246.29</ele>
        <time>2018-08-27T14:38:15Z</time>
      </trkpt>
      <trkpt lat="47.66135" lon="6.18148">
        <ele>246.79</ele>
        <time>2018-08-27T14:38:19Z</time>
      </trkpt>
      <trkpt lat="47.6614" lon="6.18151">
        <ele>247.28</ele>
        <time>2018-08-27T14:38:23Z</time>
      </trkpt>
      <trkpt lat="47.66145" lon="6.18153">
        <ele>247.76</ele>
        <time>2018-08-27T14:38:27Z</time>
      </trkpt>
      <trkpt lat="47.66151" lon="6.18156">
        <ele>248.21</ele>
        <time>2018-08-27T14:38:31Z</time>
      </trkpt>
      <trkpt lat="47.66155" lon="6.18158">
        <ele>248.52</ele>
        <time>2018-08-27T14:38:34Z</time>
      </trkpt>
      <trkpt lat="47.66159" lon="6.18162">
        <ele>248.84</ele>
        <time>2018-08-27T14:38:37Z</time>
      </trkpt>
      <trkpt lat="47.66164" lon="6.18166">
        <ele>249.24</ele>
        <time>2018-08-27T14:38:41Z</time>
      </trkpt>
      <trkpt lat="47.66168" lon="6.18168">
        <ele>249.54</ele>
        <time>2018-08-27T14:38:44Z</time>
      </trkpt>
      <trkpt lat="47.66173" lon="6.18172">
        <ele>249.94</ele>
        <time>2018-08-27T14:38:48Z</time>
      </trkpt>
      <trkpt lat="47.66177" lon="6.18177">
        <ele>250.32</ele>
        <time>2018-08-27T14:38:52Z</time>
      </trkpt>
      <trkpt lat="47.66181" lon="6.18182">
        <ele>250.68</ele>
        <time>2018-08-27T14:38:56Z</time>
      </trkpt>
      <trkpt lat="47.66185" lon="6.18188">
        <ele>251.03</ele>
        <time>2018-08-27T14:39:00Z</time>
      </trkpt>
      <trkpt lat="47.66189" lon="6.18194">
        <ele>251.36</ele>
        <time>2018-08-27T14:39:04Z</time>
      </trkpt>
      <trkpt lat="47.66193" lon="6.182">
        <ele>251.7</ele>
        <time>2018-08-27T14:39:08Z</time>
      </trkpt>
      <trkpt lat="47.66196" lon="6.18205">
        <ele>252.04</ele>
        <time>2018-08-27T14:39:12Z</time>
      </trkpt>
      <trkpt lat="47.66199" lon="6.18212">
        <ele>252.38</ele>
        <time>2018-08-27T14:39:16Z</time>
      </trkpt>
      <trkpt lat="47.66202" lon="6.18218">
        <ele>252.72</ele>
        <time>2018-08-27T14:39:20Z</time>
      </trkpt>
      <trkpt lat="47.66206" lon="6.18225">
        <ele>253.06</ele>
        <time>2018-08-27T14:39:24Z</time>
      </trkpt>
      <trkpt lat="47.6621" lon="6.18231">
        <ele>253.4</ele>
        <time>2018-08-27T14:39:28Z</time>
      </trkpt>
      <trkpt lat="47.66214" lon="6.18237">
        <ele>253.73</ele>
        <time>2018-08-27T14:39:32Z</time>
      </trkpt>
      <trkpt lat="47.66217" lon="6.18243">
        <ele>254.05</ele>
        <time>2018-08-27T14:39:36Z</time>
      </trkpt>
      <trkpt lat="47.6622" lon="6.18249">
        <ele>254.37</ele>
        <time>2018-08-27T14:39:40Z</time>
      </trkpt>
      <trkpt lat="47.66223" lon="6.18256">
        <ele>254.68</ele>
        <time>2018-08-27T14:39:44Z</time>
      </trkpt>
      <trkpt lat="47.66226" lon="6.18262">
        <ele>254.99</ele>
        <time>2018-08-27T14:39:48Z</time>
      </trkpt>
      <trkpt lat="47.66228" lon="6.18268">
        <ele>255.28</ele>
        <time>2018-08-27T14:39:52Z</time>
      </trkpt>
      <trkpt lat="47.66229" lon="6.18277">
        <ele>255.56</ele>
        <time>2018-08-27T14:39:56Z</time>
      </trkpt>
      <trkpt lat="47.6623" lon="6.18285">
        <ele>255.83</ele>
        <time>2018-08-27T14:40:00Z</time>
      </trkpt>
      <trkpt lat="47.66228" lon="6.18293">
        <ele>256.11</ele>
        <time>2018-08-27T14:40:04Z</time>
      </trkpt>
      <trkpt lat="47.66224" lon="6.18297">
        <ele>256.32</ele>
        <time>2018-08-27T14:40:07Z</time>
      </trkpt>
      <trkpt lat="47.66221" lon="6.18301">
        <ele>256.55</ele>
        <time>2018-08-27T14:40:10Z</time>
      </trkpt>
      <trkpt lat="47.66217" lon="6.18305">
        <ele>256.78</ele>
        <time>2018-08-27T14:40:13Z</time>
      </trkpt>
      <trkpt lat="47.66213" lon="6.18307">
        <ele>257.02</ele>
        <time>2018-08-27T14:40:16Z</time>
      </trkpt>
      <trkpt lat="47.66207" lon="6.18308">
        <ele>257.33</ele>
        <time>2018-08-27T14:40:20Z</time>
      </trkpt>
      <trkpt lat="47.66201" lon="6.18307">
        <ele>257.66</ele>
        <time>2018-08-27T14:40:24Z</time>
      </trkpt>
      <trkpt lat="47.66195" lon="6.18306">
        <ele>257.99</ele>
        <time>2018-08-27T14:40:28Z</time>
      </trkpt>
      <trkpt lat="47.6619" lon="6.18303">
        <ele>258.32</ele>
        <time>2018-08-27T14:40:32Z</time>
      </trkpt>
      <trkpt lat="47.66185" lon="6.18299">
        <ele>258.64</ele>
        <time>2018-08-27T14:40:36Z</time>
      </trkpt>
      <trkpt lat="47.6618" lon="6.18295">
        <ele>258.95</ele>
        <time>2018-08-27T14:40:40Z</time>
      </trkpt>
      <trkpt lat="47.66175" lon="6.18292">
        <ele>259.25</ele>
        <time>2018-08-27T14:40:44Z</time>
      </trkpt>
      <trkpt lat="47.66169" lon="6.18288">
        <ele>259.54</ele>
        <time>2018-08-27T14:40:48Z</time>
      </trkpt>
      <trkpt lat="47.66165" lon="6.18286">
        <ele>259.75</ele>
        <time>2018-08-27T14:40:51Z</time>
      </trkpt>
      <trkpt lat="47.66161" lon="6.18282">
        <ele>259.95</ele>
        <time>2018-08-27T14:40:54Z</time>
      </trkpt>
      <trkpt lat="47.66157" lon="6.18279">
        <ele>260.15</ele>
        <time>2018-08-27T14:40:57Z</time>
      </trkpt>
      <trkpt lat="47.66152" lon="6.18277">
        <ele>260.35</ele>
        <time>2018-08-27T14:41:00Z</time>
      </trkpt>
      <trkpt lat="47.66148" lon="6.18275">
        <ele>260.54</ele>
        <time>2018-08-27T14:41:03Z</time>
      </trkpt>
      <trkpt lat="47.66143" lon="6.18272">
        <ele>260.72</ele>
        <time>2018-08-27T14:41:06Z</time>
      </trkpt>
      <trkpt lat="47.66138" lon="6.18268">
        <ele>260.91</ele>
        <time>2018-08-27T14:41:09Z</time>
      </trkpt>
      <trkpt lat="47.66134" lon="6.18266">
        <ele>261.09</ele>
        <time>2018-08-27T14:41:12Z</time>
      </trkpt>
      <trkpt lat="47.66129" lon="6.18264">
        <ele>261.28</ele>
        <time>2018-08-27T14:41:15Z</time>
      </trkpt>
      <trkpt lat="47.66125" lon="6.18263">
        <ele>261.46</ele>
        <time>2018-08-27T14:41:18Z</time>
      </trkpt>
      <trkpt lat="47.66119" lon="6.1826">
        <ele>261.64</ele>
        <time>2018-08-27T14:41:21Z</time>
      </trkpt>
      <trkpt lat="47.66114" lon="6.18258">
        <ele>261.82</ele>
        <time>2018-08-27T14:41:24Z</time>
      </trkpt>
      <trkpt lat="47.66108" lon="6.18255">
        <ele>261.99</ele>
        <time>2018-08-27T14:41:27Z</time>
      </trkpt>
      <trkpt lat="47.66102" lon="6.18253">
        <ele>262.16</ele>
        <time>2018-08-27T14:41:30Z</time>
      </trkpt>
      <trkpt lat="47.66096" lon="6.18251">
        <ele>262.33</ele>
        <time>2018-08-27T14:41:33Z</time>
      </trkpt>
      <trkpt lat="47.6609" lon="6.1825">
        <ele>262.49</ele>
        <time>2018-08-27T14:41:36Z</time>
      </trkpt>
      <trkpt lat="47.66084" lon="6.18249">
        <ele>262.64</ele>
        <time>2018-08-27T14:41:39Z</time>
      </trkpt>
      <trkpt lat="47.66079" lon="6.18248">
        <ele>262.75</ele>
        <time>2018-08-27T14:41:41Z</time>
      </trkpt>
      <trkpt lat="47.66075" lon="6.18248">
        <ele>262.85</ele>
        <time>2018-08-27T14:41:43Z</time>
      </trkpt>
      <trkpt lat="47.6607" lon="6.18248">
        <ele>262.95</ele>
        <time>2018-08-27T14:41:45Z</time>
      </trkpt>
      <trkpt lat="47.66065" lon="6.18248">
        <ele>263.05</ele>
        <time>2018-08-27T14:41:47Z</time>
      </trkpt>
      <trkpt lat="47.66059" lon="6.18248">
        <ele>263.15</ele>
        <time>2018-08-27T14:41:49Z</time>
      </trkpt>
      <trkpt lat="47.66055" lon="6.18247">
        <ele>263.24</ele>
        <time>2018-08-27T14:41:51Z</time>
      </trkpt>
      <trkpt lat="47.6605" lon="6.18247">
        <ele>263.34</ele>
        <time>2018-08-27T14:41:53Z</time>
      </trkpt>
      <trkpt lat="47.66045" lon="6.18247">
        <ele>263.43</ele>
        <time>2018-08-27T14:41:55Z</time>
      </trkpt>
      <trkpt lat="47.66041" lon="6.18247">
        <ele>263.52</ele>
        <time>2018-08-27T14:41:57Z</time>
      </trkpt>
      <trkpt lat="47.66036" lon="6.18248">
        <ele>263.6</ele>
        <time>2018-08-27T14:41:59Z</time>
      </trkpt>
      <trkpt lat="47.66031" lon="6.18249">
        <ele>263.69</ele>
        <time>2018-08-27T14:42:01Z</time>
      </trkpt>
      <trkpt lat="47.66025" lon="6.18251">
        <ele>263.77</ele>
        <time>2018-08-27T14:42:03Z</time>
      </trkpt>
      <trkpt lat="47.6602" lon="6.18251">
        <ele>263.85</ele>
        <time>2018-08-27T14:42:05Z</time>
      </trkpt>
      <trkpt lat="47.66014" lon="6.18249">
        <ele>264.18</ele>
        <time>2018-08-27T14:42:07Z</time>
      </trkpt>
      <trkpt lat="47.66007" lon="6.18243">
        <ele>264.75</ele>
        <time>2018-08-27T14:42:09Z</time>
      </trkpt>
      <trkpt lat="47.65999" lon="6.18238">
        <ele>265.16</ele>
        <time>2018-08-27T14:42:11Z</time>
      </trkpt>
      <trkpt lat="47.65995" lon="6.18236">
        <ele>265.31</ele>
        <time>2018-08-27T14:42:12Z</time>
      </trkpt>
      <trkpt lat="47.65981" lon="6.18232">
        <ele>265.43</ele>
        <time>2018-08-27T14:42:13Z</time>
      </trkpt>
      <trkpt lat="47.65975" lon="6.1823">
        <ele>265.53</ele>
        <time>2018-08-27T14:42:14Z</time>
      </trkpt>
      <trkpt lat="47.65969" lon="6.18228">
        <ele>265.62</ele>
        <time>2018-08-27T14:42:15Z</time>
      </trkpt>
      <trkpt lat="47.65963" lon="6.18225">
        <ele>265.7</ele>
        <time>2018-08-27T14:42:16Z</time>
      </trkpt>
      <trkpt lat="47.65956" lon="6.18222">
        <ele>265.77</ele>
        <time>2018-08-27T14:42:17Z</time>
      </trkpt>
      <trkpt lat="47.6595" lon="6.18218">
        <ele>265.82</ele>
        <time>2018-08-27T14:42:18Z</time>
      </trkpt>
      <trkpt lat="47.65944" lon="6.18212">
        <ele>265.87</ele>
        <time>2018-08-27T14:42:19Z</time>
      </trkpt>
      <trkpt lat="47.65937" lon="6.18206">
        <ele>265.91</ele>
        <time>2018-08-27T14:42:20Z</time>
      </trkpt>
      <trkpt lat="47.6593" lon="6.18201">
        <ele>265.95</ele>
        <time>2018-08-27T14:42:21Z</time>
      </trkpt>
      <trkpt lat="47.65923" lon="6.18199">
        <ele>265.98</ele>
        <time>2018-08-27T14:42:22Z</time>
      </trkpt>
      <trkpt lat="47.65916" lon="6.18196">
        <ele>266</ele>
        <time>2018-08-27T14:42:23Z</time>
      </trkpt>
      <trkpt lat="47.65909" lon="6.18194">
        <ele>266.03</ele>
        <time>2018-08-27T14:42:24Z</time>
      </trkpt>
      <trkpt lat="47.65902" lon="6.18192">
        <ele>266.07</ele>
        <time>2018-08-27T14:42:25Z</time>
      </trkpt>
      <trkpt lat="47.65895" lon="6.1819">
        <ele>266.1</ele>
        <time>2018-08-27T14:42:26Z</time>
      </trkpt>
      <trkpt lat="47.65889" lon="6.18188">
        <ele>266.14</ele>
        <time>2018-08-27T14:42:27Z</time>
      </trkpt>
      <trkpt lat="47.65883" lon="6.18186">
        <ele>266.19</ele>
        <time>2018-08-27T14:42:28Z</time>
      </trkpt>
      <trkpt lat="47.65877" lon="6.18184">
        <ele>266.24</ele>
        <time>2018-08-27T14:42:29Z</time>
      </trkpt>
      <trkpt lat="47.65872" lon="6.18183">
        <ele>266.3</ele>
        <time>2018-08-27T14:42:30Z</time>
      </trkpt>
      <trkpt lat="47.65866" lon="6.18181">
        <ele>266.37</ele>
        <time>2018-08-27T14:42:31Z</time>
      </trkpt>
      <trkpt lat="47.65861" lon="6.1818">
        <ele>266.43</ele>
        <time>2018-08-27T14:42:32Z</time>
      </trkpt>
      <trkpt lat="47.65856" lon="6.18179">
        <ele>266.51</ele>
        <time>2018-08-27T14:42:33Z</time>
      </trkpt>
      <trkpt lat="47.65851" lon="6.18181">
        <ele>266.6</ele>
        <time>2018-08-27T14:42:34Z</time>
      </trkpt>
      <trkpt lat="47.65847" lon="6.18185">
        <ele>266.68</ele>
        <time>2018-08-27T14:42:35Z</time>
      </trkpt>
      <trkpt lat="47.65844" lon="6.18193">
        <ele>266.72</ele>
        <time>2018-08-27T14:42:37Z</time>
      </trkpt>
      <trkpt lat="47.65844" lon="6.18202">
        <ele>266.75</ele>
        <time>2018-08-27T14:42:40Z</time>
      </trkpt>
      <trkpt lat="47.65846" lon="6.1821">
        <ele>266.77</ele>
        <time>2018-08-27T14:42:43Z</time>
      </trkpt>
      <trkpt lat="47.65847" lon="6.18218">
        <ele>266.79</ele>
        <time>2018-08-27T14:42:46Z</time>
      </trkpt>
      <trkpt lat="47.65847" lon="6.18226">
        <ele>266.8</ele>
        <time>2018-08-27T14:42:49Z</time>
      </trkpt>
      <trkpt lat="47.65843" lon="6.18231">
        <ele>266.83</ele>
        <time>2018-08-27T14:42:52Z</time>
      </trkpt>
      <trkpt lat="47.65838" lon="6.18235">
        <ele>266.88</ele>
        <time>2018-08-27T14:42:55Z</time>
      </trkpt>
      <trkpt lat="47.65833" lon="6.1824">
        <ele>266.94</ele>
        <time>2018-08-27T14:42:58Z</time>
      </trkpt>
      <trkpt lat="47.65828" lon="6.18243">
        <ele>267.04</ele>
        <time>2018-08-27T14:43:02Z</time>
      </trkpt>
      <trkpt lat="47.65824" lon="6.18248">
        <ele>267.96</ele>
        <time>2018-08-27T14:43:42Z</time>
      </trkpt>
      <trkpt lat="47.65818" lon="6.18252">
        <ele>268.17</ele>
        <time>2018-08-27T14:43:45Z</time>
      </trkpt>
      <trkpt lat="47.65812" lon="6.18257">
        <ele>268.37</ele>
        <time>2018-08-27T14:43:48Z</time>
      </trkpt>
      <trkpt lat="47.65806" lon="6.1826">
        <ele>268.5</ele>
        <time>2018-08-27T14:43:50Z</time>
      </trkpt>
      <trkpt lat="47.658" lon="6.18263">
        <ele>268.63</ele>
        <time>2018-08-27T14:43:52Z</time>
      </trkpt>
      <trkpt lat="47.65794" lon="6.18266">
        <ele>268.74</ele>
        <time>2018-08-27T14:43:54Z</time>
      </trkpt>
      <trkpt lat="47.65788" lon="6.1827">
        <ele>268.86</ele>
        <time>2018-08-27T14:43:56Z</time>
      </trkpt>
      <trkpt lat="47.65782" lon="6.18275">
        <ele>268.97</ele>
        <time>2018-08-27T14:43:58Z</time>
      </trkpt>
      <trkpt lat="47.65777" lon="6.18279">
        <ele>269.07</ele>
        <time>2018-08-27T14:44:00Z</time>
      </trkpt>
      <trkpt lat="47.65771" lon="6.18284">
        <ele>269.17</ele>
        <time>2018-08-27T14:44:02Z</time>
      </trkpt>
      <trkpt lat="47.65765" lon="6.18289">
        <ele>269.26</ele>
        <time>2018-08-27T14:44:04Z</time>
      </trkpt>
      <trkpt lat="47.6576" lon="6.18293">
        <ele>269.36</ele>
        <time>2018-08-27T14:44:06Z</time>
      </trkpt>
      <trkpt lat="47.65755" lon="6.18297">
        <ele>269.44</ele>
        <time>2018-08-27T14:44:08Z</time>
      </trkpt>
      <trkpt lat="47.6575" lon="6.18301">
        <ele>269.53</ele>
        <time>2018-08-27T14:44:10Z</time>
      </trkpt>
      <trkpt lat="47.65745" lon="6.18306">
        <ele>269.61</ele>
        <time>2018-08-27T14:44:12Z</time>
      </trkpt>
      <trkpt lat="47.6574" lon="6.1831">
        <ele>269.69</ele>
        <time>2018-08-27T14:44:14Z</time>
      </trkpt>
      <trkpt lat="47.65736" lon="6.18315">
        <ele>269.76</ele>
        <time>2018-08-27T14:44:16Z</time>
      </trkpt>
      <trkpt lat="47.65732" lon="6.1832">
        <ele>269.83</ele>
        <time>2018-08-27T14:44:18Z</time>
      </trkpt>
      <trkpt lat="47.65727" lon="6.18326">
        <ele>269.94</ele>
        <time>2018-08-27T14:44:21Z</time>
      </trkpt>
      <trkpt lat="47.65723" lon="6.1833">
        <ele>270.04</ele>
        <time>2018-08-27T14:44:24Z</time>
      </trkpt>
      <trkpt lat="47.65719" lon="6.18336">
        <ele>270.14</ele>
        <time>2018-08-27T14:44:27Z</time>
      </trkpt>
      <trkpt lat="47.65715" lon="6.18342">
        <ele>270.23</ele>
        <time>2018-08-27T14:44:30Z</time>
      </trkpt>
      <trkpt lat="47.65712" lon="6.18348">
        <ele>270.32</ele>
        <time>2018-08-27T14:44:33Z</time>
      </trkpt>
      <trkpt lat="47.65708" lon="6.18354">
        <ele>270.42</ele>
        <time>2018-08-27T14:44:36Z</time>
      </trkpt>
      <trkpt lat="47.65705" lon="6.1836">
        <ele>270.53</ele>
        <time>2018-08-27T14:44:39Z</time>
      </trkpt>
      <trkpt lat="47.65699" lon="6.18366">
        <ele>270.66</ele>
        <time>2018-08-27T14:44:42Z</time>
      </trkpt>
      <trkpt lat="47.65695" lon="6.18369">
        <ele>270.8</ele>
        <time>2018-08-27T14:44:45Z</time>
      </trkpt>
      <trkpt lat="47.6569" lon="6.18372">
        <ele>271.04</ele>
        <time>2018-08-27T14:44:50Z</time>
      </trkpt>
      <trkpt lat="47.65684" lon="6.18374">
        <ele>271.28</ele>
        <time>2018-08-27T14:44:55Z</time>
      </trkpt>
      <trkpt lat="47.65679" lon="6.18375">
        <ele>271.43</ele>
        <time>2018-08-27T14:44:58Z</time>
      </trkpt>
      <trkpt lat="47.65674" lon="6.18378">
        <ele>271.55</ele>
        <time>2018-08-27T14:45:00Z</time>
      </trkpt>
      <trkpt lat="47.65668" lon="6.18379">
        <ele>271.73</ele>
        <time>2018-08-27T14:45:03Z</time>
      </trkpt>
      <trkpt lat="47.65661" lon="6.1838">
        <ele>271.92</ele>
        <time>2018-08-27T14:45:06Z</time>
      </trkpt>
      <trkpt lat="47.65655" lon="6.18381">
        <ele>272.11</ele>
        <time>2018-08-27T14:45:09Z</time>
      </trkpt>
      <trkpt lat="47.65649" lon="6.18381">
        <ele>272.3</ele>
        <time>2018-08-27T14:45:12Z</time>
      </trkpt>
      <trkpt lat="47.65644" lon="6.18381">
        <ele>272.5</ele>
        <time>2018-08-27T14:45:15Z</time>
      </trkpt>
      <trkpt lat="47.65639" lon="6.18381">
        <ele>272.68</ele>
        <time>2018-08-27T14:45:18Z</time>
      </trkpt>
      <trkpt lat="47.65634" lon="6.18383">
        <ele>272.86</ele>
        <time>2018-08-27T14:45:21Z</time>
      </trkpt>
      <trkpt lat="47.65629" lon="6.18385">
        <ele>273.09</ele>
        <time>2018-08-27T14:45:25Z</time>
      </trkpt>
      <trkpt lat="47.65623" lon="6.18387">
        <ele>273.31</ele>
        <time>2018-08-27T14:45:29Z</time>
      </trkpt>
      <trkpt lat="47.65618" lon="6.1839">
        <ele>273.46</ele>
        <time>2018-08-27T14:45:32Z</time>
      </trkpt>
      <trkpt lat="47.65614" lon="6.18392">
        <ele>273.6</ele>
        <time>2018-08-27T14:45:35Z</time>
      </trkpt>
      <trkpt lat="47.65609" lon="6.18396">
        <ele>273.77</ele>
        <time>2018-08-27T14:45:39Z</time>
      </trkpt>
      <trkpt lat="47.65603" lon="6.18399">
        <ele>273.92</ele>
        <time>2018-08-27T14:45:43Z</time>
      </trkpt>
      <trkpt lat="47.65597" lon="6.18401">
        <ele>274.02</ele>
        <time>2018-08-27T14:45:46Z</time>
      </trkpt>
      <trkpt lat="47.65591" lon="6.18403">
        <ele>274.1</ele>
        <time>2018-08-27T14:45:49Z</time>
      </trkpt>
      <trkpt lat="47.65585" lon="6.18405">
        <ele>274.18</ele>
        <time>2018-08-27T14:45:52Z</time>
      </trkpt>
      <trkpt lat="47.65578" lon="6.18407">
        <ele>274.24</ele>
        <time>2018-08-27T14:45:55Z</time>
      </trkpt>
      <trkpt lat="47.65572" lon="6.1841">
        <ele>274.28</ele>
        <time>2018-08-27T14:45:57Z</time>
      </trkpt>
      <trkpt lat="47.65565" lon="6.18414">
        <ele>274.32</ele>
        <time>2018-08-27T14:45:59Z</time>
      </trkpt>
      <trkpt lat="47.65559" lon="6.18417">
        <ele>274.36</ele>
        <time>2018-08-27T14:46:01Z</time>
      </trkpt>
      <trkpt lat="47.65553" lon="6.1842">
        <ele>274.41</ele>
        <time>2018-08-27T14:46:03Z</time>
      </trkpt>
      <trkpt lat="47.65548" lon="6.18422">
        <ele>274.45</ele>
        <time>2018-08-27T14:46:05Z</time>
      </trkpt>
      <trkpt lat="47.65542" lon="6.18425">
        <ele>274.5</ele>
        <time>2018-08-27T14:46:07Z</time>
      </trkpt>
      <trkpt lat="47.65536" lon="6.18427">
        <ele>274.55</ele>
        <time>2018-08-27T14:46:09Z</time>
      </trkpt>
      <trkpt lat="47.65531" lon="6.1843">
        <ele>274.6</ele>
        <time>2018-08-27T14:46:11Z</time>
      </trkpt>
      <trkpt lat="47.65526" lon="6.18432">
        <ele>274.66</ele>
        <time>2018-08-27T14:46:13Z</time>
      </trkpt>
      <trkpt lat="47.65521" lon="6.18435">
        <ele>274.71</ele>
        <time>2018-08-27T14:46:15Z</time>
      </trkpt>
      <trkpt lat="47.65516" lon="6.18439">
        <ele>274.76</ele>
        <time>2018-08-27T14:46:17Z</time>
      </trkpt>
      <trkpt lat="47.6551" lon="6.18442">
        <ele>274.81</ele>
        <time>2018-08-27T14:46:19Z</time>
      </trkpt>
      <trkpt lat="47.65505" lon="6.18447">
        <ele>274.86</ele>
        <time>2018-08-27T14:46:21Z</time>
      </trkpt>
      <trkpt lat="47.65499" lon="6.18451">
        <ele>274.91</ele>
        <time>2018-08-27T14:46:23Z</time>
      </trkpt>
      <trkpt lat="47.65494" lon="6.18456">
        <ele>274.96</ele>
        <time>2018-08-27T14:46:25Z</time>
      </trkpt>
      <trkpt lat="47.65488" lon="6.1846">
        <ele>275</ele>
        <time>2018-08-27T14:46:27Z</time>
      </trkpt>
      <trkpt lat="47.65482" lon="6.18464">
        <ele>275.04</ele>
        <time>2018-08-27T14:46:29Z</time>
      </trkpt>
      <trkpt lat="47.65477" lon="6.18467">
        <ele>275.08</ele>
        <time>2018-08-27T14:46:31Z</time>
      </trkpt>
      <trkpt lat="47.65471" lon="6.18472">
        <ele>275.12</ele>
        <time>2018-08-27T14:46:33Z</time>
      </trkpt>
      <trkpt lat="47.65465" lon="6.18476">
        <ele>275.16</ele>
        <time>2018-08-27T14:46:35Z</time>
      </trkpt>
      <trkpt lat="47.65459" lon="6.1848">
        <ele>275.2</ele>
        <time>2018-08-27T14:46:37Z</time>
      </trkpt>
      <trkpt lat="47.65454" lon="6.18484">
        <ele>275.24</ele>
        <time>2018-08-27T14:46:39Z</time>
      </trkpt>
      <trkpt lat="47.65449" lon="6.18488">
        <ele>275.27</ele>
        <time>2018-08-27T14:46:41Z</time>
      </trkpt>
      <trkpt lat="47.65445" lon="6.18492">
        <ele>275.3</ele>
        <time>2018-08-27T14:46:43Z</time>
      </trkpt>
      <trkpt lat="47.6544" lon="6.18497">
        <ele>275.35</ele>
        <time>2018-08-27T14:46:46Z</time>
      </trkpt>
      <trkpt lat="47.65435" lon="6.18503">
        <ele>275.39</ele>
        <time>2018-08-27T14:46:49Z</time>
      </trkpt>
      <trkpt lat="47.65432" lon="6.18508">
        <ele>275.43</ele>
        <time>2018-08-27T14:46:52Z</time>
      </trkpt>
      <trkpt lat="47.65427" lon="6.18514">
        <ele>275.47</ele>
        <time>2018-08-27T14:46:55Z</time>
      </trkpt>
      <trkpt lat="47.65423" lon="6.18521">
        <ele>275.5</ele>
        <time>2018-08-27T14:46:58Z</time>
      </trkpt>
      <trkpt lat="47.6542" lon="6.18525">
        <ele>275.53</ele>
        <time>2018-08-27T14:47:00Z</time>
      </trkpt>
      <trkpt lat="47.65415" lon="6.18532">
        <ele>275.56</ele>
        <time>2018-08-27T14:47:03Z</time>
      </trkpt>
      <trkpt lat="47.65412" lon="6.18537">
        <ele>275.58</ele>
        <time>2018-08-27T14:47:05Z</time>
      </trkpt>
      <trkpt lat="47.65408" lon="6.18542">
        <ele>275.61</ele>
        <time>2018-08-27T14:47:07Z</time>
      </trkpt>
      <trkpt lat="47.65405" lon="6.18548">
        <ele>275.63</ele>
        <time>2018-08-27T14:47:09Z</time>
      </trkpt>
      <trkpt lat="47.65402" lon="6.18554">
        <ele>275.65</ele>
        <time>2018-08-27T14:47:11Z</time>
      </trkpt>
      <trkpt lat="47.65398" lon="6.1856">
        <ele>275.67</ele>
        <time>2018-08-27T14:47:13Z</time>
      </trkpt>
      <trkpt lat="47.65395" lon="6.18566">
        <ele>275.69</ele>
        <time>2018-08-27T14:47:15Z</time>
      </trkpt>
      <trkpt lat="47.65392" lon="6.18572">
        <ele>275.7</ele>
        <time>2018-08-27T14:47:17Z</time>
      </trkpt>
      <trkpt lat="47.65388" lon="6.18578">
        <ele>275.72</ele>
        <time>2018-08-27T14:47:19Z</time>
      </trkpt>
      <trkpt lat="47.65384" lon="6.18583">
        <ele>275.74</ele>
        <time>2018-08-27T14:47:21Z</time>
      </trkpt>
      <trkpt lat="47.65381" lon="6.18589">
        <ele>275.76</ele>
        <time>2018-08-27T14:47:23Z</time>
      </trkpt>
      <trkpt lat="47.65377" lon="6.18595">
        <ele>275.78</ele>
        <time>2018-08-27T14:47:25Z</time>
      </trkpt>
      <trkpt lat="47.65373" lon="6.186">
        <ele>275.8</ele>
        <time>2018-08-27T14:47:27Z</time>
      </trkpt>
      <trkpt lat="47.6537" lon="6.18605">
        <ele>275.82</ele>
        <time>2018-08-27T14:47:29Z</time>
      </trkpt>
      <trkpt lat="47.65367" lon="6.1861">
        <ele>275.84</ele>
        <time>2018-08-27T14:47:31Z</time>
      </trkpt>
      <trkpt lat="47.65362" lon="6.18616">
        <ele>275.87</ele>
        <time>2018-08-27T14:47:34Z</time>
      </trkpt>
      <trkpt lat="47.65358" lon="6.18622">
        <ele>275.89</ele>
        <time>2018-08-27T14:47:37Z</time>
      </trkpt>
      <trkpt lat="47.65354" lon="6.18627">
        <ele>275.92</ele>
        <time>2018-08-27T14:47:40Z</time>
      </trkpt>
      <trkpt lat="47.6535" lon="6.18631">
        <ele>275.95</ele>
        <time>2018-08-27T14:47:43Z</time>
      </trkpt>
      <trkpt lat="47.65346" lon="6.18636">
        <ele>275.98</ele>
        <time>2018-08-27T14:47:46Z</time>
      </trkpt>
      <trkpt lat="47.65343" lon="6.18641">
        <ele>276.01</ele>
        <time>2018-08-27T14:47:49Z</time>
      </trkpt>
      <trkpt lat="47.65339" lon="6.18646">
        <ele>276.04</ele>
        <time>2018-08-27T14:47:52Z</time>
      </trkpt>
      <trkpt lat="47.65335" lon="6.18652">
        <ele>276.06</ele>
        <time>2018-08-27T14:47:55Z</time>
      </trkpt>
      <trkpt lat="47.65331" lon="6.18659">
        <ele>276.09</ele>
        <time>2018-08-27T14:47:58Z</time>
      </trkpt>
      <trkpt lat="47.65327" lon="6.18665">
        <ele>276.11</ele>
        <time>2018-08-27T14:48:00Z</time>
      </trkpt>
      <trkpt lat="47.65324" lon="6.1867">
        <ele>276.12</ele>
        <time>2018-08-27T14:48:02Z</time>
      </trkpt>
      <trkpt lat="47.6532" lon="6.18676">
        <ele>276.14</ele>
        <time>2018-08-27T14:48:04Z</time>
      </trkpt>
      <trkpt lat="47.65316" lon="6.18681">
        <ele>276.16</ele>
        <time>2018-08-27T14:48:06Z</time>
      </trkpt>
      <trkpt lat="47.65312" lon="6.18686">
        <ele>276.17</ele>
        <time>2018-08-27T14:48:08Z</time>
      </trkpt>
      <trkpt lat="47.65308" lon="6.18691">
        <ele>276.19</ele>
        <time>2018-08-27T14:48:10Z</time>
      </trkpt>
      <trkpt lat="47.65304" lon="6.18696">
        <ele>276.2</ele>
        <time>2018-08-27T14:48:12Z</time>
      </trkpt>
      <trkpt lat="47.653" lon="6.18702">
        <ele>276.21</ele>
        <time>2018-08-27T14:48:14Z</time>
      </trkpt>
      <trkpt lat="47.65295" lon="6.18707">
        <ele>276.23</ele>
        <time>2018-08-27T14:48:16Z</time>
      </trkpt>
      <trkpt lat="47.65292" lon="6.18713">
        <ele>276.24</ele>
        <time>2018-08-27T14:48:18Z</time>
      </trkpt>
      <trkpt lat="47.65287" lon="6.1872">
        <ele>276.25</ele>
        <time>2018-08-27T14:48:20Z</time>
      </trkpt>
      <trkpt lat="47.65282" lon="6.18726">
        <ele>276.26</ele>
        <time>2018-08-27T14:48:22Z</time>
      </trkpt>
      <trkpt lat="47.65277" lon="6.18733">
        <ele>276.27</ele>
        <time>2018-08-27T14:48:24Z</time>
      </trkpt>
      <trkpt lat="47.65271" lon="6.1874">
        <ele>276.36</ele>
        <time>2018-08-27T14:48:26Z</time>
      </trkpt>
      <trkpt lat="47.65265" lon="6.18747">
        <ele>276.42</ele>
        <time>2018-08-27T14:48:28Z</time>
      </trkpt>
      <trkpt lat="47.65259" lon="6.18753">
        <ele>276.46</ele>
        <time>2018-08-27T14:48:30Z</time>
      </trkpt>
      <trkpt lat="47.65253" lon="6.1876">
        <ele>276.47</ele>
        <time>2018-08-27T14:48:32Z</time>
      </trkpt>
      <trkpt lat="47.65247" lon="6.18767">
        <ele>276.47</ele>
        <time>2018-08-27T14:48:34Z</time>
      </trkpt>
      <trkpt lat="47.65241" lon="6.18774">
        <ele>276.47</ele>
        <time>2018-08-27T14:48:36Z</time>
      </trkpt>
      <trkpt lat="47.65236" lon="6.18779">
        <ele>276.46</ele>
        <time>2018-08-27T14:48:38Z</time>
      </trkpt>
      <trkpt lat="47.65232" lon="6.18785">
        <ele>276.46</ele>
        <time>2018-08-27T14:48:40Z</time>
      </trkpt>
      <trkpt lat="47.65227" lon="6.1879">
        <ele>276.46</ele>
        <time>2018-08-27T14:48:42Z</time>
      </trkpt>
      <trkpt lat="47.65223" lon="6.18794">
        <ele>276.45</ele>
        <time>2018-08-27T14:48:44Z</time>
      </trkpt>
      <trkpt lat="47.65219" lon="6.18799">
        <ele>276.45</ele>
        <time>2018-08-27T14:48:46Z</time>
      </trkpt>
      <trkpt lat="47.65215" lon="6.18803">
        <ele>276.44</ele>
        <time>2018-08-27T14:48:48Z</time>
      </trkpt>
      <trkpt lat="47.65211" lon="6.18809">
        <ele>276.44</ele>
        <time>2018-08-27T14:48:50Z</time>
      </trkpt>
      <trkpt lat="47.65208" lon="6.18814">
        <ele>276.43</ele>
        <time>2018-08-27T14:48:52Z</time>
      </trkpt>
      <trkpt lat="47.65205" lon="6.1882">
        <ele>276.42</ele>
        <time>2018-08-27T14:48:54Z</time>
      </trkpt>
      <trkpt lat="47.65201" lon="6.18826">
        <ele>276.42</ele>
        <time>2018-08-27T14:48:56Z</time>
      </trkpt>
      <trkpt lat="47.65198" lon="6.18832">
        <ele>276.41</ele>
        <time>2018-08-27T14:48:58Z</time>
      </trkpt>
      <trkpt lat="47.65194" lon="6.18837">
        <ele>276.4</ele>
        <time>2018-08-27T14:49:00Z</time>
      </trkpt>
      <trkpt lat="47.6519" lon="6.18842">
        <ele>276.4</ele>
        <time>2018-08-27T14:49:02Z</time>
      </trkpt>
      <trkpt lat="47.65186" lon="6.18845">
        <ele>276.39</ele>
        <time>2018-08-27T14:49:04Z</time>
      </trkpt>
      <trkpt lat="47.65182" lon="6.18849">
        <ele>276.39</ele>
        <time>2018-08-27T14:49:06Z</time>
      </trkpt>
      <trkpt lat="47.65178" lon="6.18852">
        <ele>276.39</ele>
        <time>2018-08-27T14:49:08Z</time>
      </trkpt>
      <trkpt lat="47.65172" lon="6.18857">
        <ele>276.38</ele>
        <time>2018-08-27T14:49:11Z</time>
      </trkpt>
      <trkpt lat="47.65167" lon="6.18862">
        <ele>276.38</ele>
        <time>2018-08-27T14:49:14Z</time>
      </trkpt>
      <trkpt lat="47.65161" lon="6.18868">
        <ele>276.37</ele>
        <time>2018-08-27T14:49:17Z</time>
      </trkpt>
      <trkpt lat="47.65157" lon="6.18872">
        <ele>276.37</ele>
        <time>2018-08-27T14:49:19Z</time>
      </trkpt>
      <trkpt lat="47.65153" lon="6.18876">
        <ele>276.36</ele>
        <time>2018-08-27T14:49:21Z</time>
      </trkpt>
      <trkpt lat="47.65148" lon="6.18881">
        <ele>276.36</ele>
        <time>2018-08-27T14:49:23Z</time>
      </trkpt>
      <trkpt lat="47.65143" lon="6.18887">
        <ele>276.35</ele>
        <time>2018-08-27T14:49:25Z</time>
      </trkpt>
      <trkpt lat="47.65138" lon="6.18893">
        <ele>276.35</ele>
        <time>2018-08-27T14:49:27Z</time>
      </trkpt>
      <trkpt lat="47.65133" lon="6.189">
        <ele>276.34</ele>
        <time>2018-08-27T14:49:29Z</time>
      </trkpt>
      <trkpt lat="47.65128" lon="6.18906">
        <ele>276.34</ele>
        <time>2018-08-27T14:49:31Z</time>
      </trkpt>
      <trkpt lat="47.65123" lon="6.18912">
        <ele>276.33</ele>
        <time>2018-08-27T14:49:33Z</time>
      </trkpt>
      <trkpt lat="47.65118" lon="6.18917">
        <ele>276.33</ele>
        <time>2018-08-27T14:49:35Z</time>
      </trkpt>
      <trkpt lat="47.65114" lon="6.18922">
        <ele>276.32</ele>
        <time>2018-08-27T14:49:37Z</time>
      </trkpt>
      <trkpt lat="47.6511" lon="6.18927">
        <ele>276.32</ele>
        <time>2018-08-27T14:49:39Z</time>
      </trkpt>
      <trkpt lat="47.65105" lon="6.18931">
        <ele>276.32</ele>
        <time>2018-08-27T14:49:41Z</time>
      </trkpt>
      <trkpt lat="47.65101" lon="6.18935">
        <ele>276.31</ele>
        <time>2018-08-27T14:49:43Z</time>
      </trkpt>
      <trkpt lat="47.65097" lon="6.18939">
        <ele>276.31</ele>
        <time>2018-08-27T14:49:45Z</time>
      </trkpt>
      <trkpt lat="47.65093" lon="6.18945">
        <ele>276.3</ele>
        <time>2018-08-27T14:49:48Z</time>
      </trkpt>
      <trkpt lat="47.65088" lon="6.1895">
        <ele>276.3</ele>
        <time>2018-08-27T14:49:51Z</time>
      </trkpt>
      <trkpt lat="47.65084" lon="6.18955">
        <ele>276.29</ele>
        <time>2018-08-27T14:49:54Z</time>
      </trkpt>
      <trkpt lat="47.65079" lon="6.1896">
        <ele>276.28</ele>
        <time>2018-08-27T14:49:57Z</time>
      </trkpt>
      <trkpt lat="47.65075" lon="6.18965">
        <ele>276.28</ele>
        <time>2018-08-27T14:49:59Z</time>
      </trkpt>
      <trkpt lat="47.65071" lon="6.18969">
        <ele>276.27</ele>
        <time>2018-08-27T14:50:01Z</time>
      </trkpt>
      <trkpt lat="47.65068" lon="6.18974">
        <ele>276.27</ele>
        <time>2018-08-27T14:50:03Z</time>
      </trkpt>
      <trkpt lat="47.65064" lon="6.18978">
        <ele>276.26</ele>
        <time>2018-08-27T14:50:05Z</time>
      </trkpt>
      <trkpt lat="47.65061" lon="6.18983">
        <ele>276.26</ele>
        <time>2018-08-27T14:50:07Z</time>
      </trkpt>
      <trkpt lat="47.65057" lon="6.18988">
        <ele>276.25</ele>
        <time>2018-08-27T14:50:09Z</time>
      </trkpt>
      <trkpt lat="47.65054" lon="6.18993">
        <ele>276.24</ele>
        <time>2018-08-27T14:50:11Z</time>
      </trkpt>
      <trkpt lat="47.6505" lon="6.18998">
        <ele>276.24</ele>
        <time>2018-08-27T14:50:13Z</time>
      </trkpt>
      <trkpt lat="47.65045" lon="6.19003">
        <ele>276.23</ele>
        <time>2018-08-27T14:50:15Z</time>
      </trkpt>
      <trkpt lat="47.6504" lon="6.19008">
        <ele>276.16</ele>
        <time>2018-08-27T14:50:17Z</time>
      </trkpt>
      <trkpt lat="47.65034" lon="6.19014">
        <ele>276.11</ele>
        <time>2018-08-27T14:50:19Z</time>
      </trkpt>
      <trkpt lat="47.65027" lon="6.19021">
        <ele>276.06</ele>
        <time>2018-08-27T14:50:21Z</time>
      </trkpt>
      <trkpt lat="47.65021" lon="6.19028">
        <ele>276.02</ele>
        <time>2018-08-27T14:50:23Z</time>
      </trkpt>
      <trkpt lat="47.65015" lon="6.19035">
        <ele>276.01</ele>
        <time>2018-08-27T14:50:25Z</time>
      </trkpt>
      <trkpt lat="47.65009" lon="6.19042">
        <ele>276</ele>
        <time>2018-08-27T14:50:27Z</time>
      </trkpt>
      <trkpt lat="47.65005" lon="6.19047">
        <ele>275.99</ele>
        <time>2018-08-27T14:50:29Z</time>
      </trkpt>
      <trkpt lat="47.65" lon="6.19053">
        <ele>275.98</ele>
        <time>2018-08-27T14:50:32Z</time>
      </trkpt>
      <trkpt lat="47.64998" lon="6.1906">
        <ele>275.97</ele>
        <time>2018-08-27T14:50:35Z</time>
      </trkpt>
      <trkpt lat="47.64998" lon="6.19066">
        <ele>275.96</ele>
        <time>2018-08-27T14:50:38Z</time>
      </trkpt>
      <trkpt lat="47.64998" lon="6.19073">
        <ele>275.95</ele>
        <time>2018-08-27T14:50:41Z</time>
      </trkpt>
      <trkpt lat="47.64999" lon="6.19081">
        <ele>275.94</ele>
        <time>2018-08-27T14:50:44Z</time>
      </trkpt>
      <trkpt lat="47.65001" lon="6.19089">
        <ele>275.93</ele>
        <time>2018-08-27T14:50:47Z</time>
      </trkpt>
      <trkpt lat="47.65004" lon="6.19095">
        <ele>275.91</ele>
        <time>2018-08-27T14:50:50Z</time>
      </trkpt>
      <trkpt lat="47.65008" lon="6.19099">
        <ele>275.9</ele>
        <time>2018-08-27T14:50:53Z</time>
      </trkpt>
      <trkpt lat="47.65013" lon="6.19104">
        <ele>275.88</ele>
        <time>2018-08-27T14:50:56Z</time>
      </trkpt>
      <trkpt lat="47.65017" lon="6.19109">
        <ele>275.87</ele>
        <time>2018-08-27T14:50:58Z</time>
      </trkpt>
      <trkpt lat="47.6502" lon="6.19114">
        <ele>275.85</ele>
        <time>2018-08-27T14:51:00Z</time>
      </trkpt>
      <trkpt lat="47.65024" lon="6.19119">
        <ele>275.84</ele>
        <time>2018-08-27T14:51:02Z</time>
      </trkpt>
      <trkpt lat="47.65028" lon="6.19124">
        <ele>275.82</ele>
        <time>2018-08-27T14:51:04Z</time>
      </trkpt>
      <trkpt lat="47.65031" lon="6.19129">
        <ele>275.8</ele>
        <time>2018-08-27T14:51:06Z</time>
      </trkpt>
      <trkpt lat="47.65034" lon="6.19135">
        <ele>275.79</ele>
        <time>2018-08-27T14:51:08Z</time>
      </trkpt>
      <trkpt lat="47.65038" lon="6.1914">
        <ele>275.77</ele>
        <time>2018-08-27T14:51:10Z</time>
      </trkpt>
      <trkpt lat="47.65041" lon="6.19145">
        <ele>275.75</ele>
        <time>2018-08-27T14:51:12Z</time>
      </trkpt>
      <trkpt lat="47.65044" lon="6.1915">
        <ele>275.73</ele>
        <time>2018-08-27T14:51:14Z</time>
      </trkpt>
      <trkpt lat="47.65047" lon="6.19155">
        <ele>275.71</ele>
        <time>2018-08-27T14:51:16Z</time>
      </trkpt>
      <trkpt lat="47.65051" lon="6.1916">
        <ele>275.69</ele>
        <time>2018-08-27T14:51:18Z</time>
      </trkpt>
      <trkpt lat="47.65054" lon="6.19165">
        <ele>275.67</ele>
        <time>2018-08-27T14:51:20Z</time>
      </trkpt>
      <trkpt lat="47.65057" lon="6.1917">
        <ele>275.65</ele>
        <time>2018-08-27T14:51:22Z</time>
      </trkpt>
      <trkpt lat="47.6506" lon="6.19175">
        <ele>275.63</ele>
        <time>2018-08-27T14:51:24Z</time>
      </trkpt>
      <trkpt lat="47.65063" lon="6.1918">
        <ele>275.61</ele>
        <time>2018-08-27T14:51:26Z</time>
      </trkpt>
      <trkpt lat="47.65066" lon="6.19185">
        <ele>275.59</ele>
        <time>2018-08-27T14:51:28Z</time>
      </trkpt>
      <trkpt lat="47.65069" lon="6.19189">
        <ele>275.57</ele>
        <time>2018-08-27T14:51:30Z</time>
      </trkpt>
      <trkpt lat="47.65073" lon="6.19194">
        <ele>275.55</ele>
        <time>2018-08-27T14:51:32Z</time>
      </trkpt>
      <trkpt lat="47.65076" lon="6.19199">
        <ele>275.53</ele>
        <time>2018-08-27T14:51:34Z</time>
      </trkpt>
      <trkpt lat="47.65079" lon="6.19205">
        <ele>275.5</ele>
        <time>2018-08-27T14:51:36Z</time>
      </trkpt>
      <trkpt lat="47.65082" lon="6.1921">
        <ele>275.48</ele>
        <time>2018-08-27T14:51:38Z</time>
      </trkpt>
      <trkpt lat="47.65086" lon="6.19215">
        <ele>275.46</ele>
        <time>2018-08-27T14:51:40Z</time>
      </trkpt>
      <trkpt lat="47.65089" lon="6.1922">
        <ele>275.44</ele>
        <time>2018-08-27T14:51:42Z</time>
      </trkpt>
      <trkpt lat="47.65093" lon="6.19224">
        <ele>275.42</ele>
        <time>2018-08-27T14:51:44Z</time>
      </trkpt>
      <trkpt lat="47.65096" lon="6.19229">
        <ele>275.4</ele>
        <time>2018-08-27T14:51:46Z</time>
      </trkpt>
      <trkpt lat="47.65099" lon="6.19234">
        <ele>275.38</ele>
        <time>2018-08-27T14:51:48Z</time>
      </trkpt>
      <trkpt lat="47.65102" lon="6.19239">
        <ele>275.36</ele>
        <time>2018-08-27T14:51:50Z</time>
      </trkpt>
      <trkpt lat="47.65106" lon="6.19244">
        <ele>275.34</ele>
        <time>2018-08-27T14:51:52Z</time>
      </trkpt>
      <trkpt lat="47.65111" lon="6.1925">
        <ele>275.32</ele>
        <time>2018-08-27T14:51:55Z</time>
      </trkpt>
      <trkpt lat="47.65115" lon="6.19257">
        <ele>275.29</ele>
        <time>2018-08-27T14:51:58Z</time>
      </trkpt>
      <trkpt lat="47.65119" lon="6.19261">
        <ele>275.28</ele>
        <time>2018-08-27T14:52:00Z</time>
      </trkpt>
      <trkpt lat="47.65122" lon="6.19266">
        <ele>275.27</ele>
        <time>2018-08-27T14:52:02Z</time>
      </trkpt>
      <trkpt lat="47.65126" lon="6.19271">
        <ele>275.25</ele>
        <time>2018-08-27T14:52:04Z</time>
      </trkpt>
      <trkpt lat="47.65129" lon="6.19275">
        <ele>275.24</ele>
        <time>2018-08-27T14:52:06Z</time>
      </trkpt>
      <trkpt lat="47.65134" lon="6.19281">
        <ele>275.22</ele>
        <time>2018-08-27T14:52:09Z</time>
      </trkpt>
      <trkpt lat="47.6514" lon="6.19288">
        <ele>275.21</ele>
        <time>2018-08-27T14:52:12Z</time>
      </trkpt>
      <trkpt lat="47.65143" lon="6.19292">
        <ele>275.2</ele>
        <time>2018-08-27T14:52:14Z</time>
      </trkpt>
      <trkpt lat="47.65147" lon="6.19296">
        <ele>275.19</ele>
        <time>2018-08-27T14:52:16Z</time>
      </trkpt>
      <trkpt lat="47.65151" lon="6.193">
        <ele>275.19</ele>
        <time>2018-08-27T14:52:18Z</time>
      </trkpt>
      <trkpt lat="47.65156" lon="6.19304">
        <ele>275.18</ele>
        <time>2018-08-27T14:52:20Z</time>
      </trkpt>
      <trkpt lat="47.6516" lon="6.19309">
        <ele>275.18</ele>
        <time>2018-08-27T14:52:22Z</time>
      </trkpt>
      <trkpt lat="47.65165" lon="6.19313">
        <ele>275.17</ele>
        <time>2018-08-27T14:52:24Z</time>
      </trkpt>
      <trkpt lat="47.6517" lon="6.19318">
        <ele>275.17</ele>
        <time>2018-08-27T14:52:26Z</time>
      </trkpt>
      <trkpt lat="47.65175" lon="6.19324">
        <ele>275.16</ele>
        <time>2018-08-27T14:52:28Z</time>
      </trkpt>
      <trkpt lat="47.6518" lon="6.19331">
        <ele>275.16</ele>
        <time>2018-08-27T14:52:30Z</time>
      </trkpt>
      <trkpt lat="47.65183" lon="6.19338">
        <ele>275.16</ele>
        <time>2018-08-27T14:52:32Z</time>
      </trkpt>
      <trkpt lat="47.65187" lon="6.19345">
        <ele>275.16</ele>
        <time>2018-08-27T14:52:34Z</time>
      </trkpt>
      <trkpt lat="47.65191" lon="6.19353">
        <ele>275.15</ele>
        <time>2018-08-27T14:52:36Z</time>
      </trkpt>
      <trkpt lat="47.65195" lon="6.1936">
        <ele>275.15</ele>
        <time>2018-08-27T14:52:38Z</time>
      </trkpt>
      <trkpt lat="47.65198" lon="6.19367">
        <ele>275.15</ele>
        <time>2018-08-27T14:52:40Z</time>
      </trkpt>
      <trkpt lat="47.65202" lon="6.19374">
        <ele>275.15</ele>
        <time>2018-08-27T14:52:42Z</time>
      </trkpt>
      <trkpt lat="47.65206" lon="6.19381">
        <ele>275.15</ele>
        <time>2018-08-27T14:52:44Z</time>
      </trkpt>
      <trkpt lat="47.65209" lon="6.19387">
        <ele>275.15</ele>
        <time>2018-08-27T14:52:46Z</time>
      </trkpt>
      <trkpt lat="47.65213" lon="6.19393">
        <ele>275.15</ele>
        <time>2018-08-27T14:52:48Z</time>
      </trkpt>
      <trkpt lat="47.65216" lon="6.19399">
        <ele>275.15</ele>
        <time>2018-08-27T14:52:50Z</time>
      </trkpt>
      <trkpt lat="47.6522" lon="6.19405">
        <ele>275.15</ele>
        <time>2018-08-27T14:52:52Z</time>
      </trkpt>
      <trkpt lat="47.65224" lon="6.19412">
        <ele>275.15</ele>
        <time>2018-08-27T14:52:54Z</time>
      </trkpt>
      <trkpt lat="47.65228" lon="6.19419">
        <ele>275.16</ele>
        <time>2018-08-27T14:52:56Z</time>
      </trkpt>
      <trkpt lat="47.65231" lon="6.19425">
        <ele>275.16</ele>
        <time>2018-08-27T14:52:58Z</time>
      </trkpt>
      <trkpt lat="47.65235" lon="6.19431">
        <ele>275.16</ele>
        <time>2018-08-27T14:53:00Z</time>
      </trkpt>
      <trkpt lat="47.65238" lon="6.19436">
        <ele>275.17</ele>
        <time>2018-08-27T14:53:02Z</time>
      </trkpt>
      <trkpt lat="47.65243" lon="6.19443">
        <ele>275.18</ele>
        <time>2018-08-27T14:53:05Z</time>
      </trkpt>
      <trkpt lat="47.65246" lon="6.19447">
        <ele>275.18</ele>
        <time>2018-08-27T14:53:07Z</time>
      </trkpt>
      <trkpt lat="47.65252" lon="6.19453">
        <ele>275.19</ele>
        <time>2018-08-27T14:53:10Z</time>
      </trkpt>
      <trkpt lat="47.65255" lon="6.19457">
        <ele>275.2</ele>
        <time>2018-08-27T14:53:12Z</time>
      </trkpt>
      <trkpt lat="47.6526" lon="6.19462">
        <ele>275.21</ele>
        <time>2018-08-27T14:53:15Z</time>
      </trkpt>
      <trkpt lat="47.65265" lon="6.19469">
        <ele>275.21</ele>
        <time>2018-08-27T14:53:18Z</time>
      </trkpt>
      <trkpt lat="47.65268" lon="6.19474">
        <ele>275.22</ele>
        <time>2018-08-27T14:53:20Z</time>
      </trkpt>
      <trkpt lat="47.65271" lon="6.1948">
        <ele>275.22</ele>
        <time>2018-08-27T14:53:22Z</time>
      </trkpt>
      <trkpt lat="47.65274" lon="6.19485">
        <ele>275.23</ele>
        <time>2018-08-27T14:53:24Z</time>
      </trkpt>
      <trkpt lat="47.65276" lon="6.19491">
        <ele>275.23</ele>
        <time>2018-08-27T14:53:26Z</time>
      </trkpt>
      <trkpt lat="47.65279" lon="6.19498">
        <ele>275.23</ele>
        <time>2018-08-27T14:53:28Z</time>
      </trkpt>
      <trkpt lat="47.65281" lon="6.19504">
        <ele>275.24</ele>
        <time>2018-08-27T14:53:30Z</time>
      </trkpt>
      <trkpt lat="47.65283" lon="6.1951">
        <ele>275.24</ele>
        <time>2018-08-27T14:53:32Z</time>
      </trkpt>
      <trkpt lat="47.65283" lon="6.19519">
        <ele>275.25</ele>
        <time>2018-08-27T14:53:35Z</time>
      </trkpt>
      <trkpt lat="47.65283" lon="6.19529">
        <ele>275.25</ele>
        <time>2018-08-27T14:53:38Z</time>
      </trkpt>
      <trkpt lat="47.65285" lon="6.19536">
        <ele>275.26</ele>
        <time>2018-08-27T14:53:40Z</time>
      </trkpt>
      <trkpt lat="47.65288" lon="6.19543">
        <ele>275.29</ele>
        <time>2018-08-27T14:53:42Z</time>
      </trkpt>
      <trkpt lat="47.65293" lon="6.19554">
        <ele>275.3</ele>
        <time>2018-08-27T14:53:44Z</time>
      </trkpt>
      <trkpt lat="47.65296" lon="6.19561">
        <ele>275.3</ele>
        <time>2018-08-27T14:53:45Z</time>
      </trkpt>
      <trkpt lat="47.65299" lon="6.19568">
        <ele>275.29</ele>
        <time>2018-08-27T14:53:46Z</time>
      </trkpt>
      <trkpt lat="47.65308" lon="6.19589">
        <ele>275.29</ele>
        <time>2018-08-27T14:53:47Z</time>
      </trkpt>
      <trkpt lat="47.65311" lon="6.19598">
        <ele>275.28</ele>
        <time>2018-08-27T14:53:48Z</time>
      </trkpt>
      <trkpt lat="47.65314" lon="6.19604">
        <ele>275.28</ele>
        <time>2018-08-27T14:53:49Z</time>
      </trkpt>
      <trkpt lat="47.65317" lon="6.19611">
        <ele>275.27</ele>
        <time>2018-08-27T14:53:50Z</time>
      </trkpt>
      <trkpt lat="47.6532" lon="6.19619">
        <ele>275.27</ele>
        <time>2018-08-27T14:53:51Z</time>
      </trkpt>
      <trkpt lat="47.65321" lon="6.19625">
        <ele>275.26</ele>
        <time>2018-08-27T14:53:52Z</time>
      </trkpt>
      <trkpt lat="47.65324" lon="6.19631">
        <ele>275.26</ele>
        <time>2018-08-27T14:53:53Z</time>
      </trkpt>
      <trkpt lat="47.65327" lon="6.19637">
        <ele>275.26</ele>
        <time>2018-08-27T14:53:54Z</time>
      </trkpt>
      <trkpt lat="47.6533" lon="6.19648">
        <ele>275.26</ele>
        <time>2018-08-27T14:53:56Z</time>
      </trkpt>
      <trkpt lat="47.65333" lon="6.19655">
        <ele>275.26</ele>
        <time>2018-08-27T14:53:58Z</time>
      </trkpt>
      <trkpt lat="47.65335" lon="6.19663">
        <ele>275.26</ele>
        <time>2018-08-27T14:54:00Z</time>
      </trkpt>
      <trkpt lat="47.65337" lon="6.19669">
        <ele>275.26</ele>
        <time>2018-08-27T14:54:02Z</time>
      </trkpt>
      <trkpt lat="47.65339" lon="6.19676">
        <ele>275.26</ele>
        <time>2018-08-27T14:54:04Z</time>
      </trkpt>
      <trkpt lat="47.65342" lon="6.19684">
        <ele>275.27</ele>
        <time>2018-08-27T14:54:06Z</time>
      </trkpt>
      <trkpt lat="47.65345" lon="6.19691">
        <ele>275.27</ele>
        <time>2018-08-27T14:54:08Z</time>
      </trkpt>
      <trkpt lat="47.65348" lon="6.19698">
        <ele>275.28</ele>
        <time>2018-08-27T14:54:10Z</time>
      </trkpt>
      <trkpt lat="47.65351" lon="6.19706">
        <ele>275.28</ele>
        <time>2018-08-27T14:54:12Z</time>
      </trkpt>
      <trkpt lat="47.65355" lon="6.19713">
        <ele>275.29</ele>
        <time>2018-08-27T14:54:14Z</time>
      </trkpt>
      <trkpt lat="47.65358" lon="6.19721">
        <ele>275.29</ele>
        <time>2018-08-27T14:54:16Z</time>
      </trkpt>
      <trkpt lat="47.65361" lon="6.19728">
        <ele>275.3</ele>
        <time>2018-08-27T14:54:18Z</time>
      </trkpt>
      <trkpt lat="47.65365" lon="6.19735">
        <ele>275.3</ele>
        <time>2018-08-27T14:54:20Z</time>
      </trkpt>
      <trkpt lat="47.65368" lon="6.19742">
        <ele>275.31</ele>
        <time>2018-08-27T14:54:22Z</time>
      </trkpt>
      <trkpt lat="47.65371" lon="6.19748">
        <ele>275.31</ele>
        <time>2018-08-27T14:54:24Z</time>
      </trkpt>
      <trkpt lat="47.65374" lon="6.19755">
        <ele>275.31</ele>
        <time>2018-08-27T14:54:26Z</time>
      </trkpt>
      <trkpt lat="47.65377" lon="6.19761">
        <ele>275.32</ele>
        <time>2018-08-27T14:54:28Z</time>
      </trkpt>
      <trkpt lat="47.6538" lon="6.19768">
        <ele>275.33</ele>
        <time>2018-08-27T14:54:30Z</time>
      </trkpt>
      <trkpt lat="47.65383" lon="6.19775">
        <ele>275.33</ele>
        <time>2018-08-27T14:54:32Z</time>
      </trkpt>
      <trkpt lat="47.65387" lon="6.19782">
        <ele>275.34</ele>
        <time>2018-08-27T14:54:34Z</time>
      </trkpt>
      <trkpt lat="47.6539" lon="6.19788">
        <ele>275.35</ele>
        <time>2018-08-27T14:54:36Z</time>
      </trkpt>
      <trkpt lat="47.65393" lon="6.19794">
        <ele>275.35</ele>
        <time>2018-08-27T14:54:38Z</time>
      </trkpt>
      <trkpt lat="47.65397" lon="6.198">
        <ele>275.36</ele>
        <time>2018-08-27T14:54:40Z</time>
      </trkpt>
      <trkpt lat="47.654" lon="6.19806">
        <ele>275.37</ele>
        <time>2018-08-27T14:54:42Z</time>
      </trkpt>
      <trkpt lat="47.65404" lon="6.19812">
        <ele>275.37</ele>
        <time>2018-08-27T14:54:44Z</time>
      </trkpt>
      <trkpt lat="47.65407" lon="6.19817">
        <ele>275.38</ele>
        <time>2018-08-27T14:54:46Z</time>
      </trkpt>
      <trkpt lat="47.6541" lon="6.19822">
        <ele>275.38</ele>
        <time>2018-08-27T14:54:48Z</time>
      </trkpt>
      <trkpt lat="47.65414" lon="6.19827">
        <ele>275.39</ele>
        <time>2018-08-27T14:54:50Z</time>
      </trkpt>
      <trkpt lat="47.65417" lon="6.19833">
        <ele>275.39</ele>
        <time>2018-08-27T14:54:52Z</time>
      </trkpt>
      <trkpt lat="47.6542" lon="6.19839">
        <ele>275.39</ele>
        <time>2018-08-27T14:54:54Z</time>
      </trkpt>
      <trkpt lat="47.65424" lon="6.19845">
        <ele>275.4</ele>
        <time>2018-08-27T14:54:56Z</time>
      </trkpt>
      <trkpt lat="47.65427" lon="6.19852">
        <ele>275.4</ele>
        <time>2018-08-27T14:54:58Z</time>
      </trkpt>
      <trkpt lat="47.6543" lon="6.19859">
        <ele>275.4</ele>
        <time>2018-08-27T14:55:00Z</time>
      </trkpt>
      <trkpt lat="47.65432" lon="6.19865">
        <ele>275.4</ele>
        <time>2018-08-27T14:55:02Z</time>
      </trkpt>
      <trkpt lat="47.65435" lon="6.19872">
        <ele>275.41</ele>
        <time>2018-08-27T14:55:04Z</time>
      </trkpt>
      <trkpt lat="47.65438" lon="6.1988">
        <ele>275.41</ele>
        <time>2018-08-27T14:55:06Z</time>
      </trkpt>
      <trkpt lat="47.65441" lon="6.19889">
        <ele>275.41</ele>
        <time>2018-08-27T14:55:08Z</time>
      </trkpt>
      <trkpt lat="47.65444" lon="6.19899">
        <ele>275.41</ele>
        <time>2018-08-27T14:55:10Z</time>
      </trkpt>
      <trkpt lat="47.65448" lon="6.19909">
        <ele>275.41</ele>
        <time>2018-08-27T14:55:12Z</time>
      </trkpt>
      <trkpt lat="47.65452" lon="6.19918">
        <ele>275.41</ele>
        <time>2018-08-27T14:55:14Z</time>
      </trkpt>
      <trkpt lat="47.65455" lon="6.19926">
        <ele>275.41</ele>
        <time>2018-08-27T14:55:16Z</time>
      </trkpt>
      <trkpt lat="47.65458" lon="6.19933">
        <ele>275.42</ele>
        <time>2018-08-27T14:55:18Z</time>
      </trkpt>
      <trkpt lat="47.65462" lon="6.1994">
        <ele>275.42</ele>
        <time>2018-08-27T14:55:20Z</time>
      </trkpt>
      <trkpt lat="47.65466" lon="6.19948">
        <ele>275.42</ele>
        <time>2018-08-27T14:55:22Z</time>
      </trkpt>
      <trkpt lat="47.6547" lon="6.19955">
        <ele>275.42</ele>
        <time>2018-08-27T14:55:24Z</time>
      </trkpt>
      <trkpt lat="47.65474" lon="6.19961">
        <ele>275.42</ele>
        <time>2018-08-27T14:55:26Z</time>
      </trkpt>
      <trkpt lat="47.65478" lon="6.19968">
        <ele>275.42</ele>
        <time>2018-08-27T14:55:28Z</time>
      </trkpt>
      <trkpt lat="47.65482" lon="6.19974">
        <ele>275.42</ele>
        <time>2018-08-27T14:55:30Z</time>
      </trkpt>
      <trkpt lat="47.65486" lon="6.19979">
        <ele>275.43</ele>
        <time>2018-08-27T14:55:32Z</time>
      </trkpt>
      <trkpt lat="47.65489" lon="6.19984">
        <ele>275.43</ele>
        <time>2018-08-27T14:55:34Z</time>
      </trkpt>
      <trkpt lat="47.65493" lon="6.1999">
        <ele>275.43</ele>
        <time>2018-08-27T14:55:36Z</time>
      </trkpt>
      <trkpt lat="47.65497" lon="6.19995">
        <ele>275.44</ele>
        <time>2018-08-27T14:55:38Z</time>
      </trkpt>
      <trkpt lat="47.65501" lon="6.20002">
        <ele>275.44</ele>
        <time>2018-08-27T14:55:40Z</time>
      </trkpt>
      <trkpt lat="47.65505" lon="6.20008">
        <ele>275.45</ele>
        <time>2018-08-27T14:55:42Z</time>
      </trkpt>
      <trkpt lat="47.6551" lon="6.20015">
        <ele>275.45</ele>
        <time>2018-08-27T14:55:44Z</time>
      </trkpt>
      <trkpt lat="47.65514" lon="6.20021">
        <ele>275.46</ele>
        <time>2018-08-27T14:55:46Z</time>
      </trkpt>
      <trkpt lat="47.65517" lon="6.20026">
        <ele>275.46</ele>
        <time>2018-08-27T14:55:48Z</time>
      </trkpt>
      <trkpt lat="47.65521" lon="6.20031">
        <ele>275.46</ele>
        <time>2018-08-27T14:55:50Z</time>
      </trkpt>
      <trkpt lat="47.65525" lon="6.20036">
        <ele>275.47</ele>
        <time>2018-08-27T14:55:52Z</time>
      </trkpt>
      <trkpt lat="47.65529" lon="6.20041">
        <ele>275.47</ele>
        <time>2018-08-27T14:55:54Z</time>
      </trkpt>
      <trkpt lat="47.65534" lon="6.20048">
        <ele>275.47</ele>
        <time>2018-08-27T14:55:57Z</time>
      </trkpt>
      <trkpt lat="47.65539" lon="6.20054">
        <ele>275.47</ele>
        <time>2018-08-27T14:56:00Z</time>
      </trkpt>
      <trkpt lat="47.65543" lon="6.20059">
        <ele>275.47</ele>
        <time>2018-08-27T14:56:02Z</time>
      </trkpt>
      <trkpt lat="47.65548" lon="6.20065">
        <ele>275.47</ele>
        <time>2018-08-27T14:56:05Z</time>
      </trkpt>
      <trkpt lat="47.65553" lon="6.2007">
        <ele>275.47</ele>
        <time>2018-08-27T14:56:08Z</time>
      </trkpt>
      <trkpt lat="47.65558" lon="6.20076">
        <ele>275.47</ele>
        <time>2018-08-27T14:56:11Z</time>
      </trkpt>
      <trkpt lat="47.65562" lon="6.2008">
        <ele>275.47</ele>
        <time>2018-08-27T14:56:13Z</time>
      </trkpt>
      <trkpt lat="47.65567" lon="6.20084">
        <ele>275.48</ele>
        <time>2018-08-27T14:56:15Z</time>
      </trkpt>
      <trkpt lat="47.65573" lon="6.20089">
        <ele>275.48</ele>
        <time>2018-08-27T14:56:18Z</time>
      </trkpt>
      <trkpt lat="47.65578" lon="6.20095">
        <ele>275.48</ele>
        <time>2018-08-27T14:56:21Z</time>
      </trkpt>
      <trkpt lat="47.65582" lon="6.20099">
        <ele>275.49</ele>
        <time>2018-08-27T14:56:23Z</time>
      </trkpt>
      <trkpt lat="47.65586" lon="6.20103">
        <ele>275.49</ele>
        <time>2018-08-27T14:56:25Z</time>
      </trkpt>
      <trkpt lat="47.6559" lon="6.20108">
        <ele>275.5</ele>
        <time>2018-08-27T14:56:28Z</time>
      </trkpt>
      <trkpt lat="47.65594" lon="6.20113">
        <ele>275.51</ele>
        <time>2018-08-27T14:56:30Z</time>
      </trkpt>
      <trkpt lat="47.65599" lon="6.20118">
        <ele>275.51</ele>
        <time>2018-08-27T14:56:33Z</time>
      </trkpt>
      <trkpt lat="47.65605" lon="6.20124">
        <ele>275.52</ele>
        <time>2018-08-27T14:56:36Z</time>
      </trkpt>
      <trkpt lat="47.6561" lon="6.2013">
        <ele>275.53</ele>
        <time>2018-08-27T14:56:39Z</time>
      </trkpt>
      <trkpt lat="47.65614" lon="6.20135">
        <ele>275.54</ele>
        <time>2018-08-27T14:56:41Z</time>
      </trkpt>
      <trkpt lat="47.65618" lon="6.20139">
        <ele>275.55</ele>
        <time>2018-08-27T14:56:43Z</time>
      </trkpt>
      <trkpt lat="47.65622" lon="6.20142">
        <ele>275.56</ele>
        <time>2018-08-27T14:56:45Z</time>
      </trkpt>
      <trkpt lat="47.65628" lon="6.20144">
        <ele>275.57</ele>
        <time>2018-08-27T14:56:48Z</time>
      </trkpt>
      <trkpt lat="47.65634" lon="6.20146">
        <ele>275.59</ele>
        <time>2018-08-27T14:56:52Z</time>
      </trkpt>
      <trkpt lat="47.65637" lon="6.20151">
        <ele>275.61</ele>
        <time>2018-08-27T14:56:55Z</time>
      </trkpt>
      <trkpt lat="47.6564" lon="6.20159">
        <ele>275.63</ele>
        <time>2018-08-27T14:56:58Z</time>
      </trkpt>
      <trkpt lat="47.65642" lon="6.20165">
        <ele>275.65</ele>
        <time>2018-08-27T14:57:00Z</time>
      </trkpt>
      <trkpt lat="47.65645" lon="6.20171">
        <ele>275.66</ele>
        <time>2018-08-27T14:57:02Z</time>
      </trkpt>
      <trkpt lat="47.65646" lon="6.20178">
        <ele>275.69</ele>
        <time>2018-08-27T14:57:05Z</time>
      </trkpt>
      <trkpt lat="47.65644" lon="6.20185">
        <ele>275.71</ele>
        <time>2018-08-27T14:57:08Z</time>
      </trkpt>
      <trkpt lat="47.6564" lon="6.20192">
        <ele>275.76</ele>
        <time>2018-08-27T14:57:10Z</time>
      </trkpt>
      <trkpt lat="47.65635" lon="6.20199">
        <ele>275.86</ele>
        <time>2018-08-27T14:57:12Z</time>
      </trkpt>
      <trkpt lat="47.65629" lon="6.20206">
        <ele>275.92</ele>
        <time>2018-08-27T14:57:14Z</time>
      </trkpt>
      <trkpt lat="47.65626" lon="6.20211">
        <ele>275.93</ele>
        <time>2018-08-27T14:57:15Z</time>
      </trkpt>
      <trkpt lat="47.6562" lon="6.20222">
        <ele>275.95</ele>
        <time>2018-08-27T14:57:17Z</time>
      </trkpt>
      <trkpt lat="47.65617" lon="6.20227">
        <ele>275.95</ele>
        <time>2018-08-27T14:57:18Z</time>
      </trkpt>
      <trkpt lat="47.65612" lon="6.20237">
        <ele>275.95</ele>
        <time>2018-08-27T14:57:20Z</time>
      </trkpt>
      <trkpt lat="47.65609" lon="6.20248">
        <ele>275.94</ele>
        <time>2018-08-27T14:57:22Z</time>
      </trkpt>
      <trkpt lat="47.65606" lon="6.20273">
        <ele>275.92</ele>
        <time>2018-08-27T14:57:24Z</time>
      </trkpt>
      <trkpt lat="47.65608" lon="6.20282">
        <ele>275.91</ele>
        <time>2018-08-27T14:57:25Z</time>
      </trkpt>
      <trkpt lat="47.6561" lon="6.2029">
        <ele>275.88</ele>
        <time>2018-08-27T14:57:26Z</time>
      </trkpt>
      <trkpt lat="47.65614" lon="6.20298">
        <ele>275.84</ele>
        <time>2018-08-27T14:57:27Z</time>
      </trkpt>
      <trkpt lat="47.65618" lon="6.20306">
        <ele>275.8</ele>
        <time>2018-08-27T14:57:28Z</time>
      </trkpt>
      <trkpt lat="47.65623" lon="6.20313">
        <ele>275.74</ele>
        <time>2018-08-27T14:57:29Z</time>
      </trkpt>
      <trkpt lat="47.65627" lon="6.20319">
        <ele>275.68</ele>
        <time>2018-08-27T14:57:30Z</time>
      </trkpt>
      <trkpt lat="47.65632" lon="6.20325">
        <ele>275.62</ele>
        <time>2018-08-27T14:57:31Z</time>
      </trkpt>
      <trkpt lat="47.65636" lon="6.20332">
        <ele>275.55</ele>
        <time>2018-08-27T14:57:32Z</time>
      </trkpt>
      <trkpt lat="47.6564" lon="6.20338">
        <ele>275.49</ele>
        <time>2018-08-27T14:57:33Z</time>
      </trkpt>
      <trkpt lat="47.65644" lon="6.20343">
        <ele>275.42</ele>
        <time>2018-08-27T14:57:34Z</time>
      </trkpt>
      <trkpt lat="47.65648" lon="6.20349">
        <ele>275.34</ele>
        <time>2018-08-27T14:57:35Z</time>
      </trkpt>
      <trkpt lat="47.65652" lon="6.20354">
        <ele>275.25</ele>
        <time>2018-08-27T14:57:36Z</time>
      </trkpt>
      <trkpt lat="47.65656" lon="6.2036">
        <ele>275.15</ele>
        <time>2018-08-27T14:57:37Z</time>
      </trkpt>
      <trkpt lat="47.65659" lon="6.20366">
        <ele>275.02</ele>
        <time>2018-08-27T14:57:38Z</time>
      </trkpt>
      <trkpt lat="47.65663" lon="6.20372">
        <ele>274.9</ele>
        <time>2018-08-27T14:57:39Z</time>
      </trkpt>
      <trkpt lat="47.65667" lon="6.20379">
        <ele>274.77</ele>
        <time>2018-08-27T14:57:40Z</time>
      </trkpt>
      <trkpt lat="47.6567" lon="6.20385">
        <ele>274.59</ele>
        <time>2018-08-27T14:57:41Z</time>
      </trkpt>
      <trkpt lat="47.65673" lon="6.20391">
        <ele>274.4</ele>
        <time>2018-08-27T14:57:42Z</time>
      </trkpt>
      <trkpt lat="47.65676" lon="6.20398">
        <ele>274.18</ele>
        <time>2018-08-27T14:57:43Z</time>
      </trkpt>
      <trkpt lat="47.65679" lon="6.20404">
        <ele>273.91</ele>
        <time>2018-08-27T14:57:44Z</time>
      </trkpt>
      <trkpt lat="47.65682" lon="6.20415">
        <ele>273.36</ele>
        <time>2018-08-27T14:57:46Z</time>
      </trkpt>
      <trkpt lat="47.65685" lon="6.20428">
        <ele>272.79</ele>
        <time>2018-08-27T14:57:48Z</time>
      </trkpt>
      <trkpt lat="47.65687" lon="6.20434">
        <ele>272.52</ele>
        <time>2018-08-27T14:57:49Z</time>
      </trkpt>
      <trkpt lat="47.6569" lon="6.20447">
        <ele>271.83</ele>
        <time>2018-08-27T14:57:51Z</time>
      </trkpt>
      <trkpt lat="47.65692" lon="6.20453">
        <ele>271.45</ele>
        <time>2018-08-27T14:57:52Z</time>
      </trkpt>
      <trkpt lat="47.65693" lon="6.2046">
        <ele>271.04</ele>
        <time>2018-08-27T14:57:53Z</time>
      </trkpt>
      <trkpt lat="47.65695" lon="6.20467">
        <ele>270.55</ele>
        <time>2018-08-27T14:57:54Z</time>
      </trkpt>
      <trkpt lat="47.65698" lon="6.20474">
        <ele>270.05</ele>
        <time>2018-08-27T14:57:55Z</time>
      </trkpt>
      <trkpt lat="47.657" lon="6.20482">
        <ele>269.51</ele>
        <time>2018-08-27T14:57:56Z</time>
      </trkpt>
      <trkpt lat="47.65703" lon="6.2049">
        <ele>269</ele>
        <time>2018-08-27T14:57:57Z</time>
      </trkpt>
      <trkpt lat="47.65706" lon="6.20499">
        <ele>268.41</ele>
        <time>2018-08-27T14:57:58Z</time>
      </trkpt>
      <trkpt lat="47.6571" lon="6.20508">
        <ele>267.82</ele>
        <time>2018-08-27T14:57:59Z</time>
      </trkpt>
      <trkpt lat="47.65714" lon="6.20516">
        <ele>267.26</ele>
        <time>2018-08-27T14:58:00Z</time>
      </trkpt>
      <trkpt lat="47.65718" lon="6.20525">
        <ele>266.73</ele>
        <time>2018-08-27T14:58:01Z</time>
      </trkpt>
      <trkpt lat="47.65724" lon="6.20532">
        <ele>266.24</ele>
        <time>2018-08-27T14:58:02Z</time>
      </trkpt>
      <trkpt lat="47.65729" lon="6.2054">
        <ele>265.77</ele>
        <time>2018-08-27T14:58:03Z</time>
      </trkpt>
      <trkpt lat="47.65735" lon="6.20548">
        <ele>265.35</ele>
        <time>2018-08-27T14:58:04Z</time>
      </trkpt>
      <trkpt lat="47.65741" lon="6.20556">
        <ele>264.97</ele>
        <time>2018-08-27T14:58:05Z</time>
      </trkpt>
      <trkpt lat="47.65746" lon="6.20565">
        <ele>264.65</ele>
        <time>2018-08-27T14:58:06Z</time>
      </trkpt>
      <trkpt lat="47.65752" lon="6.20574">
        <ele>264.38</ele>
        <time>2018-08-27T14:58:07Z</time>
      </trkpt>
      <trkpt lat="47.65758" lon="6.20583">
        <ele>264.12</ele>
        <time>2018-08-27T14:58:08Z</time>
      </trkpt>
      <trkpt lat="47.65763" lon="6.20592">
        <ele>263.85</ele>
        <time>2018-08-27T14:58:09Z</time>
      </trkpt>
      <trkpt lat="47.65768" lon="6.20601">
        <ele>263.54</ele>
        <time>2018-08-27T14:58:10Z</time>
      </trkpt>
      <trkpt lat="47.65773" lon="6.2061">
        <ele>263.24</ele>
        <time>2018-08-27T14:58:11Z</time>
      </trkpt>
      <trkpt lat="47.65778" lon="6.20618">
        <ele>262.9</ele>
        <time>2018-08-27T14:58:12Z</time>
      </trkpt>
      <trkpt lat="47.65783" lon="6.20627">
        <ele>262.54</ele>
        <time>2018-08-27T14:58:13Z</time>
      </trkpt>
      <trkpt lat="47.65788" lon="6.20635">
        <ele>262.15</ele>
        <time>2018-08-27T14:58:14Z</time>
      </trkpt>
      <trkpt lat="47.65794" lon="6.20642">
        <ele>261.81</ele>
        <time>2018-08-27T14:58:15Z</time>
      </trkpt>
      <trkpt lat="47.658" lon="6.20649">
        <ele>261.48</ele>
        <time>2018-08-27T14:58:16Z</time>
      </trkpt>
      <trkpt lat="47.65806" lon="6.20655">
        <ele>261.14</ele>
        <time>2018-08-27T14:58:17Z</time>
      </trkpt>
      <trkpt lat="47.65812" lon="6.20661">
        <ele>260.77</ele>
        <time>2018-08-27T14:58:18Z</time>
      </trkpt>
      <trkpt lat="47.65818" lon="6.20667">
        <ele>260.36</ele>
        <time>2018-08-27T14:58:19Z</time>
      </trkpt>
      <trkpt lat="47.65823" lon="6.20674">
        <ele>259.94</ele>
        <time>2018-08-27T14:58:20Z</time>
      </trkpt>
      <trkpt lat="47.65828" lon="6.20681">
        <ele>259.52</ele>
        <time>2018-08-27T14:58:21Z</time>
      </trkpt>
      <trkpt lat="47.65833" lon="6.2069">
        <ele>259.07</ele>
        <time>2018-08-27T14:58:22Z</time>
      </trkpt>
      <trkpt lat="47.65837" lon="6.20698">
        <ele>258.65</ele>
        <time>2018-08-27T14:58:23Z</time>
      </trkpt>
      <trkpt lat="47.65841" lon="6.20706">
        <ele>258.27</ele>
        <time>2018-08-27T14:58:24Z</time>
      </trkpt>
      <trkpt lat="47.65846" lon="6.20713">
        <ele>257.94</ele>
        <time>2018-08-27T14:58:25Z</time>
      </trkpt>
      <trkpt lat="47.65852" lon="6.20717">
        <ele>257.66</ele>
        <time>2018-08-27T14:58:26Z</time>
      </trkpt>
      <trkpt lat="47.65858" lon="6.20722">
        <ele>257.49</ele>
        <time>2018-08-27T14:58:27Z</time>
      </trkpt>
      <trkpt lat="47.65864" lon="6.20725">
        <ele>257.35</ele>
        <time>2018-08-27T14:58:28Z</time>
      </trkpt>
      <trkpt lat="47.65871" lon="6.20726">
        <ele>257.26</ele>
        <time>2018-08-27T14:58:29Z</time>
      </trkpt>
      <trkpt lat="47.65877" lon="6.20728">
        <ele>257.21</ele>
        <time>2018-08-27T14:58:30Z</time>
      </trkpt>
      <trkpt lat="47.65883" lon="6.20731">
        <ele>257.13</ele>
        <time>2018-08-27T14:58:31Z</time>
      </trkpt>
      <trkpt lat="47.65888" lon="6.20733">
        <ele>257.01</ele>
        <time>2018-08-27T14:58:32Z</time>
      </trkpt>
      <trkpt lat="47.65894" lon="6.20735">
        <ele>256.86</ele>
        <time>2018-08-27T14:58:33Z</time>
      </trkpt>
      <trkpt lat="47.65899" lon="6.20738">
        <ele>256.64</ele>
        <time>2018-08-27T14:58:34Z</time>
      </trkpt>
      <trkpt lat="47.65904" lon="6.20742">
        <ele>256.38</ele>
        <time>2018-08-27T14:58:35Z</time>
      </trkpt>
      <trkpt lat="47.65909" lon="6.20747">
        <ele>256.05</ele>
        <time>2018-08-27T14:58:36Z</time>
      </trkpt>
      <trkpt lat="47.65912" lon="6.20754">
        <ele>255.71</ele>
        <time>2018-08-27T14:58:37Z</time>
      </trkpt>
      <trkpt lat="47.65916" lon="6.20761">
        <ele>255.33</ele>
        <time>2018-08-27T14:58:38Z</time>
      </trkpt>
      <trkpt lat="47.6592" lon="6.20768">
        <ele>254.95</ele>
        <time>2018-08-27T14:58:39Z</time>
      </trkpt>
      <trkpt lat="47.65924" lon="6.20775">
        <ele>254.6</ele>
        <time>2018-08-27T14:58:40Z</time>
      </trkpt>
      <trkpt lat="47.65928" lon="6.20782">
        <ele>254.26</ele>
        <time>2018-08-27T14:58:41Z</time>
      </trkpt>
      <trkpt lat="47.65933" lon="6.2079">
        <ele>253.94</ele>
        <time>2018-08-27T14:58:42Z</time>
      </trkpt>
      <trkpt lat="47.65937" lon="6.20797">
        <ele>253.65</ele>
        <time>2018-08-27T14:58:43Z</time>
      </trkpt>
      <trkpt lat="47.65941" lon="6.20804">
        <ele>253.37</ele>
        <time>2018-08-27T14:58:44Z</time>
      </trkpt>
      <trkpt lat="47.65944" lon="6.20811">
        <ele>253.07</ele>
        <time>2018-08-27T14:58:45Z</time>
      </trkpt>
      <trkpt lat="47.65948" lon="6.20818">
        <ele>252.78</ele>
        <time>2018-08-27T14:58:46Z</time>
      </trkpt>
      <trkpt lat="47.65951" lon="6.20826">
        <ele>252.47</ele>
        <time>2018-08-27T14:58:47Z</time>
      </trkpt>
      <trkpt lat="47.65955" lon="6.20833">
        <ele>252.16</ele>
        <time>2018-08-27T14:58:48Z</time>
      </trkpt>
      <trkpt lat="47.65959" lon="6.2084">
        <ele>251.86</ele>
        <time>2018-08-27T14:58:49Z</time>
      </trkpt>
      <trkpt lat="47.65963" lon="6.20847">
        <ele>251.56</ele>
        <time>2018-08-27T14:58:50Z</time>
      </trkpt>
      <trkpt lat="47.65967" lon="6.20854">
        <ele>251.25</ele>
        <time>2018-08-27T14:58:51Z</time>
      </trkpt>
      <trkpt lat="47.65971" lon="6.20861">
        <ele>250.97</ele>
        <time>2018-08-27T14:58:52Z</time>
      </trkpt>
      <trkpt lat="47.65975" lon="6.20866">
        <ele>250.7</ele>
        <time>2018-08-27T14:58:53Z</time>
      </trkpt>
      <trkpt lat="47.65978" lon="6.20872">
        <ele>250.42</ele>
        <time>2018-08-27T14:58:54Z</time>
      </trkpt>
      <trkpt lat="47.6598" lon="6.20878">
        <ele>250.16</ele>
        <time>2018-08-27T14:58:55Z</time>
      </trkpt>
      <trkpt lat="47.65983" lon="6.2089">
        <ele>249.66</ele>
        <time>2018-08-27T14:58:57Z</time>
      </trkpt>
      <trkpt lat="47.65988" lon="6.209">
        <ele>249.11</ele>
        <time>2018-08-27T14:58:59Z</time>
      </trkpt>
      <trkpt lat="47.65991" lon="6.20905">
        <ele>248.81</ele>
        <time>2018-08-27T14:59:00Z</time>
      </trkpt>
      <trkpt lat="47.65995" lon="6.20908">
        <ele>248.51</ele>
        <time>2018-08-27T14:59:01Z</time>
      </trkpt>
      <trkpt lat="47.65999" lon="6.20912">
        <ele>248.24</ele>
        <time>2018-08-27T14:59:02Z</time>
      </trkpt>
      <trkpt lat="47.66004" lon="6.20914">
        <ele>247.97</ele>
        <time>2018-08-27T14:59:03Z</time>
      </trkpt>
      <trkpt lat="47.66011" lon="6.20917">
        <ele>247.5</ele>
        <time>2018-08-27T14:59:05Z</time>
      </trkpt>
      <trkpt lat="47.66019" lon="6.20918">
        <ele>247.38</ele>
        <time>2018-08-27T14:59:07Z</time>
      </trkpt>
      <trkpt lat="47.66026" lon="6.20917">
        <ele>247.28</ele>
        <time>2018-08-27T14:59:10Z</time>
      </trkpt>
      <trkpt lat="47.66031" lon="6.20917">
        <ele>247.21</ele>
        <time>2018-08-27T14:59:12Z</time>
      </trkpt>
      <trkpt lat="47.66037" lon="6.20916">
        <ele>247.14</ele>
        <time>2018-08-27T14:59:14Z</time>
      </trkpt>
      <trkpt lat="47.66043" lon="6.20916">
        <ele>247.08</ele>
        <time>2018-08-27T14:59:16Z</time>
      </trkpt>
      <trkpt lat="47.66049" lon="6.20916">
        <ele>247.01</ele>
        <time>2018-08-27T14:59:18Z</time>
      </trkpt>
      <trkpt lat="47.66054" lon="6.20915">
        <ele>246.93</ele>
        <time>2018-08-27T14:59:20Z</time>
      </trkpt>
      <trkpt lat="47.6606" lon="6.20914">
        <ele>246.85</ele>
        <time>2018-08-27T14:59:22Z</time>
      </trkpt>
      <trkpt lat="47.66065" lon="6.20914">
        <ele>246.77</ele>
        <time>2018-08-27T14:59:24Z</time>
      </trkpt>
      <trkpt lat="47.6607" lon="6.20914">
        <ele>246.68</ele>
        <time>2018-08-27T14:59:26Z</time>
      </trkpt>
      <trkpt lat="47.66075" lon="6.20914">
        <ele>246.6</ele>
        <time>2018-08-27T14:59:28Z</time>
      </trkpt>
      <trkpt lat="47.6608" lon="6.20913">
        <ele>246.53</ele>
        <time>2018-08-27T14:59:30Z</time>
      </trkpt>
      <trkpt lat="47.66085" lon="6.20912">
        <ele>246.45</ele>
        <time>2018-08-27T14:59:32Z</time>
      </trkpt>
      <trkpt lat="47.66091" lon="6.2091">
        <ele>246.35</ele>
        <time>2018-08-27T14:59:35Z</time>
      </trkpt>
      <trkpt lat="47.66096" lon="6.20908">
        <ele>246.29</ele>
        <time>2018-08-27T14:59:37Z</time>
      </trkpt>
      <trkpt lat="47.66102" lon="6.20906">
        <ele>246.21</ele>
        <time>2018-08-27T14:59:40Z</time>
      </trkpt>
      <trkpt lat="47.66108" lon="6.20905">
        <ele>246.15</ele>
        <time>2018-08-27T14:59:43Z</time>
      </trkpt>
      <trkpt lat="47.66113" lon="6.20904">
        <ele>246.12</ele>
        <time>2018-08-27T14:59:45Z</time>
      </trkpt>
      <trkpt lat="47.66117" lon="6.20904">
        <ele>246.07</ele>
        <time>2018-08-27T14:59:47Z</time>
      </trkpt>
      <trkpt lat="47.66122" lon="6.20903">
        <ele>246.02</ele>
        <time>2018-08-27T14:59:49Z</time>
      </trkpt>
      <trkpt lat="47.66127" lon="6.20901">
        <ele>245.97</ele>
        <time>2018-08-27T14:59:51Z</time>
      </trkpt>
      <trkpt lat="47.66132" lon="6.209">
        <ele>245.91</ele>
        <time>2018-08-27T14:59:53Z</time>
      </trkpt>
      <trkpt lat="47.66137" lon="6.20899">
        <ele>245.86</ele>
        <time>2018-08-27T14:59:55Z</time>
      </trkpt>
      <trkpt lat="47.66143" lon="6.20899">
        <ele>245.8</ele>
        <time>2018-08-27T14:59:57Z</time>
      </trkpt>
      <trkpt lat="47.66149" lon="6.20898">
        <ele>245.73</ele>
        <time>2018-08-27T14:59:59Z</time>
      </trkpt>
      <trkpt lat="47.66155" lon="6.20896">
        <ele>245.66</ele>
        <time>2018-08-27T15:00:01Z</time>
      </trkpt>
      <trkpt lat="47.66161" lon="6.20894">
        <ele>245.58</ele>
        <time>2018-08-27T15:00:03Z</time>
      </trkpt>
      <trkpt lat="47.66167" lon="6.20892">
        <ele>245.51</ele>
        <time>2018-08-27T15:00:05Z</time>
      </trkpt>
      <trkpt lat="47.66173" lon="6.20888">
        <ele>245.44</ele>
        <time>2018-08-27T15:00:07Z</time>
      </trkpt>
      <trkpt lat="47.66181" lon="6.20879">
        <ele>245.4</ele>
        <time>2018-08-27T15:00:08Z</time>
      </trkpt>
      <trkpt lat="47.66189" lon="6.20874">
        <ele>244.85</ele>
        <time>2018-08-27T15:00:10Z</time>
      </trkpt>
      <trkpt lat="47.66196" lon="6.20869">
        <ele>244.71</ele>
        <time>2018-08-27T15:00:12Z</time>
      </trkpt>
      <trkpt lat="47.66203" lon="6.20866">
        <ele>244.65</ele>
        <time>2018-08-27T15:00:14Z</time>
      </trkpt>
      <trkpt lat="47.66208" lon="6.20863">
        <ele>244.61</ele>
        <time>2018-08-27T15:00:16Z</time>
      </trkpt>
      <trkpt lat="47.66212" lon="6.2086">
        <ele>244.54</ele>
        <time>2018-08-27T15:00:19Z</time>
      </trkpt>
      <trkpt lat="47.66219" lon="6.20858">
        <ele>244.48</ele>
        <time>2018-08-27T15:00:22Z</time>
      </trkpt>
      <trkpt lat="47.66225" lon="6.20856">
        <ele>244.41</ele>
        <time>2018-08-27T15:00:25Z</time>
      </trkpt>
      <trkpt lat="47.66231" lon="6.20854">
        <ele>244.35</ele>
        <time>2018-08-27T15:00:28Z</time>
      </trkpt>
      <trkpt lat="47.66235" lon="6.20854">
        <ele>244.3</ele>
        <time>2018-08-27T15:00:30Z</time>
      </trkpt>
      <trkpt lat="47.66242" lon="6.20853">
        <ele>244.23</ele>
        <time>2018-08-27T15:00:33Z</time>
      </trkpt>
      <trkpt lat="47.66248" lon="6.20855">
        <ele>244.16</ele>
        <time>2018-08-27T15:00:36Z</time>
      </trkpt>
      <trkpt lat="47.66253" lon="6.20857">
        <ele>244.12</ele>
        <time>2018-08-27T15:00:38Z</time>
      </trkpt>
      <trkpt lat="47.66259" lon="6.2086">
        <ele>244.07</ele>
        <time>2018-08-27T15:00:40Z</time>
      </trkpt>
      <trkpt lat="47.66265" lon="6.20863">
        <ele>244.01</ele>
        <time>2018-08-27T15:00:42Z</time>
      </trkpt>
      <trkpt lat="47.66271" lon="6.20866">
        <ele>243.96</ele>
        <time>2018-08-27T15:00:44Z</time>
      </trkpt>
      <trkpt lat="47.66277" lon="6.20872">
        <ele>243.91</ele>
        <time>2018-08-27T15:00:46Z</time>
      </trkpt>
      <trkpt lat="47.66281" lon="6.2088">
        <ele>243.87</ele>
        <time>2018-08-27T15:00:48Z</time>
      </trkpt>
      <trkpt lat="47.66286" lon="6.20888">
        <ele>243.82</ele>
        <time>2018-08-27T15:00:50Z</time>
      </trkpt>
      <trkpt lat="47.6629" lon="6.20896">
        <ele>243.78</ele>
        <time>2018-08-27T15:00:52Z</time>
      </trkpt>
      <trkpt lat="47.66294" lon="6.20903">
        <ele>243.73</ele>
        <time>2018-08-27T15:00:54Z</time>
      </trkpt>
      <trkpt lat="47.663" lon="6.20908">
        <ele>243.68</ele>
        <time>2018-08-27T15:00:56Z</time>
      </trkpt>
      <trkpt lat="47.66305" lon="6.2091">
        <ele>243.63</ele>
        <time>2018-08-27T15:00:58Z</time>
      </trkpt>
      <trkpt lat="47.6631" lon="6.2091">
        <ele>243.59</ele>
        <time>2018-08-27T15:01:00Z</time>
      </trkpt>
      <trkpt lat="47.66315" lon="6.20912">
        <ele>243.54</ele>
        <time>2018-08-27T15:01:02Z</time>
      </trkpt>
      <trkpt lat="47.66321" lon="6.20913">
        <ele>243.48</ele>
        <time>2018-08-27T15:01:05Z</time>
      </trkpt>
      <trkpt lat="47.66326" lon="6.20915">
        <ele>243.44</ele>
        <time>2018-08-27T15:01:07Z</time>
      </trkpt>
      <trkpt lat="47.66331" lon="6.20919">
        <ele>243.37</ele>
        <time>2018-08-27T15:01:10Z</time>
      </trkpt>
      <trkpt lat="47.66337" lon="6.20923">
        <ele>243.31</ele>
        <time>2018-08-27T15:01:13Z</time>
      </trkpt>
      <trkpt lat="47.66343" lon="6.20926">
        <ele>243.26</ele>
        <time>2018-08-27T15:01:16Z</time>
      </trkpt>
      <trkpt lat="47.66348" lon="6.2093">
        <ele>243.2</ele>
        <time>2018-08-27T15:01:19Z</time>
      </trkpt>
      <trkpt lat="47.66352" lon="6.20934">
        <ele>243.14</ele>
        <time>2018-08-27T15:01:22Z</time>
      </trkpt>
      <trkpt lat="47.66356" lon="6.20937">
        <ele>243.09</ele>
        <time>2018-08-27T15:01:25Z</time>
      </trkpt>
      <trkpt lat="47.6636" lon="6.20941">
        <ele>243.03</ele>
        <time>2018-08-27T15:01:28Z</time>
      </trkpt>
      <trkpt lat="47.66365" lon="6.20946">
        <ele>242.98</ele>
        <time>2018-08-27T15:01:31Z</time>
      </trkpt>
      <trkpt lat="47.66369" lon="6.20951">
        <ele>242.93</ele>
        <time>2018-08-27T15:01:34Z</time>
      </trkpt>
      <trkpt lat="47.66373" lon="6.20958">
        <ele>242.88</ele>
        <time>2018-08-27T15:01:37Z</time>
      </trkpt>
      <trkpt lat="47.66378" lon="6.20964">
        <ele>242.84</ele>
        <time>2018-08-27T15:01:40Z</time>
      </trkpt>
      <trkpt lat="47.66382" lon="6.20968">
        <ele>242.8</ele>
        <time>2018-08-27T15:01:43Z</time>
      </trkpt>
      <trkpt lat="47.66385" lon="6.20974">
        <ele>242.77</ele>
        <time>2018-08-27T15:01:46Z</time>
      </trkpt>
      <trkpt lat="47.66388" lon="6.2098">
        <ele>242.74</ele>
        <time>2018-08-27T15:01:49Z</time>
      </trkpt>
      <trkpt lat="47.66391" lon="6.20989">
        <ele>242.72</ele>
        <time>2018-08-27T15:01:52Z</time>
      </trkpt>
      <trkpt lat="47.66392" lon="6.20995">
        <ele>242.71</ele>
        <time>2018-08-27T15:01:54Z</time>
      </trkpt>
      <trkpt lat="47.66393" lon="6.21004">
        <ele>242.63</ele>
        <time>2018-08-27T15:01:56Z</time>
      </trkpt>
      <trkpt lat="47.66393" lon="6.21015">
        <ele>242.56</ele>
        <time>2018-08-27T15:01:58Z</time>
      </trkpt>
      <trkpt lat="47.66394" lon="6.21029">
        <ele>242.51</ele>
        <time>2018-08-27T15:02:00Z</time>
      </trkpt>
      <trkpt lat="47.66396" lon="6.21035">
        <ele>242.49</ele>
        <time>2018-08-27T15:02:01Z</time>
      </trkpt>
      <trkpt lat="47.66399" lon="6.2104">
        <ele>242.48</ele>
        <time>2018-08-27T15:02:02Z</time>
      </trkpt>
      <trkpt lat="47.66405" lon="6.21047">
        <ele>242.47</ele>
        <time>2018-08-27T15:02:04Z</time>
      </trkpt>
      <trkpt lat="47.66411" lon="6.21051">
        <ele>242.47</ele>
        <time>2018-08-27T15:02:06Z</time>
      </trkpt>
      <trkpt lat="47.66416" lon="6.21052">
        <ele>242.47</ele>
        <time>2018-08-27T15:02:08Z</time>
      </trkpt>
      <trkpt lat="47.66421" lon="6.2105">
        <ele>242.47</ele>
        <time>2018-08-27T15:02:11Z</time>
      </trkpt>
      <trkpt lat="47.66427" lon="6.21049">
        <ele>242.48</ele>
        <time>2018-08-27T15:02:15Z</time>
      </trkpt>
      <trkpt lat="47.66431" lon="6.21046">
        <ele>242.5</ele>
        <time>2018-08-27T15:02:18Z</time>
      </trkpt>
      <trkpt lat="47.66436" lon="6.21044">
        <ele>242.53</ele>
        <time>2018-08-27T15:02:22Z</time>
      </trkpt>
      <trkpt lat="47.66441" lon="6.2104">
        <ele>242.57</ele>
        <time>2018-08-27T15:02:26Z</time>
      </trkpt>
      <trkpt lat="47.66446" lon="6.21039">
        <ele>242.61</ele>
        <time>2018-08-27T15:02:30Z</time>
      </trkpt>
      <trkpt lat="47.66451" lon="6.21038">
        <ele>242.66</ele>
        <time>2018-08-27T15:02:35Z</time>
      </trkpt>
      <trkpt lat="47.66455" lon="6.21033">
        <ele>242.73</ele>
        <time>2018-08-27T15:02:40Z</time>
      </trkpt>
      <trkpt lat="47.6646" lon="6.21031">
        <ele>242.81</ele>
        <time>2018-08-27T15:02:45Z</time>
      </trkpt>
      <trkpt lat="47.66465" lon="6.2103">
        <ele>242.88</ele>
        <time>2018-08-27T15:02:49Z</time>
      </trkpt>
      <trkpt lat="47.6647" lon="6.21026">
        <ele>242.95</ele>
        <time>2018-08-27T15:02:53Z</time>
      </trkpt>
      <trkpt lat="47.66475" lon="6.21024">
        <ele>243.02</ele>
        <time>2018-08-27T15:02:57Z</time>
      </trkpt>
      <trkpt lat="47.6648" lon="6.21021">
        <ele>243.12</ele>
        <time>2018-08-27T15:03:02Z</time>
      </trkpt>
      <trkpt lat="47.66485" lon="6.21019">
        <ele>243.2</ele>
        <time>2018-08-27T15:03:06Z</time>
      </trkpt>
      <trkpt lat="47.6649" lon="6.21017">
        <ele>243.29</ele>
        <time>2018-08-27T15:03:10Z</time>
      </trkpt>
      <trkpt lat="47.66495" lon="6.21019">
        <ele>243.39</ele>
        <time>2018-08-27T15:03:14Z</time>
      </trkpt>
      <trkpt lat="47.665" lon="6.2102">
        <ele>243.5</ele>
        <time>2018-08-27T15:03:18Z</time>
      </trkpt>
      <trkpt lat="47.66504" lon="6.21015">
        <ele>243.61</ele>
        <time>2018-08-27T15:03:22Z</time>
      </trkpt>
      <trkpt lat="47.66507" lon="6.21011">
        <ele>243.73</ele>
        <time>2018-08-27T15:03:26Z</time>
      </trkpt>
      <trkpt lat="47.66513" lon="6.2101">
        <ele>243.85</ele>
        <time>2018-08-27T15:03:30Z</time>
      </trkpt>
      <trkpt lat="47.66517" lon="6.21009">
        <ele>243.95</ele>
        <time>2018-08-27T15:03:33Z</time>
      </trkpt>
      <trkpt lat="47.66522" lon="6.21005">
        <ele>244.09</ele>
        <time>2018-08-27T15:03:37Z</time>
      </trkpt>
      <trkpt lat="47.66527" lon="6.21">
        <ele>244.25</ele>
        <time>2018-08-27T15:03:41Z</time>
      </trkpt>
      <trkpt lat="47.66532" lon="6.20997">
        <ele>244.41</ele>
        <time>2018-08-27T15:03:45Z</time>
      </trkpt>
      <trkpt lat="47.66536" lon="6.20996">
        <ele>244.57</ele>
        <time>2018-08-27T15:03:49Z</time>
      </trkpt>
      <trkpt lat="47.6654" lon="6.20993">
        <ele>244.75</ele>
        <time>2018-08-27T15:03:53Z</time>
      </trkpt>
      <trkpt lat="47.66545" lon="6.20989">
        <ele>244.92</ele>
        <time>2018-08-27T15:03:57Z</time>
      </trkpt>
      <trkpt lat="47.66549" lon="6.20988">
        <ele>245.11</ele>
        <time>2018-08-27T15:04:01Z</time>
      </trkpt>
      <trkpt lat="47.66554" lon="6.20987">
        <ele>245.29</ele>
        <time>2018-08-27T15:04:05Z</time>
      </trkpt>
      <trkpt lat="47.66559" lon="6.20983">
        <ele>245.47</ele>
        <time>2018-08-27T15:04:09Z</time>
      </trkpt>
      <trkpt lat="47.66564" lon="6.2098">
        <ele>245.64</ele>
        <time>2018-08-27T15:04:13Z</time>
      </trkpt>
      <trkpt lat="47.66569" lon="6.20979">
        <ele>245.82</ele>
        <time>2018-08-27T15:04:17Z</time>
      </trkpt>
      <trkpt lat="47.66574" lon="6.20975">
        <ele>245.99</ele>
        <time>2018-08-27T15:04:21Z</time>
      </trkpt>
      <trkpt lat="47.66578" lon="6.20973">
        <ele>246.16</ele>
        <time>2018-08-27T15:04:25Z</time>
      </trkpt>
      <trkpt lat="47.66583" lon="6.20972">
        <ele>246.33</ele>
        <time>2018-08-27T15:04:29Z</time>
      </trkpt>
      <trkpt lat="47.66589" lon="6.20971">
        <ele>246.51</ele>
        <time>2018-08-27T15:04:33Z</time>
      </trkpt>
      <trkpt lat="47.66594" lon="6.20969">
        <ele>246.68</ele>
        <time>2018-08-27T15:04:37Z</time>
      </trkpt>
      <trkpt lat="47.66599" lon="6.20966">
        <ele>246.8</ele>
        <time>2018-08-27T15:04:40Z</time>
      </trkpt>
      <trkpt lat="47.66603" lon="6.20965">
        <ele>246.93</ele>
        <time>2018-08-27T15:04:43Z</time>
      </trkpt>
      <trkpt lat="47.66608" lon="6.20964">
        <ele>247.06</ele>
        <time>2018-08-27T15:04:46Z</time>
      </trkpt>
      <trkpt lat="47.66613" lon="6.20962">
        <ele>247.19</ele>
        <time>2018-08-27T15:04:49Z</time>
      </trkpt>
      <trkpt lat="47.66618" lon="6.2096">
        <ele>247.32</ele>
        <time>2018-08-27T15:04:52Z</time>
      </trkpt>
      <trkpt lat="47.66623" lon="6.20958">
        <ele>247.45</ele>
        <time>2018-08-27T15:04:55Z</time>
      </trkpt>
      <trkpt lat="47.66628" lon="6.20955">
        <ele>247.62</ele>
        <time>2018-08-27T15:04:59Z</time>
      </trkpt>
      <trkpt lat="47.66632" lon="6.20953">
        <ele>247.75</ele>
        <time>2018-08-27T15:05:02Z</time>
      </trkpt>
      <trkpt lat="47.66638" lon="6.20951">
        <ele>247.88</ele>
        <time>2018-08-27T15:05:05Z</time>
      </trkpt>
      <trkpt lat="47.66643" lon="6.20949">
        <ele>248.01</ele>
        <time>2018-08-27T15:05:08Z</time>
      </trkpt>
      <trkpt lat="47.66648" lon="6.20946">
        <ele>248.14</ele>
        <time>2018-08-27T15:05:11Z</time>
      </trkpt>
      <trkpt lat="47.66654" lon="6.20944">
        <ele>248.27</ele>
        <time>2018-08-27T15:05:14Z</time>
      </trkpt>
      <trkpt lat="47.66659" lon="6.20942">
        <ele>248.4</ele>
        <time>2018-08-27T15:05:17Z</time>
      </trkpt>
      <trkpt lat="47.66665" lon="6.20939">
        <ele>248.53</ele>
        <time>2018-08-27T15:05:20Z</time>
      </trkpt>
      <trkpt lat="47.6667" lon="6.20936">
        <ele>248.66</ele>
        <time>2018-08-27T15:05:23Z</time>
      </trkpt>
      <trkpt lat="47.66676" lon="6.20933">
        <ele>248.79</ele>
        <time>2018-08-27T15:05:26Z</time>
      </trkpt>
      <trkpt lat="47.66681" lon="6.2093">
        <ele>248.92</ele>
        <time>2018-08-27T15:05:29Z</time>
      </trkpt>
      <trkpt lat="47.66687" lon="6.20926">
        <ele>249.05</ele>
        <time>2018-08-27T15:05:32Z</time>
      </trkpt>
      <trkpt lat="47.66692" lon="6.20922">
        <ele>249.18</ele>
        <time>2018-08-27T15:05:35Z</time>
      </trkpt>
      <trkpt lat="47.66698" lon="6.20919">
        <ele>249.31</ele>
        <time>2018-08-27T15:05:38Z</time>
      </trkpt>
      <trkpt lat="47.66703" lon="6.20915">
        <ele>249.44</ele>
        <time>2018-08-27T15:05:41Z</time>
      </trkpt>
      <trkpt lat="47.66708" lon="6.20912">
        <ele>249.57</ele>
        <time>2018-08-27T15:05:44Z</time>
      </trkpt>
      <trkpt lat="47.66713" lon="6.2091">
        <ele>249.7</ele>
        <time>2018-08-27T15:05:47Z</time>
      </trkpt>
      <trkpt lat="47.66719" lon="6.20907">
        <ele>249.84</ele>
        <time>2018-08-27T15:05:50Z</time>
      </trkpt>
      <trkpt lat="47.66724" lon="6.20904">
        <ele>249.97</ele>
        <time>2018-08-27T15:05:53Z</time>
      </trkpt>
      <trkpt lat="47.66728" lon="6.20902">
        <ele>250.11</ele>
        <time>2018-08-27T15:05:56Z</time>
      </trkpt>
      <trkpt lat="47.66733" lon="6.209">
        <ele>250.25</ele>
        <time>2018-08-27T15:05:59Z</time>
      </trkpt>
      <trkpt lat="47.66737" lon="6.20898">
        <ele>250.39</ele>
        <time>2018-08-27T15:06:02Z</time>
      </trkpt>
      <trkpt lat="47.66741" lon="6.20895">
        <ele>250.53</ele>
        <time>2018-08-27T15:06:05Z</time>
      </trkpt>
      <trkpt lat="47.66747" lon="6.20891">
        <ele>250.71</ele>
        <time>2018-08-27T15:06:09Z</time>
      </trkpt>
      <trkpt lat="47.66751" lon="6.20889">
        <ele>250.86</ele>
        <time>2018-08-27T15:06:12Z</time>
      </trkpt>
      <trkpt lat="47.66756" lon="6.20885">
        <ele>251.04</ele>
        <time>2018-08-27T15:06:16Z</time>
      </trkpt>
      <trkpt lat="47.66761" lon="6.20882">
        <ele>251.18</ele>
        <time>2018-08-27T15:06:19Z</time>
      </trkpt>
      <trkpt lat="47.66766" lon="6.20879">
        <ele>251.32</ele>
        <time>2018-08-27T15:06:22Z</time>
      </trkpt>
      <trkpt lat="47.66771" lon="6.20876">
        <ele>251.47</ele>
        <time>2018-08-27T15:06:25Z</time>
      </trkpt>
      <trkpt lat="47.66775" lon="6.20873">
        <ele>251.63</ele>
        <time>2018-08-27T15:06:28Z</time>
      </trkpt>
      <trkpt lat="47.66779" lon="6.2087">
        <ele>251.79</ele>
        <time>2018-08-27T15:06:31Z</time>
      </trkpt>
      <trkpt lat="47.66784" lon="6.20866">
        <ele>252.02</ele>
        <time>2018-08-27T15:06:35Z</time>
      </trkpt>
      <trkpt lat="47.66789" lon="6.20863">
        <ele>252.25</ele>
        <time>2018-08-27T15:06:39Z</time>
      </trkpt>
      <trkpt lat="47.66793" lon="6.2086">
        <ele>252.5</ele>
        <time>2018-08-27T15:06:43Z</time>
      </trkpt>
      <trkpt lat="47.66797" lon="6.20856">
        <ele>252.74</ele>
        <time>2018-08-27T15:06:47Z</time>
      </trkpt>
      <trkpt lat="47.66802" lon="6.20853">
        <ele>252.99</ele>
        <time>2018-08-27T15:06:51Z</time>
      </trkpt>
      <trkpt lat="47.66806" lon="6.2085">
        <ele>253.25</ele>
        <time>2018-08-27T15:06:55Z</time>
      </trkpt>
      <trkpt lat="47.66809" lon="6.20844">
        <ele>253.51</ele>
        <time>2018-08-27T15:06:59Z</time>
      </trkpt>
      <trkpt lat="47.66814" lon="6.20839">
        <ele>253.84</ele>
        <time>2018-08-27T15:07:04Z</time>
      </trkpt>
      <trkpt lat="47.66818" lon="6.20833">
        <ele>254.11</ele>
        <time>2018-08-27T15:07:08Z</time>
      </trkpt>
      <trkpt lat="47.66822" lon="6.20829">
        <ele>254.5</ele>
        <time>2018-08-27T15:07:14Z</time>
      </trkpt>
      <trkpt lat="47.66826" lon="6.20824">
        <ele>254.83</ele>
        <time>2018-08-27T15:07:19Z</time>
      </trkpt>
      <trkpt lat="47.6683" lon="6.2082">
        <ele>255.14</ele>
        <time>2018-08-27T15:07:24Z</time>
      </trkpt>
      <trkpt lat="47.66834" lon="6.20815">
        <ele>255.39</ele>
        <time>2018-08-27T15:07:28Z</time>
      </trkpt>
      <trkpt lat="47.66838" lon="6.20811">
        <ele>255.64</ele>
        <time>2018-08-27T15:07:32Z</time>
      </trkpt>
      <trkpt lat="47.66842" lon="6.20808">
        <ele>255.88</ele>
        <time>2018-08-27T15:07:36Z</time>
      </trkpt>
      <trkpt lat="47.66846" lon="6.20803">
        <ele>256.12</ele>
        <time>2018-08-27T15:07:40Z</time>
      </trkpt>
      <trkpt lat="47.6685" lon="6.20797">
        <ele>256.36</ele>
        <time>2018-08-27T15:07:44Z</time>
      </trkpt>
      <trkpt lat="47.66854" lon="6.20794">
        <ele>256.55</ele>
        <time>2018-08-27T15:07:47Z</time>
      </trkpt>
      <trkpt lat="47.66859" lon="6.20789">
        <ele>256.8</ele>
        <time>2018-08-27T15:07:51Z</time>
      </trkpt>
      <trkpt lat="47.66864" lon="6.20784">
        <ele>257.07</ele>
        <time>2018-08-27T15:07:55Z</time>
      </trkpt>
      <trkpt lat="47.66866" lon="6.20777">
        <ele>257.34</ele>
        <time>2018-08-27T15:07:59Z</time>
      </trkpt>
      <trkpt lat="47.66867" lon="6.20769">
        <ele>257.62</ele>
        <time>2018-08-27T15:08:03Z</time>
      </trkpt>
      <trkpt lat="47.66868" lon="6.2076">
        <ele>257.9</ele>
        <time>2018-08-27T15:08:07Z</time>
      </trkpt>
      <trkpt lat="47.6687" lon="6.20754">
        <ele>258.17</ele>
        <time>2018-08-27T15:08:11Z</time>
      </trkpt>
      <trkpt lat="47.66874" lon="6.2075">
        <ele>258.44</ele>
        <time>2018-08-27T15:08:15Z</time>
      </trkpt>
      <trkpt lat="47.66878" lon="6.20747">
        <ele>258.64</ele>
        <time>2018-08-27T15:08:18Z</time>
      </trkpt>
      <trkpt lat="47.66882" lon="6.20742">
        <ele>258.9</ele>
        <time>2018-08-27T15:08:22Z</time>
      </trkpt>
      <trkpt lat="47.66887" lon="6.20737">
        <ele>259.17</ele>
        <time>2018-08-27T15:08:26Z</time>
      </trkpt>
      <trkpt lat="47.66891" lon="6.20732">
        <ele>259.44</ele>
        <time>2018-08-27T15:08:30Z</time>
      </trkpt>
      <trkpt lat="47.66896" lon="6.20729">
        <ele>259.64</ele>
        <time>2018-08-27T15:08:33Z</time>
      </trkpt>
      <trkpt lat="47.66901" lon="6.20726">
        <ele>259.86</ele>
        <time>2018-08-27T15:08:36Z</time>
      </trkpt>
      <trkpt lat="47.66906" lon="6.20721">
        <ele>260.14</ele>
        <time>2018-08-27T15:08:40Z</time>
      </trkpt>
      <trkpt lat="47.66909" lon="6.20715">
        <ele>260.44</ele>
        <time>2018-08-27T15:08:44Z</time>
      </trkpt>
      <trkpt lat="47.66913" lon="6.20711">
        <ele>260.73</ele>
        <time>2018-08-27T15:08:48Z</time>
      </trkpt>
      <trkpt lat="47.66918" lon="6.20708">
        <ele>260.95</ele>
        <time>2018-08-27T15:08:51Z</time>
      </trkpt>
      <trkpt lat="47.66922" lon="6.20702">
        <ele>261.25</ele>
        <time>2018-08-27T15:08:55Z</time>
      </trkpt>
      <trkpt lat="47.66926" lon="6.20698">
        <ele>261.48</ele>
        <time>2018-08-27T15:08:58Z</time>
      </trkpt>
      <trkpt lat="47.6693" lon="6.20694">
        <ele>261.71</ele>
        <time>2018-08-27T15:09:01Z</time>
      </trkpt>
      <trkpt lat="47.66935" lon="6.20691">
        <ele>262.02</ele>
        <time>2018-08-27T15:09:05Z</time>
      </trkpt>
      <trkpt lat="47.66939" lon="6.20687">
        <ele>262.4</ele>
        <time>2018-08-27T15:09:10Z</time>
      </trkpt>
      <trkpt lat="47.66942" lon="6.20682">
        <ele>262.7</ele>
        <time>2018-08-27T15:09:14Z</time>
      </trkpt>
      <trkpt lat="47.66946" lon="6.20678">
        <ele>262.99</ele>
        <time>2018-08-27T15:09:18Z</time>
      </trkpt>
      <trkpt lat="47.66951" lon="6.20676">
        <ele>263.27</ele>
        <time>2018-08-27T15:09:22Z</time>
      </trkpt>
      <trkpt lat="47.66955" lon="6.20672">
        <ele>263.54</ele>
        <time>2018-08-27T15:09:26Z</time>
      </trkpt>
      <trkpt lat="47.66958" lon="6.20666">
        <ele>263.8</ele>
        <time>2018-08-27T15:09:30Z</time>
      </trkpt>
      <trkpt lat="47.66963" lon="6.20664">
        <ele>264.06</ele>
        <time>2018-08-27T15:09:34Z</time>
      </trkpt>
      <trkpt lat="47.66968" lon="6.20661">
        <ele>264.25</ele>
        <time>2018-08-27T15:09:37Z</time>
      </trkpt>
      <trkpt lat="47.66971" lon="6.20656">
        <ele>264.57</ele>
        <time>2018-08-27T15:09:42Z</time>
      </trkpt>
      <trkpt lat="47.66974" lon="6.2065">
        <ele>264.81</ele>
        <time>2018-08-27T15:09:46Z</time>
      </trkpt>
      <trkpt lat="47.66977" lon="6.20644">
        <ele>265.06</ele>
        <time>2018-08-27T15:09:50Z</time>
      </trkpt>
      <trkpt lat="47.66982" lon="6.20639">
        <ele>265.24</ele>
        <time>2018-08-27T15:09:53Z</time>
      </trkpt>
      <trkpt lat="47.66986" lon="6.20635">
        <ele>265.44</ele>
        <time>2018-08-27T15:09:56Z</time>
      </trkpt>
      <trkpt lat="47.6699" lon="6.20632">
        <ele>265.7</ele>
        <time>2018-08-27T15:10:00Z</time>
      </trkpt>
      <trkpt lat="47.66994" lon="6.20627">
        <ele>266.04</ele>
        <time>2018-08-27T15:10:05Z</time>
      </trkpt>
      <trkpt lat="47.66998" lon="6.20622">
        <ele>266.24</ele>
        <time>2018-08-27T15:10:08Z</time>
      </trkpt>
      <trkpt lat="47.67001" lon="6.20615">
        <ele>266.58</ele>
        <time>2018-08-27T15:10:13Z</time>
      </trkpt>
      <trkpt lat="47.67002" lon="6.20609">
        <ele>266.86</ele>
        <time>2018-08-27T15:10:17Z</time>
      </trkpt>
      <trkpt lat="47.67005" lon="6.20603">
        <ele>267.2</ele>
        <time>2018-08-27T15:10:22Z</time>
      </trkpt>
      <trkpt lat="47.67007" lon="6.20597">
        <ele>267.54</ele>
        <time>2018-08-27T15:10:27Z</time>
      </trkpt>
      <trkpt lat="47.67011" lon="6.20591">
        <ele>267.88</ele>
        <time>2018-08-27T15:10:32Z</time>
      </trkpt>
      <trkpt lat="47.67015" lon="6.20585">
        <ele>268.15</ele>
        <time>2018-08-27T15:10:36Z</time>
      </trkpt>
      <trkpt lat="47.67018" lon="6.20579">
        <ele>268.43</ele>
        <time>2018-08-27T15:10:40Z</time>
      </trkpt>
      <trkpt lat="47.67022" lon="6.20574">
        <ele>268.7</ele>
        <time>2018-08-27T15:10:44Z</time>
      </trkpt>
      <trkpt lat="47.67026" lon="6.20569">
        <ele>269.06</ele>
        <time>2018-08-27T15:10:49Z</time>
      </trkpt>
      <trkpt lat="47.6703" lon="6.20565">
        <ele>269.35</ele>
        <time>2018-08-27T15:10:53Z</time>
      </trkpt>
      <trkpt lat="47.67034" lon="6.20561">
        <ele>269.64</ele>
        <time>2018-08-27T15:10:57Z</time>
      </trkpt>
      <trkpt lat="47.67038" lon="6.20557">
        <ele>270</ele>
        <time>2018-08-27T15:11:02Z</time>
      </trkpt>
      <trkpt lat="47.67043" lon="6.20554">
        <ele>270.36</ele>
        <time>2018-08-27T15:11:07Z</time>
      </trkpt>
      <trkpt lat="47.67048" lon="6.2055">
        <ele>270.65</ele>
        <time>2018-08-27T15:11:11Z</time>
      </trkpt>
      <trkpt lat="47.67052" lon="6.20546">
        <ele>270.94</ele>
        <time>2018-08-27T15:11:15Z</time>
      </trkpt>
      <trkpt lat="47.67055" lon="6.2054">
        <ele>271.24</ele>
        <time>2018-08-27T15:11:19Z</time>
      </trkpt>
      <trkpt lat="47.67058" lon="6.20535">
        <ele>271.54</ele>
        <time>2018-08-27T15:11:23Z</time>
      </trkpt>
      <trkpt lat="47.67062" lon="6.2053">
        <ele>271.99</ele>
        <time>2018-08-27T15:11:29Z</time>
      </trkpt>
      <trkpt lat="47.67066" lon="6.20525">
        <ele>272.31</ele>
        <time>2018-08-27T15:11:33Z</time>
      </trkpt>
      <trkpt lat="47.6707" lon="6.20521">
        <ele>272.71</ele>
        <time>2018-08-27T15:11:38Z</time>
      </trkpt>
      <trkpt lat="47.67074" lon="6.20515">
        <ele>273.02</ele>
        <time>2018-08-27T15:11:42Z</time>
      </trkpt>
      <trkpt lat="47.67078" lon="6.2051">
        <ele>273.35</ele>
        <time>2018-08-27T15:11:46Z</time>
      </trkpt>
      <trkpt lat="47.67082" lon="6.20504">
        <ele>273.67</ele>
        <time>2018-08-27T15:11:50Z</time>
      </trkpt>
      <trkpt lat="47.67086" lon="6.20498">
        <ele>274</ele>
        <time>2018-08-27T15:11:54Z</time>
      </trkpt>
      <trkpt lat="47.67089" lon="6.20493">
        <ele>274.32</ele>
        <time>2018-08-27T15:11:58Z</time>
      </trkpt>
      <trkpt lat="47.67092" lon="6.20488">
        <ele>274.66</ele>
        <time>2018-08-27T15:12:02Z</time>
      </trkpt>
      <trkpt lat="47.67097" lon="6.20483">
        <ele>274.99</ele>
        <time>2018-08-27T15:12:06Z</time>
      </trkpt>
      <trkpt lat="47.67101" lon="6.20479">
        <ele>275.41</ele>
        <time>2018-08-27T15:12:11Z</time>
      </trkpt>
      <trkpt lat="47.67105" lon="6.20473">
        <ele>275.82</ele>
        <time>2018-08-27T15:12:16Z</time>
      </trkpt>
      <trkpt lat="47.6711" lon="6.20471">
        <ele>276.14</ele>
        <time>2018-08-27T15:12:20Z</time>
      </trkpt>
      <trkpt lat="47.67114" lon="6.20466">
        <ele>276.46</ele>
        <time>2018-08-27T15:12:24Z</time>
      </trkpt>
      <trkpt lat="47.67117" lon="6.20459">
        <ele>276.78</ele>
        <time>2018-08-27T15:12:28Z</time>
      </trkpt>
      <trkpt lat="47.67119" lon="6.20452">
        <ele>277.09</ele>
        <time>2018-08-27T15:12:32Z</time>
      </trkpt>
      <trkpt lat="47.67122" lon="6.20444">
        <ele>277.42</ele>
        <time>2018-08-27T15:12:36Z</time>
      </trkpt>
      <trkpt lat="47.67125" lon="6.20438">
        <ele>277.76</ele>
        <time>2018-08-27T15:12:40Z</time>
      </trkpt>
      <trkpt lat="47.67129" lon="6.20433">
        <ele>278.1</ele>
        <time>2018-08-27T15:12:44Z</time>
      </trkpt>
      <trkpt lat="47.67133" lon="6.20429">
        <ele>278.43</ele>
        <time>2018-08-27T15:12:48Z</time>
      </trkpt>
      <trkpt lat="47.67137" lon="6.20424">
        <ele>278.77</ele>
        <time>2018-08-27T15:12:52Z</time>
      </trkpt>
      <trkpt lat="47.67141" lon="6.20418">
        <ele>279.11</ele>
        <time>2018-08-27T15:12:56Z</time>
      </trkpt>
      <trkpt lat="47.67145" lon="6.20412">
        <ele>279.46</ele>
        <time>2018-08-27T15:13:00Z</time>
      </trkpt>
      <trkpt lat="47.67149" lon="6.20408">
        <ele>279.79</ele>
        <time>2018-08-27T15:13:04Z</time>
      </trkpt>
      <trkpt lat="47.67155" lon="6.20404">
        <ele>280.13</ele>
        <time>2018-08-27T15:13:08Z</time>
      </trkpt>
      <trkpt lat="47.6716" lon="6.20401">
        <ele>280.47</ele>
        <time>2018-08-27T15:13:12Z</time>
      </trkpt>
      <trkpt lat="47.67164" lon="6.20397">
        <ele>280.72</ele>
        <time>2018-08-27T15:13:15Z</time>
      </trkpt>
      <trkpt lat="47.67169" lon="6.20396">
        <ele>280.96</ele>
        <time>2018-08-27T15:13:18Z</time>
      </trkpt>
      <trkpt lat="47.67173" lon="6.20392">
        <ele>281.21</ele>
        <time>2018-08-27T15:13:21Z</time>
      </trkpt>
      <trkpt lat="47.67179" lon="6.20389">
        <ele>281.45</ele>
        <time>2018-08-27T15:13:24Z</time>
      </trkpt>
      <trkpt lat="47.67184" lon="6.20385">
        <ele>281.7</ele>
        <time>2018-08-27T15:13:27Z</time>
      </trkpt>
      <trkpt lat="47.67189" lon="6.20381">
        <ele>281.94</ele>
        <time>2018-08-27T15:13:30Z</time>
      </trkpt>
      <trkpt lat="47.67195" lon="6.20378">
        <ele>282.18</ele>
        <time>2018-08-27T15:13:33Z</time>
      </trkpt>
      <trkpt lat="47.672" lon="6.20372">
        <ele>282.42</ele>
        <time>2018-08-27T15:13:36Z</time>
      </trkpt>
      <trkpt lat="47.67204" lon="6.20364">
        <ele>282.66</ele>
        <time>2018-08-27T15:13:39Z</time>
      </trkpt>
      <trkpt lat="47.67206" lon="6.20358">
        <ele>282.82</ele>
        <time>2018-08-27T15:13:41Z</time>
      </trkpt>
      <trkpt lat="47.67209" lon="6.2035">
        <ele>283.06</ele>
        <time>2018-08-27T15:13:44Z</time>
      </trkpt>
      <trkpt lat="47.67212" lon="6.20342">
        <ele>283.3</ele>
        <time>2018-08-27T15:13:47Z</time>
      </trkpt>
      <trkpt lat="47.67215" lon="6.20334">
        <ele>283.55</ele>
        <time>2018-08-27T15:13:50Z</time>
      </trkpt>
      <trkpt lat="47.67217" lon="6.20326">
        <ele>283.8</ele>
        <time>2018-08-27T15:13:53Z</time>
      </trkpt>
      <trkpt lat="47.67218" lon="6.20318">
        <ele>284.06</ele>
        <time>2018-08-27T15:13:56Z</time>
      </trkpt>
      <trkpt lat="47.67217" lon="6.20312">
        <ele>284.39</ele>
        <time>2018-08-27T15:14:10Z</time>
      </trkpt>
      <trkpt lat="47.67221" lon="6.20305">
        <ele>287.84</ele>
        <time>2018-08-27T15:16:21Z</time>
      </trkpt>
      <trkpt lat="47.67224" lon="6.203">
        <ele>288.39</ele>
        <time>2018-08-27T15:16:24Z</time>
      </trkpt>
      <trkpt lat="47.67228" lon="6.20295">
        <ele>288.92</ele>
        <time>2018-08-27T15:16:27Z</time>
      </trkpt>
      <trkpt lat="47.67233" lon="6.20292">
        <ele>289.43</ele>
        <time>2018-08-27T15:16:30Z</time>
      </trkpt>
      <trkpt lat="47.67238" lon="6.20288">
        <ele>289.91</ele>
        <time>2018-08-27T15:16:33Z</time>
      </trkpt>
      <trkpt lat="47.67242" lon="6.20285">
        <ele>290.38</ele>
        <time>2018-08-27T15:16:36Z</time>
      </trkpt>
      <trkpt lat="47.67247" lon="6.20282">
        <ele>290.82</ele>
        <time>2018-08-27T15:16:39Z</time>
      </trkpt>
      <trkpt lat="47.67251" lon="6.2028">
        <ele>291.25</ele>
        <time>2018-08-27T15:16:42Z</time>
      </trkpt>
      <trkpt lat="47.67256" lon="6.20278">
        <ele>291.66</ele>
        <time>2018-08-27T15:16:45Z</time>
      </trkpt>
      <trkpt lat="47.6726" lon="6.20274">
        <ele>292.57</ele>
        <time>2018-08-27T15:17:14Z</time>
      </trkpt>
      <trkpt lat="47.67265" lon="6.20272">
        <ele>293.1</ele>
        <time>2018-08-27T15:17:18Z</time>
      </trkpt>
      <trkpt lat="47.6727" lon="6.20269">
        <ele>293.49</ele>
        <time>2018-08-27T15:17:21Z</time>
      </trkpt>
      <trkpt lat="47.67274" lon="6.20265">
        <ele>293.74</ele>
        <time>2018-08-27T15:17:23Z</time>
      </trkpt>
      <trkpt lat="47.67278" lon="6.20262">
        <ele>293.98</ele>
        <time>2018-08-27T15:17:25Z</time>
      </trkpt>
      <trkpt lat="47.67282" lon="6.20259">
        <ele>294.22</ele>
        <time>2018-08-27T15:17:27Z</time>
      </trkpt>
      <trkpt lat="47.67288" lon="6.20254">
        <ele>294.57</ele>
        <time>2018-08-27T15:17:30Z</time>
      </trkpt>
      <trkpt lat="47.67294" lon="6.20249">
        <ele>294.9</ele>
        <time>2018-08-27T15:17:33Z</time>
      </trkpt>
      <trkpt lat="47.67299" lon="6.20244">
        <ele>295.23</ele>
        <time>2018-08-27T15:17:36Z</time>
      </trkpt>
      <trkpt lat="47.67304" lon="6.20239">
        <ele>295.55</ele>
        <time>2018-08-27T15:17:39Z</time>
      </trkpt>
      <trkpt lat="47.67309" lon="6.20234">
        <ele>295.86</ele>
        <time>2018-08-27T15:17:42Z</time>
      </trkpt>
      <trkpt lat="47.67313" lon="6.20229">
        <ele>296.17</ele>
        <time>2018-08-27T15:17:45Z</time>
      </trkpt>
      <trkpt lat="47.67319" lon="6.20224">
        <ele>296.46</ele>
        <time>2018-08-27T15:17:48Z</time>
      </trkpt>
      <trkpt lat="47.67324" lon="6.2022">
        <ele>296.75</ele>
        <time>2018-08-27T15:17:51Z</time>
      </trkpt>
      <trkpt lat="47.67329" lon="6.20215">
        <ele>297.02</ele>
        <time>2018-08-27T15:17:54Z</time>
      </trkpt>
      <trkpt lat="47.67334" lon="6.20212">
        <ele>297.3</ele>
        <time>2018-08-27T15:17:57Z</time>
      </trkpt>
      <trkpt lat="47.67339" lon="6.20208">
        <ele>297.56</ele>
        <time>2018-08-27T15:18:00Z</time>
      </trkpt>
      <trkpt lat="47.67344" lon="6.20205">
        <ele>297.82</ele>
        <time>2018-08-27T15:18:03Z</time>
      </trkpt>
      <trkpt lat="47.6735" lon="6.20202">
        <ele>298.07</ele>
        <time>2018-08-27T15:18:06Z</time>
      </trkpt>
      <trkpt lat="47.67355" lon="6.202">
        <ele>298.31</ele>
        <time>2018-08-27T15:18:09Z</time>
      </trkpt>
      <trkpt lat="47.67361" lon="6.20198">
        <ele>298.54</ele>
        <time>2018-08-27T15:18:12Z</time>
      </trkpt>
      <trkpt lat="47.67365" lon="6.20197">
        <ele>298.77</ele>
        <time>2018-08-27T15:18:15Z</time>
      </trkpt>
      <trkpt lat="47.6737" lon="6.20195">
        <ele>298.99</ele>
        <time>2018-08-27T15:18:18Z</time>
      </trkpt>
      <trkpt lat="47.67376" lon="6.20192">
        <ele>299.2</ele>
        <time>2018-08-27T15:18:21Z</time>
      </trkpt>
      <trkpt lat="47.67381" lon="6.20188">
        <ele>299.41</ele>
        <time>2018-08-27T15:18:24Z</time>
      </trkpt>
      <trkpt lat="47.67385" lon="6.20185">
        <ele>299.54</ele>
        <time>2018-08-27T15:18:26Z</time>
      </trkpt>
      <trkpt lat="47.6739" lon="6.2018">
        <ele>299.73</ele>
        <time>2018-08-27T15:18:29Z</time>
      </trkpt>
      <trkpt lat="47.67396" lon="6.20175">
        <ele>299.91</ele>
        <time>2018-08-27T15:18:32Z</time>
      </trkpt>
      <trkpt lat="47.67399" lon="6.20171">
        <ele>300.05</ele>
        <time>2018-08-27T15:18:35Z</time>
      </trkpt>
      <trkpt lat="47.67402" lon="6.20166">
        <ele>300.23</ele>
        <time>2018-08-27T15:19:02Z</time>
      </trkpt>
      <trkpt lat="47.67407" lon="6.20163">
        <ele>300.69</ele>
        <time>2018-08-27T15:19:12Z</time>
      </trkpt>
      <trkpt lat="47.67412" lon="6.20161">
        <ele>301.07</ele>
        <time>2018-08-27T15:19:18Z</time>
      </trkpt>
      <trkpt lat="47.67418" lon="6.20159">
        <ele>301.38</ele>
        <time>2018-08-27T15:19:23Z</time>
      </trkpt>
      <trkpt lat="47.67423" lon="6.20159">
        <ele>301.5</ele>
        <time>2018-08-27T15:19:25Z</time>
      </trkpt>
      <trkpt lat="47.67429" lon="6.20159">
        <ele>301.62</ele>
        <time>2018-08-27T15:19:27Z</time>
      </trkpt>
      <trkpt lat="47.67434" lon="6.20159">
        <ele>301.74</ele>
        <time>2018-08-27T15:19:29Z</time>
      </trkpt>
      <trkpt lat="47.6744" lon="6.2016">
        <ele>301.93</ele>
        <time>2018-08-27T15:19:32Z</time>
      </trkpt>
      <trkpt lat="47.67444" lon="6.2016">
        <ele>302.11</ele>
        <time>2018-08-27T15:19:35Z</time>
      </trkpt>
      <trkpt lat="47.6745" lon="6.2016">
        <ele>302.3</ele>
        <time>2018-08-27T15:19:38Z</time>
      </trkpt>
      <trkpt lat="47.67454" lon="6.20158">
        <ele>302.49</ele>
        <time>2018-08-27T15:19:41Z</time>
      </trkpt>
      <trkpt lat="47.67459" lon="6.20157">
        <ele>302.75</ele>
        <time>2018-08-27T15:19:45Z</time>
      </trkpt>
      <trkpt lat="47.67465" lon="6.20157">
        <ele>303.25</ele>
        <time>2018-08-27T15:19:53Z</time>
      </trkpt>
      <trkpt lat="47.6747" lon="6.20158">
        <ele>303.53</ele>
        <time>2018-08-27T15:19:58Z</time>
      </trkpt>
      <trkpt lat="47.67476" lon="6.20158">
        <ele>303.73</ele>
        <time>2018-08-27T15:20:02Z</time>
      </trkpt>
      <trkpt lat="47.67482" lon="6.2016">
        <ele>303.93</ele>
        <time>2018-08-27T15:20:06Z</time>
      </trkpt>
      <trkpt lat="47.67487" lon="6.20159">
        <ele>304.06</ele>
        <time>2018-08-27T15:20:09Z</time>
      </trkpt>
      <trkpt lat="47.67492" lon="6.20159">
        <ele>304.23</ele>
        <time>2018-08-27T15:20:13Z</time>
      </trkpt>
      <trkpt lat="47.67499" lon="6.20158">
        <ele>304.35</ele>
        <time>2018-08-27T15:20:16Z</time>
      </trkpt>
      <trkpt lat="47.67504" lon="6.20159">
        <ele>304.46</ele>
        <time>2018-08-27T15:20:19Z</time>
      </trkpt>
      <trkpt lat="47.6751" lon="6.20158">
        <ele>304.57</ele>
        <time>2018-08-27T15:20:22Z</time>
      </trkpt>
      <trkpt lat="47.67517" lon="6.20158">
        <ele>304.67</ele>
        <time>2018-08-27T15:20:25Z</time>
      </trkpt>
      <trkpt lat="47.67522" lon="6.20158">
        <ele>304.77</ele>
        <time>2018-08-27T15:20:28Z</time>
      </trkpt>
      <trkpt lat="47.67528" lon="6.2016">
        <ele>304.87</ele>
        <time>2018-08-27T15:20:31Z</time>
      </trkpt>
      <trkpt lat="47.67532" lon="6.20161">
        <ele>304.93</ele>
        <time>2018-08-27T15:20:33Z</time>
      </trkpt>
      <trkpt lat="47.67537" lon="6.20162">
        <ele>305.02</ele>
        <time>2018-08-27T15:20:36Z</time>
      </trkpt>
      <trkpt lat="47.67542" lon="6.20161">
        <ele>305.13</ele>
        <time>2018-08-27T15:20:40Z</time>
      </trkpt>
      <trkpt lat="47.67547" lon="6.20162">
        <ele>305.24</ele>
        <time>2018-08-27T15:20:44Z</time>
      </trkpt>
      <trkpt lat="47.67552" lon="6.20164">
        <ele>305.31</ele>
        <time>2018-08-27T15:20:47Z</time>
      </trkpt>
      <trkpt lat="47.67557" lon="6.20166">
        <ele>305.38</ele>
        <time>2018-08-27T15:20:50Z</time>
      </trkpt>
      <trkpt lat="47.67562" lon="6.20168">
        <ele>305.47</ele>
        <time>2018-08-27T15:20:54Z</time>
      </trkpt>
      <trkpt lat="47.67568" lon="6.2017">
        <ele>305.52</ele>
        <time>2018-08-27T15:20:56Z</time>
      </trkpt>
      <trkpt lat="47.67573" lon="6.20171">
        <ele>305.57</ele>
        <time>2018-08-27T15:20:58Z</time>
      </trkpt>
      <trkpt lat="47.67579" lon="6.20175">
        <ele>305.65</ele>
        <time>2018-08-27T15:21:01Z</time>
      </trkpt>
      <trkpt lat="47.67583" lon="6.20179">
        <ele>305.72</ele>
        <time>2018-08-27T15:21:04Z</time>
      </trkpt>
      <trkpt lat="47.67588" lon="6.20183">
        <ele>305.8</ele>
        <time>2018-08-27T15:21:07Z</time>
      </trkpt>
      <trkpt lat="47.67592" lon="6.20186">
        <ele>305.87</ele>
        <time>2018-08-27T15:21:10Z</time>
      </trkpt>
      <trkpt lat="47.67596" lon="6.20189">
        <ele>305.95</ele>
        <time>2018-08-27T15:21:13Z</time>
      </trkpt>
      <trkpt lat="47.67601" lon="6.20191">
        <ele>306.02</ele>
        <time>2018-08-27T15:21:16Z</time>
      </trkpt>
      <trkpt lat="47.67608" lon="6.20193">
        <ele>306.07</ele>
        <time>2018-08-27T15:21:18Z</time>
      </trkpt>
      <trkpt lat="47.67615" lon="6.20193">
        <ele>306.12</ele>
        <time>2018-08-27T15:21:20Z</time>
      </trkpt>
      <trkpt lat="47.67621" lon="6.20193">
        <ele>306.18</ele>
        <time>2018-08-27T15:21:22Z</time>
      </trkpt>
      <trkpt lat="47.67627" lon="6.20195">
        <ele>306.24</ele>
        <time>2018-08-27T15:21:24Z</time>
      </trkpt>
      <trkpt lat="47.67634" lon="6.20197">
        <ele>306.34</ele>
        <time>2018-08-27T15:21:27Z</time>
      </trkpt>
      <trkpt lat="47.6764" lon="6.20198">
        <ele>306.41</ele>
        <time>2018-08-27T15:21:29Z</time>
      </trkpt>
      <trkpt lat="47.67646" lon="6.202">
        <ele>306.5</ele>
        <time>2018-08-27T15:21:32Z</time>
      </trkpt>
      <trkpt lat="47.67653" lon="6.20201">
        <ele>306.6</ele>
        <time>2018-08-27T15:21:35Z</time>
      </trkpt>
      <trkpt lat="47.67657" lon="6.20199">
        <ele>306.71</ele>
        <time>2018-08-27T15:21:38Z</time>
      </trkpt>
      <trkpt lat="47.67661" lon="6.20194">
        <ele>306.95</ele>
        <time>2018-08-27T15:21:44Z</time>
      </trkpt>
      <trkpt lat="47.6766" lon="6.20187">
        <ele>307.45</ele>
        <time>2018-08-27T15:21:55Z</time>
      </trkpt>
      <trkpt lat="47.67658" lon="6.20178">
        <ele>307.63</ele>
        <time>2018-08-27T15:21:59Z</time>
      </trkpt>
      <trkpt lat="47.67655" lon="6.20172">
        <ele>307.86</ele>
        <time>2018-08-27T15:22:03Z</time>
      </trkpt>
      <trkpt lat="47.67653" lon="6.20165">
        <ele>308.06</ele>
        <time>2018-08-27T15:22:06Z</time>
      </trkpt>
      <trkpt lat="47.6765" lon="6.20158">
        <ele>308.36</ele>
        <time>2018-08-27T15:22:10Z</time>
      </trkpt>
      <trkpt lat="47.67648" lon="6.20152">
        <ele>308.62</ele>
        <time>2018-08-27T15:22:13Z</time>
      </trkpt>
      <trkpt lat="47.67646" lon="6.20146">
        <ele>308.9</ele>
        <time>2018-08-27T15:22:16Z</time>
      </trkpt>
      <trkpt lat="47.67643" lon="6.2014">
        <ele>309.2</ele>
        <time>2018-08-27T15:22:19Z</time>
      </trkpt>
      <trkpt lat="47.6764" lon="6.20133">
        <ele>309.53</ele>
        <time>2018-08-27T15:22:22Z</time>
      </trkpt>
      <trkpt lat="47.67638" lon="6.20126">
        <ele>309.87</ele>
        <time>2018-08-27T15:22:25Z</time>
      </trkpt>
      <trkpt lat="47.67635" lon="6.20119">
        <ele>310.22</ele>
        <time>2018-08-27T15:22:28Z</time>
      </trkpt>
      <trkpt lat="47.67633" lon="6.20113">
        <ele>310.57</ele>
        <time>2018-08-27T15:22:31Z</time>
      </trkpt>
      <trkpt lat="47.67631" lon="6.20106">
        <ele>311.04</ele>
        <time>2018-08-27T15:22:35Z</time>
      </trkpt>
      <trkpt lat="47.67628" lon="6.20098">
        <ele>311.51</ele>
        <time>2018-08-27T15:22:39Z</time>
      </trkpt>
      <trkpt lat="47.67625" lon="6.20091">
        <ele>311.97</ele>
        <time>2018-08-27T15:22:43Z</time>
      </trkpt>
      <trkpt lat="47.67623" lon="6.20085">
        <ele>312.45</ele>
        <time>2018-08-27T15:22:47Z</time>
      </trkpt>
      <trkpt lat="47.67621" lon="6.20079">
        <ele>312.92</ele>
        <time>2018-08-27T15:22:51Z</time>
      </trkpt>
      <trkpt lat="47.67619" lon="6.2007">
        <ele>313.39</ele>
        <time>2018-08-27T15:22:55Z</time>
      </trkpt>
      <trkpt lat="47.67616" lon="6.20064">
        <ele>313.87</ele>
        <time>2018-08-27T15:22:59Z</time>
      </trkpt>
      <trkpt lat="47.67614" lon="6.20055">
        <ele>314.34</ele>
        <time>2018-08-27T15:23:03Z</time>
      </trkpt>
      <trkpt lat="47.67612" lon="6.20048">
        <ele>314.7</ele>
        <time>2018-08-27T15:23:06Z</time>
      </trkpt>
      <trkpt lat="47.6761" lon="6.20041">
        <ele>315.05</ele>
        <time>2018-08-27T15:23:09Z</time>
      </trkpt>
      <trkpt lat="47.67608" lon="6.20035">
        <ele>315.4</ele>
        <time>2018-08-27T15:23:12Z</time>
      </trkpt>
      <trkpt lat="47.67605" lon="6.20027">
        <ele>315.74</ele>
        <time>2018-08-27T15:23:15Z</time>
      </trkpt>
      <trkpt lat="47.67603" lon="6.2002">
        <ele>316.08</ele>
        <time>2018-08-27T15:23:18Z</time>
      </trkpt>
      <trkpt lat="47.676" lon="6.20013">
        <ele>316.41</ele>
        <time>2018-08-27T15:23:21Z</time>
      </trkpt>
      <trkpt lat="47.67597" lon="6.20006">
        <ele>316.73</ele>
        <time>2018-08-27T15:23:24Z</time>
      </trkpt>
      <trkpt lat="47.67595" lon="6.19999">
        <ele>317.05</ele>
        <time>2018-08-27T15:23:27Z</time>
      </trkpt>
      <trkpt lat="47.67593" lon="6.19991">
        <ele>317.46</ele>
        <time>2018-08-27T15:23:31Z</time>
      </trkpt>
      <trkpt lat="47.67591" lon="6.19983">
        <ele>317.86</ele>
        <time>2018-08-27T15:23:35Z</time>
      </trkpt>
      <trkpt lat="47.67589" lon="6.19977">
        <ele>318.15</ele>
        <time>2018-08-27T15:23:38Z</time>
      </trkpt>
      <trkpt lat="47.67587" lon="6.19969">
        <ele>318.45</ele>
        <time>2018-08-27T15:23:41Z</time>
      </trkpt>
      <trkpt lat="47.67584" lon="6.19961">
        <ele>318.73</ele>
        <time>2018-08-27T15:23:44Z</time>
      </trkpt>
      <trkpt lat="47.67583" lon="6.19951">
        <ele>318.95</ele>
        <time>2018-08-27T15:23:47Z</time>
      </trkpt>
      <trkpt lat="47.6758" lon="6.19943">
        <ele>318.98</ele>
        <time>2018-08-27T15:23:49Z</time>
      </trkpt>
      <trkpt lat="47.67579" lon="6.19936">
        <ele>319.02</ele>
        <time>2018-08-27T15:23:53Z</time>
      </trkpt>
      <trkpt lat="47.67578" lon="6.1993">
        <ele>319.22</ele>
        <time>2018-08-27T15:24:01Z</time>
      </trkpt>
      <trkpt lat="47.67577" lon="6.19921">
        <ele>319.56</ele>
        <time>2018-08-27T15:24:05Z</time>
      </trkpt>
      <trkpt lat="47.67578" lon="6.19914">
        <ele>320.18</ele>
        <time>2018-08-27T15:24:10Z</time>
      </trkpt>
      <trkpt lat="47.6758" lon="6.19907">
        <ele>321.18</ele>
        <time>2018-08-27T15:24:18Z</time>
      </trkpt>
      <trkpt lat="47.67585" lon="6.19904">
        <ele>321.66</ele>
        <time>2018-08-27T15:24:22Z</time>
      </trkpt>
      <trkpt lat="47.6759" lon="6.19899">
        <ele>322.13</ele>
        <time>2018-08-27T15:24:26Z</time>
      </trkpt>
      <trkpt lat="47.67594" lon="6.19894">
        <ele>322.6</ele>
        <time>2018-08-27T15:24:30Z</time>
      </trkpt>
      <trkpt lat="47.67598" lon="6.19888">
        <ele>323.16</ele>
        <time>2018-08-27T15:24:35Z</time>
      </trkpt>
      <trkpt lat="47.67601" lon="6.19883">
        <ele>323.49</ele>
        <time>2018-08-27T15:24:38Z</time>
      </trkpt>
      <trkpt lat="47.67606" lon="6.1988">
        <ele>323.93</ele>
        <time>2018-08-27T15:24:42Z</time>
      </trkpt>
      <trkpt lat="47.67611" lon="6.19878">
        <ele>324.25</ele>
        <time>2018-08-27T15:24:45Z</time>
      </trkpt>
      <trkpt lat="47.67616" lon="6.19877">
        <ele>324.57</ele>
        <time>2018-08-27T15:24:48Z</time>
      </trkpt>
      <trkpt lat="47.67622" lon="6.19874">
        <ele>325</ele>
        <time>2018-08-27T15:24:52Z</time>
      </trkpt>
      <trkpt lat="47.67626" lon="6.19871">
        <ele>325.32</ele>
        <time>2018-08-27T15:24:55Z</time>
      </trkpt>
      <trkpt lat="47.67629" lon="6.19866">
        <ele>325.64</ele>
        <time>2018-08-27T15:24:58Z</time>
      </trkpt>
      <trkpt lat="47.67633" lon="6.19861">
        <ele>325.96</ele>
        <time>2018-08-27T15:25:01Z</time>
      </trkpt>
      <trkpt lat="47.67637" lon="6.19856">
        <ele>326.28</ele>
        <time>2018-08-27T15:25:04Z</time>
      </trkpt>
      <trkpt lat="47.67641" lon="6.19852">
        <ele>326.6</ele>
        <time>2018-08-27T15:25:07Z</time>
      </trkpt>
      <trkpt lat="47.67644" lon="6.19847">
        <ele>326.78</ele>
        <time>2018-08-27T15:25:12Z</time>
      </trkpt>
      <trkpt lat="47.67648" lon="6.19845">
        <ele>327.87</ele>
        <time>2018-08-27T15:25:45Z</time>
      </trkpt>
      <trkpt lat="47.67651" lon="6.1984">
        <ele>328.45</ele>
        <time>2018-08-27T15:25:53Z</time>
      </trkpt>
      <trkpt lat="47.67647" lon="6.19845">
        <ele>329.41</ele>
        <time>2018-08-27T15:26:06Z</time>
      </trkpt>
      <trkpt lat="47.67644" lon="6.1985">
        <ele>329.76</ele>
        <time>2018-08-27T15:26:11Z</time>
      </trkpt>
      <trkpt lat="47.67641" lon="6.19857">
        <ele>330.05</ele>
        <time>2018-08-27T15:26:24Z</time>
      </trkpt>
      <trkpt lat="47.67638" lon="6.19863">
        <ele>330.26</ele>
        <time>2018-08-27T15:26:27Z</time>
      </trkpt>
      <trkpt lat="47.67633" lon="6.19868">
        <ele>330.54</ele>
        <time>2018-08-27T15:26:31Z</time>
      </trkpt>
      <trkpt lat="47.67629" lon="6.19872">
        <ele>330.74</ele>
        <time>2018-08-27T15:26:34Z</time>
      </trkpt>
      <trkpt lat="47.67623" lon="6.19876">
        <ele>330.98</ele>
        <time>2018-08-27T15:26:38Z</time>
      </trkpt>
      <trkpt lat="47.67618" lon="6.19879">
        <ele>331.15</ele>
        <time>2018-08-27T15:26:41Z</time>
      </trkpt>
      <trkpt lat="47.67613" lon="6.19883">
        <ele>331.31</ele>
        <time>2018-08-27T15:26:44Z</time>
      </trkpt>
      <trkpt lat="47.67607" lon="6.19887">
        <ele>331.46</ele>
        <time>2018-08-27T15:26:47Z</time>
      </trkpt>
      <trkpt lat="47.67601" lon="6.19889">
        <ele>331.59</ele>
        <time>2018-08-27T15:26:50Z</time>
      </trkpt>
      <trkpt lat="47.67597" lon="6.19893">
        <ele>331.67</ele>
        <time>2018-08-27T15:26:52Z</time>
      </trkpt>
      <trkpt lat="47.67591" lon="6.19897">
        <ele>331.79</ele>
        <time>2018-08-27T15:26:55Z</time>
      </trkpt>
      <trkpt lat="47.67587" lon="6.19901">
        <ele>331.89</ele>
        <time>2018-08-27T15:26:58Z</time>
      </trkpt>
      <trkpt lat="47.67583" lon="6.19905">
        <ele>331.98</ele>
        <time>2018-08-27T15:27:02Z</time>
      </trkpt>
      <trkpt lat="47.67579" lon="6.19913">
        <ele>332.11</ele>
        <time>2018-08-27T15:27:07Z</time>
      </trkpt>
      <trkpt lat="47.67578" lon="6.1992">
        <ele>332.17</ele>
        <time>2018-08-27T15:27:09Z</time>
      </trkpt>
      <trkpt lat="47.67577" lon="6.19927">
        <ele>332.22</ele>
        <time>2018-08-27T15:27:11Z</time>
      </trkpt>
      <trkpt lat="47.67577" lon="6.19935">
        <ele>332.27</ele>
        <time>2018-08-27T15:27:13Z</time>
      </trkpt>
      <trkpt lat="47.67577" lon="6.19944">
        <ele>332.36</ele>
        <time>2018-08-27T15:27:16Z</time>
      </trkpt>
      <trkpt lat="47.67579" lon="6.19952">
        <ele>332.43</ele>
        <time>2018-08-27T15:27:19Z</time>
      </trkpt>
      <trkpt lat="47.6758" lon="6.1996">
        <ele>332.52</ele>
        <time>2018-08-27T15:27:22Z</time>
      </trkpt>
      <trkpt lat="47.67582" lon="6.19967">
        <ele>332.59</ele>
        <time>2018-08-27T15:27:25Z</time>
      </trkpt>
      <trkpt lat="47.67584" lon="6.19974">
        <ele>332.67</ele>
        <time>2018-08-27T15:27:28Z</time>
      </trkpt>
      <trkpt lat="47.67586" lon="6.1998">
        <ele>332.75</ele>
        <time>2018-08-27T15:27:31Z</time>
      </trkpt>
      <trkpt lat="47.67589" lon="6.19987">
        <ele>332.83</ele>
        <time>2018-08-27T15:27:34Z</time>
      </trkpt>
      <trkpt lat="47.67592" lon="6.19993">
        <ele>332.88</ele>
        <time>2018-08-27T15:27:36Z</time>
      </trkpt>
      <trkpt lat="47.67594" lon="6.2">
        <ele>332.95</ele>
        <time>2018-08-27T15:27:39Z</time>
      </trkpt>
      <trkpt lat="47.67598" lon="6.20008">
        <ele>333.02</ele>
        <time>2018-08-27T15:27:42Z</time>
      </trkpt>
      <trkpt lat="47.67602" lon="6.20016">
        <ele>333.07</ele>
        <time>2018-08-27T15:27:45Z</time>
      </trkpt>
      <trkpt lat="47.67603" lon="6.20023">
        <ele>333.11</ele>
        <time>2018-08-27T15:27:47Z</time>
      </trkpt>
      <trkpt lat="47.67605" lon="6.20031">
        <ele>333.15</ele>
        <time>2018-08-27T15:27:49Z</time>
      </trkpt>
      <trkpt lat="47.67606" lon="6.2004">
        <ele>333.19</ele>
        <time>2018-08-27T15:27:51Z</time>
      </trkpt>
      <trkpt lat="47.67608" lon="6.20048">
        <ele>333.24</ele>
        <time>2018-08-27T15:27:53Z</time>
      </trkpt>
      <trkpt lat="47.6761" lon="6.20055">
        <ele>333.29</ele>
        <time>2018-08-27T15:27:55Z</time>
      </trkpt>
      <trkpt lat="47.67612" lon="6.20062">
        <ele>333.34</ele>
        <time>2018-08-27T15:27:57Z</time>
      </trkpt>
      <trkpt lat="47.67614" lon="6.20069">
        <ele>333.4</ele>
        <time>2018-08-27T15:27:59Z</time>
      </trkpt>
      <trkpt lat="47.67618" lon="6.20078">
        <ele>333.45</ele>
        <time>2018-08-27T15:28:01Z</time>
      </trkpt>
      <trkpt lat="47.67621" lon="6.20085">
        <ele>333.5</ele>
        <time>2018-08-27T15:28:03Z</time>
      </trkpt>
      <trkpt lat="47.67625" lon="6.20092">
        <ele>333.56</ele>
        <time>2018-08-27T15:28:05Z</time>
      </trkpt>
      <trkpt lat="47.67628" lon="6.20099">
        <ele>333.61</ele>
        <time>2018-08-27T15:28:07Z</time>
      </trkpt>
      <trkpt lat="47.6763" lon="6.20106">
        <ele>333.66</ele>
        <time>2018-08-27T15:28:09Z</time>
      </trkpt>
      <trkpt lat="47.67633" lon="6.20115">
        <ele>333.72</ele>
        <time>2018-08-27T15:28:11Z</time>
      </trkpt>
      <trkpt lat="47.67637" lon="6.20124">
        <ele>333.77</ele>
        <time>2018-08-27T15:28:13Z</time>
      </trkpt>
      <trkpt lat="47.6764" lon="6.20133">
        <ele>333.82</ele>
        <time>2018-08-27T15:28:15Z</time>
      </trkpt>
      <trkpt lat="47.67643" lon="6.20143">
        <ele>333.87</ele>
        <time>2018-08-27T15:28:17Z</time>
      </trkpt>
      <trkpt lat="47.67646" lon="6.20153">
        <ele>333.93</ele>
        <time>2018-08-27T15:28:19Z</time>
      </trkpt>
      <trkpt lat="47.6765" lon="6.20163">
        <ele>333.98</ele>
        <time>2018-08-27T15:28:21Z</time>
      </trkpt>
      <trkpt lat="47.67654" lon="6.20172">
        <ele>334.04</ele>
        <time>2018-08-27T15:28:23Z</time>
      </trkpt>
      <trkpt lat="47.67656" lon="6.20178">
        <ele>334.1</ele>
        <time>2018-08-27T15:28:25Z</time>
      </trkpt>
      <trkpt lat="47.67659" lon="6.20185">
        <ele>334.15</ele>
        <time>2018-08-27T15:28:27Z</time>
      </trkpt>
      <trkpt lat="47.67661" lon="6.20193">
        <ele>334.23</ele>
        <time>2018-08-27T15:28:30Z</time>
      </trkpt>
      <trkpt lat="47.67664" lon="6.20202">
        <ele>334.31</ele>
        <time>2018-08-27T15:28:33Z</time>
      </trkpt>
      <trkpt lat="47.67667" lon="6.20207">
        <ele>334.35</ele>
        <time>2018-08-27T15:28:35Z</time>
      </trkpt>
      <trkpt lat="47.67671" lon="6.20215">
        <ele>334.4</ele>
        <time>2018-08-27T15:28:38Z</time>
      </trkpt>
      <trkpt lat="47.67674" lon="6.2022">
        <ele>334.45</ele>
        <time>2018-08-27T15:28:41Z</time>
      </trkpt>
      <trkpt lat="47.67679" lon="6.20224">
        <ele>334.49</ele>
        <time>2018-08-27T15:28:45Z</time>
      </trkpt>
      <trkpt lat="47.67683" lon="6.20228">
        <ele>334.51</ele>
        <time>2018-08-27T15:28:48Z</time>
      </trkpt>
      <trkpt lat="47.67688" lon="6.20232">
        <ele>334.52</ele>
        <time>2018-08-27T15:28:51Z</time>
      </trkpt>
      <trkpt lat="47.67692" lon="6.20235">
        <ele>334.53</ele>
        <time>2018-08-27T15:28:54Z</time>
      </trkpt>
      <trkpt lat="47.67696" lon="6.20239">
        <ele>334.54</ele>
        <time>2018-08-27T15:28:57Z</time>
      </trkpt>
      <trkpt lat="47.67702" lon="6.20242">
        <ele>334.55</ele>
        <time>2018-08-27T15:29:00Z</time>
      </trkpt>
      <trkpt lat="47.67707" lon="6.20245">
        <ele>334.55</ele>
        <time>2018-08-27T15:29:03Z</time>
      </trkpt>
      <trkpt lat="47.67712" lon="6.20247">
        <ele>334.55</ele>
        <time>2018-08-27T15:29:06Z</time>
      </trkpt>
      <trkpt lat="47.67718" lon="6.20248">
        <ele>334.55</ele>
        <time>2018-08-27T15:29:09Z</time>
      </trkpt>
      <trkpt lat="47.67723" lon="6.20248">
        <ele>334.54</ele>
        <time>2018-08-27T15:29:12Z</time>
      </trkpt>
      <trkpt lat="47.67729" lon="6.20249">
        <ele>334.53</ele>
        <time>2018-08-27T15:29:16Z</time>
      </trkpt>
      <trkpt lat="47.67735" lon="6.20248">
        <ele>334.52</ele>
        <time>2018-08-27T15:29:19Z</time>
      </trkpt>
      <trkpt lat="47.67741" lon="6.20246">
        <ele>334.52</ele>
        <time>2018-08-27T15:29:22Z</time>
      </trkpt>
      <trkpt lat="47.67746" lon="6.20246">
        <ele>334.52</ele>
        <time>2018-08-27T15:29:24Z</time>
      </trkpt>
      <trkpt lat="47.67752" lon="6.20245">
        <ele>334.52</ele>
        <time>2018-08-27T15:29:27Z</time>
      </trkpt>
      <trkpt lat="47.67757" lon="6.20244">
        <ele>334.53</ele>
        <time>2018-08-27T15:29:30Z</time>
      </trkpt>
      <trkpt lat="47.67762" lon="6.20246">
        <ele>334.54</ele>
        <time>2018-08-27T15:29:34Z</time>
      </trkpt>
      <trkpt lat="47.67767" lon="6.20246">
        <ele>334.55</ele>
        <time>2018-08-27T15:29:38Z</time>
      </trkpt>
      <trkpt lat="47.67772" lon="6.20245">
        <ele>334.56</ele>
        <time>2018-08-27T15:29:42Z</time>
      </trkpt>
      <trkpt lat="47.67777" lon="6.20242">
        <ele>334.58</ele>
        <time>2018-08-27T15:29:46Z</time>
      </trkpt>
      <trkpt lat="47.67781" lon="6.20238">
        <ele>334.59</ele>
        <time>2018-08-27T15:29:50Z</time>
      </trkpt>
      <trkpt lat="47.67786" lon="6.20235">
        <ele>334.61</ele>
        <time>2018-08-27T15:29:55Z</time>
      </trkpt>
      <trkpt lat="47.67791" lon="6.20231">
        <ele>334.62</ele>
        <time>2018-08-27T15:29:59Z</time>
      </trkpt>
      <trkpt lat="47.67795" lon="6.20227">
        <ele>334.62</ele>
        <time>2018-08-27T15:30:02Z</time>
      </trkpt>
      <trkpt lat="47.67798" lon="6.20222">
        <ele>334.63</ele>
        <time>2018-08-27T15:30:05Z</time>
      </trkpt>
      <trkpt lat="47.67801" lon="6.20217">
        <ele>334.62</ele>
        <time>2018-08-27T15:30:08Z</time>
      </trkpt>
      <trkpt lat="47.67806" lon="6.20212">
        <ele>334.61</ele>
        <time>2018-08-27T15:30:11Z</time>
      </trkpt>
      <trkpt lat="47.67811" lon="6.20207">
        <ele>334.6</ele>
        <time>2018-08-27T15:30:14Z</time>
      </trkpt>
      <trkpt lat="47.67814" lon="6.20201">
        <ele>334.59</ele>
        <time>2018-08-27T15:30:17Z</time>
      </trkpt>
      <trkpt lat="47.67819" lon="6.20197">
        <ele>334.58</ele>
        <time>2018-08-27T15:30:20Z</time>
      </trkpt>
      <trkpt lat="47.67824" lon="6.20194">
        <ele>334.57</ele>
        <time>2018-08-27T15:30:23Z</time>
      </trkpt>
      <trkpt lat="47.67829" lon="6.20191">
        <ele>334.55</ele>
        <time>2018-08-27T15:30:26Z</time>
      </trkpt>
      <trkpt lat="47.67834" lon="6.2019">
        <ele>334.53</ele>
        <time>2018-08-27T15:30:29Z</time>
      </trkpt>
      <trkpt lat="47.67839" lon="6.20191">
        <ele>334.52</ele>
        <time>2018-08-27T15:30:32Z</time>
      </trkpt>
      <trkpt lat="47.67844" lon="6.20194">
        <ele>334.5</ele>
        <time>2018-08-27T15:30:35Z</time>
      </trkpt>
      <trkpt lat="47.67848" lon="6.20197">
        <ele>334.48</ele>
        <time>2018-08-27T15:30:38Z</time>
      </trkpt>
      <trkpt lat="47.67853" lon="6.20202">
        <ele>334.46</ele>
        <time>2018-08-27T15:30:41Z</time>
      </trkpt>
      <trkpt lat="47.67858" lon="6.20207">
        <ele>334.43</ele>
        <time>2018-08-27T15:30:45Z</time>
      </trkpt>
      <trkpt lat="47.67861" lon="6.2021">
        <ele>334.41</ele>
        <time>2018-08-27T15:30:48Z</time>
      </trkpt>
      <trkpt lat="47.67866" lon="6.20213">
        <ele>334.38</ele>
        <time>2018-08-27T15:30:52Z</time>
      </trkpt>
      <trkpt lat="47.67869" lon="6.20217">
        <ele>334.37</ele>
        <time>2018-08-27T15:30:55Z</time>
      </trkpt>
      <trkpt lat="47.67874" lon="6.20221">
        <ele>334.35</ele>
        <time>2018-08-27T15:30:58Z</time>
      </trkpt>
      <trkpt lat="47.67878" lon="6.20226">
        <ele>334.32</ele>
        <time>2018-08-27T15:31:02Z</time>
      </trkpt>
      <trkpt lat="47.67882" lon="6.2023">
        <ele>334.3</ele>
        <time>2018-08-27T15:31:06Z</time>
      </trkpt>
      <trkpt lat="47.67886" lon="6.20233">
        <ele>334.28</ele>
        <time>2018-08-27T15:31:10Z</time>
      </trkpt>
      <trkpt lat="47.67891" lon="6.20238">
        <ele>334.26</ele>
        <time>2018-08-27T15:31:14Z</time>
      </trkpt>
      <trkpt lat="47.67895" lon="6.20241">
        <ele>334.24</ele>
        <time>2018-08-27T15:31:18Z</time>
      </trkpt>
      <trkpt lat="47.679" lon="6.20245">
        <ele>334.22</ele>
        <time>2018-08-27T15:31:22Z</time>
      </trkpt>
      <trkpt lat="47.67904" lon="6.20249">
        <ele>334.21</ele>
        <time>2018-08-27T15:31:25Z</time>
      </trkpt>
      <trkpt lat="47.67909" lon="6.20253">
        <ele>334.2</ele>
        <time>2018-08-27T15:31:30Z</time>
      </trkpt>
      <trkpt lat="47.67915" lon="6.20257">
        <ele>334.19</ele>
        <time>2018-08-27T15:31:34Z</time>
      </trkpt>
      <trkpt lat="47.67919" lon="6.2026">
        <ele>334.19</ele>
        <time>2018-08-27T15:31:37Z</time>
      </trkpt>
      <trkpt lat="47.67924" lon="6.20264">
        <ele>334.2</ele>
        <time>2018-08-27T15:31:40Z</time>
      </trkpt>
      <trkpt lat="47.67929" lon="6.20268">
        <ele>334.21</ele>
        <time>2018-08-27T15:31:43Z</time>
      </trkpt>
      <trkpt lat="47.67934" lon="6.20273">
        <ele>334.22</ele>
        <time>2018-08-27T15:31:46Z</time>
      </trkpt>
      <trkpt lat="47.67938" lon="6.20277">
        <ele>334.24</ele>
        <time>2018-08-27T15:31:49Z</time>
      </trkpt>
      <trkpt lat="47.67943" lon="6.20281">
        <ele>334.26</ele>
        <time>2018-08-27T15:31:52Z</time>
      </trkpt>
      <trkpt lat="47.67948" lon="6.20286">
        <ele>334.29</ele>
        <time>2018-08-27T15:31:55Z</time>
      </trkpt>
      <trkpt lat="47.67952" lon="6.20289">
        <ele>334.32</ele>
        <time>2018-08-27T15:31:58Z</time>
      </trkpt>
      <trkpt lat="47.67957" lon="6.20291">
        <ele>334.35</ele>
        <time>2018-08-27T15:32:01Z</time>
      </trkpt>
      <trkpt lat="47.67962" lon="6.20293">
        <ele>334.38</ele>
        <time>2018-08-27T15:32:04Z</time>
      </trkpt>
      <trkpt lat="47.67967" lon="6.20295">
        <ele>334.42</ele>
        <time>2018-08-27T15:32:07Z</time>
      </trkpt>
      <trkpt lat="47.67971" lon="6.20297">
        <ele>334.46</ele>
        <time>2018-08-27T15:32:10Z</time>
      </trkpt>
      <trkpt lat="47.67977" lon="6.203">
        <ele>334.52</ele>
        <time>2018-08-27T15:32:14Z</time>
      </trkpt>
      <trkpt lat="47.67983" lon="6.20302">
        <ele>334.56</ele>
        <time>2018-08-27T15:32:17Z</time>
      </trkpt>
      <trkpt lat="47.67989" lon="6.20303">
        <ele>334.61</ele>
        <time>2018-08-27T15:32:20Z</time>
      </trkpt>
      <trkpt lat="47.67995" lon="6.20304">
        <ele>334.66</ele>
        <time>2018-08-27T15:32:23Z</time>
      </trkpt>
      <trkpt lat="47.68" lon="6.20306">
        <ele>334.71</ele>
        <time>2018-08-27T15:32:26Z</time>
      </trkpt>
      <trkpt lat="47.68007" lon="6.20309">
        <ele>334.76</ele>
        <time>2018-08-27T15:32:29Z</time>
      </trkpt>
      <trkpt lat="47.68012" lon="6.2031">
        <ele>334.79</ele>
        <time>2018-08-27T15:32:31Z</time>
      </trkpt>
      <trkpt lat="47.68017" lon="6.20313">
        <ele>334.83</ele>
        <time>2018-08-27T15:32:33Z</time>
      </trkpt>
      <trkpt lat="47.68021" lon="6.20315">
        <ele>334.87</ele>
        <time>2018-08-27T15:32:35Z</time>
      </trkpt>
      <trkpt lat="47.68026" lon="6.20318">
        <ele>334.9</ele>
        <time>2018-08-27T15:32:37Z</time>
      </trkpt>
      <trkpt lat="47.68031" lon="6.20321">
        <ele>334.94</ele>
        <time>2018-08-27T15:32:39Z</time>
      </trkpt>
      <trkpt lat="47.68037" lon="6.20323">
        <ele>334.99</ele>
        <time>2018-08-27T15:32:41Z</time>
      </trkpt>
      <trkpt lat="47.68043" lon="6.20325">
        <ele>335.03</ele>
        <time>2018-08-27T15:32:43Z</time>
      </trkpt>
      <trkpt lat="47.68056" lon="6.20331">
        <ele>335.21</ele>
        <time>2018-08-27T15:32:45Z</time>
      </trkpt>
      <trkpt lat="47.68064" lon="6.20334">
        <ele>335.53</ele>
        <time>2018-08-27T15:32:47Z</time>
      </trkpt>
      <trkpt lat="47.68072" lon="6.20337">
        <ele>335.71</ele>
        <time>2018-08-27T15:32:49Z</time>
      </trkpt>
      <trkpt lat="47.68077" lon="6.20338">
        <ele>335.74</ele>
        <time>2018-08-27T15:32:51Z</time>
      </trkpt>
      <trkpt lat="47.68082" lon="6.20339">
        <ele>335.77</ele>
        <time>2018-08-27T15:32:53Z</time>
      </trkpt>
      <trkpt lat="47.68087" lon="6.20342">
        <ele>335.79</ele>
        <time>2018-08-27T15:32:55Z</time>
      </trkpt>
      <trkpt lat="47.68093" lon="6.20344">
        <ele>335.82</ele>
        <time>2018-08-27T15:32:57Z</time>
      </trkpt>
      <trkpt lat="47.68099" lon="6.20347">
        <ele>335.85</ele>
        <time>2018-08-27T15:32:59Z</time>
      </trkpt>
      <trkpt lat="47.68104" lon="6.20349">
        <ele>335.88</ele>
        <time>2018-08-27T15:33:01Z</time>
      </trkpt>
      <trkpt lat="47.68109" lon="6.20351">
        <ele>335.91</ele>
        <time>2018-08-27T15:33:03Z</time>
      </trkpt>
      <trkpt lat="47.68114" lon="6.20353">
        <ele>335.94</ele>
        <time>2018-08-27T15:33:05Z</time>
      </trkpt>
      <trkpt lat="47.68119" lon="6.20355">
        <ele>335.97</ele>
        <time>2018-08-27T15:33:07Z</time>
      </trkpt>
      <trkpt lat="47.68125" lon="6.20357">
        <ele>336</ele>
        <time>2018-08-27T15:33:09Z</time>
      </trkpt>
      <trkpt lat="47.68131" lon="6.2036">
        <ele>336.03</ele>
        <time>2018-08-27T15:33:11Z</time>
      </trkpt>
      <trkpt lat="47.68142" lon="6.20362">
        <ele>336.26</ele>
        <time>2018-08-27T15:33:13Z</time>
      </trkpt>
      <trkpt lat="47.68152" lon="6.20364">
        <ele>336.44</ele>
        <time>2018-08-27T15:33:15Z</time>
      </trkpt>
      <trkpt lat="47.68157" lon="6.20366">
        <ele>336.5</ele>
        <time>2018-08-27T15:33:16Z</time>
      </trkpt>
      <trkpt lat="47.68163" lon="6.20369">
        <ele>336.54</ele>
        <time>2018-08-27T15:33:17Z</time>
      </trkpt>
      <trkpt lat="47.6817" lon="6.20372">
        <ele>336.56</ele>
        <time>2018-08-27T15:33:18Z</time>
      </trkpt>
      <trkpt lat="47.68177" lon="6.20375">
        <ele>336.58</ele>
        <time>2018-08-27T15:33:19Z</time>
      </trkpt>
      <trkpt lat="47.68183" lon="6.20379">
        <ele>336.59</ele>
        <time>2018-08-27T15:33:20Z</time>
      </trkpt>
      <trkpt lat="47.6819" lon="6.20382">
        <ele>336.6</ele>
        <time>2018-08-27T15:33:21Z</time>
      </trkpt>
      <trkpt lat="47.68197" lon="6.20386">
        <ele>336.61</ele>
        <time>2018-08-27T15:33:22Z</time>
      </trkpt>
      <trkpt lat="47.68203" lon="6.2039">
        <ele>336.61</ele>
        <time>2018-08-27T15:33:23Z</time>
      </trkpt>
      <trkpt lat="47.68209" lon="6.20395">
        <ele>336.61</ele>
        <time>2018-08-27T15:33:24Z</time>
      </trkpt>
      <trkpt lat="47.68215" lon="6.20399">
        <ele>336.61</ele>
        <time>2018-08-27T15:33:25Z</time>
      </trkpt>
      <trkpt lat="47.68221" lon="6.20404">
        <ele>336.63</ele>
        <time>2018-08-27T15:33:26Z</time>
      </trkpt>
      <trkpt lat="47.68226" lon="6.20407">
        <ele>336.69</ele>
        <time>2018-08-27T15:33:27Z</time>
      </trkpt>
      <trkpt lat="47.68232" lon="6.20412">
        <ele>336.74</ele>
        <time>2018-08-27T15:33:28Z</time>
      </trkpt>
      <trkpt lat="47.68238" lon="6.20415">
        <ele>336.79</ele>
        <time>2018-08-27T15:33:29Z</time>
      </trkpt>
      <trkpt lat="47.68243" lon="6.20419">
        <ele>336.84</ele>
        <time>2018-08-27T15:33:30Z</time>
      </trkpt>
      <trkpt lat="47.68248" lon="6.20423">
        <ele>336.89</ele>
        <time>2018-08-27T15:33:31Z</time>
      </trkpt>
      <trkpt lat="47.68253" lon="6.20426">
        <ele>336.94</ele>
        <time>2018-08-27T15:33:32Z</time>
      </trkpt>
      <trkpt lat="47.68257" lon="6.2043">
        <ele>337</ele>
        <time>2018-08-27T15:33:33Z</time>
      </trkpt>
      <trkpt lat="47.68262" lon="6.20433">
        <ele>337.06</ele>
        <time>2018-08-27T15:33:34Z</time>
      </trkpt>
      <trkpt lat="47.68267" lon="6.20436">
        <ele>337.07</ele>
        <time>2018-08-27T15:33:35Z</time>
      </trkpt>
      <trkpt lat="47.68275" lon="6.20442">
        <ele>337.06</ele>
        <time>2018-08-27T15:33:37Z</time>
      </trkpt>
      <trkpt lat="47.68283" lon="6.20447">
        <ele>337.07</ele>
        <time>2018-08-27T15:33:39Z</time>
      </trkpt>
      <trkpt lat="47.68287" lon="6.2045">
        <ele>337.1</ele>
        <time>2018-08-27T15:33:41Z</time>
      </trkpt>
      <trkpt lat="47.68294" lon="6.20454">
        <ele>337.15</ele>
        <time>2018-08-27T15:33:43Z</time>
      </trkpt>
      <trkpt lat="47.683" lon="6.20458">
        <ele>337.23</ele>
        <time>2018-08-27T15:33:45Z</time>
      </trkpt>
      <trkpt lat="47.68305" lon="6.20463">
        <ele>337.32</ele>
        <time>2018-08-27T15:33:47Z</time>
      </trkpt>
      <trkpt lat="47.6831" lon="6.2047">
        <ele>337.45</ele>
        <time>2018-08-27T15:33:49Z</time>
      </trkpt>
      <trkpt lat="47.68313" lon="6.20477">
        <ele>337.57</ele>
        <time>2018-08-27T15:33:51Z</time>
      </trkpt>
      <trkpt lat="47.68315" lon="6.20484">
        <ele>337.69</ele>
        <time>2018-08-27T15:33:53Z</time>
      </trkpt>
      <trkpt lat="47.68317" lon="6.20493">
        <ele>337.86</ele>
        <time>2018-08-27T15:33:56Z</time>
      </trkpt>
      <trkpt lat="47.68319" lon="6.20499">
        <ele>338.04</ele>
        <time>2018-08-27T15:34:03Z</time>
      </trkpt>
      <trkpt lat="47.68318" lon="6.20492">
        <ele>337.91</ele>
        <time>2018-08-27T15:34:20Z</time>
      </trkpt>
      <trkpt lat="47.68316" lon="6.20486">
        <ele>337.87</ele>
        <time>2018-08-27T15:34:23Z</time>
      </trkpt>
      <trkpt lat="47.68313" lon="6.20477">
        <ele>337.83</ele>
        <time>2018-08-27T15:34:26Z</time>
      </trkpt>
      <trkpt lat="47.68312" lon="6.20469">
        <ele>337.81</ele>
        <time>2018-08-27T15:34:29Z</time>
      </trkpt>
      <trkpt lat="47.68318" lon="6.20467">
        <ele>337.78</ele>
        <time>2018-08-27T15:34:33Z</time>
      </trkpt>
      <trkpt lat="47.68324" lon="6.2047">
        <ele>337.76</ele>
        <time>2018-08-27T15:34:36Z</time>
      </trkpt>
      <trkpt lat="47.68331" lon="6.20473">
        <ele>337.67</ele>
        <time>2018-08-27T15:34:38Z</time>
      </trkpt>
      <trkpt lat="47.68339" lon="6.20478">
        <ele>337.51</ele>
        <time>2018-08-27T15:34:40Z</time>
      </trkpt>
      <trkpt lat="47.68343" lon="6.20481">
        <ele>337.45</ele>
        <time>2018-08-27T15:34:41Z</time>
      </trkpt>
      <trkpt lat="47.68348" lon="6.20484">
        <ele>337.41</ele>
        <time>2018-08-27T15:34:42Z</time>
      </trkpt>
      <trkpt lat="47.68353" lon="6.20487">
        <ele>337.38</ele>
        <time>2018-08-27T15:34:43Z</time>
      </trkpt>
      <trkpt lat="47.68357" lon="6.2049">
        <ele>337.35</ele>
        <time>2018-08-27T15:34:44Z</time>
      </trkpt>
      <trkpt lat="47.68362" lon="6.20492">
        <ele>337.34</ele>
        <time>2018-08-27T15:34:45Z</time>
      </trkpt>
      <trkpt lat="47.68366" lon="6.20495">
        <ele>337.32</ele>
        <time>2018-08-27T15:34:46Z</time>
      </trkpt>
      <trkpt lat="47.68374" lon="6.20499">
        <ele>337.31</ele>
        <time>2018-08-27T15:34:48Z</time>
      </trkpt>
      <trkpt lat="47.68382" lon="6.20504">
        <ele>337.31</ele>
        <time>2018-08-27T15:34:50Z</time>
      </trkpt>
      <trkpt lat="47.6839" lon="6.20509">
        <ele>337.32</ele>
        <time>2018-08-27T15:34:52Z</time>
      </trkpt>
      <trkpt lat="47.68397" lon="6.20514">
        <ele>337.32</ele>
        <time>2018-08-27T15:34:54Z</time>
      </trkpt>
      <trkpt lat="47.68404" lon="6.20519">
        <ele>337.33</ele>
        <time>2018-08-27T15:34:56Z</time>
      </trkpt>
      <trkpt lat="47.68411" lon="6.20524">
        <ele>337.35</ele>
        <time>2018-08-27T15:34:58Z</time>
      </trkpt>
      <trkpt lat="47.68419" lon="6.20528">
        <ele>337.37</ele>
        <time>2018-08-27T15:35:00Z</time>
      </trkpt>
      <trkpt lat="47.68425" lon="6.20533">
        <ele>337.39</ele>
        <time>2018-08-27T15:35:02Z</time>
      </trkpt>
      <trkpt lat="47.68433" lon="6.20538">
        <ele>337.42</ele>
        <time>2018-08-27T15:35:04Z</time>
      </trkpt>
      <trkpt lat="47.68439" lon="6.20543">
        <ele>337.46</ele>
        <time>2018-08-27T15:35:06Z</time>
      </trkpt>
      <trkpt lat="47.68445" lon="6.20548">
        <ele>337.49</ele>
        <time>2018-08-27T15:35:08Z</time>
      </trkpt>
      <trkpt lat="47.6845" lon="6.20553">
        <ele>337.52</ele>
        <time>2018-08-27T15:35:10Z</time>
      </trkpt>
      <trkpt lat="47.68455" lon="6.20558">
        <ele>337.55</ele>
        <time>2018-08-27T15:35:12Z</time>
      </trkpt>
      <trkpt lat="47.68459" lon="6.20562">
        <ele>337.59</ele>
        <time>2018-08-27T15:35:14Z</time>
      </trkpt>
      <trkpt lat="47.68464" lon="6.20568">
        <ele>337.63</ele>
        <time>2018-08-27T15:35:17Z</time>
      </trkpt>
      <trkpt lat="47.68468" lon="6.20572">
        <ele>337.67</ele>
        <time>2018-08-27T15:35:20Z</time>
      </trkpt>
      <trkpt lat="47.68472" lon="6.20578">
        <ele>337.7</ele>
        <time>2018-08-27T15:35:23Z</time>
      </trkpt>
      <trkpt lat="47.68475" lon="6.20583">
        <ele>337.73</ele>
        <time>2018-08-27T15:35:26Z</time>
      </trkpt>
      <trkpt lat="47.68479" lon="6.20589">
        <ele>337.76</ele>
        <time>2018-08-27T15:35:29Z</time>
      </trkpt>
      <trkpt lat="47.68482" lon="6.20595">
        <ele>337.79</ele>
        <time>2018-08-27T15:35:32Z</time>
      </trkpt>
      <trkpt lat="47.68487" lon="6.20603">
        <ele>337.82</ele>
        <time>2018-08-27T15:35:35Z</time>
      </trkpt>
      <trkpt lat="47.6849" lon="6.20609">
        <ele>337.84</ele>
        <time>2018-08-27T15:35:37Z</time>
      </trkpt>
      <trkpt lat="47.68493" lon="6.20615">
        <ele>337.86</ele>
        <time>2018-08-27T15:35:39Z</time>
      </trkpt>
      <trkpt lat="47.68498" lon="6.20621">
        <ele>337.88</ele>
        <time>2018-08-27T15:35:41Z</time>
      </trkpt>
      <trkpt lat="47.68502" lon="6.20628">
        <ele>337.9</ele>
        <time>2018-08-27T15:35:43Z</time>
      </trkpt>
      <trkpt lat="47.68507" lon="6.20635">
        <ele>337.93</ele>
        <time>2018-08-27T15:35:45Z</time>
      </trkpt>
      <trkpt lat="47.68511" lon="6.20641">
        <ele>337.96</ele>
        <time>2018-08-27T15:35:47Z</time>
      </trkpt>
      <trkpt lat="47.68515" lon="6.20647">
        <ele>338</ele>
        <time>2018-08-27T15:35:49Z</time>
      </trkpt>
      <trkpt lat="47.68518" lon="6.20652">
        <ele>338.04</ele>
        <time>2018-08-27T15:35:51Z</time>
      </trkpt>
      <trkpt lat="47.68521" lon="6.20657">
        <ele>338.09</ele>
        <time>2018-08-27T15:35:53Z</time>
      </trkpt>
      <trkpt lat="47.68525" lon="6.20662">
        <ele>338.13</ele>
        <time>2018-08-27T15:35:55Z</time>
      </trkpt>
      <trkpt lat="47.68529" lon="6.20666">
        <ele>338.18</ele>
        <time>2018-08-27T15:35:57Z</time>
      </trkpt>
      <trkpt lat="47.68532" lon="6.2067">
        <ele>338.26</ele>
        <time>2018-08-27T15:36:00Z</time>
      </trkpt>
      <trkpt lat="47.68536" lon="6.20674">
        <ele>338.36</ele>
        <time>2018-08-27T15:36:04Z</time>
      </trkpt>
      <trkpt lat="47.68539" lon="6.2068">
        <ele>338.44</ele>
        <time>2018-08-27T15:36:07Z</time>
      </trkpt>
      <trkpt lat="47.68542" lon="6.20686">
        <ele>338.53</ele>
        <time>2018-08-27T15:36:10Z</time>
      </trkpt>
      <trkpt lat="47.68545" lon="6.20692">
        <ele>338.61</ele>
        <time>2018-08-27T15:36:13Z</time>
      </trkpt>
      <trkpt lat="47.68549" lon="6.20698">
        <ele>338.7</ele>
        <time>2018-08-27T15:36:16Z</time>
      </trkpt>
      <trkpt lat="47.68553" lon="6.20702">
        <ele>338.78</ele>
        <time>2018-08-27T15:36:19Z</time>
      </trkpt>
      <trkpt lat="47.68556" lon="6.20707">
        <ele>338.87</ele>
        <time>2018-08-27T15:36:22Z</time>
      </trkpt>
      <trkpt lat="47.68559" lon="6.20712">
        <ele>338.96</ele>
        <time>2018-08-27T15:36:25Z</time>
      </trkpt>
      <trkpt lat="47.68562" lon="6.20718">
        <ele>339.05</ele>
        <time>2018-08-27T15:36:28Z</time>
      </trkpt>
      <trkpt lat="47.68566" lon="6.20724">
        <ele>339.14</ele>
        <time>2018-08-27T15:36:31Z</time>
      </trkpt>
      <trkpt lat="47.68571" lon="6.2073">
        <ele>339.23</ele>
        <time>2018-08-27T15:36:34Z</time>
      </trkpt>
      <trkpt lat="47.68574" lon="6.20735">
        <ele>339.29</ele>
        <time>2018-08-27T15:36:36Z</time>
      </trkpt>
      <trkpt lat="47.68577" lon="6.2074">
        <ele>339.35</ele>
        <time>2018-08-27T15:36:38Z</time>
      </trkpt>
      <trkpt lat="47.68581" lon="6.20745">
        <ele>339.41</ele>
        <time>2018-08-27T15:36:40Z</time>
      </trkpt>
      <trkpt lat="47.68584" lon="6.2075">
        <ele>339.47</ele>
        <time>2018-08-27T15:36:42Z</time>
      </trkpt>
      <trkpt lat="47.68588" lon="6.20756">
        <ele>339.52</ele>
        <time>2018-08-27T15:36:44Z</time>
      </trkpt>
      <trkpt lat="47.68591" lon="6.20761">
        <ele>339.58</ele>
        <time>2018-08-27T15:36:46Z</time>
      </trkpt>
      <trkpt lat="47.68594" lon="6.20766">
        <ele>339.63</ele>
        <time>2018-08-27T15:36:48Z</time>
      </trkpt>
      <trkpt lat="47.68596" lon="6.20773">
        <ele>339.68</ele>
        <time>2018-08-27T15:36:50Z</time>
      </trkpt>
      <trkpt lat="47.686" lon="6.20779">
        <ele>339.74</ele>
        <time>2018-08-27T15:36:52Z</time>
      </trkpt>
      <trkpt lat="47.68603" lon="6.20785">
        <ele>339.79</ele>
        <time>2018-08-27T15:36:54Z</time>
      </trkpt>
      <trkpt lat="47.68605" lon="6.2079">
        <ele>339.84</ele>
        <time>2018-08-27T15:36:56Z</time>
      </trkpt>
      <trkpt lat="47.6861" lon="6.20797">
        <ele>339.92</ele>
        <time>2018-08-27T15:36:59Z</time>
      </trkpt>
      <trkpt lat="47.68615" lon="6.20803">
        <ele>339.99</ele>
        <time>2018-08-27T15:37:02Z</time>
      </trkpt>
      <trkpt lat="47.68619" lon="6.20809">
        <ele>340.07</ele>
        <time>2018-08-27T15:37:05Z</time>
      </trkpt>
      <trkpt lat="47.68622" lon="6.20816">
        <ele>340.15</ele>
        <time>2018-08-27T15:37:08Z</time>
      </trkpt>
      <trkpt lat="47.68624" lon="6.20823">
        <ele>340.23</ele>
        <time>2018-08-27T15:37:11Z</time>
      </trkpt>
      <trkpt lat="47.68627" lon="6.20831">
        <ele>340.31</ele>
        <time>2018-08-27T15:37:14Z</time>
      </trkpt>
      <trkpt lat="47.6863" lon="6.20838">
        <ele>340.39</ele>
        <time>2018-08-27T15:37:17Z</time>
      </trkpt>
      <trkpt lat="47.68633" lon="6.20844">
        <ele>340.44</ele>
        <time>2018-08-27T15:37:19Z</time>
      </trkpt>
      <trkpt lat="47.68637" lon="6.20849">
        <ele>340.49</ele>
        <time>2018-08-27T15:37:21Z</time>
      </trkpt>
      <trkpt lat="47.6864" lon="6.20854">
        <ele>340.54</ele>
        <time>2018-08-27T15:37:23Z</time>
      </trkpt>
      <trkpt lat="47.68643" lon="6.20859">
        <ele>340.6</ele>
        <time>2018-08-27T15:37:25Z</time>
      </trkpt>
      <trkpt lat="47.68648" lon="6.20867">
        <ele>340.68</ele>
        <time>2018-08-27T15:37:28Z</time>
      </trkpt>
      <trkpt lat="47.68652" lon="6.20872">
        <ele>340.73</ele>
        <time>2018-08-27T15:37:30Z</time>
      </trkpt>
      <trkpt lat="47.68656" lon="6.20877">
        <ele>340.79</ele>
        <time>2018-08-27T15:37:32Z</time>
      </trkpt>
      <trkpt lat="47.6866" lon="6.20881">
        <ele>340.84</ele>
        <time>2018-08-27T15:37:34Z</time>
      </trkpt>
      <trkpt lat="47.68665" lon="6.20885">
        <ele>340.9</ele>
        <time>2018-08-27T15:37:36Z</time>
      </trkpt>
      <trkpt lat="47.6867" lon="6.2089">
        <ele>340.98</ele>
        <time>2018-08-27T15:37:39Z</time>
      </trkpt>
      <trkpt lat="47.68675" lon="6.20893">
        <ele>341.04</ele>
        <time>2018-08-27T15:37:41Z</time>
      </trkpt>
      <trkpt lat="47.68681" lon="6.20897">
        <ele>341.1</ele>
        <time>2018-08-27T15:37:43Z</time>
      </trkpt>
      <trkpt lat="47.68689" lon="6.20901">
        <ele>341.53</ele>
        <time>2018-08-27T15:37:45Z</time>
      </trkpt>
      <trkpt lat="47.68693" lon="6.20902">
        <ele>341.73</ele>
        <time>2018-08-27T15:37:46Z</time>
      </trkpt>
      <trkpt lat="47.68698" lon="6.20903">
        <ele>341.89</ele>
        <time>2018-08-27T15:37:47Z</time>
      </trkpt>
      <trkpt lat="47.68704" lon="6.20903">
        <ele>342.02</ele>
        <time>2018-08-27T15:37:48Z</time>
      </trkpt>
      <trkpt lat="47.68711" lon="6.20903">
        <ele>342.07</ele>
        <time>2018-08-27T15:37:49Z</time>
      </trkpt>
      <trkpt lat="47.68717" lon="6.20904">
        <ele>342.09</ele>
        <time>2018-08-27T15:37:50Z</time>
      </trkpt>
      <trkpt lat="47.68722" lon="6.20904">
        <ele>342.1</ele>
        <time>2018-08-27T15:37:51Z</time>
      </trkpt>
      <trkpt lat="47.68726" lon="6.20904">
        <ele>342.11</ele>
        <time>2018-08-27T15:37:52Z</time>
      </trkpt>
      <trkpt lat="47.68733" lon="6.20905">
        <ele>342.13</ele>
        <time>2018-08-27T15:37:54Z</time>
      </trkpt>
      <trkpt lat="47.68738" lon="6.20906">
        <ele>342.15</ele>
        <time>2018-08-27T15:37:56Z</time>
      </trkpt>
      <trkpt lat="47.68743" lon="6.20908">
        <ele>342.16</ele>
        <time>2018-08-27T15:37:58Z</time>
      </trkpt>
      <trkpt lat="47.68749" lon="6.2091">
        <ele>342.17</ele>
        <time>2018-08-27T15:38:00Z</time>
      </trkpt>
      <trkpt lat="47.68754" lon="6.2091">
        <ele>342.17</ele>
        <time>2018-08-27T15:38:01Z</time>
      </trkpt>
      <trkpt lat="47.6876" lon="6.2091">
        <ele>342.18</ele>
        <time>2018-08-27T15:38:02Z</time>
      </trkpt>
      <trkpt lat="47.68765" lon="6.20911">
        <ele>342.18</ele>
        <time>2018-08-27T15:38:03Z</time>
      </trkpt>
      <trkpt lat="47.68773" lon="6.20913">
        <ele>342.18</ele>
        <time>2018-08-27T15:38:05Z</time>
      </trkpt>
      <trkpt lat="47.6878" lon="6.20916">
        <ele>342.18</ele>
        <time>2018-08-27T15:38:07Z</time>
      </trkpt>
      <trkpt lat="47.68786" lon="6.2092">
        <ele>342.18</ele>
        <time>2018-08-27T15:38:09Z</time>
      </trkpt>
      <trkpt lat="47.68791" lon="6.20923">
        <ele>342.18</ele>
        <time>2018-08-27T15:38:11Z</time>
      </trkpt>
      <trkpt lat="47.68797" lon="6.20924">
        <ele>342.18</ele>
        <time>2018-08-27T15:38:14Z</time>
      </trkpt>
      <trkpt lat="47.68801" lon="6.20922">
        <ele>342.19</ele>
        <time>2018-08-27T15:38:18Z</time>
      </trkpt>
      <trkpt lat="47.68806" lon="6.20917">
        <ele>342.19</ele>
        <time>2018-08-27T15:38:22Z</time>
      </trkpt>
      <trkpt lat="47.6881" lon="6.20911">
        <ele>342.18</ele>
        <time>2018-08-27T15:38:26Z</time>
      </trkpt>
      <trkpt lat="47.68813" lon="6.20904">
        <ele>342.17</ele>
        <time>2018-08-27T15:38:30Z</time>
      </trkpt>
      <trkpt lat="47.68816" lon="6.20897">
        <ele>342.17</ele>
        <time>2018-08-27T15:38:34Z</time>
      </trkpt>
      <trkpt lat="47.68819" lon="6.2089">
        <ele>342.16</ele>
        <time>2018-08-27T15:38:37Z</time>
      </trkpt>
      <trkpt lat="47.68822" lon="6.20882">
        <ele>342.15</ele>
        <time>2018-08-27T15:38:41Z</time>
      </trkpt>
      <trkpt lat="47.68823" lon="6.20876">
        <ele>342.14</ele>
        <time>2018-08-27T15:38:44Z</time>
      </trkpt>
      <trkpt lat="47.68825" lon="6.20869">
        <ele>342.13</ele>
        <time>2018-08-27T15:38:47Z</time>
      </trkpt>
      <trkpt lat="47.68827" lon="6.20861">
        <ele>342.11</ele>
        <time>2018-08-27T15:38:51Z</time>
      </trkpt>
      <trkpt lat="47.68828" lon="6.20854">
        <ele>342.1</ele>
        <time>2018-08-27T15:38:55Z</time>
      </trkpt>
      <trkpt lat="47.6883" lon="6.20848">
        <ele>342.08</ele>
        <time>2018-08-27T15:38:59Z</time>
      </trkpt>
      <trkpt lat="47.68832" lon="6.2084">
        <ele>342.05</ele>
        <time>2018-08-27T15:39:03Z</time>
      </trkpt>
      <trkpt lat="47.68833" lon="6.20831">
        <ele>342.03</ele>
        <time>2018-08-27T15:39:07Z</time>
      </trkpt>
      <trkpt lat="47.68834" lon="6.20823">
        <ele>342.01</ele>
        <time>2018-08-27T15:39:10Z</time>
      </trkpt>
      <trkpt lat="47.68835" lon="6.20815">
        <ele>342</ele>
        <time>2018-08-27T15:39:14Z</time>
      </trkpt>
      <trkpt lat="47.68838" lon="6.20809">
        <ele>341.98</ele>
        <time>2018-08-27T15:39:18Z</time>
      </trkpt>
      <trkpt lat="47.68838" lon="6.20801">
        <ele>341.98</ele>
        <time>2018-08-27T15:39:21Z</time>
      </trkpt>
      <trkpt lat="47.68836" lon="6.20792">
        <ele>341.97</ele>
        <time>2018-08-27T15:39:24Z</time>
      </trkpt>
      <trkpt lat="47.68833" lon="6.20785">
        <ele>341.97</ele>
        <time>2018-08-27T15:39:27Z</time>
      </trkpt>
      <trkpt lat="47.68829" lon="6.20778">
        <ele>341.97</ele>
        <time>2018-08-27T15:39:30Z</time>
      </trkpt>
      <trkpt lat="47.68826" lon="6.20771">
        <ele>341.97</ele>
        <time>2018-08-27T15:39:33Z</time>
      </trkpt>
      <trkpt lat="47.68823" lon="6.20767">
        <ele>341.98</ele>
        <time>2018-08-27T15:39:36Z</time>
      </trkpt>
      <trkpt lat="47.68819" lon="6.20761">
        <ele>341.99</ele>
        <time>2018-08-27T15:39:40Z</time>
      </trkpt>
      <trkpt lat="47.68815" lon="6.20754">
        <ele>342.01</ele>
        <time>2018-08-27T15:39:44Z</time>
      </trkpt>
      <trkpt lat="47.68812" lon="6.20746">
        <ele>342.03</ele>
        <time>2018-08-27T15:39:47Z</time>
      </trkpt>
      <trkpt lat="47.6881" lon="6.2074">
        <ele>342.05</ele>
        <time>2018-08-27T15:39:50Z</time>
      </trkpt>
      <trkpt lat="47.68808" lon="6.20733">
        <ele>342.07</ele>
        <time>2018-08-27T15:39:53Z</time>
      </trkpt>
      <trkpt lat="47.68805" lon="6.20727">
        <ele>342.11</ele>
        <time>2018-08-27T15:39:57Z</time>
      </trkpt>
      <trkpt lat="47.68802" lon="6.2072">
        <ele>342.14</ele>
        <time>2018-08-27T15:40:01Z</time>
      </trkpt>
      <trkpt lat="47.688" lon="6.20714">
        <ele>342.17</ele>
        <time>2018-08-27T15:40:04Z</time>
      </trkpt>
      <trkpt lat="47.68797" lon="6.20707">
        <ele>342.2</ele>
        <time>2018-08-27T15:40:07Z</time>
      </trkpt>
      <trkpt lat="47.68795" lon="6.20702">
        <ele>342.23</ele>
        <time>2018-08-27T15:40:10Z</time>
      </trkpt>
      <trkpt lat="47.68793" lon="6.20696">
        <ele>342.27</ele>
        <time>2018-08-27T15:40:13Z</time>
      </trkpt>
      <trkpt lat="47.68791" lon="6.2069">
        <ele>342.3</ele>
        <time>2018-08-27T15:40:16Z</time>
      </trkpt>
      <trkpt lat="47.68788" lon="6.20682">
        <ele>342.34</ele>
        <time>2018-08-27T15:40:20Z</time>
      </trkpt>
      <trkpt lat="47.68786" lon="6.20674">
        <ele>342.38</ele>
        <time>2018-08-27T15:40:24Z</time>
      </trkpt>
      <trkpt lat="47.68784" lon="6.20667">
        <ele>342.42</ele>
        <time>2018-08-27T15:40:27Z</time>
      </trkpt>
      <trkpt lat="47.68782" lon="6.20658">
        <ele>342.45</ele>
        <time>2018-08-27T15:40:30Z</time>
      </trkpt>
      <trkpt lat="47.68781" lon="6.20651">
        <ele>342.46</ele>
        <time>2018-08-27T15:40:32Z</time>
      </trkpt>
      <trkpt lat="47.68781" lon="6.20643">
        <ele>342.48</ele>
        <time>2018-08-27T15:40:34Z</time>
      </trkpt>
      <trkpt lat="47.68781" lon="6.20635">
        <ele>342.5</ele>
        <time>2018-08-27T15:40:36Z</time>
      </trkpt>
      <trkpt lat="47.6878" lon="6.20625">
        <ele>342.52</ele>
        <time>2018-08-27T15:40:38Z</time>
      </trkpt>
      <trkpt lat="47.68778" lon="6.20615">
        <ele>342.54</ele>
        <time>2018-08-27T15:40:40Z</time>
      </trkpt>
      <trkpt lat="47.68775" lon="6.20604">
        <ele>342.56</ele>
        <time>2018-08-27T15:40:42Z</time>
      </trkpt>
      <trkpt lat="47.68772" lon="6.20595">
        <ele>342.58</ele>
        <time>2018-08-27T15:40:44Z</time>
      </trkpt>
      <trkpt lat="47.68769" lon="6.20586">
        <ele>342.6</ele>
        <time>2018-08-27T15:40:46Z</time>
      </trkpt>
      <trkpt lat="47.68765" lon="6.20578">
        <ele>342.62</ele>
        <time>2018-08-27T15:40:48Z</time>
      </trkpt>
      <trkpt lat="47.68762" lon="6.20571">
        <ele>342.64</ele>
        <time>2018-08-27T15:40:50Z</time>
      </trkpt>
      <trkpt lat="47.68758" lon="6.20564">
        <ele>342.66</ele>
        <time>2018-08-27T15:40:52Z</time>
      </trkpt>
      <trkpt lat="47.68754" lon="6.20554">
        <ele>342.68</ele>
        <time>2018-08-27T15:40:54Z</time>
      </trkpt>
      <trkpt lat="47.6875" lon="6.20544">
        <ele>342.7</ele>
        <time>2018-08-27T15:40:56Z</time>
      </trkpt>
      <trkpt lat="47.68747" lon="6.20534">
        <ele>342.73</ele>
        <time>2018-08-27T15:40:58Z</time>
      </trkpt>
      <trkpt lat="47.68744" lon="6.20524">
        <ele>342.75</ele>
        <time>2018-08-27T15:41:00Z</time>
      </trkpt>
      <trkpt lat="47.68742" lon="6.20516">
        <ele>342.77</ele>
        <time>2018-08-27T15:41:02Z</time>
      </trkpt>
      <trkpt lat="47.6874" lon="6.20505">
        <ele>342.79</ele>
        <time>2018-08-27T15:41:03Z</time>
      </trkpt>
      <trkpt lat="47.68738" lon="6.205">
        <ele>342.82</ele>
        <time>2018-08-27T15:41:06Z</time>
      </trkpt>
      <trkpt lat="47.68735" lon="6.20494">
        <ele>342.84</ele>
        <time>2018-08-27T15:41:08Z</time>
      </trkpt>
      <trkpt lat="47.68731" lon="6.20486">
        <ele>342.87</ele>
        <time>2018-08-27T15:41:11Z</time>
      </trkpt>
      <trkpt lat="47.68727" lon="6.20479">
        <ele>342.89</ele>
        <time>2018-08-27T15:41:14Z</time>
      </trkpt>
      <trkpt lat="47.68724" lon="6.20475">
        <ele>342.91</ele>
        <time>2018-08-27T15:41:22Z</time>
      </trkpt>
      <trkpt lat="47.6872" lon="6.20469">
        <ele>342.89</ele>
        <time>2018-08-27T15:42:12Z</time>
      </trkpt>
      <trkpt lat="47.68716" lon="6.20464">
        <ele>342.88</ele>
        <time>2018-08-27T15:42:15Z</time>
      </trkpt>
      <trkpt lat="47.68712" lon="6.20459">
        <ele>342.87</ele>
        <time>2018-08-27T15:42:17Z</time>
      </trkpt>
      <trkpt lat="47.68707" lon="6.20454">
        <ele>342.86</ele>
        <time>2018-08-27T15:42:19Z</time>
      </trkpt>
      <trkpt lat="47.68702" lon="6.20449">
        <ele>342.86</ele>
        <time>2018-08-27T15:42:21Z</time>
      </trkpt>
      <trkpt lat="47.68697" lon="6.20442">
        <ele>342.85</ele>
        <time>2018-08-27T15:42:23Z</time>
      </trkpt>
      <trkpt lat="47.68692" lon="6.20434">
        <ele>342.84</ele>
        <time>2018-08-27T15:42:25Z</time>
      </trkpt>
      <trkpt lat="47.68688" lon="6.20426">
        <ele>342.83</ele>
        <time>2018-08-27T15:42:27Z</time>
      </trkpt>
      <trkpt lat="47.68685" lon="6.20419">
        <ele>342.82</ele>
        <time>2018-08-27T15:42:29Z</time>
      </trkpt>
      <trkpt lat="47.68683" lon="6.2041">
        <ele>342.81</ele>
        <time>2018-08-27T15:42:31Z</time>
      </trkpt>
      <trkpt lat="47.68681" lon="6.20401">
        <ele>342.8</ele>
        <time>2018-08-27T15:42:33Z</time>
      </trkpt>
      <trkpt lat="47.68679" lon="6.20393">
        <ele>342.79</ele>
        <time>2018-08-27T15:42:35Z</time>
      </trkpt>
      <trkpt lat="47.68678" lon="6.20386">
        <ele>342.78</ele>
        <time>2018-08-27T15:42:37Z</time>
      </trkpt>
      <trkpt lat="47.68676" lon="6.2038">
        <ele>342.77</ele>
        <time>2018-08-27T15:42:39Z</time>
      </trkpt>
      <trkpt lat="47.68673" lon="6.20371">
        <ele>342.74</ele>
        <time>2018-08-27T15:42:42Z</time>
      </trkpt>
      <trkpt lat="47.6867" lon="6.20364">
        <ele>342.73</ele>
        <time>2018-08-27T15:42:44Z</time>
      </trkpt>
      <trkpt lat="47.68668" lon="6.20358">
        <ele>342.72</ele>
        <time>2018-08-27T15:42:46Z</time>
      </trkpt>
      <trkpt lat="47.68665" lon="6.20352">
        <ele>342.7</ele>
        <time>2018-08-27T15:42:48Z</time>
      </trkpt>
      <trkpt lat="47.68663" lon="6.20344">
        <ele>342.69</ele>
        <time>2018-08-27T15:42:50Z</time>
      </trkpt>
      <trkpt lat="47.68659" lon="6.20334">
        <ele>342.68</ele>
        <time>2018-08-27T15:42:52Z</time>
      </trkpt>
      <trkpt lat="47.68657" lon="6.20326">
        <ele>342.66</ele>
        <time>2018-08-27T15:42:54Z</time>
      </trkpt>
      <trkpt lat="47.68655" lon="6.20316">
        <ele>342.65</ele>
        <time>2018-08-27T15:42:56Z</time>
      </trkpt>
      <trkpt lat="47.68652" lon="6.20305">
        <ele>342.63</ele>
        <time>2018-08-27T15:42:58Z</time>
      </trkpt>
      <trkpt lat="47.68651" lon="6.20294">
        <ele>342.61</ele>
        <time>2018-08-27T15:43:00Z</time>
      </trkpt>
      <trkpt lat="47.6865" lon="6.20285">
        <ele>342.59</ele>
        <time>2018-08-27T15:43:02Z</time>
      </trkpt>
      <trkpt lat="47.68647" lon="6.20273">
        <ele>342.56</ele>
        <time>2018-08-27T15:43:04Z</time>
      </trkpt>
      <trkpt lat="47.68646" lon="6.20261">
        <ele>342.53</ele>
        <time>2018-08-27T15:43:06Z</time>
      </trkpt>
      <trkpt lat="47.68644" lon="6.20251">
        <ele>342.5</ele>
        <time>2018-08-27T15:43:08Z</time>
      </trkpt>
      <trkpt lat="47.68643" lon="6.2024">
        <ele>342.46</ele>
        <time>2018-08-27T15:43:10Z</time>
      </trkpt>
      <trkpt lat="47.6864" lon="6.20229">
        <ele>342.42</ele>
        <time>2018-08-27T15:43:12Z</time>
      </trkpt>
      <trkpt lat="47.68636" lon="6.2022">
        <ele>342.38</ele>
        <time>2018-08-27T15:43:14Z</time>
      </trkpt>
      <trkpt lat="47.68633" lon="6.20211">
        <ele>342.33</ele>
        <time>2018-08-27T15:43:16Z</time>
      </trkpt>
      <trkpt lat="47.68628" lon="6.20204">
        <ele>342.29</ele>
        <time>2018-08-27T15:43:18Z</time>
      </trkpt>
      <trkpt lat="47.68623" lon="6.20196">
        <ele>342.24</ele>
        <time>2018-08-27T15:43:20Z</time>
      </trkpt>
      <trkpt lat="47.68619" lon="6.20189">
        <ele>342.2</ele>
        <time>2018-08-27T15:43:22Z</time>
      </trkpt>
      <trkpt lat="47.68617" lon="6.20181">
        <ele>342.15</ele>
        <time>2018-08-27T15:43:24Z</time>
      </trkpt>
      <trkpt lat="47.68615" lon="6.20171">
        <ele>342.1</ele>
        <time>2018-08-27T15:43:26Z</time>
      </trkpt>
      <trkpt lat="47.68612" lon="6.20159">
        <ele>342.04</ele>
        <time>2018-08-27T15:43:28Z</time>
      </trkpt>
      <trkpt lat="47.68609" lon="6.20149">
        <ele>341.99</ele>
        <time>2018-08-27T15:43:30Z</time>
      </trkpt>
      <trkpt lat="47.68605" lon="6.2014">
        <ele>341.93</ele>
        <time>2018-08-27T15:43:32Z</time>
      </trkpt>
      <trkpt lat="47.68601" lon="6.20132">
        <ele>341.87</ele>
        <time>2018-08-27T15:43:34Z</time>
      </trkpt>
      <trkpt lat="47.68597" lon="6.20123">
        <ele>341.8</ele>
        <time>2018-08-27T15:43:36Z</time>
      </trkpt>
      <trkpt lat="47.68594" lon="6.20114">
        <ele>341.74</ele>
        <time>2018-08-27T15:43:38Z</time>
      </trkpt>
      <trkpt lat="47.68591" lon="6.20106">
        <ele>341.68</ele>
        <time>2018-08-27T15:43:40Z</time>
      </trkpt>
      <trkpt lat="47.68588" lon="6.20098">
        <ele>341.61</ele>
        <time>2018-08-27T15:43:42Z</time>
      </trkpt>
      <trkpt lat="47.68584" lon="6.2009">
        <ele>341.55</ele>
        <time>2018-08-27T15:43:44Z</time>
      </trkpt>
      <trkpt lat="47.68581" lon="6.20084">
        <ele>341.48</ele>
        <time>2018-08-27T15:43:46Z</time>
      </trkpt>
      <trkpt lat="47.68576" lon="6.20077">
        <ele>341.41</ele>
        <time>2018-08-27T15:43:48Z</time>
      </trkpt>
      <trkpt lat="47.68571" lon="6.20069">
        <ele>341.34</ele>
        <time>2018-08-27T15:43:50Z</time>
      </trkpt>
      <trkpt lat="47.68567" lon="6.20061">
        <ele>341.27</ele>
        <time>2018-08-27T15:43:52Z</time>
      </trkpt>
      <trkpt lat="47.68564" lon="6.20051">
        <ele>341.2</ele>
        <time>2018-08-27T15:43:54Z</time>
      </trkpt>
      <trkpt lat="47.68562" lon="6.20042">
        <ele>341.13</ele>
        <time>2018-08-27T15:43:56Z</time>
      </trkpt>
      <trkpt lat="47.68561" lon="6.20034">
        <ele>341.05</ele>
        <time>2018-08-27T15:43:58Z</time>
      </trkpt>
      <trkpt lat="47.6856" lon="6.20026">
        <ele>340.96</ele>
        <time>2018-08-27T15:44:00Z</time>
      </trkpt>
      <trkpt lat="47.68558" lon="6.20019">
        <ele>340.87</ele>
        <time>2018-08-27T15:44:02Z</time>
      </trkpt>
      <trkpt lat="47.68555" lon="6.20008">
        <ele>340.79</ele>
        <time>2018-08-27T15:44:04Z</time>
      </trkpt>
      <trkpt lat="47.68552" lon="6.19997">
        <ele>340.7</ele>
        <time>2018-08-27T15:44:06Z</time>
      </trkpt>
      <trkpt lat="47.6855" lon="6.1999">
        <ele>340.65</ele>
        <time>2018-08-27T15:44:07Z</time>
      </trkpt>
      <trkpt lat="47.68547" lon="6.19979">
        <ele>340.56</ele>
        <time>2018-08-27T15:44:09Z</time>
      </trkpt>
      <trkpt lat="47.68545" lon="6.19969">
        <ele>340.46</ele>
        <time>2018-08-27T15:44:11Z</time>
      </trkpt>
      <trkpt lat="47.68544" lon="6.1996">
        <ele>340.36</ele>
        <time>2018-08-27T15:44:13Z</time>
      </trkpt>
      <trkpt lat="47.68544" lon="6.19951">
        <ele>340.26</ele>
        <time>2018-08-27T15:44:15Z</time>
      </trkpt>
      <trkpt lat="47.68543" lon="6.19942">
        <ele>340.15</ele>
        <time>2018-08-27T15:44:17Z</time>
      </trkpt>
      <trkpt lat="47.68543" lon="6.19931">
        <ele>340.04</ele>
        <time>2018-08-27T15:44:19Z</time>
      </trkpt>
      <trkpt lat="47.68542" lon="6.19919">
        <ele>339.92</ele>
        <time>2018-08-27T15:44:21Z</time>
      </trkpt>
      <trkpt lat="47.68542" lon="6.19908">
        <ele>339.8</ele>
        <time>2018-08-27T15:44:23Z</time>
      </trkpt>
      <trkpt lat="47.68541" lon="6.19896">
        <ele>339.68</ele>
        <time>2018-08-27T15:44:25Z</time>
      </trkpt>
      <trkpt lat="47.68541" lon="6.19884">
        <ele>339.56</ele>
        <time>2018-08-27T15:44:27Z</time>
      </trkpt>
      <trkpt lat="47.68541" lon="6.19872">
        <ele>339.45</ele>
        <time>2018-08-27T15:44:29Z</time>
      </trkpt>
      <trkpt lat="47.68541" lon="6.1986">
        <ele>339.32</ele>
        <time>2018-08-27T15:44:31Z</time>
      </trkpt>
      <trkpt lat="47.68543" lon="6.19848">
        <ele>339.2</ele>
        <time>2018-08-27T15:44:33Z</time>
      </trkpt>
      <trkpt lat="47.68545" lon="6.19838">
        <ele>339.08</ele>
        <time>2018-08-27T15:44:35Z</time>
      </trkpt>
      <trkpt lat="47.68546" lon="6.19828">
        <ele>338.96</ele>
        <time>2018-08-27T15:44:37Z</time>
      </trkpt>
      <trkpt lat="47.68546" lon="6.1982">
        <ele>338.84</ele>
        <time>2018-08-27T15:44:39Z</time>
      </trkpt>
      <trkpt lat="47.68544" lon="6.19813">
        <ele>338.72</ele>
        <time>2018-08-27T15:44:41Z</time>
      </trkpt>
      <trkpt lat="47.68541" lon="6.19807">
        <ele>338.6</ele>
        <time>2018-08-27T15:44:43Z</time>
      </trkpt>
      <trkpt lat="47.68537" lon="6.19801">
        <ele>338.4</ele>
        <time>2018-08-27T15:44:46Z</time>
      </trkpt>
      <trkpt lat="47.68532" lon="6.19795">
        <ele>338.12</ele>
        <time>2018-08-27T15:44:50Z</time>
      </trkpt>
      <trkpt lat="47.68529" lon="6.19787">
        <ele>337.9</ele>
        <time>2018-08-27T15:44:53Z</time>
      </trkpt>
      <trkpt lat="47.68527" lon="6.1978">
        <ele>337.76</ele>
        <time>2018-08-27T15:44:55Z</time>
      </trkpt>
      <trkpt lat="47.68525" lon="6.19771">
        <ele>337.54</ele>
        <time>2018-08-27T15:44:58Z</time>
      </trkpt>
      <trkpt lat="47.68522" lon="6.19765">
        <ele>337.33</ele>
        <time>2018-08-27T15:45:01Z</time>
      </trkpt>
      <trkpt lat="47.68519" lon="6.19758">
        <ele>337.06</ele>
        <time>2018-08-27T15:45:05Z</time>
      </trkpt>
      <trkpt lat="47.68515" lon="6.19752">
        <ele>336.85</ele>
        <time>2018-08-27T15:45:08Z</time>
      </trkpt>
      <trkpt lat="47.68512" lon="6.19747">
        <ele>336.65</ele>
        <time>2018-08-27T15:45:11Z</time>
      </trkpt>
      <trkpt lat="47.68508" lon="6.19743">
        <ele>336.45</ele>
        <time>2018-08-27T15:45:14Z</time>
      </trkpt>
      <trkpt lat="47.68502" lon="6.19742">
        <ele>336.17</ele>
        <time>2018-08-27T15:45:18Z</time>
      </trkpt>
      <trkpt lat="47.68497" lon="6.19741">
        <ele>335.97</ele>
        <time>2018-08-27T15:45:21Z</time>
      </trkpt>
      <trkpt lat="47.68494" lon="6.19737">
        <ele>335.77</ele>
        <time>2018-08-27T15:45:24Z</time>
      </trkpt>
      <trkpt lat="47.68491" lon="6.19731">
        <ele>335.5</ele>
        <time>2018-08-27T15:45:28Z</time>
      </trkpt>
      <trkpt lat="47.6849" lon="6.19723">
        <ele>335.24</ele>
        <time>2018-08-27T15:45:32Z</time>
      </trkpt>
      <trkpt lat="47.68488" lon="6.19716">
        <ele>335.05</ele>
        <time>2018-08-27T15:45:35Z</time>
      </trkpt>
      <trkpt lat="47.68486" lon="6.19709">
        <ele>334.86</ele>
        <time>2018-08-27T15:45:38Z</time>
      </trkpt>
      <trkpt lat="47.68484" lon="6.19701">
        <ele>334.66</ele>
        <time>2018-08-27T15:45:41Z</time>
      </trkpt>
      <trkpt lat="47.68482" lon="6.19695">
        <ele>334.47</ele>
        <time>2018-08-27T15:45:44Z</time>
      </trkpt>
      <trkpt lat="47.68478" lon="6.19689">
        <ele>334.27</ele>
        <time>2018-08-27T15:45:47Z</time>
      </trkpt>
      <trkpt lat="47.68476" lon="6.19683">
        <ele>334.07</ele>
        <time>2018-08-27T15:45:50Z</time>
      </trkpt>
      <trkpt lat="47.68472" lon="6.19678">
        <ele>333.8</ele>
        <time>2018-08-27T15:45:54Z</time>
      </trkpt>
      <trkpt lat="47.68469" lon="6.19673">
        <ele>333.52</ele>
        <time>2018-08-27T15:45:58Z</time>
      </trkpt>
      <trkpt lat="47.68467" lon="6.19666">
        <ele>333.17</ele>
        <time>2018-08-27T15:46:03Z</time>
      </trkpt>
      <trkpt lat="47.68465" lon="6.19658">
        <ele>332.97</ele>
        <time>2018-08-27T15:46:06Z</time>
      </trkpt>
      <trkpt lat="47.68463" lon="6.19652">
        <ele>332.83</ele>
        <time>2018-08-27T15:46:08Z</time>
      </trkpt>
      <trkpt lat="47.68462" lon="6.19646">
        <ele>332.69</ele>
        <time>2018-08-27T15:46:10Z</time>
      </trkpt>
      <trkpt lat="47.6846" lon="6.19636">
        <ele>332.49</ele>
        <time>2018-08-27T15:46:13Z</time>
      </trkpt>
      <trkpt lat="47.68458" lon="6.19628">
        <ele>332.3</ele>
        <time>2018-08-27T15:46:16Z</time>
      </trkpt>
      <trkpt lat="47.68456" lon="6.1962">
        <ele>332.11</ele>
        <time>2018-08-27T15:46:19Z</time>
      </trkpt>
      <trkpt lat="47.68454" lon="6.19612">
        <ele>331.93</ele>
        <time>2018-08-27T15:46:22Z</time>
      </trkpt>
      <trkpt lat="47.68452" lon="6.19606">
        <ele>331.75</ele>
        <time>2018-08-27T15:46:25Z</time>
      </trkpt>
      <trkpt lat="47.68451" lon="6.19598">
        <ele>331.51</ele>
        <time>2018-08-27T15:46:29Z</time>
      </trkpt>
      <trkpt lat="47.68449" lon="6.1959">
        <ele>331.22</ele>
        <time>2018-08-27T15:46:34Z</time>
      </trkpt>
      <trkpt lat="47.68448" lon="6.19582">
        <ele>330.97</ele>
        <time>2018-08-27T15:46:38Z</time>
      </trkpt>
      <trkpt lat="47.68446" lon="6.19574">
        <ele>330.72</ele>
        <time>2018-08-27T15:46:42Z</time>
      </trkpt>
      <trkpt lat="47.68444" lon="6.19566">
        <ele>330.33</ele>
        <time>2018-08-27T15:46:48Z</time>
      </trkpt>
      <trkpt lat="47.68443" lon="6.19559">
        <ele>330.09</ele>
        <time>2018-08-27T15:46:52Z</time>
      </trkpt>
      <trkpt lat="47.6844" lon="6.19551">
        <ele>329.9</ele>
        <time>2018-08-27T15:46:55Z</time>
      </trkpt>
      <trkpt lat="47.68438" lon="6.19543">
        <ele>329.71</ele>
        <time>2018-08-27T15:46:58Z</time>
      </trkpt>
      <trkpt lat="47.68436" lon="6.19536">
        <ele>329.51</ele>
        <time>2018-08-27T15:47:01Z</time>
      </trkpt>
      <trkpt lat="47.68433" lon="6.19528">
        <ele>329.24</ele>
        <time>2018-08-27T15:47:05Z</time>
      </trkpt>
      <trkpt lat="47.68431" lon="6.1952">
        <ele>328.97</ele>
        <time>2018-08-27T15:47:09Z</time>
      </trkpt>
      <trkpt lat="47.6843" lon="6.19513">
        <ele>328.77</ele>
        <time>2018-08-27T15:47:12Z</time>
      </trkpt>
      <trkpt lat="47.68428" lon="6.19504">
        <ele>328.5</ele>
        <time>2018-08-27T15:47:16Z</time>
      </trkpt>
      <trkpt lat="47.68426" lon="6.19497">
        <ele>328.29</ele>
        <time>2018-08-27T15:47:19Z</time>
      </trkpt>
      <trkpt lat="47.68423" lon="6.19491">
        <ele>328.15</ele>
        <time>2018-08-27T15:47:21Z</time>
      </trkpt>
      <trkpt lat="47.68421" lon="6.19485">
        <ele>328.01</ele>
        <time>2018-08-27T15:47:23Z</time>
      </trkpt>
      <trkpt lat="47.68418" lon="6.19477">
        <ele>327.79</ele>
        <time>2018-08-27T15:47:26Z</time>
      </trkpt>
      <trkpt lat="47.68415" lon="6.19468">
        <ele>327.58</ele>
        <time>2018-08-27T15:47:29Z</time>
      </trkpt>
      <trkpt lat="47.68412" lon="6.1946">
        <ele>327.44</ele>
        <time>2018-08-27T15:47:31Z</time>
      </trkpt>
      <trkpt lat="47.68409" lon="6.19453">
        <ele>327.31</ele>
        <time>2018-08-27T15:47:33Z</time>
      </trkpt>
      <trkpt lat="47.68405" lon="6.19447">
        <ele>327.18</ele>
        <time>2018-08-27T15:47:35Z</time>
      </trkpt>
      <trkpt lat="47.68401" lon="6.19443">
        <ele>327.05</ele>
        <time>2018-08-27T15:47:37Z</time>
      </trkpt>
      <trkpt lat="47.68396" lon="6.19439">
        <ele>326.86</ele>
        <time>2018-08-27T15:47:40Z</time>
      </trkpt>
      <trkpt lat="47.68392" lon="6.19436">
        <ele>326.68</ele>
        <time>2018-08-27T15:47:43Z</time>
      </trkpt>
      <trkpt lat="47.68387" lon="6.19431">
        <ele>326.44</ele>
        <time>2018-08-27T15:47:47Z</time>
      </trkpt>
      <trkpt lat="47.68383" lon="6.19428">
        <ele>326.27</ele>
        <time>2018-08-27T15:47:50Z</time>
      </trkpt>
      <trkpt lat="47.68379" lon="6.19423">
        <ele>326.1</ele>
        <time>2018-08-27T15:47:53Z</time>
      </trkpt>
      <trkpt lat="47.68375" lon="6.19419">
        <ele>325.94</ele>
        <time>2018-08-27T15:47:56Z</time>
      </trkpt>
      <trkpt lat="47.6837" lon="6.19416">
        <ele>325.78</ele>
        <time>2018-08-27T15:47:59Z</time>
      </trkpt>
      <trkpt lat="47.68364" lon="6.19415">
        <ele>325.57</ele>
        <time>2018-08-27T15:48:03Z</time>
      </trkpt>
      <trkpt lat="47.68359" lon="6.19414">
        <ele>325.42</ele>
        <time>2018-08-27T15:48:06Z</time>
      </trkpt>
      <trkpt lat="47.68354" lon="6.19414">
        <ele>325.28</ele>
        <time>2018-08-27T15:48:09Z</time>
      </trkpt>
      <trkpt lat="47.68348" lon="6.19415">
        <ele>325.09</ele>
        <time>2018-08-27T15:48:13Z</time>
      </trkpt>
      <trkpt lat="47.68343" lon="6.19415">
        <ele>324.9</ele>
        <time>2018-08-27T15:48:17Z</time>
      </trkpt>
      <trkpt lat="47.68338" lon="6.19416">
        <ele>324.73</ele>
        <time>2018-08-27T15:48:21Z</time>
      </trkpt>
      <trkpt lat="47.68333" lon="6.19416">
        <ele>324.6</ele>
        <time>2018-08-27T15:48:24Z</time>
      </trkpt>
      <trkpt lat="47.68328" lon="6.19417">
        <ele>324.47</ele>
        <time>2018-08-27T15:48:27Z</time>
      </trkpt>
      <trkpt lat="47.68323" lon="6.19417">
        <ele>324.32</ele>
        <time>2018-08-27T15:48:31Z</time>
      </trkpt>
      <trkpt lat="47.68318" lon="6.19417">
        <ele>324.18</ele>
        <time>2018-08-27T15:48:35Z</time>
      </trkpt>
      <trkpt lat="47.68313" lon="6.19418">
        <ele>324.08</ele>
        <time>2018-08-27T15:48:38Z</time>
      </trkpt>
      <trkpt lat="47.68308" lon="6.19418">
        <ele>323.98</ele>
        <time>2018-08-27T15:48:41Z</time>
      </trkpt>
      <trkpt lat="47.68303" lon="6.19418">
        <ele>323.89</ele>
        <time>2018-08-27T15:48:44Z</time>
      </trkpt>
      <trkpt lat="47.68298" lon="6.19418">
        <ele>323.82</ele>
        <time>2018-08-27T15:48:47Z</time>
      </trkpt>
      <trkpt lat="47.68292" lon="6.19417">
        <ele>323.75</ele>
        <time>2018-08-27T15:48:50Z</time>
      </trkpt>
      <trkpt lat="47.68286" lon="6.19415">
        <ele>323.69</ele>
        <time>2018-08-27T15:48:53Z</time>
      </trkpt>
      <trkpt lat="47.68282" lon="6.19413">
        <ele>323.65</ele>
        <time>2018-08-27T15:48:55Z</time>
      </trkpt>
      <trkpt lat="47.68277" lon="6.19409">
        <ele>323.62</ele>
        <time>2018-08-27T15:48:57Z</time>
      </trkpt>
      <trkpt lat="47.68273" lon="6.19403">
        <ele>323.59</ele>
        <time>2018-08-27T15:48:59Z</time>
      </trkpt>
      <trkpt lat="47.6827" lon="6.19396">
        <ele>323.56</ele>
        <time>2018-08-27T15:49:01Z</time>
      </trkpt>
      <trkpt lat="47.68267" lon="6.19389">
        <ele>323.53</ele>
        <time>2018-08-27T15:49:03Z</time>
      </trkpt>
      <trkpt lat="47.68265" lon="6.19382">
        <ele>323.51</ele>
        <time>2018-08-27T15:49:05Z</time>
      </trkpt>
      <trkpt lat="47.68263" lon="6.19375">
        <ele>323.48</ele>
        <time>2018-08-27T15:49:07Z</time>
      </trkpt>
      <trkpt lat="47.6826" lon="6.19367">
        <ele>323.4</ele>
        <time>2018-08-27T15:49:09Z</time>
      </trkpt>
      <trkpt lat="47.68257" lon="6.19358">
        <ele>323.35</ele>
        <time>2018-08-27T15:49:11Z</time>
      </trkpt>
      <trkpt lat="47.68255" lon="6.19349">
        <ele>323.34</ele>
        <time>2018-08-27T15:49:13Z</time>
      </trkpt>
      <trkpt lat="47.68252" lon="6.1934">
        <ele>323.32</ele>
        <time>2018-08-27T15:49:15Z</time>
      </trkpt>
      <trkpt lat="47.6825" lon="6.19333">
        <ele>323.31</ele>
        <time>2018-08-27T15:49:17Z</time>
      </trkpt>
      <trkpt lat="47.68247" lon="6.19326">
        <ele>323.29</ele>
        <time>2018-08-27T15:49:19Z</time>
      </trkpt>
      <trkpt lat="47.68245" lon="6.1932">
        <ele>323.28</ele>
        <time>2018-08-27T15:49:21Z</time>
      </trkpt>
      <trkpt lat="47.68243" lon="6.19313">
        <ele>323.27</ele>
        <time>2018-08-27T15:49:23Z</time>
      </trkpt>
      <trkpt lat="47.68241" lon="6.19307">
        <ele>323.26</ele>
        <time>2018-08-27T15:49:25Z</time>
      </trkpt>
      <trkpt lat="47.68239" lon="6.193">
        <ele>323.26</ele>
        <time>2018-08-27T15:49:27Z</time>
      </trkpt>
      <trkpt lat="47.68237" lon="6.19293">
        <ele>323.25</ele>
        <time>2018-08-27T15:49:29Z</time>
      </trkpt>
      <trkpt lat="47.68234" lon="6.19286">
        <ele>323.24</ele>
        <time>2018-08-27T15:49:31Z</time>
      </trkpt>
      <trkpt lat="47.68232" lon="6.1928">
        <ele>323.24</ele>
        <time>2018-08-27T15:49:33Z</time>
      </trkpt>
      <trkpt lat="47.6823" lon="6.19271">
        <ele>323.23</ele>
        <time>2018-08-27T15:49:36Z</time>
      </trkpt>
      <trkpt lat="47.68227" lon="6.19263">
        <ele>323.22</ele>
        <time>2018-08-27T15:49:39Z</time>
      </trkpt>
      <trkpt lat="47.68225" lon="6.19254">
        <ele>323.21</ele>
        <time>2018-08-27T15:49:42Z</time>
      </trkpt>
      <trkpt lat="47.68223" lon="6.19247">
        <ele>323.2</ele>
        <time>2018-08-27T15:49:44Z</time>
      </trkpt>
      <trkpt lat="47.68221" lon="6.19238">
        <ele>323.19</ele>
        <time>2018-08-27T15:49:47Z</time>
      </trkpt>
      <trkpt lat="47.68219" lon="6.1923">
        <ele>323.18</ele>
        <time>2018-08-27T15:49:49Z</time>
      </trkpt>
      <trkpt lat="47.68216" lon="6.19223">
        <ele>323.16</ele>
        <time>2018-08-27T15:49:51Z</time>
      </trkpt>
      <trkpt lat="47.68214" lon="6.19215">
        <ele>323.14</ele>
        <time>2018-08-27T15:49:53Z</time>
      </trkpt>
      <trkpt lat="47.68212" lon="6.19208">
        <ele>323.13</ele>
        <time>2018-08-27T15:49:55Z</time>
      </trkpt>
      <trkpt lat="47.68209" lon="6.192">
        <ele>323.1</ele>
        <time>2018-08-27T15:49:57Z</time>
      </trkpt>
      <trkpt lat="47.68207" lon="6.19193">
        <ele>323.08</ele>
        <time>2018-08-27T15:49:59Z</time>
      </trkpt>
      <trkpt lat="47.68205" lon="6.19185">
        <ele>323.06</ele>
        <time>2018-08-27T15:50:01Z</time>
      </trkpt>
      <trkpt lat="47.68204" lon="6.19177">
        <ele>323.04</ele>
        <time>2018-08-27T15:50:03Z</time>
      </trkpt>
      <trkpt lat="47.68202" lon="6.19169">
        <ele>323.02</ele>
        <time>2018-08-27T15:50:05Z</time>
      </trkpt>
      <trkpt lat="47.68201" lon="6.19161">
        <ele>322.99</ele>
        <time>2018-08-27T15:50:07Z</time>
      </trkpt>
      <trkpt lat="47.68199" lon="6.19154">
        <ele>322.97</ele>
        <time>2018-08-27T15:50:09Z</time>
      </trkpt>
      <trkpt lat="47.68198" lon="6.19147">
        <ele>322.94</ele>
        <time>2018-08-27T15:50:11Z</time>
      </trkpt>
      <trkpt lat="47.68196" lon="6.19141">
        <ele>322.92</ele>
        <time>2018-08-27T15:50:13Z</time>
      </trkpt>
      <trkpt lat="47.68195" lon="6.19134">
        <ele>322.89</ele>
        <time>2018-08-27T15:50:15Z</time>
      </trkpt>
      <trkpt lat="47.68193" lon="6.19127">
        <ele>322.86</ele>
        <time>2018-08-27T15:50:17Z</time>
      </trkpt>
      <trkpt lat="47.68191" lon="6.19119">
        <ele>322.83</ele>
        <time>2018-08-27T15:50:19Z</time>
      </trkpt>
      <trkpt lat="47.68189" lon="6.19111">
        <ele>322.8</ele>
        <time>2018-08-27T15:50:21Z</time>
      </trkpt>
      <trkpt lat="47.68188" lon="6.19102">
        <ele>322.77</ele>
        <time>2018-08-27T15:50:23Z</time>
      </trkpt>
      <trkpt lat="47.68186" lon="6.19092">
        <ele>322.73</ele>
        <time>2018-08-27T15:50:25Z</time>
      </trkpt>
      <trkpt lat="47.68183" lon="6.19083">
        <ele>322.7</ele>
        <time>2018-08-27T15:50:27Z</time>
      </trkpt>
      <trkpt lat="47.68181" lon="6.19073">
        <ele>322.58</ele>
        <time>2018-08-27T15:50:29Z</time>
      </trkpt>
      <trkpt lat="47.68178" lon="6.19062">
        <ele>322.34</ele>
        <time>2018-08-27T15:50:31Z</time>
      </trkpt>
      <trkpt lat="47.68174" lon="6.1905">
        <ele>322.17</ele>
        <time>2018-08-27T15:50:33Z</time>
      </trkpt>
      <trkpt lat="47.68172" lon="6.19044">
        <ele>322.1</ele>
        <time>2018-08-27T15:50:34Z</time>
      </trkpt>
      <trkpt lat="47.68164" lon="6.19024">
        <ele>322.04</ele>
        <time>2018-08-27T15:50:35Z</time>
      </trkpt>
      <trkpt lat="47.68161" lon="6.19015">
        <ele>322</ele>
        <time>2018-08-27T15:50:38Z</time>
      </trkpt>
      <trkpt lat="47.6816" lon="6.19009">
        <ele>321.99</ele>
        <time>2018-08-27T15:50:40Z</time>
      </trkpt>
      <trkpt lat="47.68158" lon="6.19001">
        <ele>321.98</ele>
        <time>2018-08-27T15:50:42Z</time>
      </trkpt>
      <trkpt lat="47.68156" lon="6.18994">
        <ele>321.96</ele>
        <time>2018-08-27T15:50:44Z</time>
      </trkpt>
      <trkpt lat="47.68154" lon="6.18987">
        <ele>321.95</ele>
        <time>2018-08-27T15:50:46Z</time>
      </trkpt>
      <trkpt lat="47.68152" lon="6.1898">
        <ele>321.93</ele>
        <time>2018-08-27T15:50:48Z</time>
      </trkpt>
      <trkpt lat="47.6815" lon="6.18973">
        <ele>321.91</ele>
        <time>2018-08-27T15:50:50Z</time>
      </trkpt>
      <trkpt lat="47.68148" lon="6.18966">
        <ele>321.89</ele>
        <time>2018-08-27T15:50:52Z</time>
      </trkpt>
      <trkpt lat="47.68146" lon="6.18958">
        <ele>321.84</ele>
        <time>2018-08-27T15:50:55Z</time>
      </trkpt>
      <trkpt lat="47.68143" lon="6.18949">
        <ele>321.8</ele>
        <time>2018-08-27T15:50:58Z</time>
      </trkpt>
      <trkpt lat="47.68141" lon="6.18942">
        <ele>321.76</ele>
        <time>2018-08-27T15:51:00Z</time>
      </trkpt>
      <trkpt lat="47.68139" lon="6.18935">
        <ele>321.73</ele>
        <time>2018-08-27T15:51:02Z</time>
      </trkpt>
      <trkpt lat="47.68137" lon="6.18928">
        <ele>321.69</ele>
        <time>2018-08-27T15:51:04Z</time>
      </trkpt>
      <trkpt lat="47.68134" lon="6.18921">
        <ele>321.65</ele>
        <time>2018-08-27T15:51:06Z</time>
      </trkpt>
      <trkpt lat="47.68132" lon="6.18914">
        <ele>321.61</ele>
        <time>2018-08-27T15:51:08Z</time>
      </trkpt>
      <trkpt lat="47.6813" lon="6.18907">
        <ele>321.57</ele>
        <time>2018-08-27T15:51:10Z</time>
      </trkpt>
      <trkpt lat="47.68128" lon="6.18898">
        <ele>321.53</ele>
        <time>2018-08-27T15:51:12Z</time>
      </trkpt>
      <trkpt lat="47.68125" lon="6.1889">
        <ele>321.48</ele>
        <time>2018-08-27T15:51:14Z</time>
      </trkpt>
      <trkpt lat="47.68123" lon="6.18882">
        <ele>321.44</ele>
        <time>2018-08-27T15:51:16Z</time>
      </trkpt>
      <trkpt lat="47.68121" lon="6.18876">
        <ele>321.39</ele>
        <time>2018-08-27T15:51:18Z</time>
      </trkpt>
      <trkpt lat="47.68119" lon="6.1887">
        <ele>321.35</ele>
        <time>2018-08-27T15:51:20Z</time>
      </trkpt>
      <trkpt lat="47.68117" lon="6.18863">
        <ele>321.28</ele>
        <time>2018-08-27T15:51:23Z</time>
      </trkpt>
      <trkpt lat="47.68114" lon="6.18856">
        <ele>321.19</ele>
        <time>2018-08-27T15:51:27Z</time>
      </trkpt>
      <trkpt lat="47.68111" lon="6.18847">
        <ele>321.12</ele>
        <time>2018-08-27T15:51:30Z</time>
      </trkpt>
      <trkpt lat="47.68109" lon="6.18841">
        <ele>321.07</ele>
        <time>2018-08-27T15:51:32Z</time>
      </trkpt>
      <trkpt lat="47.68106" lon="6.18833">
        <ele>321.01</ele>
        <time>2018-08-27T15:51:35Z</time>
      </trkpt>
      <trkpt lat="47.68105" lon="6.18826">
        <ele>320.97</ele>
        <time>2018-08-27T15:51:37Z</time>
      </trkpt>
      <trkpt lat="47.68103" lon="6.1882">
        <ele>320.92</ele>
        <time>2018-08-27T15:51:39Z</time>
      </trkpt>
      <trkpt lat="47.68101" lon="6.18812">
        <ele>320.88</ele>
        <time>2018-08-27T15:51:41Z</time>
      </trkpt>
      <trkpt lat="47.68099" lon="6.18803">
        <ele>320.83</ele>
        <time>2018-08-27T15:51:43Z</time>
      </trkpt>
      <trkpt lat="47.68096" lon="6.18794">
        <ele>320.77</ele>
        <time>2018-08-27T15:51:45Z</time>
      </trkpt>
      <trkpt lat="47.68094" lon="6.18786">
        <ele>320.7</ele>
        <time>2018-08-27T15:51:47Z</time>
      </trkpt>
      <trkpt lat="47.68091" lon="6.18779">
        <ele>320.64</ele>
        <time>2018-08-27T15:51:49Z</time>
      </trkpt>
      <trkpt lat="47.68089" lon="6.18772">
        <ele>320.56</ele>
        <time>2018-08-27T15:51:51Z</time>
      </trkpt>
      <trkpt lat="47.68087" lon="6.18764">
        <ele>320.49</ele>
        <time>2018-08-27T15:51:53Z</time>
      </trkpt>
      <trkpt lat="47.68086" lon="6.18757">
        <ele>320.42</ele>
        <time>2018-08-27T15:51:55Z</time>
      </trkpt>
      <trkpt lat="47.68084" lon="6.1875">
        <ele>320.34</ele>
        <time>2018-08-27T15:51:57Z</time>
      </trkpt>
      <trkpt lat="47.68082" lon="6.18743">
        <ele>320.22</ele>
        <time>2018-08-27T15:52:00Z</time>
      </trkpt>
      <trkpt lat="47.68079" lon="6.18738">
        <ele>320.11</ele>
        <time>2018-08-27T15:52:12Z</time>
      </trkpt>
      <trkpt lat="47.68075" lon="6.18737">
        <ele>319.88</ele>
        <time>2018-08-27T15:52:48Z</time>
      </trkpt>
      <trkpt lat="47.68075" lon="6.18729">
        <ele>319.4</ele>
        <time>2018-08-27T15:53:01Z</time>
      </trkpt>
      <trkpt lat="47.68074" lon="6.18721">
        <ele>319.18</ele>
        <time>2018-08-27T15:53:05Z</time>
      </trkpt>
      <trkpt lat="47.68073" lon="6.18713">
        <ele>318.97</ele>
        <time>2018-08-27T15:53:09Z</time>
      </trkpt>
      <trkpt lat="47.68071" lon="6.18707">
        <ele>318.82</ele>
        <time>2018-08-27T15:53:12Z</time>
      </trkpt>
      <trkpt lat="47.68071" lon="6.187">
        <ele>318.67</ele>
        <time>2018-08-27T15:53:21Z</time>
      </trkpt>
      <trkpt lat="47.68068" lon="6.18695">
        <ele>318.41</ele>
        <time>2018-08-27T15:53:42Z</time>
      </trkpt>
      <trkpt lat="47.68071" lon="6.18701">
        <ele>317.72</ele>
        <time>2018-08-27T15:54:04Z</time>
      </trkpt>
      <trkpt lat="47.68072" lon="6.18709">
        <ele>317.41</ele>
        <time>2018-08-27T15:54:10Z</time>
      </trkpt>
      <trkpt lat="47.68072" lon="6.18716">
        <ele>317.02</ele>
        <time>2018-08-27T15:54:18Z</time>
      </trkpt>
      <trkpt lat="47.68074" lon="6.18723">
        <ele>316.84</ele>
        <time>2018-08-27T15:54:22Z</time>
      </trkpt>
      <trkpt lat="47.68075" lon="6.18729">
        <ele>316.66</ele>
        <time>2018-08-27T15:54:26Z</time>
      </trkpt>
      <trkpt lat="47.68078" lon="6.18735">
        <ele>316.46</ele>
        <time>2018-08-27T15:54:34Z</time>
      </trkpt>
      <trkpt lat="47.68075" lon="6.18742">
        <ele>315.99</ele>
        <time>2018-08-27T15:54:59Z</time>
      </trkpt>
      <trkpt lat="47.68071" lon="6.18746">
        <ele>315.91</ele>
        <time>2018-08-27T15:55:01Z</time>
      </trkpt>
      <trkpt lat="47.68065" lon="6.18749">
        <ele>315.78</ele>
        <time>2018-08-27T15:55:04Z</time>
      </trkpt>
      <trkpt lat="47.6806" lon="6.18751">
        <ele>315.69</ele>
        <time>2018-08-27T15:55:06Z</time>
      </trkpt>
      <trkpt lat="47.68054" lon="6.18754">
        <ele>315.61</ele>
        <time>2018-08-27T15:55:08Z</time>
      </trkpt>
      <trkpt lat="47.68049" lon="6.18756">
        <ele>315.53</ele>
        <time>2018-08-27T15:55:10Z</time>
      </trkpt>
      <trkpt lat="47.68044" lon="6.18756">
        <ele>315.45</ele>
        <time>2018-08-27T15:55:12Z</time>
      </trkpt>
      <trkpt lat="47.68039" lon="6.18756">
        <ele>315.37</ele>
        <time>2018-08-27T15:55:14Z</time>
      </trkpt>
      <trkpt lat="47.68034" lon="6.18757">
        <ele>315.25</ele>
        <time>2018-08-27T15:55:17Z</time>
      </trkpt>
      <trkpt lat="47.68029" lon="6.18758">
        <ele>315.09</ele>
        <time>2018-08-27T15:55:21Z</time>
      </trkpt>
      <trkpt lat="47.68024" lon="6.1876">
        <ele>314.97</ele>
        <time>2018-08-27T15:55:25Z</time>
      </trkpt>
      <trkpt lat="47.68019" lon="6.18763">
        <ele>314.85</ele>
        <time>2018-08-27T15:55:32Z</time>
      </trkpt>
      <trkpt lat="47.68012" lon="6.18767">
        <ele>314.75</ele>
        <time>2018-08-27T15:55:35Z</time>
      </trkpt>
      <trkpt lat="47.68008" lon="6.1877">
        <ele>314.68</ele>
        <time>2018-08-27T15:55:37Z</time>
      </trkpt>
      <trkpt lat="47.68002" lon="6.18773">
        <ele>314.61</ele>
        <time>2018-08-27T15:55:39Z</time>
      </trkpt>
      <trkpt lat="47.67997" lon="6.18776">
        <ele>314.54</ele>
        <time>2018-08-27T15:55:41Z</time>
      </trkpt>
      <trkpt lat="47.67992" lon="6.18779">
        <ele>314.48</ele>
        <time>2018-08-27T15:55:43Z</time>
      </trkpt>
      <trkpt lat="47.67986" lon="6.18782">
        <ele>314.38</ele>
        <time>2018-08-27T15:55:46Z</time>
      </trkpt>
      <trkpt lat="47.67981" lon="6.18785">
        <ele>314.27</ele>
        <time>2018-08-27T15:55:49Z</time>
      </trkpt>
      <trkpt lat="47.67976" lon="6.18788">
        <ele>314.17</ele>
        <time>2018-08-27T15:55:52Z</time>
      </trkpt>
      <trkpt lat="47.67971" lon="6.1879">
        <ele>314.06</ele>
        <time>2018-08-27T15:55:55Z</time>
      </trkpt>
      <trkpt lat="47.67964" lon="6.18794">
        <ele>313.94</ele>
        <time>2018-08-27T15:55:58Z</time>
      </trkpt>
      <trkpt lat="47.6796" lon="6.18796">
        <ele>313.87</ele>
        <time>2018-08-27T15:56:00Z</time>
      </trkpt>
      <trkpt lat="47.67956" lon="6.18798">
        <ele>313.79</ele>
        <time>2018-08-27T15:56:02Z</time>
      </trkpt>
      <trkpt lat="47.6795" lon="6.18802">
        <ele>313.67</ele>
        <time>2018-08-27T15:56:05Z</time>
      </trkpt>
      <trkpt lat="47.67945" lon="6.18804">
        <ele>313.59</ele>
        <time>2018-08-27T15:56:07Z</time>
      </trkpt>
      <trkpt lat="47.67939" lon="6.18806">
        <ele>313.5</ele>
        <time>2018-08-27T15:56:09Z</time>
      </trkpt>
      <trkpt lat="47.67934" lon="6.18808">
        <ele>313.41</ele>
        <time>2018-08-27T15:56:11Z</time>
      </trkpt>
      <trkpt lat="47.67928" lon="6.1881">
        <ele>313.32</ele>
        <time>2018-08-27T15:56:13Z</time>
      </trkpt>
      <trkpt lat="47.67922" lon="6.18813">
        <ele>313.23</ele>
        <time>2018-08-27T15:56:15Z</time>
      </trkpt>
      <trkpt lat="47.67917" lon="6.18816">
        <ele>313.13</ele>
        <time>2018-08-27T15:56:17Z</time>
      </trkpt>
      <trkpt lat="47.67911" lon="6.18819">
        <ele>313.04</ele>
        <time>2018-08-27T15:56:19Z</time>
      </trkpt>
      <trkpt lat="47.67905" lon="6.18822">
        <ele>312.94</ele>
        <time>2018-08-27T15:56:21Z</time>
      </trkpt>
      <trkpt lat="47.67899" lon="6.18825">
        <ele>312.84</ele>
        <time>2018-08-27T15:56:23Z</time>
      </trkpt>
      <trkpt lat="47.67894" lon="6.18828">
        <ele>312.74</ele>
        <time>2018-08-27T15:56:25Z</time>
      </trkpt>
      <trkpt lat="47.6789" lon="6.18828">
        <ele>312.63</ele>
        <time>2018-08-27T15:56:27Z</time>
      </trkpt>
      <trkpt lat="47.67885" lon="6.18823">
        <ele>312.48</ele>
        <time>2018-08-27T15:56:30Z</time>
      </trkpt>
      <trkpt lat="47.67882" lon="6.18817">
        <ele>312.38</ele>
        <time>2018-08-27T15:56:32Z</time>
      </trkpt>
      <trkpt lat="47.6788" lon="6.18811">
        <ele>312.28</ele>
        <time>2018-08-27T15:56:34Z</time>
      </trkpt>
      <trkpt lat="47.67878" lon="6.18805">
        <ele>312.18</ele>
        <time>2018-08-27T15:56:36Z</time>
      </trkpt>
      <trkpt lat="47.67877" lon="6.18798">
        <ele>312.07</ele>
        <time>2018-08-27T15:56:38Z</time>
      </trkpt>
      <trkpt lat="47.67875" lon="6.18791">
        <ele>311.95</ele>
        <time>2018-08-27T15:56:40Z</time>
      </trkpt>
      <trkpt lat="47.67873" lon="6.18783">
        <ele>311.84</ele>
        <time>2018-08-27T15:56:42Z</time>
      </trkpt>
      <trkpt lat="47.67871" lon="6.18775">
        <ele>311.71</ele>
        <time>2018-08-27T15:56:44Z</time>
      </trkpt>
      <trkpt lat="47.67869" lon="6.18766">
        <ele>311.58</ele>
        <time>2018-08-27T15:56:46Z</time>
      </trkpt>
      <trkpt lat="47.67867" lon="6.18758">
        <ele>311.45</ele>
        <time>2018-08-27T15:56:48Z</time>
      </trkpt>
      <trkpt lat="47.67865" lon="6.18749">
        <ele>311.31</ele>
        <time>2018-08-27T15:56:50Z</time>
      </trkpt>
      <trkpt lat="47.67863" lon="6.18739">
        <ele>311.18</ele>
        <time>2018-08-27T15:56:52Z</time>
      </trkpt>
      <trkpt lat="47.6786" lon="6.18734">
        <ele>311.04</ele>
        <time>2018-08-27T15:56:54Z</time>
      </trkpt>
      <trkpt lat="47.67856" lon="6.18731">
        <ele>310.9</ele>
        <time>2018-08-27T15:56:56Z</time>
      </trkpt>
      <trkpt lat="47.67851" lon="6.1873">
        <ele>310.77</ele>
        <time>2018-08-27T15:56:58Z</time>
      </trkpt>
      <trkpt lat="47.67845" lon="6.1873">
        <ele>310.63</ele>
        <time>2018-08-27T15:57:00Z</time>
      </trkpt>
      <trkpt lat="47.67839" lon="6.18731">
        <ele>310.5</ele>
        <time>2018-08-27T15:57:02Z</time>
      </trkpt>
      <trkpt lat="47.67834" lon="6.18733">
        <ele>310.36</ele>
        <time>2018-08-27T15:57:04Z</time>
      </trkpt>
      <trkpt lat="47.6783" lon="6.18736">
        <ele>310.22</ele>
        <time>2018-08-27T15:57:06Z</time>
      </trkpt>
      <trkpt lat="47.67824" lon="6.18743">
        <ele>310.02</ele>
        <time>2018-08-27T15:57:09Z</time>
      </trkpt>
      <trkpt lat="47.67819" lon="6.18753">
        <ele>309.89</ele>
        <time>2018-08-27T15:57:11Z</time>
      </trkpt>
      <trkpt lat="47.67814" lon="6.18761">
        <ele>309.76</ele>
        <time>2018-08-27T15:57:13Z</time>
      </trkpt>
      <trkpt lat="47.67809" lon="6.18768">
        <ele>309.63</ele>
        <time>2018-08-27T15:57:15Z</time>
      </trkpt>
      <trkpt lat="47.67806" lon="6.18772">
        <ele>309.5</ele>
        <time>2018-08-27T15:57:17Z</time>
      </trkpt>
      <trkpt lat="47.67801" lon="6.18778">
        <ele>309.31</ele>
        <time>2018-08-27T15:57:20Z</time>
      </trkpt>
      <trkpt lat="47.67797" lon="6.18782">
        <ele>309.18</ele>
        <time>2018-08-27T15:57:22Z</time>
      </trkpt>
      <trkpt lat="47.67793" lon="6.18787">
        <ele>309.06</ele>
        <time>2018-08-27T15:57:24Z</time>
      </trkpt>
      <trkpt lat="47.67789" lon="6.1879">
        <ele>308.93</ele>
        <time>2018-08-27T15:57:26Z</time>
      </trkpt>
      <trkpt lat="47.67784" lon="6.18796">
        <ele>308.73</ele>
        <time>2018-08-27T15:57:29Z</time>
      </trkpt>
      <trkpt lat="47.6778" lon="6.18799">
        <ele>308.53</ele>
        <time>2018-08-27T15:57:32Z</time>
      </trkpt>
      <trkpt lat="47.67775" lon="6.188">
        <ele>308.31</ele>
        <time>2018-08-27T15:57:35Z</time>
      </trkpt>
      <trkpt lat="47.67771" lon="6.18802">
        <ele>308.09</ele>
        <time>2018-08-27T15:57:38Z</time>
      </trkpt>
      <trkpt lat="47.67767" lon="6.18805">
        <ele>307.97</ele>
        <time>2018-08-27T15:57:41Z</time>
      </trkpt>
      <trkpt lat="47.67763" lon="6.18808">
        <ele>307.86</ele>
        <time>2018-08-27T15:57:53Z</time>
      </trkpt>
      <trkpt lat="47.67764" lon="6.18815">
        <ele>307.25</ele>
        <time>2018-08-27T15:58:13Z</time>
      </trkpt>
      <trkpt lat="47.67764" lon="6.18822">
        <ele>306.48</ele>
        <time>2018-08-27T15:58:22Z</time>
      </trkpt>
      <trkpt lat="47.67764" lon="6.1883">
        <ele>306.18</ele>
        <time>2018-08-27T15:58:27Z</time>
      </trkpt>
      <trkpt lat="47.67762" lon="6.18837">
        <ele>305.82</ele>
        <time>2018-08-27T15:58:31Z</time>
      </trkpt>
      <trkpt lat="47.6776" lon="6.18844">
        <ele>305.36</ele>
        <time>2018-08-27T15:58:38Z</time>
      </trkpt>
      <trkpt lat="47.67755" lon="6.18845">
        <ele>304.71</ele>
        <time>2018-08-27T15:58:46Z</time>
      </trkpt>
      <trkpt lat="47.6775" lon="6.18845">
        <ele>304.33</ele>
        <time>2018-08-27T15:58:51Z</time>
      </trkpt>
      <trkpt lat="47.67746" lon="6.18848">
        <ele>303.86</ele>
        <time>2018-08-27T15:58:58Z</time>
      </trkpt>
      <trkpt lat="47.67741" lon="6.1885">
        <ele>303.3</ele>
        <time>2018-08-27T15:59:07Z</time>
      </trkpt>
      <trkpt lat="47.67737" lon="6.18845">
        <ele>303.01</ele>
        <time>2018-08-27T15:59:12Z</time>
      </trkpt>
      <trkpt lat="47.67733" lon="6.18841">
        <ele>302.75</ele>
        <time>2018-08-27T15:59:17Z</time>
      </trkpt>
      <trkpt lat="47.67729" lon="6.18838">
        <ele>302.23</ele>
        <time>2018-08-27T15:59:27Z</time>
      </trkpt>
      <trkpt lat="47.67724" lon="6.18835">
        <ele>301.75</ele>
        <time>2018-08-27T15:59:35Z</time>
      </trkpt>
      <trkpt lat="47.6772" lon="6.18831">
        <ele>301.46</ele>
        <time>2018-08-27T15:59:41Z</time>
      </trkpt>
      <trkpt lat="47.67717" lon="6.18826">
        <ele>301.03</ele>
        <time>2018-08-27T15:59:59Z</time>
      </trkpt>
      <trkpt lat="47.67715" lon="6.1882">
        <ele>300.73</ele>
        <time>2018-08-27T16:00:03Z</time>
      </trkpt>
      <trkpt lat="47.67712" lon="6.18813">
        <ele>300.51</ele>
        <time>2018-08-27T16:00:06Z</time>
      </trkpt>
      <trkpt lat="47.67708" lon="6.18806">
        <ele>300.29</ele>
        <time>2018-08-27T16:00:09Z</time>
      </trkpt>
      <trkpt lat="47.67704" lon="6.18801">
        <ele>300.08</ele>
        <time>2018-08-27T16:00:12Z</time>
      </trkpt>
      <trkpt lat="47.677" lon="6.18798">
        <ele>299.88</ele>
        <time>2018-08-27T16:00:15Z</time>
      </trkpt>
      <trkpt lat="47.67696" lon="6.18794">
        <ele>299.6</ele>
        <time>2018-08-27T16:00:19Z</time>
      </trkpt>
      <trkpt lat="47.67692" lon="6.18789">
        <ele>299.33</ele>
        <time>2018-08-27T16:00:23Z</time>
      </trkpt>
      <trkpt lat="47.67687" lon="6.1879">
        <ele>298.94</ele>
        <time>2018-08-27T16:00:29Z</time>
      </trkpt>
      <trkpt lat="47.67682" lon="6.18794">
        <ele>298.62</ele>
        <time>2018-08-27T16:00:34Z</time>
      </trkpt>
      <trkpt lat="47.67677" lon="6.18794">
        <ele>298.29</ele>
        <time>2018-08-27T16:00:39Z</time>
      </trkpt>
      <trkpt lat="47.67674" lon="6.1879">
        <ele>298.02</ele>
        <time>2018-08-27T16:00:43Z</time>
      </trkpt>
      <trkpt lat="47.6767" lon="6.18786">
        <ele>297.83</ele>
        <time>2018-08-27T16:00:46Z</time>
      </trkpt>
      <trkpt lat="47.67665" lon="6.18785">
        <ele>297.58</ele>
        <time>2018-08-27T16:00:50Z</time>
      </trkpt>
      <trkpt lat="47.67659" lon="6.18785">
        <ele>297.33</ele>
        <time>2018-08-27T16:00:54Z</time>
      </trkpt>
      <trkpt lat="47.67652" lon="6.18784">
        <ele>297.14</ele>
        <time>2018-08-27T16:00:57Z</time>
      </trkpt>
      <trkpt lat="47.67646" lon="6.18783">
        <ele>296.97</ele>
        <time>2018-08-27T16:01:00Z</time>
      </trkpt>
      <trkpt lat="47.6764" lon="6.18781">
        <ele>296.8</ele>
        <time>2018-08-27T16:01:03Z</time>
      </trkpt>
      <trkpt lat="47.67635" lon="6.18778">
        <ele>296.63</ele>
        <time>2018-08-27T16:01:06Z</time>
      </trkpt>
      <trkpt lat="47.67632" lon="6.1877">
        <ele>296.47</ele>
        <time>2018-08-27T16:01:09Z</time>
      </trkpt>
      <trkpt lat="47.67631" lon="6.18763">
        <ele>296.37</ele>
        <time>2018-08-27T16:01:11Z</time>
      </trkpt>
      <trkpt lat="47.67632" lon="6.18754">
        <ele>296.2</ele>
        <time>2018-08-27T16:01:14Z</time>
      </trkpt>
      <trkpt lat="47.67633" lon="6.18748">
        <ele>296.02</ele>
        <time>2018-08-27T16:01:17Z</time>
      </trkpt>
      <trkpt lat="47.67635" lon="6.1874">
        <ele>295.77</ele>
        <time>2018-08-27T16:01:21Z</time>
      </trkpt>
      <trkpt lat="47.67636" lon="6.18733">
        <ele>295.51</ele>
        <time>2018-08-27T16:01:25Z</time>
      </trkpt>
      <trkpt lat="47.67636" lon="6.18725">
        <ele>295.25</ele>
        <time>2018-08-27T16:01:29Z</time>
      </trkpt>
      <trkpt lat="47.67637" lon="6.18718">
        <ele>294.97</ele>
        <time>2018-08-27T16:01:33Z</time>
      </trkpt>
      <trkpt lat="47.67637" lon="6.1871">
        <ele>294.7</ele>
        <time>2018-08-27T16:01:37Z</time>
      </trkpt>
      <trkpt lat="47.67637" lon="6.18703">
        <ele>294.42</ele>
        <time>2018-08-27T16:01:41Z</time>
      </trkpt>
      <trkpt lat="47.67634" lon="6.18696">
        <ele>294.14</ele>
        <time>2018-08-27T16:01:45Z</time>
      </trkpt>
      <trkpt lat="47.67629" lon="6.18692">
        <ele>293.84</ele>
        <time>2018-08-27T16:01:49Z</time>
      </trkpt>
      <trkpt lat="47.67625" lon="6.1869">
        <ele>293.6</ele>
        <time>2018-08-27T16:01:52Z</time>
      </trkpt>
      <trkpt lat="47.6762" lon="6.18689">
        <ele>293.35</ele>
        <time>2018-08-27T16:01:55Z</time>
      </trkpt>
      <trkpt lat="47.67615" lon="6.18688">
        <ele>293.11</ele>
        <time>2018-08-27T16:01:58Z</time>
      </trkpt>
      <trkpt lat="47.6761" lon="6.18688">
        <ele>292.86</ele>
        <time>2018-08-27T16:02:01Z</time>
      </trkpt>
      <trkpt lat="47.67603" lon="6.1869">
        <ele>292.61</ele>
        <time>2018-08-27T16:02:04Z</time>
      </trkpt>
      <trkpt lat="47.67597" lon="6.18692">
        <ele>292.37</ele>
        <time>2018-08-27T16:02:07Z</time>
      </trkpt>
      <trkpt lat="47.67592" lon="6.18693">
        <ele>292.13</ele>
        <time>2018-08-27T16:02:10Z</time>
      </trkpt>
      <trkpt lat="47.67588" lon="6.18692">
        <ele>291.89</ele>
        <time>2018-08-27T16:02:13Z</time>
      </trkpt>
      <trkpt lat="47.67582" lon="6.18692">
        <ele>291.57</ele>
        <time>2018-08-27T16:02:17Z</time>
      </trkpt>
      <trkpt lat="47.67577" lon="6.18692">
        <ele>291.34</ele>
        <time>2018-08-27T16:02:20Z</time>
      </trkpt>
      <trkpt lat="47.67571" lon="6.18692">
        <ele>291.1</ele>
        <time>2018-08-27T16:02:23Z</time>
      </trkpt>
      <trkpt lat="47.67565" lon="6.18692">
        <ele>290.95</ele>
        <time>2018-08-27T16:02:25Z</time>
      </trkpt>
      <trkpt lat="47.67561" lon="6.1869">
        <ele>290.79</ele>
        <time>2018-08-27T16:02:27Z</time>
      </trkpt>
      <trkpt lat="47.67556" lon="6.18687">
        <ele>290.64</ele>
        <time>2018-08-27T16:02:29Z</time>
      </trkpt>
      <trkpt lat="47.67552" lon="6.18682">
        <ele>290.48</ele>
        <time>2018-08-27T16:02:31Z</time>
      </trkpt>
      <trkpt lat="47.67548" lon="6.18677">
        <ele>290.33</ele>
        <time>2018-08-27T16:02:33Z</time>
      </trkpt>
      <trkpt lat="47.67544" lon="6.18672">
        <ele>290.18</ele>
        <time>2018-08-27T16:02:35Z</time>
      </trkpt>
      <trkpt lat="47.67541" lon="6.18666">
        <ele>289.95</ele>
        <time>2018-08-27T16:02:38Z</time>
      </trkpt>
      <trkpt lat="47.67539" lon="6.18659">
        <ele>289.72</ele>
        <time>2018-08-27T16:02:41Z</time>
      </trkpt>
      <trkpt lat="47.67537" lon="6.18653">
        <ele>289.5</ele>
        <time>2018-08-27T16:02:44Z</time>
      </trkpt>
      <trkpt lat="47.67535" lon="6.18646">
        <ele>289.27</ele>
        <time>2018-08-27T16:02:47Z</time>
      </trkpt>
      <trkpt lat="47.67533" lon="6.1864">
        <ele>289.05</ele>
        <time>2018-08-27T16:02:50Z</time>
      </trkpt>
      <trkpt lat="47.67532" lon="6.18632">
        <ele>288.68</ele>
        <time>2018-08-27T16:02:55Z</time>
      </trkpt>
      <trkpt lat="47.67528" lon="6.18627">
        <ele>288.46</ele>
        <time>2018-08-27T16:02:58Z</time>
      </trkpt>
      <trkpt lat="47.67523" lon="6.18623">
        <ele>288.23</ele>
        <time>2018-08-27T16:03:01Z</time>
      </trkpt>
      <trkpt lat="47.67518" lon="6.1862">
        <ele>288.01</ele>
        <time>2018-08-27T16:03:04Z</time>
      </trkpt>
      <trkpt lat="47.67513" lon="6.18619">
        <ele>287.87</ele>
        <time>2018-08-27T16:03:06Z</time>
      </trkpt>
      <trkpt lat="47.67506" lon="6.18617">
        <ele>287.3</ele>
        <time>2018-08-27T16:03:08Z</time>
      </trkpt>
      <trkpt lat="47.67499" lon="6.18616">
        <ele>286.26</ele>
        <time>2018-08-27T16:03:10Z</time>
      </trkpt>
      <trkpt lat="47.67491" lon="6.18616">
        <ele>286.01</ele>
        <time>2018-08-27T16:03:12Z</time>
      </trkpt>
      <trkpt lat="47.67483" lon="6.18615">
        <ele>285.92</ele>
        <time>2018-08-27T16:03:14Z</time>
      </trkpt>
      <trkpt lat="47.67475" lon="6.18615">
        <ele>285.55</ele>
        <time>2018-08-27T16:03:16Z</time>
      </trkpt>
      <trkpt lat="47.67466" lon="6.18615">
        <ele>285.47</ele>
        <time>2018-08-27T16:03:18Z</time>
      </trkpt>
      <trkpt lat="47.6746" lon="6.18614">
        <ele>285.44</ele>
        <time>2018-08-27T16:03:19Z</time>
      </trkpt>
      <trkpt lat="47.67454" lon="6.18614">
        <ele>285.22</ele>
        <time>2018-08-27T16:03:20Z</time>
      </trkpt>
      <trkpt lat="47.67447" lon="6.18615">
        <ele>284.98</ele>
        <time>2018-08-27T16:03:21Z</time>
      </trkpt>
      <trkpt lat="47.6744" lon="6.18614">
        <ele>284.77</ele>
        <time>2018-08-27T16:03:22Z</time>
      </trkpt>
      <trkpt lat="47.67433" lon="6.18614">
        <ele>284.59</ele>
        <time>2018-08-27T16:03:23Z</time>
      </trkpt>
      <trkpt lat="47.67426" lon="6.18614">
        <ele>284.43</ele>
        <time>2018-08-27T16:03:24Z</time>
      </trkpt>
      <trkpt lat="47.6742" lon="6.18614">
        <ele>284.38</ele>
        <time>2018-08-27T16:03:25Z</time>
      </trkpt>
      <trkpt lat="47.67415" lon="6.18614">
        <ele>284.28</ele>
        <time>2018-08-27T16:03:26Z</time>
      </trkpt>
      <trkpt lat="47.6741" lon="6.18615">
        <ele>284.24</ele>
        <time>2018-08-27T16:03:27Z</time>
      </trkpt>
      <trkpt lat="47.67405" lon="6.18616">
        <ele>284.23</ele>
        <time>2018-08-27T16:03:28Z</time>
      </trkpt>
      <trkpt lat="47.67401" lon="6.18617">
        <ele>284.21</ele>
        <time>2018-08-27T16:03:29Z</time>
      </trkpt>
      <trkpt lat="47.67396" lon="6.18618">
        <ele>284.14</ele>
        <time>2018-08-27T16:03:30Z</time>
      </trkpt>
      <trkpt lat="47.67387" lon="6.1862">
        <ele>284.04</ele>
        <time>2018-08-27T16:03:32Z</time>
      </trkpt>
      <trkpt lat="47.67374" lon="6.18621">
        <ele>284.03</ele>
        <time>2018-08-27T16:03:33Z</time>
      </trkpt>
      <trkpt lat="47.6737" lon="6.18621">
        <ele>284.01</ele>
        <time>2018-08-27T16:03:35Z</time>
      </trkpt>
      <trkpt lat="47.67364" lon="6.18621">
        <ele>284</ele>
        <time>2018-08-27T16:03:37Z</time>
      </trkpt>
      <trkpt lat="47.67357" lon="6.18621">
        <ele>283.98</ele>
        <time>2018-08-27T16:03:39Z</time>
      </trkpt>
      <trkpt lat="47.67349" lon="6.18621">
        <ele>283.96</ele>
        <time>2018-08-27T16:03:41Z</time>
      </trkpt>
      <trkpt lat="47.67342" lon="6.18622">
        <ele>283.94</ele>
        <time>2018-08-27T16:03:43Z</time>
      </trkpt>
      <trkpt lat="47.67334" lon="6.18622">
        <ele>283.92</ele>
        <time>2018-08-27T16:03:45Z</time>
      </trkpt>
      <trkpt lat="47.67327" lon="6.18623">
        <ele>283.9</ele>
        <time>2018-08-27T16:03:47Z</time>
      </trkpt>
      <trkpt lat="47.6732" lon="6.18622">
        <ele>283.87</ele>
        <time>2018-08-27T16:03:49Z</time>
      </trkpt>
      <trkpt lat="47.67314" lon="6.18622">
        <ele>283.85</ele>
        <time>2018-08-27T16:03:51Z</time>
      </trkpt>
      <trkpt lat="47.67307" lon="6.18622">
        <ele>283.72</ele>
        <time>2018-08-27T16:03:53Z</time>
      </trkpt>
      <trkpt lat="47.67299" lon="6.18622">
        <ele>283.65</ele>
        <time>2018-08-27T16:03:55Z</time>
      </trkpt>
      <trkpt lat="47.67292" lon="6.18623">
        <ele>283.62</ele>
        <time>2018-08-27T16:03:57Z</time>
      </trkpt>
      <trkpt lat="47.67285" lon="6.18622">
        <ele>283.59</ele>
        <time>2018-08-27T16:03:59Z</time>
      </trkpt>
      <trkpt lat="47.67278" lon="6.18623">
        <ele>283.56</ele>
        <time>2018-08-27T16:04:01Z</time>
      </trkpt>
      <trkpt lat="47.67271" lon="6.18622">
        <ele>283.53</ele>
        <time>2018-08-27T16:04:03Z</time>
      </trkpt>
      <trkpt lat="47.67265" lon="6.1862">
        <ele>283.49</ele>
        <time>2018-08-27T16:04:05Z</time>
      </trkpt>
      <trkpt lat="47.67258" lon="6.1862">
        <ele>283.45</ele>
        <time>2018-08-27T16:04:07Z</time>
      </trkpt>
      <trkpt lat="47.67252" lon="6.18619">
        <ele>283.41</ele>
        <time>2018-08-27T16:04:09Z</time>
      </trkpt>
      <trkpt lat="47.67245" lon="6.1862">
        <ele>283.37</ele>
        <time>2018-08-27T16:04:11Z</time>
      </trkpt>
      <trkpt lat="47.67239" lon="6.18619">
        <ele>283.32</ele>
        <time>2018-08-27T16:04:13Z</time>
      </trkpt>
      <trkpt lat="47.67232" lon="6.18619">
        <ele>283.27</ele>
        <time>2018-08-27T16:04:15Z</time>
      </trkpt>
      <trkpt lat="47.67225" lon="6.18619">
        <ele>283.21</ele>
        <time>2018-08-27T16:04:17Z</time>
      </trkpt>
      <trkpt lat="47.67216" lon="6.18619">
        <ele>283.15</ele>
        <time>2018-08-27T16:04:19Z</time>
      </trkpt>
      <trkpt lat="47.67212" lon="6.18619">
        <ele>283.11</ele>
        <time>2018-08-27T16:04:20Z</time>
      </trkpt>
      <trkpt lat="47.67205" lon="6.1862">
        <ele>283.03</ele>
        <time>2018-08-27T16:04:22Z</time>
      </trkpt>
      <trkpt lat="47.67198" lon="6.1862">
        <ele>282.94</ele>
        <time>2018-08-27T16:04:24Z</time>
      </trkpt>
      <trkpt lat="47.67193" lon="6.18621">
        <ele>282.85</ele>
        <time>2018-08-27T16:04:26Z</time>
      </trkpt>
      <trkpt lat="47.67187" lon="6.18621">
        <ele>282.75</ele>
        <time>2018-08-27T16:04:28Z</time>
      </trkpt>
      <trkpt lat="47.6718" lon="6.18621">
        <ele>282.64</ele>
        <time>2018-08-27T16:04:30Z</time>
      </trkpt>
      <trkpt lat="47.67168" lon="6.18623">
        <ele>282.16</ele>
        <time>2018-08-27T16:04:32Z</time>
      </trkpt>
      <trkpt lat="47.67161" lon="6.18621">
        <ele>281.55</ele>
        <time>2018-08-27T16:04:34Z</time>
      </trkpt>
      <trkpt lat="47.67156" lon="6.1862">
        <ele>281.38</ele>
        <time>2018-08-27T16:04:35Z</time>
      </trkpt>
      <trkpt lat="47.67147" lon="6.18618">
        <ele>280.52</ele>
        <time>2018-08-27T16:04:37Z</time>
      </trkpt>
      <trkpt lat="47.67139" lon="6.18618">
        <ele>279.77</ele>
        <time>2018-08-27T16:04:39Z</time>
      </trkpt>
      <trkpt lat="47.67131" lon="6.18618">
        <ele>279.35</ele>
        <time>2018-08-27T16:04:41Z</time>
      </trkpt>
      <trkpt lat="47.67125" lon="6.18618">
        <ele>279.26</ele>
        <time>2018-08-27T16:04:43Z</time>
      </trkpt>
      <trkpt lat="47.67119" lon="6.18617">
        <ele>279.2</ele>
        <time>2018-08-27T16:04:45Z</time>
      </trkpt>
      <trkpt lat="47.67114" lon="6.18616">
        <ele>279.13</ele>
        <time>2018-08-27T16:04:47Z</time>
      </trkpt>
      <trkpt lat="47.67108" lon="6.18616">
        <ele>279.05</ele>
        <time>2018-08-27T16:04:49Z</time>
      </trkpt>
      <trkpt lat="47.67101" lon="6.18615">
        <ele>278.97</ele>
        <time>2018-08-27T16:04:51Z</time>
      </trkpt>
      <trkpt lat="47.67096" lon="6.18614">
        <ele>278.87</ele>
        <time>2018-08-27T16:04:53Z</time>
      </trkpt>
      <trkpt lat="47.67092" lon="6.18613">
        <ele>278.77</ele>
        <time>2018-08-27T16:04:55Z</time>
      </trkpt>
      <trkpt lat="47.67086" lon="6.18612">
        <ele>278.66</ele>
        <time>2018-08-27T16:04:57Z</time>
      </trkpt>
      <trkpt lat="47.67081" lon="6.1861">
        <ele>278.54</ele>
        <time>2018-08-27T16:04:59Z</time>
      </trkpt>
      <trkpt lat="47.67074" lon="6.18609">
        <ele>278.42</ele>
        <time>2018-08-27T16:05:01Z</time>
      </trkpt>
      <trkpt lat="47.67067" lon="6.18607">
        <ele>278.29</ele>
        <time>2018-08-27T16:05:03Z</time>
      </trkpt>
      <trkpt lat="47.6706" lon="6.18606">
        <ele>278.16</ele>
        <time>2018-08-27T16:05:05Z</time>
      </trkpt>
      <trkpt lat="47.67052" lon="6.18604">
        <ele>278.03</ele>
        <time>2018-08-27T16:05:07Z</time>
      </trkpt>
      <trkpt lat="47.67045" lon="6.18603">
        <ele>277.89</ele>
        <time>2018-08-27T16:05:09Z</time>
      </trkpt>
      <trkpt lat="47.67037" lon="6.18601">
        <ele>277.74</ele>
        <time>2018-08-27T16:05:11Z</time>
      </trkpt>
      <trkpt lat="47.6703" lon="6.186">
        <ele>277.59</ele>
        <time>2018-08-27T16:05:13Z</time>
      </trkpt>
      <trkpt lat="47.67022" lon="6.18598">
        <ele>277.43</ele>
        <time>2018-08-27T16:05:15Z</time>
      </trkpt>
      <trkpt lat="47.67015" lon="6.18597">
        <ele>277.27</ele>
        <time>2018-08-27T16:05:17Z</time>
      </trkpt>
      <trkpt lat="47.67008" lon="6.18596">
        <ele>277.1</ele>
        <time>2018-08-27T16:05:19Z</time>
      </trkpt>
      <trkpt lat="47.67" lon="6.18595">
        <ele>276.92</ele>
        <time>2018-08-27T16:05:21Z</time>
      </trkpt>
      <trkpt lat="47.66992" lon="6.18593">
        <ele>276.75</ele>
        <time>2018-08-27T16:05:23Z</time>
      </trkpt>
      <trkpt lat="47.66985" lon="6.1859">
        <ele>276.58</ele>
        <time>2018-08-27T16:05:25Z</time>
      </trkpt>
      <trkpt lat="47.66979" lon="6.18589">
        <ele>276.41</ele>
        <time>2018-08-27T16:05:27Z</time>
      </trkpt>
      <trkpt lat="47.66973" lon="6.18588">
        <ele>276.24</ele>
        <time>2018-08-27T16:05:29Z</time>
      </trkpt>
      <trkpt lat="47.66966" lon="6.18586">
        <ele>276.08</ele>
        <time>2018-08-27T16:05:31Z</time>
      </trkpt>
      <trkpt lat="47.6696" lon="6.18584">
        <ele>275.92</ele>
        <time>2018-08-27T16:05:33Z</time>
      </trkpt>
      <trkpt lat="47.66955" lon="6.18582">
        <ele>275.76</ele>
        <time>2018-08-27T16:05:35Z</time>
      </trkpt>
      <trkpt lat="47.66948" lon="6.18581">
        <ele>275.12</ele>
        <time>2018-08-27T16:05:37Z</time>
      </trkpt>
      <trkpt lat="47.66941" lon="6.18579">
        <ele>273.98</ele>
        <time>2018-08-27T16:05:39Z</time>
      </trkpt>
      <trkpt lat="47.66933" lon="6.18578">
        <ele>273.14</ele>
        <time>2018-08-27T16:05:41Z</time>
      </trkpt>
      <trkpt lat="47.66928" lon="6.18578">
        <ele>272.83</ele>
        <time>2018-08-27T16:05:42Z</time>
      </trkpt>
      <trkpt lat="47.66919" lon="6.18578">
        <ele>272.68</ele>
        <time>2018-08-27T16:05:44Z</time>
      </trkpt>
      <trkpt lat="47.66913" lon="6.18577">
        <ele>272.62</ele>
        <time>2018-08-27T16:05:46Z</time>
      </trkpt>
      <trkpt lat="47.66907" lon="6.18578">
        <ele>272.54</ele>
        <time>2018-08-27T16:05:49Z</time>
      </trkpt>
      <trkpt lat="47.66902" lon="6.18575">
        <ele>271.55</ele>
        <time>2018-08-27T16:07:32Z</time>
      </trkpt>
      <trkpt lat="47.66897" lon="6.18572">
        <ele>270.42</ele>
        <time>2018-08-27T16:07:35Z</time>
      </trkpt>
      <trkpt lat="47.6689" lon="6.18567">
        <ele>269.52</ele>
        <time>2018-08-27T16:07:37Z</time>
      </trkpt>
      <trkpt lat="47.66877" lon="6.18559">
        <ele>268.87</ele>
        <time>2018-08-27T16:07:39Z</time>
      </trkpt>
      <trkpt lat="47.66872" lon="6.18556">
        <ele>268.61</ele>
        <time>2018-08-27T16:07:40Z</time>
      </trkpt>
      <trkpt lat="47.66863" lon="6.18549">
        <ele>268.31</ele>
        <time>2018-08-27T16:07:42Z</time>
      </trkpt>
      <trkpt lat="47.66856" lon="6.18544">
        <ele>267.97</ele>
        <time>2018-08-27T16:07:44Z</time>
      </trkpt>
      <trkpt lat="47.66849" lon="6.18538">
        <ele>267.77</ele>
        <time>2018-08-27T16:07:46Z</time>
      </trkpt>
      <trkpt lat="47.66841" lon="6.18531">
        <ele>267.68</ele>
        <time>2018-08-27T16:07:48Z</time>
      </trkpt>
      <trkpt lat="47.66834" lon="6.18526">
        <ele>267.64</ele>
        <time>2018-08-27T16:07:50Z</time>
      </trkpt>
      <trkpt lat="47.6683" lon="6.18523">
        <ele>267.62</ele>
        <time>2018-08-27T16:07:51Z</time>
      </trkpt>
      <trkpt lat="47.66823" lon="6.18518">
        <ele>267.54</ele>
        <time>2018-08-27T16:07:54Z</time>
      </trkpt>
      <trkpt lat="47.66817" lon="6.18514">
        <ele>267.49</ele>
        <time>2018-08-27T16:07:56Z</time>
      </trkpt>
      <trkpt lat="47.66811" lon="6.18511">
        <ele>267.43</ele>
        <time>2018-08-27T16:07:58Z</time>
      </trkpt>
      <trkpt lat="47.66804" lon="6.18508">
        <ele>267.37</ele>
        <time>2018-08-27T16:08:00Z</time>
      </trkpt>
      <trkpt lat="47.66791" lon="6.18505">
        <ele>266.89</ele>
        <time>2018-08-27T16:08:02Z</time>
      </trkpt>
      <trkpt lat="47.66783" lon="6.18504">
        <ele>266.45</ele>
        <time>2018-08-27T16:08:04Z</time>
      </trkpt>
      <trkpt lat="47.66774" lon="6.18501">
        <ele>266.08</ele>
        <time>2018-08-27T16:08:06Z</time>
      </trkpt>
      <trkpt lat="47.66767" lon="6.18499">
        <ele>265.78</ele>
        <time>2018-08-27T16:08:08Z</time>
      </trkpt>
      <trkpt lat="47.66759" lon="6.18496">
        <ele>265.51</ele>
        <time>2018-08-27T16:08:10Z</time>
      </trkpt>
      <trkpt lat="47.6675" lon="6.18494">
        <ele>265.44</ele>
        <time>2018-08-27T16:08:12Z</time>
      </trkpt>
      <trkpt lat="47.66744" lon="6.18493">
        <ele>265.4</ele>
        <time>2018-08-27T16:08:14Z</time>
      </trkpt>
      <trkpt lat="47.66733" lon="6.18488">
        <ele>265.13</ele>
        <time>2018-08-27T16:08:16Z</time>
      </trkpt>
      <trkpt lat="47.66725" lon="6.18484">
        <ele>264.94</ele>
        <time>2018-08-27T16:08:18Z</time>
      </trkpt>
      <trkpt lat="47.66719" lon="6.1848">
        <ele>264.9</ele>
        <time>2018-08-27T16:08:20Z</time>
      </trkpt>
      <trkpt lat="47.66711" lon="6.18475">
        <ele>264.71</ele>
        <time>2018-08-27T16:08:22Z</time>
      </trkpt>
      <trkpt lat="47.66703" lon="6.1847">
        <ele>264.53</ele>
        <time>2018-08-27T16:08:24Z</time>
      </trkpt>
      <trkpt lat="47.66698" lon="6.18467">
        <ele>264.45</ele>
        <time>2018-08-27T16:08:25Z</time>
      </trkpt>
      <trkpt lat="47.66694" lon="6.18463">
        <ele>264.38</ele>
        <time>2018-08-27T16:08:26Z</time>
      </trkpt>
      <trkpt lat="47.6669" lon="6.18459">
        <ele>264.31</ele>
        <time>2018-08-27T16:08:27Z</time>
      </trkpt>
      <trkpt lat="47.66683" lon="6.18452">
        <ele>264.24</ele>
        <time>2018-08-27T16:08:29Z</time>
      </trkpt>
      <trkpt lat="47.66677" lon="6.18445">
        <ele>264.21</ele>
        <time>2018-08-27T16:08:31Z</time>
      </trkpt>
      <trkpt lat="47.66671" lon="6.18438">
        <ele>264.19</ele>
        <time>2018-08-27T16:08:33Z</time>
      </trkpt>
      <trkpt lat="47.66664" lon="6.18432">
        <ele>264.12</ele>
        <time>2018-08-27T16:08:35Z</time>
      </trkpt>
      <trkpt lat="47.66656" lon="6.18425">
        <ele>264.09</ele>
        <time>2018-08-27T16:08:37Z</time>
      </trkpt>
      <trkpt lat="47.6665" lon="6.1842">
        <ele>264.07</ele>
        <time>2018-08-27T16:08:39Z</time>
      </trkpt>
      <trkpt lat="47.66643" lon="6.18414">
        <ele>263.93</ele>
        <time>2018-08-27T16:08:41Z</time>
      </trkpt>
      <trkpt lat="47.66635" lon="6.18408">
        <ele>263.79</ele>
        <time>2018-08-27T16:08:43Z</time>
      </trkpt>
      <trkpt lat="47.66628" lon="6.18402">
        <ele>263.69</ele>
        <time>2018-08-27T16:08:45Z</time>
      </trkpt>
      <trkpt lat="47.6662" lon="6.18395">
        <ele>263.61</ele>
        <time>2018-08-27T16:08:47Z</time>
      </trkpt>
      <trkpt lat="47.66616" lon="6.18392">
        <ele>263.57</ele>
        <time>2018-08-27T16:08:48Z</time>
      </trkpt>
      <trkpt lat="47.66612" lon="6.18388">
        <ele>263.54</ele>
        <time>2018-08-27T16:08:49Z</time>
      </trkpt>
      <trkpt lat="47.66605" lon="6.18382">
        <ele>263.48</ele>
        <time>2018-08-27T16:08:51Z</time>
      </trkpt>
      <trkpt lat="47.66598" lon="6.18375">
        <ele>263.41</ele>
        <time>2018-08-27T16:08:53Z</time>
      </trkpt>
      <trkpt lat="47.66592" lon="6.18369">
        <ele>263.37</ele>
        <time>2018-08-27T16:08:55Z</time>
      </trkpt>
      <trkpt lat="47.66585" lon="6.18365">
        <ele>263.33</ele>
        <time>2018-08-27T16:08:57Z</time>
      </trkpt>
      <trkpt lat="47.66579" lon="6.18359">
        <ele>263.32</ele>
        <time>2018-08-27T16:08:59Z</time>
      </trkpt>
      <trkpt lat="47.66571" lon="6.18353">
        <ele>263.26</ele>
        <time>2018-08-27T16:09:01Z</time>
      </trkpt>
      <trkpt lat="47.66564" lon="6.18347">
        <ele>263.2</ele>
        <time>2018-08-27T16:09:03Z</time>
      </trkpt>
      <trkpt lat="47.66557" lon="6.18341">
        <ele>263.14</ele>
        <time>2018-08-27T16:09:05Z</time>
      </trkpt>
      <trkpt lat="47.66553" lon="6.18337">
        <ele>263.11</ele>
        <time>2018-08-27T16:09:06Z</time>
      </trkpt>
      <trkpt lat="47.66549" lon="6.18334">
        <ele>263.09</ele>
        <time>2018-08-27T16:09:07Z</time>
      </trkpt>
      <trkpt lat="47.66543" lon="6.18327">
        <ele>263.04</ele>
        <time>2018-08-27T16:09:09Z</time>
      </trkpt>
      <trkpt lat="47.66536" lon="6.1832">
        <ele>263</ele>
        <time>2018-08-27T16:09:11Z</time>
      </trkpt>
      <trkpt lat="47.6653" lon="6.18313">
        <ele>262.96</ele>
        <time>2018-08-27T16:09:13Z</time>
      </trkpt>
      <trkpt lat="47.66524" lon="6.18305">
        <ele>262.92</ele>
        <time>2018-08-27T16:09:15Z</time>
      </trkpt>
      <trkpt lat="47.66518" lon="6.18297">
        <ele>262.88</ele>
        <time>2018-08-27T16:09:17Z</time>
      </trkpt>
      <trkpt lat="47.66513" lon="6.1829">
        <ele>262.84</ele>
        <time>2018-08-27T16:09:19Z</time>
      </trkpt>
      <trkpt lat="47.66506" lon="6.18281">
        <ele>262.79</ele>
        <time>2018-08-27T16:09:21Z</time>
      </trkpt>
      <trkpt lat="47.665" lon="6.18272">
        <ele>262.73</ele>
        <time>2018-08-27T16:09:23Z</time>
      </trkpt>
      <trkpt lat="47.66494" lon="6.18264">
        <ele>262.67</ele>
        <time>2018-08-27T16:09:25Z</time>
      </trkpt>
      <trkpt lat="47.6649" lon="6.18257">
        <ele>262.63</ele>
        <time>2018-08-27T16:09:27Z</time>
      </trkpt>
      <trkpt lat="47.66485" lon="6.18249">
        <ele>262.57</ele>
        <time>2018-08-27T16:09:29Z</time>
      </trkpt>
      <trkpt lat="47.6648" lon="6.1824">
        <ele>262.51</ele>
        <time>2018-08-27T16:09:31Z</time>
      </trkpt>
      <trkpt lat="47.66476" lon="6.18233">
        <ele>262.46</ele>
        <time>2018-08-27T16:09:33Z</time>
      </trkpt>
      <trkpt lat="47.66473" lon="6.18227">
        <ele>262.44</ele>
        <time>2018-08-27T16:09:35Z</time>
      </trkpt>
      <trkpt lat="47.66469" lon="6.1822">
        <ele>262.32</ele>
        <time>2018-08-27T16:09:37Z</time>
      </trkpt>
      <trkpt lat="47.66465" lon="6.1821">
        <ele>262.23</ele>
        <time>2018-08-27T16:09:39Z</time>
      </trkpt>
      <trkpt lat="47.66462" lon="6.18201">
        <ele>262.19</ele>
        <time>2018-08-27T16:09:41Z</time>
      </trkpt>
      <trkpt lat="47.66458" lon="6.18192">
        <ele>262.17</ele>
        <time>2018-08-27T16:09:43Z</time>
      </trkpt>
      <trkpt lat="47.66455" lon="6.18183">
        <ele>262.15</ele>
        <time>2018-08-27T16:09:45Z</time>
      </trkpt>
      <trkpt lat="47.6645" lon="6.18175">
        <ele>262.11</ele>
        <time>2018-08-27T16:09:48Z</time>
      </trkpt>
      <trkpt lat="47.66447" lon="6.18168">
        <ele>262.09</ele>
        <time>2018-08-27T16:09:50Z</time>
      </trkpt>
      <trkpt lat="47.66441" lon="6.1816">
        <ele>262.05</ele>
        <time>2018-08-27T16:09:52Z</time>
      </trkpt>
      <trkpt lat="47.66435" lon="6.18152">
        <ele>262.01</ele>
        <time>2018-08-27T16:09:54Z</time>
      </trkpt>
      <trkpt lat="47.66429" lon="6.18145">
        <ele>261.7</ele>
        <time>2018-08-27T16:09:56Z</time>
      </trkpt>
      <trkpt lat="47.66422" lon="6.18137">
        <ele>261.42</ele>
        <time>2018-08-27T16:09:58Z</time>
      </trkpt>
      <trkpt lat="47.66412" lon="6.18126">
        <ele>261.37</ele>
        <time>2018-08-27T16:09:59Z</time>
      </trkpt>
      <trkpt lat="47.66405" lon="6.18119">
        <ele>261.33</ele>
        <time>2018-08-27T16:10:01Z</time>
      </trkpt>
      <trkpt lat="47.66399" lon="6.18111">
        <ele>261.31</ele>
        <time>2018-08-27T16:10:03Z</time>
      </trkpt>
      <trkpt lat="47.66393" lon="6.18103">
        <ele>261.18</ele>
        <time>2018-08-27T16:10:05Z</time>
      </trkpt>
      <trkpt lat="47.66386" lon="6.18095">
        <ele>261.14</ele>
        <time>2018-08-27T16:10:07Z</time>
      </trkpt>
      <trkpt lat="47.66381" lon="6.18088">
        <ele>261.12</ele>
        <time>2018-08-27T16:10:09Z</time>
      </trkpt>
      <trkpt lat="47.66376" lon="6.1808">
        <ele>261.01</ele>
        <time>2018-08-27T16:10:11Z</time>
      </trkpt>
      <trkpt lat="47.6637" lon="6.18071">
        <ele>260.82</ele>
        <time>2018-08-27T16:10:13Z</time>
      </trkpt>
      <trkpt lat="47.66364" lon="6.18062">
        <ele>260.65</ele>
        <time>2018-08-27T16:10:15Z</time>
      </trkpt>
      <trkpt lat="47.66359" lon="6.18053">
        <ele>260.61</ele>
        <time>2018-08-27T16:10:17Z</time>
      </trkpt>
      <trkpt lat="47.66354" lon="6.18044">
        <ele>260.6</ele>
        <time>2018-08-27T16:10:19Z</time>
      </trkpt>
      <trkpt lat="47.6635" lon="6.18034">
        <ele>260.47</ele>
        <time>2018-08-27T16:10:21Z</time>
      </trkpt>
      <trkpt lat="47.66346" lon="6.18024">
        <ele>260.43</ele>
        <time>2018-08-27T16:10:23Z</time>
      </trkpt>
      <trkpt lat="47.66342" lon="6.18015">
        <ele>260.41</ele>
        <time>2018-08-27T16:10:25Z</time>
      </trkpt>
      <trkpt lat="47.66338" lon="6.18005">
        <ele>260.4</ele>
        <time>2018-08-27T16:10:27Z</time>
      </trkpt>
      <trkpt lat="47.66335" lon="6.17996">
        <ele>260.38</ele>
        <time>2018-08-27T16:10:29Z</time>
      </trkpt>
      <trkpt lat="47.66331" lon="6.17986">
        <ele>260.3</ele>
        <time>2018-08-27T16:10:31Z</time>
      </trkpt>
      <trkpt lat="47.66329" lon="6.17977">
        <ele>260.2</ele>
        <time>2018-08-27T16:10:33Z</time>
      </trkpt>
      <trkpt lat="47.66323" lon="6.17968">
        <ele>260.09</ele>
        <time>2018-08-27T16:10:35Z</time>
      </trkpt>
      <trkpt lat="47.66316" lon="6.17965">
        <ele>260.06</ele>
        <time>2018-08-27T16:10:37Z</time>
      </trkpt>
      <trkpt lat="47.66308" lon="6.17965">
        <ele>260.05</ele>
        <time>2018-08-27T16:10:39Z</time>
      </trkpt>
      <trkpt lat="47.66301" lon="6.17966">
        <ele>260.03</ele>
        <time>2018-08-27T16:10:41Z</time>
      </trkpt>
      <trkpt lat="47.66294" lon="6.17966">
        <ele>260.01</ele>
        <time>2018-08-27T16:10:43Z</time>
      </trkpt>
      <trkpt lat="47.66289" lon="6.17965">
        <ele>259.99</ele>
        <time>2018-08-27T16:10:45Z</time>
      </trkpt>
      <trkpt lat="47.66284" lon="6.17965">
        <ele>259.96</ele>
        <time>2018-08-27T16:10:47Z</time>
      </trkpt>
      <trkpt lat="47.66278" lon="6.17965">
        <ele>259.94</ele>
        <time>2018-08-27T16:10:49Z</time>
      </trkpt>
      <trkpt lat="47.66273" lon="6.17964">
        <ele>259.91</ele>
        <time>2018-08-27T16:10:51Z</time>
      </trkpt>
      <trkpt lat="47.66267" lon="6.17964">
        <ele>259.87</ele>
        <time>2018-08-27T16:10:53Z</time>
      </trkpt>
      <trkpt lat="47.66261" lon="6.17964">
        <ele>259.84</ele>
        <time>2018-08-27T16:10:55Z</time>
      </trkpt>
      <trkpt lat="47.66257" lon="6.17963">
        <ele>259.8</ele>
        <time>2018-08-27T16:10:57Z</time>
      </trkpt>
      <trkpt lat="47.66251" lon="6.17962">
        <ele>259.73</ele>
        <time>2018-08-27T16:11:00Z</time>
      </trkpt>
      <trkpt lat="47.66246" lon="6.17962">
        <ele>259.69</ele>
        <time>2018-08-27T16:11:02Z</time>
      </trkpt>
      <trkpt lat="47.66241" lon="6.17962">
        <ele>259.64</ele>
        <time>2018-08-27T16:11:04Z</time>
      </trkpt>
      <trkpt lat="47.66236" lon="6.17961">
        <ele>259.6</ele>
        <time>2018-08-27T16:11:06Z</time>
      </trkpt>
      <trkpt lat="47.66231" lon="6.1796">
        <ele>259.55</ele>
        <time>2018-08-27T16:11:08Z</time>
      </trkpt>
      <trkpt lat="47.66226" lon="6.17958">
        <ele>259.5</ele>
        <time>2018-08-27T16:11:10Z</time>
      </trkpt>
      <trkpt lat="47.66221" lon="6.17957">
        <ele>259.45</ele>
        <time>2018-08-27T16:11:12Z</time>
      </trkpt>
      <trkpt lat="47.66216" lon="6.17956">
        <ele>259.4</ele>
        <time>2018-08-27T16:11:14Z</time>
      </trkpt>
      <trkpt lat="47.6621" lon="6.17954">
        <ele>259.35</ele>
        <time>2018-08-27T16:11:16Z</time>
      </trkpt>
      <trkpt lat="47.66205" lon="6.17953">
        <ele>259.3</ele>
        <time>2018-08-27T16:11:18Z</time>
      </trkpt>
      <trkpt lat="47.66199" lon="6.17952">
        <ele>259.25</ele>
        <time>2018-08-27T16:11:20Z</time>
      </trkpt>
      <trkpt lat="47.66192" lon="6.1795">
        <ele>259.19</ele>
        <time>2018-08-27T16:11:22Z</time>
      </trkpt>
      <trkpt lat="47.66186" lon="6.17949">
        <ele>259.14</ele>
        <time>2018-08-27T16:11:24Z</time>
      </trkpt>
      <trkpt lat="47.66179" lon="6.17947">
        <ele>259.08</ele>
        <time>2018-08-27T16:11:26Z</time>
      </trkpt>
      <trkpt lat="47.66173" lon="6.17946">
        <ele>259.02</ele>
        <time>2018-08-27T16:11:28Z</time>
      </trkpt>
      <trkpt lat="47.66166" lon="6.17946">
        <ele>258.96</ele>
        <time>2018-08-27T16:11:30Z</time>
      </trkpt>
      <trkpt lat="47.66159" lon="6.17945">
        <ele>258.9</ele>
        <time>2018-08-27T16:11:32Z</time>
      </trkpt>
      <trkpt lat="47.66152" lon="6.17945">
        <ele>258.64</ele>
        <time>2018-08-27T16:11:34Z</time>
      </trkpt>
      <trkpt lat="47.66148" lon="6.17944">
        <ele>258.39</ele>
        <time>2018-08-27T16:11:35Z</time>
      </trkpt>
      <trkpt lat="47.6614" lon="6.17945">
        <ele>257.98</ele>
        <time>2018-08-27T16:11:37Z</time>
      </trkpt>
      <trkpt lat="47.66132" lon="6.17945">
        <ele>257.68</ele>
        <time>2018-08-27T16:11:39Z</time>
      </trkpt>
      <trkpt lat="47.66123" lon="6.17946">
        <ele>257.56</ele>
        <time>2018-08-27T16:11:40Z</time>
      </trkpt>
      <trkpt lat="47.66115" lon="6.17947">
        <ele>257.37</ele>
        <time>2018-08-27T16:11:42Z</time>
      </trkpt>
      <trkpt lat="47.66106" lon="6.17947">
        <ele>257.22</ele>
        <time>2018-08-27T16:11:44Z</time>
      </trkpt>
      <trkpt lat="47.66097" lon="6.17947">
        <ele>257.08</ele>
        <time>2018-08-27T16:11:46Z</time>
      </trkpt>
      <trkpt lat="47.66088" lon="6.17947">
        <ele>256.96</ele>
        <time>2018-08-27T16:11:48Z</time>
      </trkpt>
      <trkpt lat="47.6608" lon="6.17947">
        <ele>256.84</ele>
        <time>2018-08-27T16:11:50Z</time>
      </trkpt>
      <trkpt lat="47.6607" lon="6.17946">
        <ele>256.74</ele>
        <time>2018-08-27T16:11:52Z</time>
      </trkpt>
      <trkpt lat="47.66065" lon="6.17946">
        <ele>256.69</ele>
        <time>2018-08-27T16:11:53Z</time>
      </trkpt>
      <trkpt lat="47.6606" lon="6.17946">
        <ele>256.65</ele>
        <time>2018-08-27T16:11:54Z</time>
      </trkpt>
      <trkpt lat="47.66055" lon="6.17946">
        <ele>256.61</ele>
        <time>2018-08-27T16:11:55Z</time>
      </trkpt>
      <trkpt lat="47.6605" lon="6.17946">
        <ele>256.56</ele>
        <time>2018-08-27T16:11:56Z</time>
      </trkpt>
      <trkpt lat="47.66045" lon="6.17945">
        <ele>256.52</ele>
        <time>2018-08-27T16:11:57Z</time>
      </trkpt>
      <trkpt lat="47.6604" lon="6.17945">
        <ele>256.49</ele>
        <time>2018-08-27T16:11:58Z</time>
      </trkpt>
      <trkpt lat="47.66034" lon="6.17945">
        <ele>256.45</ele>
        <time>2018-08-27T16:11:59Z</time>
      </trkpt>
      <trkpt lat="47.66029" lon="6.17944">
        <ele>256.41</ele>
        <time>2018-08-27T16:12:00Z</time>
      </trkpt>
      <trkpt lat="47.66024" lon="6.17944">
        <ele>256.37</ele>
        <time>2018-08-27T16:12:01Z</time>
      </trkpt>
      <trkpt lat="47.6602" lon="6.17945">
        <ele>256.33</ele>
        <time>2018-08-27T16:12:02Z</time>
      </trkpt>
      <trkpt lat="47.66015" lon="6.17945">
        <ele>256.29</ele>
        <time>2018-08-27T16:12:03Z</time>
      </trkpt>
      <trkpt lat="47.6601" lon="6.17945">
        <ele>256.25</ele>
        <time>2018-08-27T16:12:04Z</time>
      </trkpt>
      <trkpt lat="47.66001" lon="6.17945">
        <ele>256.17</ele>
        <time>2018-08-27T16:12:06Z</time>
      </trkpt>
      <trkpt lat="47.65993" lon="6.17945">
        <ele>256.1</ele>
        <time>2018-08-27T16:12:08Z</time>
      </trkpt>
      <trkpt lat="47.65985" lon="6.17945">
        <ele>256.03</ele>
        <time>2018-08-27T16:12:10Z</time>
      </trkpt>
      <trkpt lat="47.65978" lon="6.17944">
        <ele>256.01</ele>
        <time>2018-08-27T16:12:12Z</time>
      </trkpt>
      <trkpt lat="47.65971" lon="6.17944">
        <ele>256</ele>
        <time>2018-08-27T16:12:14Z</time>
      </trkpt>
      <trkpt lat="47.65965" lon="6.17944">
        <ele>255.99</ele>
        <time>2018-08-27T16:12:16Z</time>
      </trkpt>
      <trkpt lat="47.65958" lon="6.17943">
        <ele>255.98</ele>
        <time>2018-08-27T16:12:18Z</time>
      </trkpt>
      <trkpt lat="47.65951" lon="6.17942">
        <ele>255.96</ele>
        <time>2018-08-27T16:12:20Z</time>
      </trkpt>
      <trkpt lat="47.65944" lon="6.17942">
        <ele>255.94</ele>
        <time>2018-08-27T16:12:22Z</time>
      </trkpt>
      <trkpt lat="47.65938" lon="6.17942">
        <ele>255.92</ele>
        <time>2018-08-27T16:12:24Z</time>
      </trkpt>
      <trkpt lat="47.65932" lon="6.17942">
        <ele>255.89</ele>
        <time>2018-08-27T16:12:27Z</time>
      </trkpt>
      <trkpt lat="47.65926" lon="6.17943">
        <ele>255.87</ele>
        <time>2018-08-27T16:12:29Z</time>
      </trkpt>
      <trkpt lat="47.65921" lon="6.17943">
        <ele>255.84</ele>
        <time>2018-08-27T16:12:31Z</time>
      </trkpt>
      <trkpt lat="47.65915" lon="6.17943">
        <ele>255.82</ele>
        <time>2018-08-27T16:12:33Z</time>
      </trkpt>
      <trkpt lat="47.65909" lon="6.17944">
        <ele>255.79</ele>
        <time>2018-08-27T16:12:35Z</time>
      </trkpt>
      <trkpt lat="47.65904" lon="6.17944">
        <ele>255.76</ele>
        <time>2018-08-27T16:12:37Z</time>
      </trkpt>
      <trkpt lat="47.65899" lon="6.17944">
        <ele>255.73</ele>
        <time>2018-08-27T16:12:39Z</time>
      </trkpt>
      <trkpt lat="47.65894" lon="6.17944">
        <ele>255.7</ele>
        <time>2018-08-27T16:12:41Z</time>
      </trkpt>
      <trkpt lat="47.65888" lon="6.17946">
        <ele>255.65</ele>
        <time>2018-08-27T16:12:44Z</time>
      </trkpt>
      <trkpt lat="47.65883" lon="6.17947">
        <ele>255.62</ele>
        <time>2018-08-27T16:12:46Z</time>
      </trkpt>
      <trkpt lat="47.65878" lon="6.17948">
        <ele>255.58</ele>
        <time>2018-08-27T16:12:48Z</time>
      </trkpt>
      <trkpt lat="47.65873" lon="6.1795">
        <ele>255.54</ele>
        <time>2018-08-27T16:12:50Z</time>
      </trkpt>
      <trkpt lat="47.65868" lon="6.17952">
        <ele>255.51</ele>
        <time>2018-08-27T16:12:52Z</time>
      </trkpt>
      <trkpt lat="47.65863" lon="6.17953">
        <ele>255.47</ele>
        <time>2018-08-27T16:12:54Z</time>
      </trkpt>
      <trkpt lat="47.65858" lon="6.17955">
        <ele>255.43</ele>
        <time>2018-08-27T16:12:56Z</time>
      </trkpt>
      <trkpt lat="47.65852" lon="6.17958">
        <ele>255.37</ele>
        <time>2018-08-27T16:12:59Z</time>
      </trkpt>
      <trkpt lat="47.65846" lon="6.17963">
        <ele>255.31</ele>
        <time>2018-08-27T16:13:02Z</time>
      </trkpt>
      <trkpt lat="47.65842" lon="6.17966">
        <ele>255.27</ele>
        <time>2018-08-27T16:13:04Z</time>
      </trkpt>
      <trkpt lat="47.65838" lon="6.17969">
        <ele>255.23</ele>
        <time>2018-08-27T16:13:06Z</time>
      </trkpt>
      <trkpt lat="47.65833" lon="6.17973">
        <ele>255.19</ele>
        <time>2018-08-27T16:13:08Z</time>
      </trkpt>
      <trkpt lat="47.65829" lon="6.17978">
        <ele>255.15</ele>
        <time>2018-08-27T16:13:10Z</time>
      </trkpt>
      <trkpt lat="47.65825" lon="6.17982">
        <ele>255.11</ele>
        <time>2018-08-27T16:13:12Z</time>
      </trkpt>
      <trkpt lat="47.65821" lon="6.17985">
        <ele>255.06</ele>
        <time>2018-08-27T16:13:14Z</time>
      </trkpt>
      <trkpt lat="47.65816" lon="6.17989">
        <ele>255.02</ele>
        <time>2018-08-27T16:13:16Z</time>
      </trkpt>
      <trkpt lat="47.65812" lon="6.17991">
        <ele>254.98</ele>
        <time>2018-08-27T16:13:18Z</time>
      </trkpt>
      <trkpt lat="47.65806" lon="6.17994">
        <ele>254.91</ele>
        <time>2018-08-27T16:13:21Z</time>
      </trkpt>
      <trkpt lat="47.65802" lon="6.17997">
        <ele>254.87</ele>
        <time>2018-08-27T16:13:23Z</time>
      </trkpt>
      <trkpt lat="47.65796" lon="6.18002">
        <ele>254.81</ele>
        <time>2018-08-27T16:13:26Z</time>
      </trkpt>
      <trkpt lat="47.65792" lon="6.18007">
        <ele>254.76</ele>
        <time>2018-08-27T16:13:28Z</time>
      </trkpt>
      <trkpt lat="47.65788" lon="6.18011">
        <ele>254.72</ele>
        <time>2018-08-27T16:13:30Z</time>
      </trkpt>
      <trkpt lat="47.65784" lon="6.18015">
        <ele>254.68</ele>
        <time>2018-08-27T16:13:32Z</time>
      </trkpt>
      <trkpt lat="47.65778" lon="6.18021">
        <ele>254.64</ele>
        <time>2018-08-27T16:13:34Z</time>
      </trkpt>
      <trkpt lat="47.65773" lon="6.18026">
        <ele>254.6</ele>
        <time>2018-08-27T16:13:36Z</time>
      </trkpt>
      <trkpt lat="47.65766" lon="6.1803">
        <ele>254.31</ele>
        <time>2018-08-27T16:13:38Z</time>
      </trkpt>
      <trkpt lat="47.65762" lon="6.18032">
        <ele>254.18</ele>
        <time>2018-08-27T16:13:39Z</time>
      </trkpt>
      <trkpt lat="47.65754" lon="6.18037">
        <ele>253.98</ele>
        <time>2018-08-27T16:13:41Z</time>
      </trkpt>
      <trkpt lat="47.6574" lon="6.18044">
        <ele>253.91</ele>
        <time>2018-08-27T16:13:42Z</time>
      </trkpt>
      <trkpt lat="47.65734" lon="6.18048">
        <ele>253.84</ele>
        <time>2018-08-27T16:13:43Z</time>
      </trkpt>
      <trkpt lat="47.65728" lon="6.18052">
        <ele>253.78</ele>
        <time>2018-08-27T16:13:44Z</time>
      </trkpt>
      <trkpt lat="47.65722" lon="6.18057">
        <ele>253.72</ele>
        <time>2018-08-27T16:13:45Z</time>
      </trkpt>
      <trkpt lat="47.65715" lon="6.18062">
        <ele>253.66</ele>
        <time>2018-08-27T16:13:46Z</time>
      </trkpt>
      <trkpt lat="47.65709" lon="6.18068">
        <ele>253.6</ele>
        <time>2018-08-27T16:13:47Z</time>
      </trkpt>
      <trkpt lat="47.65704" lon="6.18076">
        <ele>253.54</ele>
        <time>2018-08-27T16:13:48Z</time>
      </trkpt>
      <trkpt lat="47.65698" lon="6.18084">
        <ele>253.49</ele>
        <time>2018-08-27T16:13:49Z</time>
      </trkpt>
      <trkpt lat="47.65693" lon="6.18091">
        <ele>253.43</ele>
        <time>2018-08-27T16:13:50Z</time>
      </trkpt>
      <trkpt lat="47.65688" lon="6.18099">
        <ele>253.37</ele>
        <time>2018-08-27T16:13:51Z</time>
      </trkpt>
      <trkpt lat="47.65684" lon="6.18107">
        <ele>253.31</ele>
        <time>2018-08-27T16:13:52Z</time>
      </trkpt>
      <trkpt lat="47.6568" lon="6.18115">
        <ele>253.26</ele>
        <time>2018-08-27T16:13:53Z</time>
      </trkpt>
      <trkpt lat="47.65676" lon="6.18124">
        <ele>253.2</ele>
        <time>2018-08-27T16:13:54Z</time>
      </trkpt>
      <trkpt lat="47.65673" lon="6.18132">
        <ele>253.13</ele>
        <time>2018-08-27T16:13:55Z</time>
      </trkpt>
      <trkpt lat="47.65669" lon="6.18137">
        <ele>253.03</ele>
        <time>2018-08-27T16:13:56Z</time>
      </trkpt>
      <trkpt lat="47.65664" lon="6.18141">
        <ele>252.92</ele>
        <time>2018-08-27T16:13:57Z</time>
      </trkpt>
      <trkpt lat="47.6566" lon="6.18146">
        <ele>252.78</ele>
        <time>2018-08-27T16:13:58Z</time>
      </trkpt>
      <trkpt lat="47.65656" lon="6.18151">
        <ele>252.62</ele>
        <time>2018-08-27T16:13:59Z</time>
      </trkpt>
      <trkpt lat="47.65651" lon="6.18155">
        <ele>252.45</ele>
        <time>2018-08-27T16:14:00Z</time>
      </trkpt>
      <trkpt lat="47.65646" lon="6.1816">
        <ele>252.27</ele>
        <time>2018-08-27T16:14:01Z</time>
      </trkpt>
      <trkpt lat="47.65641" lon="6.18164">
        <ele>252.04</ele>
        <time>2018-08-27T16:14:02Z</time>
      </trkpt>
      <trkpt lat="47.65635" lon="6.18167">
        <ele>251.72</ele>
        <time>2018-08-27T16:14:03Z</time>
      </trkpt>
      <trkpt lat="47.65629" lon="6.18168">
        <ele>251.37</ele>
        <time>2018-08-27T16:14:04Z</time>
      </trkpt>
      <trkpt lat="47.65621" lon="6.18168">
        <ele>251.03</ele>
        <time>2018-08-27T16:14:05Z</time>
      </trkpt>
      <trkpt lat="47.65613" lon="6.18168">
        <ele>250.69</ele>
        <time>2018-08-27T16:14:06Z</time>
      </trkpt>
      <trkpt lat="47.65607" lon="6.1817">
        <ele>250.29</ele>
        <time>2018-08-27T16:14:07Z</time>
      </trkpt>
      <trkpt lat="47.65601" lon="6.18175">
        <ele>250.09</ele>
        <time>2018-08-27T16:14:08Z</time>
      </trkpt>
      <trkpt lat="47.65596" lon="6.18181">
        <ele>249.97</ele>
        <time>2018-08-27T16:14:09Z</time>
      </trkpt>
      <trkpt lat="47.65591" lon="6.18186">
        <ele>249.81</ele>
        <time>2018-08-27T16:14:10Z</time>
      </trkpt>
      <trkpt lat="47.65588" lon="6.18191">
        <ele>249.56</ele>
        <time>2018-08-27T16:14:11Z</time>
      </trkpt>
      <trkpt lat="47.65582" lon="6.18199">
        <ele>249.42</ele>
        <time>2018-08-27T16:14:13Z</time>
      </trkpt>
      <trkpt lat="47.65575" lon="6.18207">
        <ele>248.99</ele>
        <time>2018-08-27T16:14:15Z</time>
      </trkpt>
      <trkpt lat="47.6557" lon="6.18214">
        <ele>248.91</ele>
        <time>2018-08-27T16:14:17Z</time>
      </trkpt>
      <trkpt lat="47.65565" lon="6.18219">
        <ele>248.89</ele>
        <time>2018-08-27T16:14:19Z</time>
      </trkpt>
      <trkpt lat="47.65559" lon="6.18225">
        <ele>248.88</ele>
        <time>2018-08-27T16:14:21Z</time>
      </trkpt>
      <trkpt lat="47.65552" lon="6.18232">
        <ele>248.81</ele>
        <time>2018-08-27T16:14:22Z</time>
      </trkpt>
      <trkpt lat="47.65547" lon="6.18234">
        <ele>248.74</ele>
        <time>2018-08-27T16:14:23Z</time>
      </trkpt>
      <trkpt lat="47.65542" lon="6.18237">
        <ele>248.63</ele>
        <time>2018-08-27T16:14:24Z</time>
      </trkpt>
      <trkpt lat="47.65537" lon="6.1824">
        <ele>248.52</ele>
        <time>2018-08-27T16:14:25Z</time>
      </trkpt>
      <trkpt lat="47.65532" lon="6.18242">
        <ele>248.37</ele>
        <time>2018-08-27T16:14:26Z</time>
      </trkpt>
      <trkpt lat="47.65526" lon="6.18244">
        <ele>248.21</ele>
        <time>2018-08-27T16:14:27Z</time>
      </trkpt>
      <trkpt lat="47.6552" lon="6.18247">
        <ele>248.02</ele>
        <time>2018-08-27T16:14:28Z</time>
      </trkpt>
      <trkpt lat="47.65514" lon="6.18249">
        <ele>247.84</ele>
        <time>2018-08-27T16:14:29Z</time>
      </trkpt>
      <trkpt lat="47.65507" lon="6.18252">
        <ele>247.68</ele>
        <time>2018-08-27T16:14:30Z</time>
      </trkpt>
      <trkpt lat="47.655" lon="6.18255">
        <ele>247.55</ele>
        <time>2018-08-27T16:14:31Z</time>
      </trkpt>
      <trkpt lat="47.65494" lon="6.18257">
        <ele>247.46</ele>
        <time>2018-08-27T16:14:32Z</time>
      </trkpt>
      <trkpt lat="47.65487" lon="6.18259">
        <ele>247.38</ele>
        <time>2018-08-27T16:14:33Z</time>
      </trkpt>
      <trkpt lat="47.6548" lon="6.1826">
        <ele>247.22</ele>
        <time>2018-08-27T16:14:34Z</time>
      </trkpt>
      <trkpt lat="47.65473" lon="6.18261">
        <ele>247.02</ele>
        <time>2018-08-27T16:14:35Z</time>
      </trkpt>
      <trkpt lat="47.65465" lon="6.18261">
        <ele>246.81</ele>
        <time>2018-08-27T16:14:36Z</time>
      </trkpt>
      <trkpt lat="47.65458" lon="6.18261">
        <ele>246.52</ele>
        <time>2018-08-27T16:14:37Z</time>
      </trkpt>
      <trkpt lat="47.65449" lon="6.18259">
        <ele>246.19</ele>
        <time>2018-08-27T16:14:38Z</time>
      </trkpt>
      <trkpt lat="47.65441" lon="6.18257">
        <ele>245.88</ele>
        <time>2018-08-27T16:14:39Z</time>
      </trkpt>
      <trkpt lat="47.65433" lon="6.18254">
        <ele>245.63</ele>
        <time>2018-08-27T16:14:40Z</time>
      </trkpt>
      <trkpt lat="47.65424" lon="6.18249">
        <ele>245.44</ele>
        <time>2018-08-27T16:14:41Z</time>
      </trkpt>
      <trkpt lat="47.65416" lon="6.18245">
        <ele>245.3</ele>
        <time>2018-08-27T16:14:42Z</time>
      </trkpt>
      <trkpt lat="47.65408" lon="6.18242">
        <ele>245.15</ele>
        <time>2018-08-27T16:14:43Z</time>
      </trkpt>
      <trkpt lat="47.654" lon="6.18236">
        <ele>244.94</ele>
        <time>2018-08-27T16:14:44Z</time>
      </trkpt>
      <trkpt lat="47.65393" lon="6.1823">
        <ele>244.75</ele>
        <time>2018-08-27T16:14:46Z</time>
      </trkpt>
      <trkpt lat="47.65385" lon="6.18225">
        <ele>244.6</ele>
        <time>2018-08-27T16:14:47Z</time>
      </trkpt>
      <trkpt lat="47.65379" lon="6.18218">
        <ele>244.47</ele>
        <time>2018-08-27T16:14:48Z</time>
      </trkpt>
      <trkpt lat="47.65372" lon="6.18213">
        <ele>244.27</ele>
        <time>2018-08-27T16:14:49Z</time>
      </trkpt>
      <trkpt lat="47.65366" lon="6.18207">
        <ele>244.01</ele>
        <time>2018-08-27T16:14:50Z</time>
      </trkpt>
      <trkpt lat="47.6536" lon="6.182">
        <ele>243.77</ele>
        <time>2018-08-27T16:14:51Z</time>
      </trkpt>
      <trkpt lat="47.65353" lon="6.18195">
        <ele>243.5</ele>
        <time>2018-08-27T16:14:52Z</time>
      </trkpt>
      <trkpt lat="47.65347" lon="6.18187">
        <ele>243.27</ele>
        <time>2018-08-27T16:14:53Z</time>
      </trkpt>
      <trkpt lat="47.65341" lon="6.1818">
        <ele>243.09</ele>
        <time>2018-08-27T16:14:54Z</time>
      </trkpt>
      <trkpt lat="47.65336" lon="6.18173">
        <ele>242.85</ele>
        <time>2018-08-27T16:14:55Z</time>
      </trkpt>
      <trkpt lat="47.65332" lon="6.18166">
        <ele>242.49</ele>
        <time>2018-08-27T16:14:56Z</time>
      </trkpt>
      <trkpt lat="47.65328" lon="6.18159">
        <ele>242.02</ele>
        <time>2018-08-27T16:14:57Z</time>
      </trkpt>
      <trkpt lat="47.65324" lon="6.18152">
        <ele>241.52</ele>
        <time>2018-08-27T16:14:58Z</time>
      </trkpt>
      <trkpt lat="47.6532" lon="6.18144">
        <ele>241.06</ele>
        <time>2018-08-27T16:14:59Z</time>
      </trkpt>
      <trkpt lat="47.65317" lon="6.18136">
        <ele>240.67</ele>
        <time>2018-08-27T16:15:00Z</time>
      </trkpt>
      <trkpt lat="47.65314" lon="6.18128">
        <ele>240.33</ele>
        <time>2018-08-27T16:15:01Z</time>
      </trkpt>
      <trkpt lat="47.65311" lon="6.1812">
        <ele>240.03</ele>
        <time>2018-08-27T16:15:02Z</time>
      </trkpt>
      <trkpt lat="47.65308" lon="6.18112">
        <ele>239.81</ele>
        <time>2018-08-27T16:15:03Z</time>
      </trkpt>
      <trkpt lat="47.65307" lon="6.18103">
        <ele>239.71</ele>
        <time>2018-08-27T16:15:04Z</time>
      </trkpt>
      <trkpt lat="47.65305" lon="6.18094">
        <ele>239.61</ele>
        <time>2018-08-27T16:15:05Z</time>
      </trkpt>
      <trkpt lat="47.65304" lon="6.18085">
        <ele>239.56</ele>
        <time>2018-08-27T16:15:06Z</time>
      </trkpt>
      <trkpt lat="47.65303" lon="6.18077">
        <ele>239.54</ele>
        <time>2018-08-27T16:15:07Z</time>
      </trkpt>
      <trkpt lat="47.65302" lon="6.18069">
        <ele>239.52</ele>
        <time>2018-08-27T16:15:08Z</time>
      </trkpt>
      <trkpt lat="47.65301" lon="6.18061">
        <ele>239.45</ele>
        <time>2018-08-27T16:15:09Z</time>
      </trkpt>
      <trkpt lat="47.653" lon="6.18054">
        <ele>239.39</ele>
        <time>2018-08-27T16:15:10Z</time>
      </trkpt>
      <trkpt lat="47.65299" lon="6.18046">
        <ele>239.32</ele>
        <time>2018-08-27T16:15:11Z</time>
      </trkpt>
      <trkpt lat="47.65298" lon="6.18039">
        <ele>239.23</ele>
        <time>2018-08-27T16:15:12Z</time>
      </trkpt>
      <trkpt lat="47.65296" lon="6.18033">
        <ele>239.13</ele>
        <time>2018-08-27T16:15:13Z</time>
      </trkpt>
      <trkpt lat="47.65293" lon="6.18021">
        <ele>238.97</ele>
        <time>2018-08-27T16:15:15Z</time>
      </trkpt>
      <trkpt lat="47.6529" lon="6.18015">
        <ele>238.91</ele>
        <time>2018-08-27T16:15:16Z</time>
      </trkpt>
      <trkpt lat="47.65285" lon="6.18005">
        <ele>238.82</ele>
        <time>2018-08-27T16:15:18Z</time>
      </trkpt>
      <trkpt lat="47.65281" lon="6.17998">
        <ele>238.81</ele>
        <time>2018-08-27T16:15:20Z</time>
      </trkpt>
      <trkpt lat="47.65277" lon="6.17993">
        <ele>238.89</ele>
        <time>2018-08-27T16:15:21Z</time>
      </trkpt>
      <trkpt lat="47.6527" lon="6.17986">
        <ele>239.08</ele>
        <time>2018-08-27T16:15:23Z</time>
      </trkpt>
      <trkpt lat="47.65266" lon="6.17983">
        <ele>239.26</ele>
        <time>2018-08-27T16:15:24Z</time>
      </trkpt>
      <trkpt lat="47.65261" lon="6.17979">
        <ele>239.32</ele>
        <time>2018-08-27T16:15:25Z</time>
      </trkpt>
      <trkpt lat="47.65252" lon="6.17975">
        <ele>239.36</ele>
        <time>2018-08-27T16:15:27Z</time>
      </trkpt>
      <trkpt lat="47.65247" lon="6.17974">
        <ele>239.44</ele>
        <time>2018-08-27T16:15:28Z</time>
      </trkpt>
      <trkpt lat="47.65239" lon="6.17972">
        <ele>239.46</ele>
        <time>2018-08-27T16:15:30Z</time>
      </trkpt>
      <trkpt lat="47.65231" lon="6.17974">
        <ele>239.32</ele>
        <time>2018-08-27T16:15:32Z</time>
      </trkpt>
      <trkpt lat="47.65227" lon="6.17975">
        <ele>239.27</ele>
        <time>2018-08-27T16:15:33Z</time>
      </trkpt>
      <trkpt lat="47.65222" lon="6.17978">
        <ele>239.22</ele>
        <time>2018-08-27T16:15:34Z</time>
      </trkpt>
      <trkpt lat="47.65215" lon="6.17983">
        <ele>239.18</ele>
        <time>2018-08-27T16:15:36Z</time>
      </trkpt>
      <trkpt lat="47.65208" lon="6.17989">
        <ele>239.09</ele>
        <time>2018-08-27T16:15:38Z</time>
      </trkpt>
      <trkpt lat="47.652" lon="6.17997">
        <ele>238.98</ele>
        <time>2018-08-27T16:15:40Z</time>
      </trkpt>
      <trkpt lat="47.65197" lon="6.18003">
        <ele>238.93</ele>
        <time>2018-08-27T16:15:41Z</time>
      </trkpt>
      <trkpt lat="47.65193" lon="6.18008">
        <ele>238.85</ele>
        <time>2018-08-27T16:15:42Z</time>
      </trkpt>
      <trkpt lat="47.65189" lon="6.18012">
        <ele>238.77</ele>
        <time>2018-08-27T16:15:43Z</time>
      </trkpt>
      <trkpt lat="47.65185" lon="6.18017">
        <ele>238.72</ele>
        <time>2018-08-27T16:15:44Z</time>
      </trkpt>
      <trkpt lat="47.65181" lon="6.18024">
        <ele>238.67</ele>
        <time>2018-08-27T16:15:45Z</time>
      </trkpt>
      <trkpt lat="47.65177" lon="6.1803">
        <ele>238.63</ele>
        <time>2018-08-27T16:15:46Z</time>
      </trkpt>
      <trkpt lat="47.65173" lon="6.18036">
        <ele>238.58</ele>
        <time>2018-08-27T16:15:47Z</time>
      </trkpt>
      <trkpt lat="47.65169" lon="6.18043">
        <ele>238.51</ele>
        <time>2018-08-27T16:15:48Z</time>
      </trkpt>
      <trkpt lat="47.65166" lon="6.18049">
        <ele>238.43</ele>
        <time>2018-08-27T16:15:49Z</time>
      </trkpt>
      <trkpt lat="47.65161" lon="6.18055">
        <ele>238.32</ele>
        <time>2018-08-27T16:15:50Z</time>
      </trkpt>
      <trkpt lat="47.65157" lon="6.18061">
        <ele>238.2</ele>
        <time>2018-08-27T16:15:51Z</time>
      </trkpt>
      <trkpt lat="47.65153" lon="6.18067">
        <ele>238.09</ele>
        <time>2018-08-27T16:15:52Z</time>
      </trkpt>
      <trkpt lat="47.65149" lon="6.18073">
        <ele>237.98</ele>
        <time>2018-08-27T16:15:53Z</time>
      </trkpt>
      <trkpt lat="47.65144" lon="6.18078">
        <ele>237.9</ele>
        <time>2018-08-27T16:15:54Z</time>
      </trkpt>
      <trkpt lat="47.65139" lon="6.18083">
        <ele>237.84</ele>
        <time>2018-08-27T16:15:55Z</time>
      </trkpt>
      <trkpt lat="47.65135" lon="6.18086">
        <ele>237.79</ele>
        <time>2018-08-27T16:15:56Z</time>
      </trkpt>
      <trkpt lat="47.6513" lon="6.1809">
        <ele>237.74</ele>
        <time>2018-08-27T16:15:57Z</time>
      </trkpt>
      <trkpt lat="47.65125" lon="6.18092">
        <ele>237.71</ele>
        <time>2018-08-27T16:15:58Z</time>
      </trkpt>
      <trkpt lat="47.65121" lon="6.18095">
        <ele>237.7</ele>
        <time>2018-08-27T16:15:59Z</time>
      </trkpt>
      <trkpt lat="47.65116" lon="6.18096">
        <ele>237.71</ele>
        <time>2018-08-27T16:16:00Z</time>
      </trkpt>
      <trkpt lat="47.65112" lon="6.18098">
        <ele>237.71</ele>
        <time>2018-08-27T16:16:01Z</time>
      </trkpt>
      <trkpt lat="47.65106" lon="6.18099">
        <ele>237.74</ele>
        <time>2018-08-27T16:16:02Z</time>
      </trkpt>
      <trkpt lat="47.65102" lon="6.181">
        <ele>237.75</ele>
        <time>2018-08-27T16:16:03Z</time>
      </trkpt>
      <trkpt lat="47.65096" lon="6.181">
        <ele>237.78</ele>
        <time>2018-08-27T16:16:04Z</time>
      </trkpt>
      <trkpt lat="47.65088" lon="6.18101">
        <ele>237.77</ele>
        <time>2018-08-27T16:16:06Z</time>
      </trkpt>
      <trkpt lat="47.65079" lon="6.18098">
        <ele>237.74</ele>
        <time>2018-08-27T16:16:08Z</time>
      </trkpt>
      <trkpt lat="47.65075" lon="6.18098">
        <ele>237.72</ele>
        <time>2018-08-27T16:16:09Z</time>
      </trkpt>
      <trkpt lat="47.6507" lon="6.18096">
        <ele>237.68</ele>
        <time>2018-08-27T16:16:10Z</time>
      </trkpt>
      <trkpt lat="47.65065" lon="6.18094">
        <ele>237.67</ele>
        <time>2018-08-27T16:16:11Z</time>
      </trkpt>
      <trkpt lat="47.65061" lon="6.18092">
        <ele>237.67</ele>
        <time>2018-08-27T16:16:12Z</time>
      </trkpt>
      <trkpt lat="47.65056" lon="6.18091">
        <ele>237.7</ele>
        <time>2018-08-27T16:16:13Z</time>
      </trkpt>
      <trkpt lat="47.65051" lon="6.1809">
        <ele>237.72</ele>
        <time>2018-08-27T16:16:14Z</time>
      </trkpt>
      <trkpt lat="47.65047" lon="6.1809">
        <ele>237.71</ele>
        <time>2018-08-27T16:16:15Z</time>
      </trkpt>
      <trkpt lat="47.65042" lon="6.1809">
        <ele>237.64</ele>
        <time>2018-08-27T16:16:16Z</time>
      </trkpt>
      <trkpt lat="47.65034" lon="6.1809">
        <ele>237.37</ele>
        <time>2018-08-27T16:16:18Z</time>
      </trkpt>
      <trkpt lat="47.65029" lon="6.1809">
        <ele>237.22</ele>
        <time>2018-08-27T16:16:19Z</time>
      </trkpt>
      <trkpt lat="47.65024" lon="6.1809">
        <ele>237.07</ele>
        <time>2018-08-27T16:16:20Z</time>
      </trkpt>
      <trkpt lat="47.65015" lon="6.18091">
        <ele>236.79</ele>
        <time>2018-08-27T16:16:22Z</time>
      </trkpt>
      <trkpt lat="47.6501" lon="6.18092">
        <ele>236.71</ele>
        <time>2018-08-27T16:16:23Z</time>
      </trkpt>
      <trkpt lat="47.65005" lon="6.18092">
        <ele>236.66</ele>
        <time>2018-08-27T16:16:24Z</time>
      </trkpt>
      <trkpt lat="47.64997" lon="6.18093">
        <ele>236.56</ele>
        <time>2018-08-27T16:16:26Z</time>
      </trkpt>
      <trkpt lat="47.64992" lon="6.18092">
        <ele>236.5</ele>
        <time>2018-08-27T16:16:27Z</time>
      </trkpt>
      <trkpt lat="47.64984" lon="6.18093">
        <ele>236.41</ele>
        <time>2018-08-27T16:16:29Z</time>
      </trkpt>
      <trkpt lat="47.64978" lon="6.18095">
        <ele>236.4</ele>
        <time>2018-08-27T16:16:31Z</time>
      </trkpt>
      <trkpt lat="47.64973" lon="6.18096">
        <ele>236.4</ele>
        <time>2018-08-27T16:16:33Z</time>
      </trkpt>
      <trkpt lat="47.64962" lon="6.18096">
        <ele>236.48</ele>
        <time>2018-08-27T16:16:35Z</time>
      </trkpt>
      <trkpt lat="47.64957" lon="6.18096">
        <ele>236.52</ele>
        <time>2018-08-27T16:16:37Z</time>
      </trkpt>
      <trkpt lat="47.64946" lon="6.18096">
        <ele>236.54</ele>
        <time>2018-08-27T16:16:39Z</time>
      </trkpt>
      <trkpt lat="47.64936" lon="6.18094">
        <ele>236.65</ele>
        <time>2018-08-27T16:16:41Z</time>
      </trkpt>
      <trkpt lat="47.64931" lon="6.18093">
        <ele>236.71</ele>
        <time>2018-08-27T16:16:42Z</time>
      </trkpt>
      <trkpt lat="47.64927" lon="6.18092">
        <ele>236.78</ele>
        <time>2018-08-27T16:16:43Z</time>
      </trkpt>
      <trkpt lat="47.64922" lon="6.1809">
        <ele>236.85</ele>
        <time>2018-08-27T16:16:44Z</time>
      </trkpt>
      <trkpt lat="47.64918" lon="6.18089">
        <ele>236.91</ele>
        <time>2018-08-27T16:16:45Z</time>
      </trkpt>
      <trkpt lat="47.64909" lon="6.18087">
        <ele>236.95</ele>
        <time>2018-08-27T16:16:47Z</time>
      </trkpt>
      <trkpt lat="47.649" lon="6.18085">
        <ele>237.01</ele>
        <time>2018-08-27T16:16:49Z</time>
      </trkpt>
      <trkpt lat="47.64895" lon="6.18083">
        <ele>237.03</ele>
        <time>2018-08-27T16:16:50Z</time>
      </trkpt>
      <trkpt lat="47.6489" lon="6.18082">
        <ele>237.05</ele>
        <time>2018-08-27T16:16:51Z</time>
      </trkpt>
      <trkpt lat="47.64886" lon="6.18081">
        <ele>237.07</ele>
        <time>2018-08-27T16:16:52Z</time>
      </trkpt>
      <trkpt lat="47.64881" lon="6.18079">
        <ele>237.18</ele>
        <time>2018-08-27T16:16:53Z</time>
      </trkpt>
      <trkpt lat="47.64876" lon="6.18078">
        <ele>237.31</ele>
        <time>2018-08-27T16:16:54Z</time>
      </trkpt>
      <trkpt lat="47.64872" lon="6.18077">
        <ele>237.41</ele>
        <time>2018-08-27T16:16:55Z</time>
      </trkpt>
      <trkpt lat="47.64864" lon="6.18075">
        <ele>237.53</ele>
        <time>2018-08-27T16:16:57Z</time>
      </trkpt>
      <trkpt lat="47.64856" lon="6.18073">
        <ele>237.65</ele>
        <time>2018-08-27T16:16:59Z</time>
      </trkpt>
      <trkpt lat="47.64848" lon="6.18072">
        <ele>237.68</ele>
        <time>2018-08-27T16:17:01Z</time>
      </trkpt>
      <trkpt lat="47.64839" lon="6.1807">
        <ele>237.67</ele>
        <time>2018-08-27T16:17:03Z</time>
      </trkpt>
      <trkpt lat="47.64835" lon="6.18069">
        <ele>237.65</ele>
        <time>2018-08-27T16:17:04Z</time>
      </trkpt>
      <trkpt lat="47.6483" lon="6.18067">
        <ele>237.61</ele>
        <time>2018-08-27T16:17:05Z</time>
      </trkpt>
      <trkpt lat="47.64824" lon="6.18066">
        <ele>237.59</ele>
        <time>2018-08-27T16:17:06Z</time>
      </trkpt>
      <trkpt lat="47.64819" lon="6.18065">
        <ele>237.59</ele>
        <time>2018-08-27T16:17:07Z</time>
      </trkpt>
      <trkpt lat="47.64814" lon="6.18064">
        <ele>237.61</ele>
        <time>2018-08-27T16:17:08Z</time>
      </trkpt>
      <trkpt lat="47.64809" lon="6.18064">
        <ele>237.64</ele>
        <time>2018-08-27T16:17:09Z</time>
      </trkpt>
      <trkpt lat="47.64804" lon="6.18062">
        <ele>237.69</ele>
        <time>2018-08-27T16:17:10Z</time>
      </trkpt>
      <trkpt lat="47.64799" lon="6.18061">
        <ele>237.74</ele>
        <time>2018-08-27T16:17:11Z</time>
      </trkpt>
      <trkpt lat="47.64794" lon="6.1806">
        <ele>237.78</ele>
        <time>2018-08-27T16:17:12Z</time>
      </trkpt>
      <trkpt lat="47.64789" lon="6.18058">
        <ele>237.82</ele>
        <time>2018-08-27T16:17:13Z</time>
      </trkpt>
      <trkpt lat="47.64784" lon="6.18056">
        <ele>237.86</ele>
        <time>2018-08-27T16:17:14Z</time>
      </trkpt>
      <trkpt lat="47.6478" lon="6.18053">
        <ele>237.92</ele>
        <time>2018-08-27T16:17:15Z</time>
      </trkpt>
      <trkpt lat="47.64776" lon="6.1805">
        <ele>237.96</ele>
        <time>2018-08-27T16:17:16Z</time>
      </trkpt>
      <trkpt lat="47.6477" lon="6.18043">
        <ele>237.97</ele>
        <time>2018-08-27T16:17:19Z</time>
      </trkpt>
      <trkpt lat="47.64765" lon="6.18038">
        <ele>237.95</ele>
        <time>2018-08-27T16:17:21Z</time>
      </trkpt>
      <trkpt lat="47.64761" lon="6.18032">
        <ele>237.91</ele>
        <time>2018-08-27T16:17:23Z</time>
      </trkpt>
      <trkpt lat="47.64757" lon="6.18027">
        <ele>237.87</ele>
        <time>2018-08-27T16:17:25Z</time>
      </trkpt>
      <trkpt lat="47.64753" lon="6.1802">
        <ele>237.83</ele>
        <time>2018-08-27T16:17:27Z</time>
      </trkpt>
      <trkpt lat="47.64748" lon="6.18015">
        <ele>237.78</ele>
        <time>2018-08-27T16:17:29Z</time>
      </trkpt>
      <trkpt lat="47.64745" lon="6.1801">
        <ele>237.71</ele>
        <time>2018-08-27T16:17:31Z</time>
      </trkpt>
      <trkpt lat="47.6474" lon="6.18004">
        <ele>237.61</ele>
        <time>2018-08-27T16:17:34Z</time>
      </trkpt>
      <trkpt lat="47.64737" lon="6.18">
        <ele>237.53</ele>
        <time>2018-08-27T16:17:36Z</time>
      </trkpt>
      <trkpt lat="47.64733" lon="6.17993">
        <ele>237.43</ele>
        <time>2018-08-27T16:17:39Z</time>
      </trkpt>
      <trkpt lat="47.64729" lon="6.17987">
        <ele>237.34</ele>
        <time>2018-08-27T16:17:42Z</time>
      </trkpt>
      <trkpt lat="47.64725" lon="6.17981">
        <ele>237.27</ele>
        <time>2018-08-27T16:17:45Z</time>
      </trkpt>
      <trkpt lat="47.6472" lon="6.17974">
        <ele>237.21</ele>
        <time>2018-08-27T16:17:48Z</time>
      </trkpt>
      <trkpt lat="47.64717" lon="6.17968">
        <ele>237.17</ele>
        <time>2018-08-27T16:17:50Z</time>
      </trkpt>
      <trkpt lat="47.64713" lon="6.17961">
        <ele>237.14</ele>
        <time>2018-08-27T16:17:52Z</time>
      </trkpt>
      <trkpt lat="47.64709" lon="6.17955">
        <ele>237.12</ele>
        <time>2018-08-27T16:17:54Z</time>
      </trkpt>
      <trkpt lat="47.64705" lon="6.17949">
        <ele>236.97</ele>
        <time>2018-08-27T16:17:56Z</time>
      </trkpt>
      <trkpt lat="47.647" lon="6.17941">
        <ele>236.79</ele>
        <time>2018-08-27T16:17:58Z</time>
      </trkpt>
      <trkpt lat="47.64691" lon="6.17929">
        <ele>236.66</ele>
        <time>2018-08-27T16:18:00Z</time>
      </trkpt>
      <trkpt lat="47.64685" lon="6.17922">
        <ele>236.5</ele>
        <time>2018-08-27T16:18:02Z</time>
      </trkpt>
      <trkpt lat="47.64678" lon="6.17915">
        <ele>236.22</ele>
        <time>2018-08-27T16:18:04Z</time>
      </trkpt>
      <trkpt lat="47.6467" lon="6.17909">
        <ele>236.02</ele>
        <time>2018-08-27T16:18:06Z</time>
      </trkpt>
      <trkpt lat="47.64663" lon="6.17904">
        <ele>235.89</ele>
        <time>2018-08-27T16:18:08Z</time>
      </trkpt>
      <trkpt lat="47.64655" lon="6.17899">
        <ele>235.86</ele>
        <time>2018-08-27T16:18:10Z</time>
      </trkpt>
      <trkpt lat="47.64647" lon="6.17895">
        <ele>235.84</ele>
        <time>2018-08-27T16:18:12Z</time>
      </trkpt>
      <trkpt lat="47.6464" lon="6.17891">
        <ele>235.78</ele>
        <time>2018-08-27T16:18:14Z</time>
      </trkpt>
      <trkpt lat="47.64632" lon="6.17887">
        <ele>235.64</ele>
        <time>2018-08-27T16:18:16Z</time>
      </trkpt>
      <trkpt lat="47.64627" lon="6.17885">
        <ele>235.55</ele>
        <time>2018-08-27T16:18:17Z</time>
      </trkpt>
      <trkpt lat="47.64618" lon="6.17882">
        <ele>235.4</ele>
        <time>2018-08-27T16:18:19Z</time>
      </trkpt>
      <trkpt lat="47.64609" lon="6.17885">
        <ele>235.34</ele>
        <time>2018-08-27T16:18:21Z</time>
      </trkpt>
      <trkpt lat="47.64605" lon="6.17887">
        <ele>235.32</ele>
        <time>2018-08-27T16:18:22Z</time>
      </trkpt>
      <trkpt lat="47.646" lon="6.17889">
        <ele>235.29</ele>
        <time>2018-08-27T16:18:23Z</time>
      </trkpt>
      <trkpt lat="47.64592" lon="6.17894">
        <ele>235.27</ele>
        <time>2018-08-27T16:18:25Z</time>
      </trkpt>
      <trkpt lat="47.64588" lon="6.17899">
        <ele>235.26</ele>
        <time>2018-08-27T16:18:26Z</time>
      </trkpt>
      <trkpt lat="47.64582" lon="6.17908">
        <ele>235.26</ele>
        <time>2018-08-27T16:18:28Z</time>
      </trkpt>
      <trkpt lat="47.64576" lon="6.17915">
        <ele>235.25</ele>
        <time>2018-08-27T16:18:30Z</time>
      </trkpt>
      <trkpt lat="47.6457" lon="6.17923">
        <ele>235.26</ele>
        <time>2018-08-27T16:18:32Z</time>
      </trkpt>
      <trkpt lat="47.64565" lon="6.17929">
        <ele>235.27</ele>
        <time>2018-08-27T16:18:34Z</time>
      </trkpt>
      <trkpt lat="47.64562" lon="6.17935">
        <ele>235.3</ele>
        <time>2018-08-27T16:18:37Z</time>
      </trkpt>
      <trkpt lat="47.6456" lon="6.17941">
        <ele>235.32</ele>
        <time>2018-08-27T16:18:39Z</time>
      </trkpt>
      <trkpt lat="47.64558" lon="6.17951">
        <ele>235.36</ele>
        <time>2018-08-27T16:18:42Z</time>
      </trkpt>
      <trkpt lat="47.64556" lon="6.17961">
        <ele>235.34</ele>
        <time>2018-08-27T16:18:44Z</time>
      </trkpt>
      <trkpt lat="47.64554" lon="6.1797">
        <ele>235.3</ele>
        <time>2018-08-27T16:18:46Z</time>
      </trkpt>
      <trkpt lat="47.64553" lon="6.17978">
        <ele>235.27</ele>
        <time>2018-08-27T16:18:48Z</time>
      </trkpt>
      <trkpt lat="47.64551" lon="6.17988">
        <ele>235.23</ele>
        <time>2018-08-27T16:18:51Z</time>
      </trkpt>
      <trkpt lat="47.64548" lon="6.17995">
        <ele>235.2</ele>
        <time>2018-08-27T16:18:54Z</time>
      </trkpt>
      <trkpt lat="47.64546" lon="6.18002">
        <ele>235.18</ele>
        <time>2018-08-27T16:18:56Z</time>
      </trkpt>
      <trkpt lat="47.64543" lon="6.18009">
        <ele>235.18</ele>
        <time>2018-08-27T16:18:58Z</time>
      </trkpt>
      <trkpt lat="47.64539" lon="6.18016">
        <ele>235.17</ele>
        <time>2018-08-27T16:19:00Z</time>
      </trkpt>
      <trkpt lat="47.64535" lon="6.18025">
        <ele>235.13</ele>
        <time>2018-08-27T16:19:02Z</time>
      </trkpt>
      <trkpt lat="47.64531" lon="6.1803">
        <ele>235.07</ele>
        <time>2018-08-27T16:19:03Z</time>
      </trkpt>
      <trkpt lat="47.64527" lon="6.18035">
        <ele>235.05</ele>
        <time>2018-08-27T16:19:04Z</time>
      </trkpt>
      <trkpt lat="47.64512" lon="6.18047">
        <ele>235.04</ele>
        <time>2018-08-27T16:19:05Z</time>
      </trkpt>
      <trkpt lat="47.64505" lon="6.18048">
        <ele>235.03</ele>
        <time>2018-08-27T16:19:06Z</time>
      </trkpt>
      <trkpt lat="47.64498" lon="6.18048">
        <ele>235</ele>
        <time>2018-08-27T16:19:07Z</time>
      </trkpt>
      <trkpt lat="47.64492" lon="6.18046">
        <ele>234.99</ele>
        <time>2018-08-27T16:19:08Z</time>
      </trkpt>
      <trkpt lat="47.64486" lon="6.18041">
        <ele>235</ele>
        <time>2018-08-27T16:19:09Z</time>
      </trkpt>
      <trkpt lat="47.6448" lon="6.18036">
        <ele>235.03</ele>
        <time>2018-08-27T16:19:10Z</time>
      </trkpt>
      <trkpt lat="47.64475" lon="6.18031">
        <ele>235.05</ele>
        <time>2018-08-27T16:19:11Z</time>
      </trkpt>
      <trkpt lat="47.64469" lon="6.18026">
        <ele>235.06</ele>
        <time>2018-08-27T16:19:12Z</time>
      </trkpt>
      <trkpt lat="47.64463" lon="6.18021">
        <ele>235.06</ele>
        <time>2018-08-27T16:19:13Z</time>
      </trkpt>
      <trkpt lat="47.64459" lon="6.18014">
        <ele>235.04</ele>
        <time>2018-08-27T16:19:14Z</time>
      </trkpt>
      <trkpt lat="47.64455" lon="6.18008">
        <ele>235.02</ele>
        <time>2018-08-27T16:19:15Z</time>
      </trkpt>
      <trkpt lat="47.64452" lon="6.18001">
        <ele>234.98</ele>
        <time>2018-08-27T16:19:16Z</time>
      </trkpt>
      <trkpt lat="47.64449" lon="6.17994">
        <ele>234.91</ele>
        <time>2018-08-27T16:19:17Z</time>
      </trkpt>
      <trkpt lat="47.64445" lon="6.17987">
        <ele>234.87</ele>
        <time>2018-08-27T16:19:18Z</time>
      </trkpt>
      <trkpt lat="47.64443" lon="6.17981">
        <ele>234.87</ele>
        <time>2018-08-27T16:19:19Z</time>
      </trkpt>
      <trkpt lat="47.6444" lon="6.17975">
        <ele>234.94</ele>
        <time>2018-08-27T16:19:20Z</time>
      </trkpt>
      <trkpt lat="47.64435" lon="6.17965">
        <ele>235.08</ele>
        <time>2018-08-27T16:19:22Z</time>
      </trkpt>
      <trkpt lat="47.6443" lon="6.17959">
        <ele>235.11</ele>
        <time>2018-08-27T16:19:25Z</time>
      </trkpt>
      <trkpt lat="47.64426" lon="6.17953">
        <ele>235.15</ele>
        <time>2018-08-27T16:19:27Z</time>
      </trkpt>
      <trkpt lat="47.64418" lon="6.17938">
        <ele>235.36</ele>
        <time>2018-08-27T16:19:29Z</time>
      </trkpt>
      <trkpt lat="47.64414" lon="6.17929">
        <ele>235.48</ele>
        <time>2018-08-27T16:19:32Z</time>
      </trkpt>
      <trkpt lat="47.64409" lon="6.17916">
        <ele>235.51</ele>
        <time>2018-08-27T16:19:34Z</time>
      </trkpt>
      <trkpt lat="47.64405" lon="6.17909">
        <ele>235.54</ele>
        <time>2018-08-27T16:19:36Z</time>
      </trkpt>
      <trkpt lat="47.64402" lon="6.17904">
        <ele>235.58</ele>
        <time>2018-08-27T16:19:38Z</time>
      </trkpt>
      <trkpt lat="47.64399" lon="6.17898">
        <ele>235.62</ele>
        <time>2018-08-27T16:19:40Z</time>
      </trkpt>
      <trkpt lat="47.64395" lon="6.17892">
        <ele>235.68</ele>
        <time>2018-08-27T16:19:42Z</time>
      </trkpt>
      <trkpt lat="47.6439" lon="6.17887">
        <ele>235.74</ele>
        <time>2018-08-27T16:19:44Z</time>
      </trkpt>
      <trkpt lat="47.64387" lon="6.17894">
        <ele>235.86</ele>
        <time>2018-08-27T16:19:48Z</time>
      </trkpt>
      <trkpt lat="47.64389" lon="6.17901">
        <ele>235.9</ele>
        <time>2018-08-27T16:19:50Z</time>
      </trkpt>
      <trkpt lat="47.64393" lon="6.17909">
        <ele>235.92</ele>
        <time>2018-08-27T16:19:52Z</time>
      </trkpt>
      <trkpt lat="47.64397" lon="6.17918">
        <ele>235.94</ele>
        <time>2018-08-27T16:19:54Z</time>
      </trkpt>
      <trkpt lat="47.64403" lon="6.17925">
        <ele>235.95</ele>
        <time>2018-08-27T16:19:56Z</time>
      </trkpt>
      <trkpt lat="47.64409" lon="6.17931">
        <ele>235.95</ele>
        <time>2018-08-27T16:19:58Z</time>
      </trkpt>
      <trkpt lat="47.64413" lon="6.17937">
        <ele>235.93</ele>
        <time>2018-08-27T16:20:00Z</time>
      </trkpt>
      <trkpt lat="47.64418" lon="6.17945">
        <ele>235.81</ele>
        <time>2018-08-27T16:20:02Z</time>
      </trkpt>
      <trkpt lat="47.64423" lon="6.17954">
        <ele>235.52</ele>
        <time>2018-08-27T16:20:04Z</time>
      </trkpt>
      <trkpt lat="47.64433" lon="6.17974">
        <ele>235.2</ele>
        <time>2018-08-27T16:20:06Z</time>
      </trkpt>
      <trkpt lat="47.64436" lon="6.17981">
        <ele>235.03</ele>
        <time>2018-08-27T16:20:07Z</time>
      </trkpt>
      <trkpt lat="47.64439" lon="6.17987">
        <ele>234.88</ele>
        <time>2018-08-27T16:20:08Z</time>
      </trkpt>
      <trkpt lat="47.64442" lon="6.17993">
        <ele>234.73</ele>
        <time>2018-08-27T16:20:09Z</time>
      </trkpt>
      <trkpt lat="47.64446" lon="6.18">
        <ele>234.59</ele>
        <time>2018-08-27T16:20:10Z</time>
      </trkpt>
      <trkpt lat="47.64449" lon="6.18006">
        <ele>234.42</ele>
        <time>2018-08-27T16:20:11Z</time>
      </trkpt>
      <trkpt lat="47.64452" lon="6.18011">
        <ele>234.27</ele>
        <time>2018-08-27T16:20:12Z</time>
      </trkpt>
      <trkpt lat="47.64456" lon="6.18016">
        <ele>234.14</ele>
        <time>2018-08-27T16:20:13Z</time>
      </trkpt>
      <trkpt lat="47.6446" lon="6.1802">
        <ele>234.03</ele>
        <time>2018-08-27T16:20:14Z</time>
      </trkpt>
      <trkpt lat="47.64463" lon="6.18025">
        <ele>233.93</ele>
        <time>2018-08-27T16:20:15Z</time>
      </trkpt>
      <trkpt lat="47.64467" lon="6.18029">
        <ele>233.9</ele>
        <time>2018-08-27T16:20:16Z</time>
      </trkpt>
      <trkpt lat="47.64474" lon="6.18036">
        <ele>233.87</ele>
        <time>2018-08-27T16:20:18Z</time>
      </trkpt>
      <trkpt lat="47.64481" lon="6.18041">
        <ele>233.86</ele>
        <time>2018-08-27T16:20:20Z</time>
      </trkpt>
      <trkpt lat="47.64486" lon="6.18045">
        <ele>233.85</ele>
        <time>2018-08-27T16:20:22Z</time>
      </trkpt>
      <trkpt lat="47.6449" lon="6.18048">
        <ele>233.84</ele>
        <time>2018-08-27T16:20:24Z</time>
      </trkpt>
      <trkpt lat="47.64495" lon="6.18051">
        <ele>233.84</ele>
        <time>2018-08-27T16:20:26Z</time>
      </trkpt>
      <trkpt lat="47.645" lon="6.18054">
        <ele>233.84</ele>
        <time>2018-08-27T16:20:28Z</time>
      </trkpt>
      <trkpt lat="47.64503" lon="6.18059">
        <ele>233.85</ele>
        <time>2018-08-27T16:20:30Z</time>
      </trkpt>
      <trkpt lat="47.64506" lon="6.18066">
        <ele>233.84</ele>
        <time>2018-08-27T16:20:33Z</time>
      </trkpt>
      <trkpt lat="47.64505" lon="6.18075">
        <ele>233.84</ele>
        <time>2018-08-27T16:20:35Z</time>
      </trkpt>
      <trkpt lat="47.64503" lon="6.18085">
        <ele>233.79</ele>
        <time>2018-08-27T16:20:37Z</time>
      </trkpt>
      <trkpt lat="47.645" lon="6.18096">
        <ele>233.7</ele>
        <time>2018-08-27T16:20:39Z</time>
      </trkpt>
      <trkpt lat="47.64498" lon="6.18109">
        <ele>233.65</ele>
        <time>2018-08-27T16:20:41Z</time>
      </trkpt>
      <trkpt lat="47.64495" lon="6.18121">
        <ele>233.64</ele>
        <time>2018-08-27T16:20:43Z</time>
      </trkpt>
      <trkpt lat="47.64494" lon="6.18128">
        <ele>233.64</ele>
        <time>2018-08-27T16:20:44Z</time>
      </trkpt>
      <trkpt lat="47.64493" lon="6.18135">
        <ele>233.64</ele>
        <time>2018-08-27T16:20:45Z</time>
      </trkpt>
      <trkpt lat="47.64493" lon="6.18148">
        <ele>233.63</ele>
        <time>2018-08-27T16:20:47Z</time>
      </trkpt>
      <trkpt lat="47.64494" lon="6.18159">
        <ele>233.63</ele>
        <time>2018-08-27T16:20:49Z</time>
      </trkpt>
      <trkpt lat="47.64497" lon="6.18171">
        <ele>233.63</ele>
        <time>2018-08-27T16:20:51Z</time>
      </trkpt>
      <trkpt lat="47.64498" lon="6.18182">
        <ele>233.63</ele>
        <time>2018-08-27T16:20:53Z</time>
      </trkpt>
      <trkpt lat="47.64496" lon="6.18194">
        <ele>233.62</ele>
        <time>2018-08-27T16:20:55Z</time>
      </trkpt>
      <trkpt lat="47.64494" lon="6.18204">
        <ele>233.62</ele>
        <time>2018-08-27T16:20:57Z</time>
      </trkpt>
      <trkpt lat="47.64492" lon="6.18214">
        <ele>233.63</ele>
        <time>2018-08-27T16:20:59Z</time>
      </trkpt>
      <trkpt lat="47.6449" lon="6.18223">
        <ele>233.64</ele>
        <time>2018-08-27T16:21:01Z</time>
      </trkpt>
      <trkpt lat="47.64485" lon="6.18234">
        <ele>233.67</ele>
        <time>2018-08-27T16:21:03Z</time>
      </trkpt>
      <trkpt lat="47.64478" lon="6.18247">
        <ele>233.68</ele>
        <time>2018-08-27T16:21:04Z</time>
      </trkpt>
      <trkpt lat="47.64475" lon="6.18252">
        <ele>233.7</ele>
        <time>2018-08-27T16:21:05Z</time>
      </trkpt>
      <trkpt lat="47.6447" lon="6.18261">
        <ele>233.71</ele>
        <time>2018-08-27T16:21:07Z</time>
      </trkpt>
      <trkpt lat="47.64465" lon="6.18267">
        <ele>233.72</ele>
        <time>2018-08-27T16:21:09Z</time>
      </trkpt>
      <trkpt lat="47.64461" lon="6.18273">
        <ele>233.73</ele>
        <time>2018-08-27T16:21:12Z</time>
      </trkpt>
      <trkpt lat="47.64457" lon="6.18278">
        <ele>233.74</ele>
        <time>2018-08-27T16:21:14Z</time>
      </trkpt>
      <trkpt lat="47.64452" lon="6.18285">
        <ele>233.75</ele>
        <time>2018-08-27T16:21:16Z</time>
      </trkpt>
      <trkpt lat="47.64447" lon="6.18292">
        <ele>233.82</ele>
        <time>2018-08-27T16:21:18Z</time>
      </trkpt>
      <trkpt lat="47.64443" lon="6.183">
        <ele>233.83</ele>
        <time>2018-08-27T16:21:20Z</time>
      </trkpt>
      <trkpt lat="47.64442" lon="6.18308">
        <ele>233.85</ele>
        <time>2018-08-27T16:21:22Z</time>
      </trkpt>
      <trkpt lat="47.64442" lon="6.18317">
        <ele>233.87</ele>
        <time>2018-08-27T16:21:25Z</time>
      </trkpt>
      <trkpt lat="47.64439" lon="6.18322">
        <ele>233.88</ele>
        <time>2018-08-27T16:21:31Z</time>
      </trkpt>
    </trkseg>
  </trk>
</gpx>